<?xml version="1.0" encoding="UTF-8" standalone="no" ?>
<gpx xmlns="http://www.topografix.com/GPX/1/1" xmlns:xsi="http://www.w3.org/2001/XMLSchema-instance" xsi:schemaLocation="http://www.topografix.com/GPX/1/1 http://www.topografix.com/GPX/1/1/gpx.xsd" version="1.1" creator="VisuGPX - https://www.visugpx.com">
  <metadata>
    <name>Traversée du Vaucluse sur 5 j - Etape 4 - Sault -&gt; St-Saturnin-lès-Apt</name>
    <desc><![CDATA[Lundi 12 Octobre 2015 avec un A/R dans le Colorado provençal]]></desc>
  </metadata>
  <trk>
    <name><![CDATA[2015-10-12 18:57:44]]></name>
    <trkseg>
      <trkpt lat="44.09096" lon="5.40773">
        <ele>770.15</ele>
        <time>2015-10-12T06:51:33Z</time>
      </trkpt>
      <trkpt lat="44.09088" lon="5.40765">
        <ele>773.04</ele>
        <time>2015-10-12T06:51:54Z</time>
      </trkpt>
      <trkpt lat="44.09087" lon="5.40769">
        <ele>771.6</ele>
        <time>2015-10-12T06:52:24Z</time>
      </trkpt>
      <trkpt lat="44.0909" lon="5.40766">
        <ele>773.52</ele>
        <time>2015-10-12T06:52:45Z</time>
      </trkpt>
      <trkpt lat="44.09091" lon="5.40767">
        <ele>770.63</ele>
        <time>2015-10-12T06:53:10Z</time>
      </trkpt>
      <trkpt lat="44.09088" lon="5.40773">
        <ele>768.71</ele>
        <time>2015-10-12T06:53:38Z</time>
      </trkpt>
      <trkpt lat="44.09088" lon="5.40774">
        <ele>769.19</ele>
        <time>2015-10-12T06:54:02Z</time>
      </trkpt>
      <trkpt lat="44.09088" lon="5.4077">
        <ele>771.11</ele>
        <time>2015-10-12T06:54:25Z</time>
      </trkpt>
      <trkpt lat="44.09091" lon="5.40769">
        <ele>771.11</ele>
        <time>2015-10-12T06:54:54Z</time>
      </trkpt>
      <trkpt lat="44.09093" lon="5.4077">
        <ele>770.63</ele>
        <time>2015-10-12T06:55:26Z</time>
      </trkpt>
      <trkpt lat="44.09093" lon="5.40767">
        <ele>779.29</ele>
        <time>2015-10-12T06:56:02Z</time>
      </trkpt>
      <trkpt lat="44.09091" lon="5.4077">
        <ele>778.32</ele>
        <time>2015-10-12T06:56:30Z</time>
      </trkpt>
      <trkpt lat="44.09092" lon="5.40768">
        <ele>780.25</ele>
        <time>2015-10-12T06:56:59Z</time>
      </trkpt>
      <trkpt lat="44.09091" lon="5.40769">
        <ele>774</ele>
        <time>2015-10-12T06:57:25Z</time>
      </trkpt>
      <trkpt lat="44.09089" lon="5.40767">
        <ele>773.52</ele>
        <time>2015-10-12T06:57:57Z</time>
      </trkpt>
      <trkpt lat="44.0909" lon="5.40771">
        <ele>773.52</ele>
        <time>2015-10-12T06:58:14Z</time>
      </trkpt>
      <trkpt lat="44.09088" lon="5.40773">
        <ele>773.04</ele>
        <time>2015-10-12T06:58:41Z</time>
      </trkpt>
      <trkpt lat="44.09086" lon="5.40779">
        <ele>761.98</ele>
        <time>2015-10-12T06:59:24Z</time>
      </trkpt>
      <trkpt lat="44.09085" lon="5.40778">
        <ele>762.46</ele>
        <time>2015-10-12T06:59:50Z</time>
      </trkpt>
      <trkpt lat="44.09084" lon="5.40774">
        <ele>763.9</ele>
        <time>2015-10-12T07:00:27Z</time>
      </trkpt>
      <trkpt lat="44.09084" lon="5.40772">
        <ele>764.87</ele>
        <time>2015-10-12T07:00:36Z</time>
      </trkpt>
      <trkpt lat="44.09088" lon="5.40769">
        <ele>764.87</ele>
        <time>2015-10-12T07:00:39Z</time>
      </trkpt>
      <trkpt lat="44.09103" lon="5.40751">
        <ele>764.87</ele>
        <time>2015-10-12T07:00:46Z</time>
      </trkpt>
      <trkpt lat="44.09105" lon="5.40747">
        <ele>764.39</ele>
        <time>2015-10-12T07:00:47Z</time>
      </trkpt>
      <trkpt lat="44.09106" lon="5.40744">
        <ele>763.9</ele>
        <time>2015-10-12T07:00:48Z</time>
      </trkpt>
      <trkpt lat="44.09107" lon="5.40741">
        <ele>763.42</ele>
        <time>2015-10-12T07:00:49Z</time>
      </trkpt>
      <trkpt lat="44.09107" lon="5.40738">
        <ele>762.94</ele>
        <time>2015-10-12T07:00:50Z</time>
      </trkpt>
      <trkpt lat="44.09109" lon="5.40735">
        <ele>762.46</ele>
        <time>2015-10-12T07:00:51Z</time>
      </trkpt>
      <trkpt lat="44.09113" lon="5.40732">
        <ele>761.98</ele>
        <time>2015-10-12T07:00:52Z</time>
      </trkpt>
      <trkpt lat="44.09117" lon="5.40731">
        <ele>761.5</ele>
        <time>2015-10-12T07:00:53Z</time>
      </trkpt>
      <trkpt lat="44.09121" lon="5.40731">
        <ele>761.02</ele>
        <time>2015-10-12T07:00:54Z</time>
      </trkpt>
      <trkpt lat="44.09144" lon="5.40725">
        <ele>760.06</ele>
        <time>2015-10-12T07:00:58Z</time>
      </trkpt>
      <trkpt lat="44.09151" lon="5.40722">
        <ele>759.58</ele>
        <time>2015-10-12T07:00:59Z</time>
      </trkpt>
      <trkpt lat="44.09179" lon="5.40709">
        <ele>757.66</ele>
        <time>2015-10-12T07:01:03Z</time>
      </trkpt>
      <trkpt lat="44.09185" lon="5.40707">
        <ele>757.18</ele>
        <time>2015-10-12T07:01:04Z</time>
      </trkpt>
      <trkpt lat="44.09209" lon="5.40704">
        <ele>755.73</ele>
        <time>2015-10-12T07:01:08Z</time>
      </trkpt>
      <trkpt lat="44.09214" lon="5.40705">
        <ele>755.73</ele>
        <time>2015-10-12T07:01:09Z</time>
      </trkpt>
      <trkpt lat="44.09261" lon="5.40719">
        <ele>750.93</ele>
        <time>2015-10-12T07:01:16Z</time>
      </trkpt>
      <trkpt lat="44.09266" lon="5.40718">
        <ele>750.45</ele>
        <time>2015-10-12T07:01:17Z</time>
      </trkpt>
      <trkpt lat="44.09268" lon="5.40715">
        <ele>749.97</ele>
        <time>2015-10-12T07:01:18Z</time>
      </trkpt>
      <trkpt lat="44.09268" lon="5.40711">
        <ele>749.49</ele>
        <time>2015-10-12T07:01:19Z</time>
      </trkpt>
      <trkpt lat="44.09265" lon="5.40706">
        <ele>749</ele>
        <time>2015-10-12T07:01:20Z</time>
      </trkpt>
      <trkpt lat="44.09261" lon="5.40702">
        <ele>748.04</ele>
        <time>2015-10-12T07:01:21Z</time>
      </trkpt>
      <trkpt lat="44.09257" lon="5.40697">
        <ele>747.56</ele>
        <time>2015-10-12T07:01:22Z</time>
      </trkpt>
      <trkpt lat="44.09251" lon="5.40692">
        <ele>746.6</ele>
        <time>2015-10-12T07:01:23Z</time>
      </trkpt>
      <trkpt lat="44.09246" lon="5.40687">
        <ele>745.64</ele>
        <time>2015-10-12T07:01:24Z</time>
      </trkpt>
      <trkpt lat="44.09241" lon="5.40683">
        <ele>744.68</ele>
        <time>2015-10-12T07:01:25Z</time>
      </trkpt>
      <trkpt lat="44.09238" lon="5.4068">
        <ele>744.2</ele>
        <time>2015-10-12T07:01:26Z</time>
      </trkpt>
      <trkpt lat="44.09235" lon="5.40678">
        <ele>743.72</ele>
        <time>2015-10-12T07:01:27Z</time>
      </trkpt>
      <trkpt lat="44.09234" lon="5.40676">
        <ele>743.24</ele>
        <time>2015-10-12T07:01:28Z</time>
      </trkpt>
      <trkpt lat="44.09234" lon="5.40675">
        <ele>742.76</ele>
        <time>2015-10-12T07:01:29Z</time>
      </trkpt>
      <trkpt lat="44.09236" lon="5.40674">
        <ele>741.79</ele>
        <time>2015-10-12T07:01:30Z</time>
      </trkpt>
      <trkpt lat="44.09238" lon="5.40674">
        <ele>741.31</ele>
        <time>2015-10-12T07:01:31Z</time>
      </trkpt>
      <trkpt lat="44.0924" lon="5.40675">
        <ele>740.83</ele>
        <time>2015-10-12T07:01:32Z</time>
      </trkpt>
      <trkpt lat="44.09242" lon="5.40676">
        <ele>740.83</ele>
        <time>2015-10-12T07:01:33Z</time>
      </trkpt>
      <trkpt lat="44.09246" lon="5.40678">
        <ele>740.35</ele>
        <time>2015-10-12T07:01:34Z</time>
      </trkpt>
      <trkpt lat="44.09254" lon="5.40682">
        <ele>739.39</ele>
        <time>2015-10-12T07:01:36Z</time>
      </trkpt>
      <trkpt lat="44.0926" lon="5.40683">
        <ele>738.91</ele>
        <time>2015-10-12T07:01:37Z</time>
      </trkpt>
      <trkpt lat="44.09267" lon="5.40683">
        <ele>738.43</ele>
        <time>2015-10-12T07:01:38Z</time>
      </trkpt>
      <trkpt lat="44.0928" lon="5.40683">
        <ele>737.47</ele>
        <time>2015-10-12T07:01:40Z</time>
      </trkpt>
      <trkpt lat="44.09287" lon="5.40684">
        <ele>736.51</ele>
        <time>2015-10-12T07:01:41Z</time>
      </trkpt>
      <trkpt lat="44.09308" lon="5.40688">
        <ele>734.1</ele>
        <time>2015-10-12T07:01:44Z</time>
      </trkpt>
      <trkpt lat="44.09316" lon="5.40688">
        <ele>733.62</ele>
        <time>2015-10-12T07:01:45Z</time>
      </trkpt>
      <trkpt lat="44.09324" lon="5.40687">
        <ele>732.66</ele>
        <time>2015-10-12T07:01:46Z</time>
      </trkpt>
      <trkpt lat="44.09333" lon="5.40685">
        <ele>731.7</ele>
        <time>2015-10-12T07:01:47Z</time>
      </trkpt>
      <trkpt lat="44.09342" lon="5.40684">
        <ele>730.74</ele>
        <time>2015-10-12T07:01:48Z</time>
      </trkpt>
      <trkpt lat="44.09389" lon="5.40682">
        <ele>725.45</ele>
        <time>2015-10-12T07:01:55Z</time>
      </trkpt>
      <trkpt lat="44.09385" lon="5.4068">
        <ele>722.09</ele>
        <time>2015-10-12T07:02:05Z</time>
      </trkpt>
      <trkpt lat="44.09381" lon="5.40681">
        <ele>721.61</ele>
        <time>2015-10-12T07:02:09Z</time>
      </trkpt>
      <trkpt lat="44.09378" lon="5.40681">
        <ele>722.09</ele>
        <time>2015-10-12T07:02:12Z</time>
      </trkpt>
      <trkpt lat="44.09376" lon="5.40682">
        <ele>721.61</ele>
        <time>2015-10-12T07:02:28Z</time>
      </trkpt>
      <trkpt lat="44.09375" lon="5.40678">
        <ele>722.57</ele>
        <time>2015-10-12T07:02:42Z</time>
      </trkpt>
      <trkpt lat="44.09376" lon="5.40675">
        <ele>722.57</ele>
        <time>2015-10-12T07:02:43Z</time>
      </trkpt>
      <trkpt lat="44.09389" lon="5.40617">
        <ele>715.84</ele>
        <time>2015-10-12T07:02:56Z</time>
      </trkpt>
      <trkpt lat="44.09412" lon="5.40524">
        <ele>703.34</ele>
        <time>2015-10-12T07:03:11Z</time>
      </trkpt>
      <trkpt lat="44.09427" lon="5.40465">
        <ele>697.09</ele>
        <time>2015-10-12T07:03:21Z</time>
      </trkpt>
      <trkpt lat="44.09428" lon="5.40459">
        <ele>696.61</ele>
        <time>2015-10-12T07:03:22Z</time>
      </trkpt>
      <trkpt lat="44.0943" lon="5.40453">
        <ele>696.13</ele>
        <time>2015-10-12T07:03:23Z</time>
      </trkpt>
      <trkpt lat="44.09435" lon="5.40433">
        <ele>695.65</ele>
        <time>2015-10-12T07:03:26Z</time>
      </trkpt>
      <trkpt lat="44.09435" lon="5.40426">
        <ele>695.17</ele>
        <time>2015-10-12T07:03:27Z</time>
      </trkpt>
      <trkpt lat="44.09434" lon="5.40419">
        <ele>695.17</ele>
        <time>2015-10-12T07:03:28Z</time>
      </trkpt>
      <trkpt lat="44.09431" lon="5.40412">
        <ele>694.69</ele>
        <time>2015-10-12T07:03:29Z</time>
      </trkpt>
      <trkpt lat="44.09428" lon="5.40407">
        <ele>694.69</ele>
        <time>2015-10-12T07:03:30Z</time>
      </trkpt>
      <trkpt lat="44.09424" lon="5.40402">
        <ele>694.69</ele>
        <time>2015-10-12T07:03:31Z</time>
      </trkpt>
      <trkpt lat="44.09419" lon="5.40397">
        <ele>694.21</ele>
        <time>2015-10-12T07:03:32Z</time>
      </trkpt>
      <trkpt lat="44.09386" lon="5.40361">
        <ele>693.73</ele>
        <time>2015-10-12T07:03:41Z</time>
      </trkpt>
      <trkpt lat="44.09345" lon="5.40294">
        <ele>693.73</ele>
        <time>2015-10-12T07:03:57Z</time>
      </trkpt>
      <trkpt lat="44.09328" lon="5.40202">
        <ele>694.69</ele>
        <time>2015-10-12T07:04:14Z</time>
      </trkpt>
      <trkpt lat="44.09335" lon="5.40116">
        <ele>693.25</ele>
        <time>2015-10-12T07:04:30Z</time>
      </trkpt>
      <trkpt lat="44.09327" lon="5.40029">
        <ele>692.29</ele>
        <time>2015-10-12T07:04:47Z</time>
      </trkpt>
      <trkpt lat="44.093" lon="5.40003">
        <ele>692.77</ele>
        <time>2015-10-12T07:04:57Z</time>
      </trkpt>
      <trkpt lat="44.09296" lon="5.39999">
        <ele>692.77</ele>
        <time>2015-10-12T07:05:00Z</time>
      </trkpt>
      <trkpt lat="44.09296" lon="5.39996">
        <ele>692.77</ele>
        <time>2015-10-12T07:05:01Z</time>
      </trkpt>
      <trkpt lat="44.09297" lon="5.39994">
        <ele>693.25</ele>
        <time>2015-10-12T07:05:02Z</time>
      </trkpt>
      <trkpt lat="44.09306" lon="5.3997">
        <ele>692.29</ele>
        <time>2015-10-12T07:05:07Z</time>
      </trkpt>
      <trkpt lat="44.09308" lon="5.39964">
        <ele>692.29</ele>
        <time>2015-10-12T07:05:08Z</time>
      </trkpt>
      <trkpt lat="44.09308" lon="5.39958">
        <ele>692.29</ele>
        <time>2015-10-12T07:05:09Z</time>
      </trkpt>
      <trkpt lat="44.09308" lon="5.39863">
        <ele>688.92</ele>
        <time>2015-10-12T07:05:24Z</time>
      </trkpt>
      <trkpt lat="44.09306" lon="5.39846">
        <ele>688.44</ele>
        <time>2015-10-12T07:05:27Z</time>
      </trkpt>
      <trkpt lat="44.09304" lon="5.39841">
        <ele>688.44</ele>
        <time>2015-10-12T07:05:28Z</time>
      </trkpt>
      <trkpt lat="44.09301" lon="5.39836">
        <ele>688.92</ele>
        <time>2015-10-12T07:05:29Z</time>
      </trkpt>
      <trkpt lat="44.09287" lon="5.39813">
        <ele>689.4</ele>
        <time>2015-10-12T07:05:34Z</time>
      </trkpt>
      <trkpt lat="44.09281" lon="5.39799">
        <ele>690.84</ele>
        <time>2015-10-12T07:05:37Z</time>
      </trkpt>
      <trkpt lat="44.0928" lon="5.39793">
        <ele>691.33</ele>
        <time>2015-10-12T07:05:38Z</time>
      </trkpt>
      <trkpt lat="44.09272" lon="5.39753">
        <ele>691.33</ele>
        <time>2015-10-12T07:05:45Z</time>
      </trkpt>
      <trkpt lat="44.09269" lon="5.39753">
        <ele>691.33</ele>
        <time>2015-10-12T07:05:46Z</time>
      </trkpt>
      <trkpt lat="44.09266" lon="5.39753">
        <ele>691.33</ele>
        <time>2015-10-12T07:05:47Z</time>
      </trkpt>
      <trkpt lat="44.09263" lon="5.39754">
        <ele>690.84</ele>
        <time>2015-10-12T07:05:48Z</time>
      </trkpt>
      <trkpt lat="44.09261" lon="5.39755">
        <ele>690.84</ele>
        <time>2015-10-12T07:05:49Z</time>
      </trkpt>
      <trkpt lat="44.09258" lon="5.39757">
        <ele>690.84</ele>
        <time>2015-10-12T07:05:50Z</time>
      </trkpt>
      <trkpt lat="44.09224" lon="5.39777">
        <ele>689.4</ele>
        <time>2015-10-12T07:06:03Z</time>
      </trkpt>
      <trkpt lat="44.09176" lon="5.39787">
        <ele>689.88</ele>
        <time>2015-10-12T07:06:21Z</time>
      </trkpt>
      <trkpt lat="44.09135" lon="5.39787">
        <ele>691.33</ele>
        <time>2015-10-12T07:06:36Z</time>
      </trkpt>
      <trkpt lat="44.09127" lon="5.3979">
        <ele>691.33</ele>
        <time>2015-10-12T07:06:39Z</time>
      </trkpt>
      <trkpt lat="44.09125" lon="5.39789">
        <ele>691.81</ele>
        <time>2015-10-12T07:06:40Z</time>
      </trkpt>
      <trkpt lat="44.09123" lon="5.39785">
        <ele>691.81</ele>
        <time>2015-10-12T07:06:41Z</time>
      </trkpt>
      <trkpt lat="44.09123" lon="5.39783">
        <ele>691.81</ele>
        <time>2015-10-12T07:06:42Z</time>
      </trkpt>
      <trkpt lat="44.09123" lon="5.39779">
        <ele>692.29</ele>
        <time>2015-10-12T07:06:43Z</time>
      </trkpt>
      <trkpt lat="44.09122" lon="5.39715">
        <ele>691.81</ele>
        <time>2015-10-12T07:06:59Z</time>
      </trkpt>
      <trkpt lat="44.09105" lon="5.3966">
        <ele>691.33</ele>
        <time>2015-10-12T07:07:13Z</time>
      </trkpt>
      <trkpt lat="44.09057" lon="5.39602">
        <ele>690.36</ele>
        <time>2015-10-12T07:07:32Z</time>
      </trkpt>
      <trkpt lat="44.09021" lon="5.39523">
        <ele>689.4</ele>
        <time>2015-10-12T07:07:50Z</time>
      </trkpt>
      <trkpt lat="44.08989" lon="5.39441">
        <ele>688.92</ele>
        <time>2015-10-12T07:08:08Z</time>
      </trkpt>
      <trkpt lat="44.08952" lon="5.39334">
        <ele>687</ele>
        <time>2015-10-12T07:08:30Z</time>
      </trkpt>
      <trkpt lat="44.08941" lon="5.39312">
        <ele>687</ele>
        <time>2015-10-12T07:08:35Z</time>
      </trkpt>
      <trkpt lat="44.08881" lon="5.39246">
        <ele>684.6</ele>
        <time>2015-10-12T07:08:54Z</time>
      </trkpt>
      <trkpt lat="44.08826" lon="5.39172">
        <ele>684.6</ele>
        <time>2015-10-12T07:09:14Z</time>
      </trkpt>
      <trkpt lat="44.08793" lon="5.39123">
        <ele>685.08</ele>
        <time>2015-10-12T07:09:26Z</time>
      </trkpt>
      <trkpt lat="44.08791" lon="5.39118">
        <ele>685.08</ele>
        <time>2015-10-12T07:09:27Z</time>
      </trkpt>
      <trkpt lat="44.0879" lon="5.39112">
        <ele>684.6</ele>
        <time>2015-10-12T07:09:28Z</time>
      </trkpt>
      <trkpt lat="44.0879" lon="5.39106">
        <ele>684.6</ele>
        <time>2015-10-12T07:09:29Z</time>
      </trkpt>
      <trkpt lat="44.08791" lon="5.391">
        <ele>684.12</ele>
        <time>2015-10-12T07:09:30Z</time>
      </trkpt>
      <trkpt lat="44.08793" lon="5.39094">
        <ele>684.12</ele>
        <time>2015-10-12T07:09:31Z</time>
      </trkpt>
      <trkpt lat="44.08808" lon="5.39028">
        <ele>682.67</ele>
        <time>2015-10-12T07:09:43Z</time>
      </trkpt>
      <trkpt lat="44.08807" lon="5.39023">
        <ele>682.67</ele>
        <time>2015-10-12T07:09:44Z</time>
      </trkpt>
      <trkpt lat="44.08805" lon="5.3902">
        <ele>682.67</ele>
        <time>2015-10-12T07:09:45Z</time>
      </trkpt>
      <trkpt lat="44.08802" lon="5.39017">
        <ele>682.67</ele>
        <time>2015-10-12T07:09:46Z</time>
      </trkpt>
      <trkpt lat="44.08799" lon="5.39015">
        <ele>682.67</ele>
        <time>2015-10-12T07:09:47Z</time>
      </trkpt>
      <trkpt lat="44.08733" lon="5.38972">
        <ele>682.19</ele>
        <time>2015-10-12T07:10:05Z</time>
      </trkpt>
      <trkpt lat="44.08664" lon="5.38936">
        <ele>682.19</ele>
        <time>2015-10-12T07:10:24Z</time>
      </trkpt>
      <trkpt lat="44.08601" lon="5.38912">
        <ele>681.23</ele>
        <time>2015-10-12T07:10:39Z</time>
      </trkpt>
      <trkpt lat="44.08563" lon="5.38893">
        <ele>680.75</ele>
        <time>2015-10-12T07:10:46Z</time>
      </trkpt>
      <trkpt lat="44.08497" lon="5.3884">
        <ele>678.83</ele>
        <time>2015-10-12T07:11:02Z</time>
      </trkpt>
      <trkpt lat="44.08486" lon="5.38832">
        <ele>678.83</ele>
        <time>2015-10-12T07:11:05Z</time>
      </trkpt>
      <trkpt lat="44.08423" lon="5.38769">
        <ele>681.23</ele>
        <time>2015-10-12T07:11:25Z</time>
      </trkpt>
      <trkpt lat="44.08386" lon="5.38715">
        <ele>681.23</ele>
        <time>2015-10-12T07:11:39Z</time>
      </trkpt>
      <trkpt lat="44.08374" lon="5.38699">
        <ele>680.75</ele>
        <time>2015-10-12T07:11:43Z</time>
      </trkpt>
      <trkpt lat="44.08323" lon="5.38633">
        <ele>678.35</ele>
        <time>2015-10-12T07:12:00Z</time>
      </trkpt>
      <trkpt lat="44.08256" lon="5.38567">
        <ele>675.46</ele>
        <time>2015-10-12T07:12:18Z</time>
      </trkpt>
      <trkpt lat="44.08186" lon="5.38502">
        <ele>673.54</ele>
        <time>2015-10-12T07:12:36Z</time>
      </trkpt>
      <trkpt lat="44.08127" lon="5.38439">
        <ele>671.14</ele>
        <time>2015-10-12T07:12:51Z</time>
      </trkpt>
      <trkpt lat="44.08099" lon="5.3842">
        <ele>669.7</ele>
        <time>2015-10-12T07:12:57Z</time>
      </trkpt>
      <trkpt lat="44.08094" lon="5.38417">
        <ele>669.22</ele>
        <time>2015-10-12T07:12:58Z</time>
      </trkpt>
      <trkpt lat="44.08052" lon="5.38389">
        <ele>667.29</ele>
        <time>2015-10-12T07:13:06Z</time>
      </trkpt>
      <trkpt lat="44.08048" lon="5.38385">
        <ele>667.29</ele>
        <time>2015-10-12T07:13:07Z</time>
      </trkpt>
      <trkpt lat="44.08044" lon="5.3838">
        <ele>667.29</ele>
        <time>2015-10-12T07:13:08Z</time>
      </trkpt>
      <trkpt lat="44.08041" lon="5.38374">
        <ele>667.29</ele>
        <time>2015-10-12T07:13:09Z</time>
      </trkpt>
      <trkpt lat="44.08037" lon="5.38367">
        <ele>666.81</ele>
        <time>2015-10-12T07:13:10Z</time>
      </trkpt>
      <trkpt lat="44.08034" lon="5.38361">
        <ele>666.81</ele>
        <time>2015-10-12T07:13:11Z</time>
      </trkpt>
      <trkpt lat="44.08008" lon="5.383">
        <ele>667.29</ele>
        <time>2015-10-12T07:13:21Z</time>
      </trkpt>
      <trkpt lat="44.08005" lon="5.38294">
        <ele>667.29</ele>
        <time>2015-10-12T07:13:22Z</time>
      </trkpt>
      <trkpt lat="44.08002" lon="5.38289">
        <ele>667.29</ele>
        <time>2015-10-12T07:13:23Z</time>
      </trkpt>
      <trkpt lat="44.07935" lon="5.38198">
        <ele>664.89</ele>
        <time>2015-10-12T07:13:42Z</time>
      </trkpt>
      <trkpt lat="44.07852" lon="5.38106">
        <ele>660.56</ele>
        <time>2015-10-12T07:14:01Z</time>
      </trkpt>
      <trkpt lat="44.07846" lon="5.38104">
        <ele>660.08</ele>
        <time>2015-10-12T07:14:02Z</time>
      </trkpt>
      <trkpt lat="44.07841" lon="5.38104">
        <ele>659.6</ele>
        <time>2015-10-12T07:14:03Z</time>
      </trkpt>
      <trkpt lat="44.07835" lon="5.38105">
        <ele>659.6</ele>
        <time>2015-10-12T07:14:04Z</time>
      </trkpt>
      <trkpt lat="44.07829" lon="5.38108">
        <ele>659.12</ele>
        <time>2015-10-12T07:14:05Z</time>
      </trkpt>
      <trkpt lat="44.07825" lon="5.38113">
        <ele>659.12</ele>
        <time>2015-10-12T07:14:06Z</time>
      </trkpt>
      <trkpt lat="44.07821" lon="5.38118">
        <ele>659.12</ele>
        <time>2015-10-12T07:14:07Z</time>
      </trkpt>
      <trkpt lat="44.07806" lon="5.38138">
        <ele>658.16</ele>
        <time>2015-10-12T07:14:11Z</time>
      </trkpt>
      <trkpt lat="44.07802" lon="5.38141">
        <ele>658.16</ele>
        <time>2015-10-12T07:14:12Z</time>
      </trkpt>
      <trkpt lat="44.07797" lon="5.38143">
        <ele>658.16</ele>
        <time>2015-10-12T07:14:13Z</time>
      </trkpt>
      <trkpt lat="44.07792" lon="5.38144">
        <ele>657.68</ele>
        <time>2015-10-12T07:14:14Z</time>
      </trkpt>
      <trkpt lat="44.07787" lon="5.38144">
        <ele>658.16</ele>
        <time>2015-10-12T07:14:15Z</time>
      </trkpt>
      <trkpt lat="44.07783" lon="5.38143">
        <ele>658.16</ele>
        <time>2015-10-12T07:14:16Z</time>
      </trkpt>
      <trkpt lat="44.0773" lon="5.3814">
        <ele>660.56</ele>
        <time>2015-10-12T07:14:32Z</time>
      </trkpt>
      <trkpt lat="44.07685" lon="5.38119">
        <ele>661.04</ele>
        <time>2015-10-12T07:14:46Z</time>
      </trkpt>
      <trkpt lat="44.07643" lon="5.38048">
        <ele>660.56</ele>
        <time>2015-10-12T07:15:02Z</time>
      </trkpt>
      <trkpt lat="44.076" lon="5.37951">
        <ele>658.64</ele>
        <time>2015-10-12T07:15:19Z</time>
      </trkpt>
      <trkpt lat="44.07588" lon="5.37919">
        <ele>658.16</ele>
        <time>2015-10-12T07:15:24Z</time>
      </trkpt>
      <trkpt lat="44.07586" lon="5.37911">
        <ele>658.16</ele>
        <time>2015-10-12T07:15:25Z</time>
      </trkpt>
      <trkpt lat="44.07552" lon="5.3779">
        <ele>655.28</ele>
        <time>2015-10-12T07:15:38Z</time>
      </trkpt>
      <trkpt lat="44.07532" lon="5.37646">
        <ele>652.87</ele>
        <time>2015-10-12T07:15:53Z</time>
      </trkpt>
      <trkpt lat="44.075" lon="5.37545">
        <ele>651.43</ele>
        <time>2015-10-12T07:16:07Z</time>
      </trkpt>
      <trkpt lat="44.07444" lon="5.37403">
        <ele>650.47</ele>
        <time>2015-10-12T07:16:28Z</time>
      </trkpt>
      <trkpt lat="44.07394" lon="5.37283">
        <ele>648.55</ele>
        <time>2015-10-12T07:16:45Z</time>
      </trkpt>
      <trkpt lat="44.07337" lon="5.37178">
        <ele>647.1</ele>
        <time>2015-10-12T07:17:02Z</time>
      </trkpt>
      <trkpt lat="44.0732" lon="5.37153">
        <ele>646.62</ele>
        <time>2015-10-12T07:17:07Z</time>
      </trkpt>
      <trkpt lat="44.07316" lon="5.37152">
        <ele>646.62</ele>
        <time>2015-10-12T07:17:08Z</time>
      </trkpt>
      <trkpt lat="44.07311" lon="5.37153">
        <ele>646.14</ele>
        <time>2015-10-12T07:17:09Z</time>
      </trkpt>
      <trkpt lat="44.07307" lon="5.37155">
        <ele>646.14</ele>
        <time>2015-10-12T07:17:10Z</time>
      </trkpt>
      <trkpt lat="44.07302" lon="5.37158">
        <ele>646.14</ele>
        <time>2015-10-12T07:17:11Z</time>
      </trkpt>
      <trkpt lat="44.07298" lon="5.37161">
        <ele>646.14</ele>
        <time>2015-10-12T07:17:12Z</time>
      </trkpt>
      <trkpt lat="44.07222" lon="5.37207">
        <ele>643.74</ele>
        <time>2015-10-12T07:17:30Z</time>
      </trkpt>
      <trkpt lat="44.07205" lon="5.37209">
        <ele>642.78</ele>
        <time>2015-10-12T07:17:33Z</time>
      </trkpt>
      <trkpt lat="44.07199" lon="5.37208">
        <ele>642.78</ele>
        <time>2015-10-12T07:17:34Z</time>
      </trkpt>
      <trkpt lat="44.07172" lon="5.37202">
        <ele>642.3</ele>
        <time>2015-10-12T07:17:39Z</time>
      </trkpt>
      <trkpt lat="44.07167" lon="5.37203">
        <ele>642.3</ele>
        <time>2015-10-12T07:17:40Z</time>
      </trkpt>
      <trkpt lat="44.07163" lon="5.37206">
        <ele>642.3</ele>
        <time>2015-10-12T07:17:41Z</time>
      </trkpt>
      <trkpt lat="44.071" lon="5.3725">
        <ele>644.7</ele>
        <time>2015-10-12T07:17:58Z</time>
      </trkpt>
      <trkpt lat="44.07058" lon="5.3728">
        <ele>645.66</ele>
        <time>2015-10-12T07:18:15Z</time>
      </trkpt>
      <trkpt lat="44.07031" lon="5.37296">
        <ele>648.55</ele>
        <time>2015-10-12T07:18:28Z</time>
      </trkpt>
      <trkpt lat="44.0703" lon="5.37295">
        <ele>648.55</ele>
        <time>2015-10-12T07:18:29Z</time>
      </trkpt>
      <trkpt lat="44.07029" lon="5.37293">
        <ele>648.55</ele>
        <time>2015-10-12T07:18:30Z</time>
      </trkpt>
      <trkpt lat="44.07029" lon="5.37291">
        <ele>648.55</ele>
        <time>2015-10-12T07:18:31Z</time>
      </trkpt>
      <trkpt lat="44.0703" lon="5.37288">
        <ele>649.03</ele>
        <time>2015-10-12T07:18:32Z</time>
      </trkpt>
      <trkpt lat="44.07032" lon="5.37286">
        <ele>649.03</ele>
        <time>2015-10-12T07:18:33Z</time>
      </trkpt>
      <trkpt lat="44.07033" lon="5.37282">
        <ele>649.03</ele>
        <time>2015-10-12T07:18:34Z</time>
      </trkpt>
      <trkpt lat="44.07033" lon="5.37279">
        <ele>649.03</ele>
        <time>2015-10-12T07:18:35Z</time>
      </trkpt>
      <trkpt lat="44.07039" lon="5.37209">
        <ele>646.14</ele>
        <time>2015-10-12T07:18:48Z</time>
      </trkpt>
      <trkpt lat="44.07044" lon="5.37088">
        <ele>643.26</ele>
        <time>2015-10-12T07:19:04Z</time>
      </trkpt>
      <trkpt lat="44.07045" lon="5.37055">
        <ele>642.3</ele>
        <time>2015-10-12T07:19:08Z</time>
      </trkpt>
      <trkpt lat="44.07044" lon="5.37047">
        <ele>642.3</ele>
        <time>2015-10-12T07:19:09Z</time>
      </trkpt>
      <trkpt lat="44.07031" lon="5.36982">
        <ele>641.34</ele>
        <time>2015-10-12T07:19:18Z</time>
      </trkpt>
      <trkpt lat="44.07025" lon="5.3692">
        <ele>640.38</ele>
        <time>2015-10-12T07:19:28Z</time>
      </trkpt>
      <trkpt lat="44.07025" lon="5.36914">
        <ele>640.38</ele>
        <time>2015-10-12T07:19:29Z</time>
      </trkpt>
      <trkpt lat="44.07029" lon="5.36818">
        <ele>638.93</ele>
        <time>2015-10-12T07:19:44Z</time>
      </trkpt>
      <trkpt lat="44.07029" lon="5.36811">
        <ele>638.93</ele>
        <time>2015-10-12T07:19:45Z</time>
      </trkpt>
      <trkpt lat="44.07032" lon="5.36708">
        <ele>638.45</ele>
        <time>2015-10-12T07:20:02Z</time>
      </trkpt>
      <trkpt lat="44.0703" lon="5.36657">
        <ele>637.97</ele>
        <time>2015-10-12T07:20:10Z</time>
      </trkpt>
      <trkpt lat="44.0703" lon="5.36651">
        <ele>638.45</ele>
        <time>2015-10-12T07:20:11Z</time>
      </trkpt>
      <trkpt lat="44.07031" lon="5.36637">
        <ele>638.45</ele>
        <time>2015-10-12T07:20:13Z</time>
      </trkpt>
      <trkpt lat="44.07033" lon="5.36631">
        <ele>638.45</ele>
        <time>2015-10-12T07:20:14Z</time>
      </trkpt>
      <trkpt lat="44.07058" lon="5.36561">
        <ele>637.01</ele>
        <time>2015-10-12T07:20:29Z</time>
      </trkpt>
      <trkpt lat="44.0707" lon="5.3653">
        <ele>636.05</ele>
        <time>2015-10-12T07:20:35Z</time>
      </trkpt>
      <trkpt lat="44.07074" lon="5.36519">
        <ele>636.05</ele>
        <time>2015-10-12T07:20:37Z</time>
      </trkpt>
      <trkpt lat="44.07076" lon="5.36514">
        <ele>636.05</ele>
        <time>2015-10-12T07:20:38Z</time>
      </trkpt>
      <trkpt lat="44.07078" lon="5.36509">
        <ele>636.05</ele>
        <time>2015-10-12T07:20:39Z</time>
      </trkpt>
      <trkpt lat="44.07104" lon="5.36445">
        <ele>639.89</ele>
        <time>2015-10-12T07:20:54Z</time>
      </trkpt>
      <trkpt lat="44.07114" lon="5.36419">
        <ele>642.78</ele>
        <time>2015-10-12T07:21:05Z</time>
      </trkpt>
      <trkpt lat="44.0711" lon="5.36377">
        <ele>645.66</ele>
        <time>2015-10-12T07:21:24Z</time>
      </trkpt>
      <trkpt lat="44.07095" lon="5.36334">
        <ele>646.62</ele>
        <time>2015-10-12T07:21:44Z</time>
      </trkpt>
      <trkpt lat="44.07081" lon="5.36295">
        <ele>649.51</ele>
        <time>2015-10-12T07:22:03Z</time>
      </trkpt>
      <trkpt lat="44.07065" lon="5.36251">
        <ele>651.91</ele>
        <time>2015-10-12T07:22:23Z</time>
      </trkpt>
      <trkpt lat="44.07048" lon="5.36219">
        <ele>655.76</ele>
        <time>2015-10-12T07:22:40Z</time>
      </trkpt>
      <trkpt lat="44.07016" lon="5.36181">
        <ele>656.24</ele>
        <time>2015-10-12T07:23:04Z</time>
      </trkpt>
      <trkpt lat="44.06987" lon="5.36149">
        <ele>656.72</ele>
        <time>2015-10-12T07:23:23Z</time>
      </trkpt>
      <trkpt lat="44.06952" lon="5.36112">
        <ele>658.16</ele>
        <time>2015-10-12T07:23:47Z</time>
      </trkpt>
      <trkpt lat="44.06924" lon="5.36082">
        <ele>659.6</ele>
        <time>2015-10-12T07:24:06Z</time>
      </trkpt>
      <trkpt lat="44.06891" lon="5.36048">
        <ele>660.56</ele>
        <time>2015-10-12T07:24:26Z</time>
      </trkpt>
      <trkpt lat="44.06868" lon="5.36014">
        <ele>662.97</ele>
        <time>2015-10-12T07:24:44Z</time>
      </trkpt>
      <trkpt lat="44.06866" lon="5.36008">
        <ele>663.45</ele>
        <time>2015-10-12T07:24:47Z</time>
      </trkpt>
      <trkpt lat="44.06865" lon="5.36006">
        <ele>663.45</ele>
        <time>2015-10-12T07:24:48Z</time>
      </trkpt>
      <trkpt lat="44.06864" lon="5.36005">
        <ele>663.93</ele>
        <time>2015-10-12T07:24:49Z</time>
      </trkpt>
      <trkpt lat="44.06863" lon="5.36004">
        <ele>663.93</ele>
        <time>2015-10-12T07:24:50Z</time>
      </trkpt>
      <trkpt lat="44.06862" lon="5.36002">
        <ele>663.93</ele>
        <time>2015-10-12T07:24:51Z</time>
      </trkpt>
      <trkpt lat="44.06861" lon="5.36">
        <ele>664.41</ele>
        <time>2015-10-12T07:24:52Z</time>
      </trkpt>
      <trkpt lat="44.0686" lon="5.35999">
        <ele>664.41</ele>
        <time>2015-10-12T07:24:53Z</time>
      </trkpt>
      <trkpt lat="44.06859" lon="5.35998">
        <ele>664.41</ele>
        <time>2015-10-12T07:24:54Z</time>
      </trkpt>
      <trkpt lat="44.06845" lon="5.35975">
        <ele>667.77</ele>
        <time>2015-10-12T07:25:11Z</time>
      </trkpt>
      <trkpt lat="44.06827" lon="5.35954">
        <ele>668.73</ele>
        <time>2015-10-12T07:25:29Z</time>
      </trkpt>
      <trkpt lat="44.06824" lon="5.35952">
        <ele>669.22</ele>
        <time>2015-10-12T07:25:31Z</time>
      </trkpt>
      <trkpt lat="44.06823" lon="5.35952">
        <ele>669.22</ele>
        <time>2015-10-12T07:25:32Z</time>
      </trkpt>
      <trkpt lat="44.06822" lon="5.35951">
        <ele>669.7</ele>
        <time>2015-10-12T07:25:33Z</time>
      </trkpt>
      <trkpt lat="44.06821" lon="5.3595">
        <ele>670.18</ele>
        <time>2015-10-12T07:25:34Z</time>
      </trkpt>
      <trkpt lat="44.0682" lon="5.35949">
        <ele>670.66</ele>
        <time>2015-10-12T07:25:35Z</time>
      </trkpt>
      <trkpt lat="44.06819" lon="5.35949">
        <ele>670.66</ele>
        <time>2015-10-12T07:25:36Z</time>
      </trkpt>
      <trkpt lat="44.06818" lon="5.35948">
        <ele>671.14</ele>
        <time>2015-10-12T07:25:37Z</time>
      </trkpt>
      <trkpt lat="44.0681" lon="5.35941">
        <ele>672.1</ele>
        <time>2015-10-12T07:25:44Z</time>
      </trkpt>
      <trkpt lat="44.06807" lon="5.35936">
        <ele>672.1</ele>
        <time>2015-10-12T07:25:59Z</time>
      </trkpt>
      <trkpt lat="44.06807" lon="5.35931">
        <ele>674.02</ele>
        <time>2015-10-12T07:26:33Z</time>
      </trkpt>
      <trkpt lat="44.06808" lon="5.35933">
        <ele>674.5</ele>
        <time>2015-10-12T07:26:58Z</time>
      </trkpt>
      <trkpt lat="44.06801" lon="5.3593">
        <ele>672.58</ele>
        <time>2015-10-12T07:27:04Z</time>
      </trkpt>
      <trkpt lat="44.06799" lon="5.35931">
        <ele>672.58</ele>
        <time>2015-10-12T07:27:05Z</time>
      </trkpt>
      <trkpt lat="44.06797" lon="5.35932">
        <ele>672.58</ele>
        <time>2015-10-12T07:27:06Z</time>
      </trkpt>
      <trkpt lat="44.06796" lon="5.35935">
        <ele>673.06</ele>
        <time>2015-10-12T07:27:07Z</time>
      </trkpt>
      <trkpt lat="44.06794" lon="5.35937">
        <ele>673.06</ele>
        <time>2015-10-12T07:27:08Z</time>
      </trkpt>
      <trkpt lat="44.06792" lon="5.35937">
        <ele>672.58</ele>
        <time>2015-10-12T07:27:09Z</time>
      </trkpt>
      <trkpt lat="44.0679" lon="5.35935">
        <ele>672.58</ele>
        <time>2015-10-12T07:27:10Z</time>
      </trkpt>
      <trkpt lat="44.06765" lon="5.35908">
        <ele>671.62</ele>
        <time>2015-10-12T07:27:20Z</time>
      </trkpt>
      <trkpt lat="44.06755" lon="5.35903">
        <ele>671.14</ele>
        <time>2015-10-12T07:27:33Z</time>
      </trkpt>
      <trkpt lat="44.06757" lon="5.35906">
        <ele>671.14</ele>
        <time>2015-10-12T07:27:41Z</time>
      </trkpt>
      <trkpt lat="44.06759" lon="5.35906">
        <ele>671.62</ele>
        <time>2015-10-12T07:27:43Z</time>
      </trkpt>
      <trkpt lat="44.0676" lon="5.35906">
        <ele>671.62</ele>
        <time>2015-10-12T07:27:44Z</time>
      </trkpt>
      <trkpt lat="44.06762" lon="5.35907">
        <ele>671.62</ele>
        <time>2015-10-12T07:27:45Z</time>
      </trkpt>
      <trkpt lat="44.06763" lon="5.35908">
        <ele>671.62</ele>
        <time>2015-10-12T07:27:46Z</time>
      </trkpt>
      <trkpt lat="44.06765" lon="5.35908">
        <ele>671.62</ele>
        <time>2015-10-12T07:27:47Z</time>
      </trkpt>
      <trkpt lat="44.06767" lon="5.3591">
        <ele>671.62</ele>
        <time>2015-10-12T07:27:48Z</time>
      </trkpt>
      <trkpt lat="44.06768" lon="5.35911">
        <ele>671.62</ele>
        <time>2015-10-12T07:27:49Z</time>
      </trkpt>
      <trkpt lat="44.06771" lon="5.35913">
        <ele>671.14</ele>
        <time>2015-10-12T07:28:01Z</time>
      </trkpt>
      <trkpt lat="44.06771" lon="5.35915">
        <ele>668.25</ele>
        <time>2015-10-12T07:28:21Z</time>
      </trkpt>
      <trkpt lat="44.06769" lon="5.35914">
        <ele>668.25</ele>
        <time>2015-10-12T07:28:52Z</time>
      </trkpt>
      <trkpt lat="44.06769" lon="5.35915">
        <ele>668.73</ele>
        <time>2015-10-12T07:29:20Z</time>
      </trkpt>
      <trkpt lat="44.06769" lon="5.35917">
        <ele>669.22</ele>
        <time>2015-10-12T07:29:36Z</time>
      </trkpt>
      <trkpt lat="44.06767" lon="5.35915">
        <ele>666.81</ele>
        <time>2015-10-12T07:29:55Z</time>
      </trkpt>
      <trkpt lat="44.0675" lon="5.35894">
        <ele>666.33</ele>
        <time>2015-10-12T07:30:10Z</time>
      </trkpt>
      <trkpt lat="44.06744" lon="5.35889">
        <ele>666.81</ele>
        <time>2015-10-12T07:30:13Z</time>
      </trkpt>
      <trkpt lat="44.06742" lon="5.35889">
        <ele>666.81</ele>
        <time>2015-10-12T07:30:14Z</time>
      </trkpt>
      <trkpt lat="44.06739" lon="5.35888">
        <ele>666.81</ele>
        <time>2015-10-12T07:30:15Z</time>
      </trkpt>
      <trkpt lat="44.06703" lon="5.35881">
        <ele>665.37</ele>
        <time>2015-10-12T07:30:26Z</time>
      </trkpt>
      <trkpt lat="44.06678" lon="5.35865">
        <ele>663.93</ele>
        <time>2015-10-12T07:30:35Z</time>
      </trkpt>
      <trkpt lat="44.06674" lon="5.35864">
        <ele>665.37</ele>
        <time>2015-10-12T07:30:56Z</time>
      </trkpt>
      <trkpt lat="44.06671" lon="5.35859">
        <ele>666.33</ele>
        <time>2015-10-12T07:31:06Z</time>
      </trkpt>
      <trkpt lat="44.0667" lon="5.35857">
        <ele>666.33</ele>
        <time>2015-10-12T07:31:07Z</time>
      </trkpt>
      <trkpt lat="44.06669" lon="5.35856">
        <ele>666.33</ele>
        <time>2015-10-12T07:31:08Z</time>
      </trkpt>
      <trkpt lat="44.06667" lon="5.35855">
        <ele>665.85</ele>
        <time>2015-10-12T07:31:09Z</time>
      </trkpt>
      <trkpt lat="44.06666" lon="5.35854">
        <ele>665.85</ele>
        <time>2015-10-12T07:31:10Z</time>
      </trkpt>
      <trkpt lat="44.06664" lon="5.35853">
        <ele>665.85</ele>
        <time>2015-10-12T07:31:11Z</time>
      </trkpt>
      <trkpt lat="44.06643" lon="5.35831">
        <ele>666.33</ele>
        <time>2015-10-12T07:31:25Z</time>
      </trkpt>
      <trkpt lat="44.06622" lon="5.35798">
        <ele>663.93</ele>
        <time>2015-10-12T07:31:35Z</time>
      </trkpt>
      <trkpt lat="44.06614" lon="5.35787">
        <ele>662.97</ele>
        <time>2015-10-12T07:31:37Z</time>
      </trkpt>
      <trkpt lat="44.06609" lon="5.35782">
        <ele>662.49</ele>
        <time>2015-10-12T07:31:38Z</time>
      </trkpt>
      <trkpt lat="44.06605" lon="5.35779">
        <ele>662.49</ele>
        <time>2015-10-12T07:31:39Z</time>
      </trkpt>
      <trkpt lat="44.066" lon="5.35778">
        <ele>662.49</ele>
        <time>2015-10-12T07:31:40Z</time>
      </trkpt>
      <trkpt lat="44.06594" lon="5.35777">
        <ele>662.49</ele>
        <time>2015-10-12T07:31:41Z</time>
      </trkpt>
      <trkpt lat="44.0656" lon="5.35773">
        <ele>661.04</ele>
        <time>2015-10-12T07:31:46Z</time>
      </trkpt>
      <trkpt lat="44.06554" lon="5.35771">
        <ele>661.04</ele>
        <time>2015-10-12T07:31:47Z</time>
      </trkpt>
      <trkpt lat="44.06522" lon="5.35764">
        <ele>657.2</ele>
        <time>2015-10-12T07:31:55Z</time>
      </trkpt>
      <trkpt lat="44.06519" lon="5.35765">
        <ele>654.8</ele>
        <time>2015-10-12T07:32:05Z</time>
      </trkpt>
      <trkpt lat="44.06518" lon="5.35764">
        <ele>654.31</ele>
        <time>2015-10-12T07:32:06Z</time>
      </trkpt>
      <trkpt lat="44.06516" lon="5.35763">
        <ele>654.31</ele>
        <time>2015-10-12T07:32:07Z</time>
      </trkpt>
      <trkpt lat="44.06514" lon="5.35762">
        <ele>653.83</ele>
        <time>2015-10-12T07:32:22Z</time>
      </trkpt>
      <trkpt lat="44.06513" lon="5.35763">
        <ele>654.8</ele>
        <time>2015-10-12T07:33:02Z</time>
      </trkpt>
      <trkpt lat="44.06509" lon="5.35761">
        <ele>655.28</ele>
        <time>2015-10-12T07:33:34Z</time>
      </trkpt>
      <trkpt lat="44.06497" lon="5.35758">
        <ele>654.31</ele>
        <time>2015-10-12T07:33:37Z</time>
      </trkpt>
      <trkpt lat="44.06465" lon="5.35754">
        <ele>651.91</ele>
        <time>2015-10-12T07:33:42Z</time>
      </trkpt>
      <trkpt lat="44.06458" lon="5.35755">
        <ele>651.43</ele>
        <time>2015-10-12T07:33:43Z</time>
      </trkpt>
      <trkpt lat="44.0645" lon="5.35758">
        <ele>650.95</ele>
        <time>2015-10-12T07:33:44Z</time>
      </trkpt>
      <trkpt lat="44.06409" lon="5.35772">
        <ele>648.55</ele>
        <time>2015-10-12T07:33:49Z</time>
      </trkpt>
      <trkpt lat="44.06401" lon="5.35772">
        <ele>648.07</ele>
        <time>2015-10-12T07:33:50Z</time>
      </trkpt>
      <trkpt lat="44.06392" lon="5.35772">
        <ele>647.59</ele>
        <time>2015-10-12T07:33:51Z</time>
      </trkpt>
      <trkpt lat="44.06355" lon="5.35771">
        <ele>645.18</ele>
        <time>2015-10-12T07:33:55Z</time>
      </trkpt>
      <trkpt lat="44.06345" lon="5.35774">
        <ele>644.7</ele>
        <time>2015-10-12T07:33:56Z</time>
      </trkpt>
      <trkpt lat="44.06335" lon="5.35777">
        <ele>643.74</ele>
        <time>2015-10-12T07:33:57Z</time>
      </trkpt>
      <trkpt lat="44.06232" lon="5.3582">
        <ele>637.49</ele>
        <time>2015-10-12T07:34:08Z</time>
      </trkpt>
      <trkpt lat="44.06224" lon="5.35821">
        <ele>636.53</ele>
        <time>2015-10-12T07:34:09Z</time>
      </trkpt>
      <trkpt lat="44.06217" lon="5.35821">
        <ele>636.05</ele>
        <time>2015-10-12T07:34:10Z</time>
      </trkpt>
      <trkpt lat="44.06209" lon="5.3582">
        <ele>635.09</ele>
        <time>2015-10-12T07:34:11Z</time>
      </trkpt>
      <trkpt lat="44.06202" lon="5.35817">
        <ele>635.09</ele>
        <time>2015-10-12T07:34:12Z</time>
      </trkpt>
      <trkpt lat="44.06195" lon="5.35815">
        <ele>634.61</ele>
        <time>2015-10-12T07:34:13Z</time>
      </trkpt>
      <trkpt lat="44.06139" lon="5.358">
        <ele>632.68</ele>
        <time>2015-10-12T07:34:22Z</time>
      </trkpt>
      <trkpt lat="44.06119" lon="5.35798">
        <ele>631.72</ele>
        <time>2015-10-12T07:34:25Z</time>
      </trkpt>
      <trkpt lat="44.06113" lon="5.35795">
        <ele>631.24</ele>
        <time>2015-10-12T07:34:26Z</time>
      </trkpt>
      <trkpt lat="44.06107" lon="5.35791">
        <ele>631.24</ele>
        <time>2015-10-12T07:34:27Z</time>
      </trkpt>
      <trkpt lat="44.06054" lon="5.35751">
        <ele>630.28</ele>
        <time>2015-10-12T07:34:37Z</time>
      </trkpt>
      <trkpt lat="44.0603" lon="5.35741">
        <ele>630.28</ele>
        <time>2015-10-12T07:34:42Z</time>
      </trkpt>
      <trkpt lat="44.05966" lon="5.35689">
        <ele>630.76</ele>
        <time>2015-10-12T07:34:58Z</time>
      </trkpt>
      <trkpt lat="44.05904" lon="5.35668">
        <ele>630.76</ele>
        <time>2015-10-12T07:35:12Z</time>
      </trkpt>
      <trkpt lat="44.05867" lon="5.35649">
        <ele>630.28</ele>
        <time>2015-10-12T07:35:21Z</time>
      </trkpt>
      <trkpt lat="44.05796" lon="5.35586">
        <ele>629.8</ele>
        <time>2015-10-12T07:35:39Z</time>
      </trkpt>
      <trkpt lat="44.05729" lon="5.3552">
        <ele>630.28</ele>
        <time>2015-10-12T07:35:56Z</time>
      </trkpt>
      <trkpt lat="44.05678" lon="5.35473">
        <ele>630.28</ele>
        <time>2015-10-12T07:36:12Z</time>
      </trkpt>
      <trkpt lat="44.05656" lon="5.35468">
        <ele>629.32</ele>
        <time>2015-10-12T07:36:23Z</time>
      </trkpt>
      <trkpt lat="44.05655" lon="5.35471">
        <ele>629.32</ele>
        <time>2015-10-12T07:36:24Z</time>
      </trkpt>
      <trkpt lat="44.05653" lon="5.35473">
        <ele>629.8</ele>
        <time>2015-10-12T07:36:25Z</time>
      </trkpt>
      <trkpt lat="44.05641" lon="5.35488">
        <ele>629.8</ele>
        <time>2015-10-12T07:36:33Z</time>
      </trkpt>
      <trkpt lat="44.05639" lon="5.35488">
        <ele>629.32</ele>
        <time>2015-10-12T07:36:34Z</time>
      </trkpt>
      <trkpt lat="44.05637" lon="5.35487">
        <ele>629.32</ele>
        <time>2015-10-12T07:36:35Z</time>
      </trkpt>
      <trkpt lat="44.05635" lon="5.35485">
        <ele>629.32</ele>
        <time>2015-10-12T07:36:36Z</time>
      </trkpt>
      <trkpt lat="44.05633" lon="5.35483">
        <ele>629.32</ele>
        <time>2015-10-12T07:36:37Z</time>
      </trkpt>
      <trkpt lat="44.0563" lon="5.35482">
        <ele>629.32</ele>
        <time>2015-10-12T07:36:38Z</time>
      </trkpt>
      <trkpt lat="44.05627" lon="5.35481">
        <ele>628.84</ele>
        <time>2015-10-12T07:36:39Z</time>
      </trkpt>
      <trkpt lat="44.05623" lon="5.3548">
        <ele>628.84</ele>
        <time>2015-10-12T07:36:40Z</time>
      </trkpt>
      <trkpt lat="44.0562" lon="5.35479">
        <ele>628.84</ele>
        <time>2015-10-12T07:36:41Z</time>
      </trkpt>
      <trkpt lat="44.05617" lon="5.35478">
        <ele>628.36</ele>
        <time>2015-10-12T07:36:42Z</time>
      </trkpt>
      <trkpt lat="44.05614" lon="5.35476">
        <ele>628.36</ele>
        <time>2015-10-12T07:36:43Z</time>
      </trkpt>
      <trkpt lat="44.0561" lon="5.35474">
        <ele>628.36</ele>
        <time>2015-10-12T07:36:44Z</time>
      </trkpt>
      <trkpt lat="44.05607" lon="5.35472">
        <ele>627.88</ele>
        <time>2015-10-12T07:36:45Z</time>
      </trkpt>
      <trkpt lat="44.05604" lon="5.35469">
        <ele>627.88</ele>
        <time>2015-10-12T07:36:46Z</time>
      </trkpt>
      <trkpt lat="44.05595" lon="5.35458">
        <ele>626.92</ele>
        <time>2015-10-12T07:36:49Z</time>
      </trkpt>
      <trkpt lat="44.05572" lon="5.35424">
        <ele>626.44</ele>
        <time>2015-10-12T07:36:59Z</time>
      </trkpt>
      <trkpt lat="44.0557" lon="5.3542">
        <ele>626.44</ele>
        <time>2015-10-12T07:37:00Z</time>
      </trkpt>
      <trkpt lat="44.05568" lon="5.35417">
        <ele>626.44</ele>
        <time>2015-10-12T07:37:01Z</time>
      </trkpt>
      <trkpt lat="44.05566" lon="5.35413">
        <ele>626.92</ele>
        <time>2015-10-12T07:37:02Z</time>
      </trkpt>
      <trkpt lat="44.05564" lon="5.3541">
        <ele>626.92</ele>
        <time>2015-10-12T07:37:03Z</time>
      </trkpt>
      <trkpt lat="44.05563" lon="5.35407">
        <ele>626.44</ele>
        <time>2015-10-12T07:37:04Z</time>
      </trkpt>
      <trkpt lat="44.05561" lon="5.35405">
        <ele>626.44</ele>
        <time>2015-10-12T07:37:05Z</time>
      </trkpt>
      <trkpt lat="44.05559" lon="5.35403">
        <ele>626.44</ele>
        <time>2015-10-12T07:37:06Z</time>
      </trkpt>
      <trkpt lat="44.05556" lon="5.354">
        <ele>626.44</ele>
        <time>2015-10-12T07:37:07Z</time>
      </trkpt>
      <trkpt lat="44.05555" lon="5.35397">
        <ele>626.44</ele>
        <time>2015-10-12T07:37:08Z</time>
      </trkpt>
      <trkpt lat="44.05553" lon="5.35394">
        <ele>626.44</ele>
        <time>2015-10-12T07:37:09Z</time>
      </trkpt>
      <trkpt lat="44.05553" lon="5.3539">
        <ele>626.44</ele>
        <time>2015-10-12T07:37:10Z</time>
      </trkpt>
      <trkpt lat="44.05553" lon="5.35386">
        <ele>625.96</ele>
        <time>2015-10-12T07:37:11Z</time>
      </trkpt>
      <trkpt lat="44.05553" lon="5.35341">
        <ele>624.03</ele>
        <time>2015-10-12T07:37:22Z</time>
      </trkpt>
      <trkpt lat="44.05535" lon="5.35298">
        <ele>621.63</ele>
        <time>2015-10-12T07:37:32Z</time>
      </trkpt>
      <trkpt lat="44.05533" lon="5.35296">
        <ele>621.15</ele>
        <time>2015-10-12T07:37:33Z</time>
      </trkpt>
      <trkpt lat="44.05502" lon="5.35266">
        <ele>617.3</ele>
        <time>2015-10-12T07:37:46Z</time>
      </trkpt>
      <trkpt lat="44.05478" lon="5.35244">
        <ele>618.75</ele>
        <time>2015-10-12T07:37:58Z</time>
      </trkpt>
      <trkpt lat="44.05475" lon="5.35233">
        <ele>621.15</ele>
        <time>2015-10-12T07:38:23Z</time>
      </trkpt>
      <trkpt lat="44.05475" lon="5.35229">
        <ele>625.96</ele>
        <time>2015-10-12T07:38:55Z</time>
      </trkpt>
      <trkpt lat="44.05476" lon="5.35224">
        <ele>630.76</ele>
        <time>2015-10-12T07:39:29Z</time>
      </trkpt>
      <trkpt lat="44.05474" lon="5.35216">
        <ele>640.38</ele>
        <time>2015-10-12T07:40:02Z</time>
      </trkpt>
      <trkpt lat="44.05478" lon="5.35217">
        <ele>644.7</ele>
        <time>2015-10-12T07:40:31Z</time>
      </trkpt>
      <trkpt lat="44.05479" lon="5.35213">
        <ele>649.99</ele>
        <time>2015-10-12T07:41:07Z</time>
      </trkpt>
      <trkpt lat="44.05483" lon="5.35206">
        <ele>654.8</ele>
        <time>2015-10-12T07:41:39Z</time>
      </trkpt>
      <trkpt lat="44.0548" lon="5.3521">
        <ele>657.2</ele>
        <time>2015-10-12T07:42:09Z</time>
      </trkpt>
      <trkpt lat="44.05482" lon="5.35218">
        <ele>652.39</ele>
        <time>2015-10-12T07:42:46Z</time>
      </trkpt>
      <trkpt lat="44.05479" lon="5.35212">
        <ele>645.18</ele>
        <time>2015-10-12T07:43:18Z</time>
      </trkpt>
      <trkpt lat="44.05481" lon="5.35222">
        <ele>642.3</ele>
        <time>2015-10-12T07:43:50Z</time>
      </trkpt>
      <trkpt lat="44.05477" lon="5.3522">
        <ele>634.61</ele>
        <time>2015-10-12T07:44:25Z</time>
      </trkpt>
      <trkpt lat="44.05478" lon="5.35221">
        <ele>636.53</ele>
        <time>2015-10-12T07:45:03Z</time>
      </trkpt>
      <trkpt lat="44.05476" lon="5.35228">
        <ele>636.53</ele>
        <time>2015-10-12T07:45:24Z</time>
      </trkpt>
      <trkpt lat="44.05475" lon="5.35228">
        <ele>636.53</ele>
        <time>2015-10-12T07:45:44Z</time>
      </trkpt>
      <trkpt lat="44.05475" lon="5.35227">
        <ele>636.53</ele>
        <time>2015-10-12T07:45:45Z</time>
      </trkpt>
      <trkpt lat="44.05455" lon="5.35219">
        <ele>635.57</ele>
        <time>2015-10-12T07:45:55Z</time>
      </trkpt>
      <trkpt lat="44.05438" lon="5.35199">
        <ele>634.61</ele>
        <time>2015-10-12T07:46:02Z</time>
      </trkpt>
      <trkpt lat="44.05436" lon="5.35194">
        <ele>634.61</ele>
        <time>2015-10-12T07:46:03Z</time>
      </trkpt>
      <trkpt lat="44.05432" lon="5.35184">
        <ele>634.13</ele>
        <time>2015-10-12T07:46:06Z</time>
      </trkpt>
      <trkpt lat="44.05428" lon="5.35181">
        <ele>634.13</ele>
        <time>2015-10-12T07:46:08Z</time>
      </trkpt>
      <trkpt lat="44.05425" lon="5.3518">
        <ele>634.13</ele>
        <time>2015-10-12T07:46:09Z</time>
      </trkpt>
      <trkpt lat="44.05423" lon="5.35179">
        <ele>634.13</ele>
        <time>2015-10-12T07:46:10Z</time>
      </trkpt>
      <trkpt lat="44.0542" lon="5.35178">
        <ele>634.13</ele>
        <time>2015-10-12T07:46:11Z</time>
      </trkpt>
      <trkpt lat="44.05418" lon="5.35177">
        <ele>634.13</ele>
        <time>2015-10-12T07:46:12Z</time>
      </trkpt>
      <trkpt lat="44.05412" lon="5.3517">
        <ele>633.65</ele>
        <time>2015-10-12T07:46:16Z</time>
      </trkpt>
      <trkpt lat="44.05411" lon="5.35168">
        <ele>633.65</ele>
        <time>2015-10-12T07:46:17Z</time>
      </trkpt>
      <trkpt lat="44.05395" lon="5.3515">
        <ele>632.68</ele>
        <time>2015-10-12T07:46:27Z</time>
      </trkpt>
      <trkpt lat="44.05393" lon="5.35148">
        <ele>632.68</ele>
        <time>2015-10-12T07:46:28Z</time>
      </trkpt>
      <trkpt lat="44.05372" lon="5.3513">
        <ele>630.76</ele>
        <time>2015-10-12T07:46:35Z</time>
      </trkpt>
      <trkpt lat="44.05332" lon="5.35112">
        <ele>628.36</ele>
        <time>2015-10-12T07:46:46Z</time>
      </trkpt>
      <trkpt lat="44.05299" lon="5.35104">
        <ele>629.32</ele>
        <time>2015-10-12T07:46:56Z</time>
      </trkpt>
      <trkpt lat="44.05273" lon="5.35106">
        <ele>630.28</ele>
        <time>2015-10-12T07:47:05Z</time>
      </trkpt>
      <trkpt lat="44.05271" lon="5.35108">
        <ele>630.28</ele>
        <time>2015-10-12T07:47:06Z</time>
      </trkpt>
      <trkpt lat="44.0527" lon="5.3511">
        <ele>630.28</ele>
        <time>2015-10-12T07:47:07Z</time>
      </trkpt>
      <trkpt lat="44.05268" lon="5.35112">
        <ele>630.28</ele>
        <time>2015-10-12T07:47:08Z</time>
      </trkpt>
      <trkpt lat="44.05266" lon="5.35113">
        <ele>630.76</ele>
        <time>2015-10-12T07:47:09Z</time>
      </trkpt>
      <trkpt lat="44.05264" lon="5.35112">
        <ele>630.76</ele>
        <time>2015-10-12T07:47:10Z</time>
      </trkpt>
      <trkpt lat="44.05262" lon="5.35111">
        <ele>630.76</ele>
        <time>2015-10-12T07:47:11Z</time>
      </trkpt>
      <trkpt lat="44.0526" lon="5.35109">
        <ele>631.24</ele>
        <time>2015-10-12T07:47:12Z</time>
      </trkpt>
      <trkpt lat="44.05259" lon="5.35107">
        <ele>631.24</ele>
        <time>2015-10-12T07:47:13Z</time>
      </trkpt>
      <trkpt lat="44.05258" lon="5.35105">
        <ele>631.72</ele>
        <time>2015-10-12T07:47:14Z</time>
      </trkpt>
      <trkpt lat="44.05257" lon="5.35103">
        <ele>631.72</ele>
        <time>2015-10-12T07:47:15Z</time>
      </trkpt>
      <trkpt lat="44.05256" lon="5.35101">
        <ele>632.2</ele>
        <time>2015-10-12T07:47:16Z</time>
      </trkpt>
      <trkpt lat="44.05253" lon="5.35096">
        <ele>632.68</ele>
        <time>2015-10-12T07:47:26Z</time>
      </trkpt>
      <trkpt lat="44.05247" lon="5.35085">
        <ele>633.17</ele>
        <time>2015-10-12T07:47:38Z</time>
      </trkpt>
      <trkpt lat="44.05245" lon="5.35081">
        <ele>633.17</ele>
        <time>2015-10-12T07:47:40Z</time>
      </trkpt>
      <trkpt lat="44.05243" lon="5.35079">
        <ele>633.65</ele>
        <time>2015-10-12T07:47:41Z</time>
      </trkpt>
      <trkpt lat="44.05243" lon="5.35077">
        <ele>633.65</ele>
        <time>2015-10-12T07:47:42Z</time>
      </trkpt>
      <trkpt lat="44.05231" lon="5.35062">
        <ele>635.57</ele>
        <time>2015-10-12T07:47:56Z</time>
      </trkpt>
      <trkpt lat="44.05228" lon="5.35059">
        <ele>635.57</ele>
        <time>2015-10-12T07:48:01Z</time>
      </trkpt>
      <trkpt lat="44.05227" lon="5.35058">
        <ele>635.57</ele>
        <time>2015-10-12T07:48:02Z</time>
      </trkpt>
      <trkpt lat="44.05226" lon="5.35056">
        <ele>635.57</ele>
        <time>2015-10-12T07:48:03Z</time>
      </trkpt>
      <trkpt lat="44.05225" lon="5.35054">
        <ele>635.57</ele>
        <time>2015-10-12T07:48:04Z</time>
      </trkpt>
      <trkpt lat="44.05224" lon="5.35053">
        <ele>635.57</ele>
        <time>2015-10-12T07:48:05Z</time>
      </trkpt>
      <trkpt lat="44.05223" lon="5.35052">
        <ele>636.05</ele>
        <time>2015-10-12T07:48:06Z</time>
      </trkpt>
      <trkpt lat="44.05209" lon="5.35029">
        <ele>636.53</ele>
        <time>2015-10-12T07:48:19Z</time>
      </trkpt>
      <trkpt lat="44.05199" lon="5.35015">
        <ele>637.49</ele>
        <time>2015-10-12T07:48:32Z</time>
      </trkpt>
      <trkpt lat="44.05191" lon="5.35004">
        <ele>638.45</ele>
        <time>2015-10-12T07:48:47Z</time>
      </trkpt>
      <trkpt lat="44.05187" lon="5.34996">
        <ele>639.89</ele>
        <time>2015-10-12T07:48:56Z</time>
      </trkpt>
      <trkpt lat="44.05181" lon="5.34983">
        <ele>641.82</ele>
        <time>2015-10-12T07:49:10Z</time>
      </trkpt>
      <trkpt lat="44.05179" lon="5.34965">
        <ele>642.78</ele>
        <time>2015-10-12T07:49:24Z</time>
      </trkpt>
      <trkpt lat="44.05177" lon="5.34953">
        <ele>644.22</ele>
        <time>2015-10-12T07:49:36Z</time>
      </trkpt>
      <trkpt lat="44.05177" lon="5.34951">
        <ele>644.22</ele>
        <time>2015-10-12T07:49:37Z</time>
      </trkpt>
      <trkpt lat="44.05176" lon="5.3495">
        <ele>644.22</ele>
        <time>2015-10-12T07:49:38Z</time>
      </trkpt>
      <trkpt lat="44.05175" lon="5.34948">
        <ele>644.22</ele>
        <time>2015-10-12T07:49:39Z</time>
      </trkpt>
      <trkpt lat="44.05173" lon="5.34946">
        <ele>643.74</ele>
        <time>2015-10-12T07:49:40Z</time>
      </trkpt>
      <trkpt lat="44.05171" lon="5.34945">
        <ele>644.22</ele>
        <time>2015-10-12T07:49:41Z</time>
      </trkpt>
      <trkpt lat="44.05169" lon="5.34943">
        <ele>643.74</ele>
        <time>2015-10-12T07:49:42Z</time>
      </trkpt>
      <trkpt lat="44.05167" lon="5.34942">
        <ele>643.74</ele>
        <time>2015-10-12T07:49:43Z</time>
      </trkpt>
      <trkpt lat="44.05165" lon="5.34942">
        <ele>643.74</ele>
        <time>2015-10-12T07:49:44Z</time>
      </trkpt>
      <trkpt lat="44.05163" lon="5.34941">
        <ele>643.26</ele>
        <time>2015-10-12T07:49:45Z</time>
      </trkpt>
      <trkpt lat="44.05161" lon="5.3494">
        <ele>643.26</ele>
        <time>2015-10-12T07:49:46Z</time>
      </trkpt>
      <trkpt lat="44.05159" lon="5.3494">
        <ele>643.26</ele>
        <time>2015-10-12T07:49:47Z</time>
      </trkpt>
      <trkpt lat="44.05157" lon="5.34939">
        <ele>643.26</ele>
        <time>2015-10-12T07:49:48Z</time>
      </trkpt>
      <trkpt lat="44.05125" lon="5.34941">
        <ele>641.82</ele>
        <time>2015-10-12T07:50:02Z</time>
      </trkpt>
      <trkpt lat="44.05084" lon="5.34948">
        <ele>641.34</ele>
        <time>2015-10-12T07:50:16Z</time>
      </trkpt>
      <trkpt lat="44.05052" lon="5.34951">
        <ele>642.78</ele>
        <time>2015-10-12T07:50:29Z</time>
      </trkpt>
      <trkpt lat="44.05018" lon="5.34955">
        <ele>644.22</ele>
        <time>2015-10-12T07:50:44Z</time>
      </trkpt>
      <trkpt lat="44.04991" lon="5.34955">
        <ele>645.18</ele>
        <time>2015-10-12T07:50:57Z</time>
      </trkpt>
      <trkpt lat="44.04955" lon="5.34948">
        <ele>646.62</ele>
        <time>2015-10-12T07:51:11Z</time>
      </trkpt>
      <trkpt lat="44.04944" lon="5.34924">
        <ele>648.55</ele>
        <time>2015-10-12T07:51:22Z</time>
      </trkpt>
      <trkpt lat="44.04937" lon="5.34911">
        <ele>650.47</ele>
        <time>2015-10-12T07:51:34Z</time>
      </trkpt>
      <trkpt lat="44.0493" lon="5.34902">
        <ele>654.31</ele>
        <time>2015-10-12T07:51:48Z</time>
      </trkpt>
      <trkpt lat="44.04925" lon="5.34897">
        <ele>656.72</ele>
        <time>2015-10-12T07:51:57Z</time>
      </trkpt>
      <trkpt lat="44.04924" lon="5.34896">
        <ele>656.72</ele>
        <time>2015-10-12T07:51:58Z</time>
      </trkpt>
      <trkpt lat="44.04922" lon="5.34892">
        <ele>656.72</ele>
        <time>2015-10-12T07:52:01Z</time>
      </trkpt>
      <trkpt lat="44.0492" lon="5.34891">
        <ele>656.72</ele>
        <time>2015-10-12T07:52:02Z</time>
      </trkpt>
      <trkpt lat="44.04902" lon="5.34878">
        <ele>657.68</ele>
        <time>2015-10-12T07:52:14Z</time>
      </trkpt>
      <trkpt lat="44.04901" lon="5.34877">
        <ele>657.68</ele>
        <time>2015-10-12T07:52:15Z</time>
      </trkpt>
      <trkpt lat="44.04899" lon="5.34865">
        <ele>660.56</ele>
        <time>2015-10-12T07:52:26Z</time>
      </trkpt>
      <trkpt lat="44.049" lon="5.34858">
        <ele>662.49</ele>
        <time>2015-10-12T07:52:36Z</time>
      </trkpt>
      <trkpt lat="44.04901" lon="5.34857">
        <ele>662.97</ele>
        <time>2015-10-12T07:52:37Z</time>
      </trkpt>
      <trkpt lat="44.04903" lon="5.34855">
        <ele>662.97</ele>
        <time>2015-10-12T07:52:38Z</time>
      </trkpt>
      <trkpt lat="44.04905" lon="5.34852">
        <ele>663.93</ele>
        <time>2015-10-12T07:52:40Z</time>
      </trkpt>
      <trkpt lat="44.04906" lon="5.34851">
        <ele>664.41</ele>
        <time>2015-10-12T07:52:41Z</time>
      </trkpt>
      <trkpt lat="44.04907" lon="5.34849">
        <ele>664.41</ele>
        <time>2015-10-12T07:52:42Z</time>
      </trkpt>
      <trkpt lat="44.04919" lon="5.34828">
        <ele>667.77</ele>
        <time>2015-10-12T07:52:53Z</time>
      </trkpt>
      <trkpt lat="44.04919" lon="5.34826">
        <ele>667.77</ele>
        <time>2015-10-12T07:52:54Z</time>
      </trkpt>
      <trkpt lat="44.04919" lon="5.34824">
        <ele>667.29</ele>
        <time>2015-10-12T07:52:55Z</time>
      </trkpt>
      <trkpt lat="44.04919" lon="5.34815">
        <ele>667.77</ele>
        <time>2015-10-12T07:53:05Z</time>
      </trkpt>
      <trkpt lat="44.04918" lon="5.34804">
        <ele>670.18</ele>
        <time>2015-10-12T07:53:19Z</time>
      </trkpt>
      <trkpt lat="44.04911" lon="5.34791">
        <ele>671.14</ele>
        <time>2015-10-12T07:53:37Z</time>
      </trkpt>
      <trkpt lat="44.04903" lon="5.34783">
        <ele>674.02</ele>
        <time>2015-10-12T07:53:53Z</time>
      </trkpt>
      <trkpt lat="44.04893" lon="5.34775">
        <ele>676.42</ele>
        <time>2015-10-12T07:54:10Z</time>
      </trkpt>
      <trkpt lat="44.04882" lon="5.3477">
        <ele>677.87</ele>
        <time>2015-10-12T07:54:26Z</time>
      </trkpt>
      <trkpt lat="44.04873" lon="5.34765">
        <ele>680.27</ele>
        <time>2015-10-12T07:54:41Z</time>
      </trkpt>
      <trkpt lat="44.04861" lon="5.3476">
        <ele>682.19</ele>
        <time>2015-10-12T07:54:57Z</time>
      </trkpt>
      <trkpt lat="44.04851" lon="5.34755">
        <ele>684.6</ele>
        <time>2015-10-12T07:55:12Z</time>
      </trkpt>
      <trkpt lat="44.04844" lon="5.3475">
        <ele>685.08</ele>
        <time>2015-10-12T07:55:29Z</time>
      </trkpt>
      <trkpt lat="44.0483" lon="5.34738">
        <ele>686.52</ele>
        <time>2015-10-12T07:55:41Z</time>
      </trkpt>
      <trkpt lat="44.04829" lon="5.34738">
        <ele>686.52</ele>
        <time>2015-10-12T07:55:42Z</time>
      </trkpt>
      <trkpt lat="44.04816" lon="5.34728">
        <ele>687</ele>
        <time>2015-10-12T07:55:56Z</time>
      </trkpt>
      <trkpt lat="44.04807" lon="5.34718">
        <ele>689.88</ele>
        <time>2015-10-12T07:56:11Z</time>
      </trkpt>
      <trkpt lat="44.04807" lon="5.34716">
        <ele>690.36</ele>
        <time>2015-10-12T07:56:15Z</time>
      </trkpt>
      <trkpt lat="44.048" lon="5.34703">
        <ele>691.81</ele>
        <time>2015-10-12T07:56:22Z</time>
      </trkpt>
      <trkpt lat="44.04799" lon="5.34702">
        <ele>691.81</ele>
        <time>2015-10-12T07:56:23Z</time>
      </trkpt>
      <trkpt lat="44.04773" lon="5.34689">
        <ele>693.73</ele>
        <time>2015-10-12T07:56:37Z</time>
      </trkpt>
      <trkpt lat="44.04744" lon="5.34684">
        <ele>696.61</ele>
        <time>2015-10-12T07:56:53Z</time>
      </trkpt>
      <trkpt lat="44.04725" lon="5.34676">
        <ele>695.65</ele>
        <time>2015-10-12T07:57:06Z</time>
      </trkpt>
      <trkpt lat="44.04704" lon="5.34665">
        <ele>695.65</ele>
        <time>2015-10-12T07:57:13Z</time>
      </trkpt>
      <trkpt lat="44.04657" lon="5.34643">
        <ele>689.4</ele>
        <time>2015-10-12T07:57:26Z</time>
      </trkpt>
      <trkpt lat="44.04616" lon="5.34632">
        <ele>685.56</ele>
        <time>2015-10-12T07:57:37Z</time>
      </trkpt>
      <trkpt lat="44.04589" lon="5.34625">
        <ele>684.6</ele>
        <time>2015-10-12T07:57:44Z</time>
      </trkpt>
      <trkpt lat="44.0455" lon="5.34623">
        <ele>680.75</ele>
        <time>2015-10-12T07:57:55Z</time>
      </trkpt>
      <trkpt lat="44.04523" lon="5.34627">
        <ele>679.31</ele>
        <time>2015-10-12T07:58:03Z</time>
      </trkpt>
      <trkpt lat="44.04521" lon="5.34625">
        <ele>679.31</ele>
        <time>2015-10-12T07:58:04Z</time>
      </trkpt>
      <trkpt lat="44.04519" lon="5.34622">
        <ele>679.31</ele>
        <time>2015-10-12T07:58:05Z</time>
      </trkpt>
      <trkpt lat="44.04517" lon="5.3462">
        <ele>679.31</ele>
        <time>2015-10-12T07:58:06Z</time>
      </trkpt>
      <trkpt lat="44.04516" lon="5.34618">
        <ele>679.31</ele>
        <time>2015-10-12T07:58:07Z</time>
      </trkpt>
      <trkpt lat="44.04515" lon="5.34616">
        <ele>679.31</ele>
        <time>2015-10-12T07:58:08Z</time>
      </trkpt>
      <trkpt lat="44.04513" lon="5.34615">
        <ele>678.83</ele>
        <time>2015-10-12T07:58:09Z</time>
      </trkpt>
      <trkpt lat="44.0451" lon="5.34615">
        <ele>678.83</ele>
        <time>2015-10-12T07:58:10Z</time>
      </trkpt>
      <trkpt lat="44.04497" lon="5.34607">
        <ele>678.35</ele>
        <time>2015-10-12T07:58:20Z</time>
      </trkpt>
      <trkpt lat="44.04501" lon="5.34603">
        <ele>678.83</ele>
        <time>2015-10-12T07:58:29Z</time>
      </trkpt>
      <trkpt lat="44.0451" lon="5.34593">
        <ele>680.27</ele>
        <time>2015-10-12T07:58:41Z</time>
      </trkpt>
      <trkpt lat="44.04501" lon="5.34593">
        <ele>681.71</ele>
        <time>2015-10-12T07:58:53Z</time>
      </trkpt>
      <trkpt lat="44.04492" lon="5.34591">
        <ele>683.15</ele>
        <time>2015-10-12T07:59:06Z</time>
      </trkpt>
      <trkpt lat="44.04481" lon="5.34585">
        <ele>684.6</ele>
        <time>2015-10-12T07:59:22Z</time>
      </trkpt>
      <trkpt lat="44.04467" lon="5.34582">
        <ele>687</ele>
        <time>2015-10-12T07:59:41Z</time>
      </trkpt>
      <trkpt lat="44.04456" lon="5.34581">
        <ele>688.44</ele>
        <time>2015-10-12T07:59:55Z</time>
      </trkpt>
      <trkpt lat="44.04444" lon="5.3458">
        <ele>690.36</ele>
        <time>2015-10-12T08:00:11Z</time>
      </trkpt>
      <trkpt lat="44.04435" lon="5.34578">
        <ele>693.25</ele>
        <time>2015-10-12T08:00:24Z</time>
      </trkpt>
      <trkpt lat="44.04427" lon="5.34577">
        <ele>694.21</ele>
        <time>2015-10-12T08:00:37Z</time>
      </trkpt>
      <trkpt lat="44.04417" lon="5.34577">
        <ele>696.61</ele>
        <time>2015-10-12T08:00:52Z</time>
      </trkpt>
      <trkpt lat="44.04414" lon="5.34567">
        <ele>697.57</ele>
        <time>2015-10-12T08:01:05Z</time>
      </trkpt>
      <trkpt lat="44.04411" lon="5.34565">
        <ele>699.02</ele>
        <time>2015-10-12T08:01:17Z</time>
      </trkpt>
      <trkpt lat="44.04407" lon="5.34574">
        <ele>700.94</ele>
        <time>2015-10-12T08:01:30Z</time>
      </trkpt>
      <trkpt lat="44.04398" lon="5.34577">
        <ele>701.42</ele>
        <time>2015-10-12T08:01:42Z</time>
      </trkpt>
      <trkpt lat="44.04389" lon="5.3458">
        <ele>705.26</ele>
        <time>2015-10-12T08:01:56Z</time>
      </trkpt>
      <trkpt lat="44.04377" lon="5.34582">
        <ele>706.71</ele>
        <time>2015-10-12T08:02:12Z</time>
      </trkpt>
      <trkpt lat="44.04376" lon="5.34573">
        <ele>708.15</ele>
        <time>2015-10-12T08:02:26Z</time>
      </trkpt>
      <trkpt lat="44.04369" lon="5.34569">
        <ele>709.59</ele>
        <time>2015-10-12T08:02:39Z</time>
      </trkpt>
      <trkpt lat="44.0436" lon="5.34568">
        <ele>711.99</ele>
        <time>2015-10-12T08:02:55Z</time>
      </trkpt>
      <trkpt lat="44.04347" lon="5.34567">
        <ele>712.95</ele>
        <time>2015-10-12T08:03:13Z</time>
      </trkpt>
      <trkpt lat="44.04336" lon="5.34566">
        <ele>713.92</ele>
        <time>2015-10-12T08:03:30Z</time>
      </trkpt>
      <trkpt lat="44.04322" lon="5.34564">
        <ele>716.32</ele>
        <time>2015-10-12T08:03:47Z</time>
      </trkpt>
      <trkpt lat="44.04313" lon="5.34562">
        <ele>718.72</ele>
        <time>2015-10-12T08:04:01Z</time>
      </trkpt>
      <trkpt lat="44.04304" lon="5.34557">
        <ele>717.76</ele>
        <time>2015-10-12T08:04:15Z</time>
      </trkpt>
      <trkpt lat="44.04293" lon="5.34552">
        <ele>720.16</ele>
        <time>2015-10-12T08:04:31Z</time>
      </trkpt>
      <trkpt lat="44.04289" lon="5.34544">
        <ele>721.61</ele>
        <time>2015-10-12T08:04:45Z</time>
      </trkpt>
      <trkpt lat="44.04288" lon="5.34531">
        <ele>723.05</ele>
        <time>2015-10-12T08:04:59Z</time>
      </trkpt>
      <trkpt lat="44.04284" lon="5.34519">
        <ele>724.97</ele>
        <time>2015-10-12T08:05:13Z</time>
      </trkpt>
      <trkpt lat="44.04275" lon="5.34511">
        <ele>726.89</ele>
        <time>2015-10-12T08:05:30Z</time>
      </trkpt>
      <trkpt lat="44.04262" lon="5.34508">
        <ele>728.82</ele>
        <time>2015-10-12T08:05:46Z</time>
      </trkpt>
      <trkpt lat="44.0425" lon="5.34502">
        <ele>729.78</ele>
        <time>2015-10-12T08:06:02Z</time>
      </trkpt>
      <trkpt lat="44.0424" lon="5.3449">
        <ele>730.74</ele>
        <time>2015-10-12T08:06:19Z</time>
      </trkpt>
      <trkpt lat="44.04235" lon="5.34478">
        <ele>731.7</ele>
        <time>2015-10-12T08:06:33Z</time>
      </trkpt>
      <trkpt lat="44.04234" lon="5.34467">
        <ele>732.18</ele>
        <time>2015-10-12T08:06:46Z</time>
      </trkpt>
      <trkpt lat="44.04234" lon="5.34451">
        <ele>734.1</ele>
        <time>2015-10-12T08:07:01Z</time>
      </trkpt>
      <trkpt lat="44.04236" lon="5.34438">
        <ele>734.58</ele>
        <time>2015-10-12T08:07:16Z</time>
      </trkpt>
      <trkpt lat="44.04235" lon="5.34434">
        <ele>734.1</ele>
        <time>2015-10-12T08:07:20Z</time>
      </trkpt>
      <trkpt lat="44.04215" lon="5.34408">
        <ele>731.22</ele>
        <time>2015-10-12T08:07:33Z</time>
      </trkpt>
      <trkpt lat="44.04192" lon="5.34384">
        <ele>731.22</ele>
        <time>2015-10-12T08:07:44Z</time>
      </trkpt>
      <trkpt lat="44.04175" lon="5.3436">
        <ele>732.18</ele>
        <time>2015-10-12T08:07:56Z</time>
      </trkpt>
      <trkpt lat="44.0417" lon="5.3435">
        <ele>730.74</ele>
        <time>2015-10-12T08:08:09Z</time>
      </trkpt>
      <trkpt lat="44.0417" lon="5.34346">
        <ele>730.74</ele>
        <time>2015-10-12T08:08:13Z</time>
      </trkpt>
      <trkpt lat="44.04169" lon="5.34344">
        <ele>730.74</ele>
        <time>2015-10-12T08:08:14Z</time>
      </trkpt>
      <trkpt lat="44.04159" lon="5.34317">
        <ele>729.78</ele>
        <time>2015-10-12T08:08:25Z</time>
      </trkpt>
      <trkpt lat="44.04158" lon="5.34314">
        <ele>730.26</ele>
        <time>2015-10-12T08:08:26Z</time>
      </trkpt>
      <trkpt lat="44.04157" lon="5.34312">
        <ele>730.26</ele>
        <time>2015-10-12T08:08:27Z</time>
      </trkpt>
      <trkpt lat="44.04156" lon="5.3431">
        <ele>730.74</ele>
        <time>2015-10-12T08:08:28Z</time>
      </trkpt>
      <trkpt lat="44.04156" lon="5.34307">
        <ele>730.74</ele>
        <time>2015-10-12T08:08:29Z</time>
      </trkpt>
      <trkpt lat="44.04155" lon="5.34305">
        <ele>730.74</ele>
        <time>2015-10-12T08:08:30Z</time>
      </trkpt>
      <trkpt lat="44.04155" lon="5.34302">
        <ele>730.74</ele>
        <time>2015-10-12T08:08:31Z</time>
      </trkpt>
      <trkpt lat="44.04154" lon="5.343">
        <ele>730.74</ele>
        <time>2015-10-12T08:08:32Z</time>
      </trkpt>
      <trkpt lat="44.04154" lon="5.34297">
        <ele>730.74</ele>
        <time>2015-10-12T08:08:33Z</time>
      </trkpt>
      <trkpt lat="44.04153" lon="5.34295">
        <ele>730.26</ele>
        <time>2015-10-12T08:08:34Z</time>
      </trkpt>
      <trkpt lat="44.04153" lon="5.34293">
        <ele>730.26</ele>
        <time>2015-10-12T08:08:35Z</time>
      </trkpt>
      <trkpt lat="44.04152" lon="5.3429">
        <ele>729.78</ele>
        <time>2015-10-12T08:08:36Z</time>
      </trkpt>
      <trkpt lat="44.04151" lon="5.34287">
        <ele>729.78</ele>
        <time>2015-10-12T08:08:37Z</time>
      </trkpt>
      <trkpt lat="44.04138" lon="5.34253">
        <ele>730.74</ele>
        <time>2015-10-12T08:08:50Z</time>
      </trkpt>
      <trkpt lat="44.04122" lon="5.34219">
        <ele>730.26</ele>
        <time>2015-10-12T08:09:03Z</time>
      </trkpt>
      <trkpt lat="44.04119" lon="5.34214">
        <ele>730.26</ele>
        <time>2015-10-12T08:09:05Z</time>
      </trkpt>
      <trkpt lat="44.04117" lon="5.34211">
        <ele>730.26</ele>
        <time>2015-10-12T08:09:06Z</time>
      </trkpt>
      <trkpt lat="44.04115" lon="5.34209">
        <ele>730.26</ele>
        <time>2015-10-12T08:09:07Z</time>
      </trkpt>
      <trkpt lat="44.04112" lon="5.34206">
        <ele>730.26</ele>
        <time>2015-10-12T08:09:08Z</time>
      </trkpt>
      <trkpt lat="44.04111" lon="5.34204">
        <ele>730.74</ele>
        <time>2015-10-12T08:09:09Z</time>
      </trkpt>
      <trkpt lat="44.0411" lon="5.34201">
        <ele>730.74</ele>
        <time>2015-10-12T08:09:10Z</time>
      </trkpt>
      <trkpt lat="44.0411" lon="5.34199">
        <ele>730.74</ele>
        <time>2015-10-12T08:09:11Z</time>
      </trkpt>
      <trkpt lat="44.04101" lon="5.34176">
        <ele>732.66</ele>
        <time>2015-10-12T08:09:21Z</time>
      </trkpt>
      <trkpt lat="44.04091" lon="5.34143">
        <ele>730.74</ele>
        <time>2015-10-12T08:09:34Z</time>
      </trkpt>
      <trkpt lat="44.04088" lon="5.34136">
        <ele>730.26</ele>
        <time>2015-10-12T08:09:38Z</time>
      </trkpt>
      <trkpt lat="44.04087" lon="5.34134">
        <ele>730.26</ele>
        <time>2015-10-12T08:09:39Z</time>
      </trkpt>
      <trkpt lat="44.04086" lon="5.34132">
        <ele>730.26</ele>
        <time>2015-10-12T08:09:40Z</time>
      </trkpt>
      <trkpt lat="44.04084" lon="5.34129">
        <ele>730.26</ele>
        <time>2015-10-12T08:09:41Z</time>
      </trkpt>
      <trkpt lat="44.04083" lon="5.34127">
        <ele>729.78</ele>
        <time>2015-10-12T08:09:42Z</time>
      </trkpt>
      <trkpt lat="44.04081" lon="5.34124">
        <ele>729.78</ele>
        <time>2015-10-12T08:09:43Z</time>
      </trkpt>
      <trkpt lat="44.04079" lon="5.34122">
        <ele>729.78</ele>
        <time>2015-10-12T08:09:44Z</time>
      </trkpt>
      <trkpt lat="44.04078" lon="5.3412">
        <ele>729.78</ele>
        <time>2015-10-12T08:09:45Z</time>
      </trkpt>
      <trkpt lat="44.04055" lon="5.34083">
        <ele>731.22</ele>
        <time>2015-10-12T08:09:58Z</time>
      </trkpt>
      <trkpt lat="44.0404" lon="5.34061">
        <ele>733.14</ele>
        <time>2015-10-12T08:10:10Z</time>
      </trkpt>
      <trkpt lat="44.04035" lon="5.34056">
        <ele>733.62</ele>
        <time>2015-10-12T08:10:36Z</time>
      </trkpt>
      <trkpt lat="44.04029" lon="5.3405">
        <ele>732.18</ele>
        <time>2015-10-12T08:11:08Z</time>
      </trkpt>
      <trkpt lat="44.04029" lon="5.34051">
        <ele>731.7</ele>
        <time>2015-10-12T08:11:38Z</time>
      </trkpt>
      <trkpt lat="44.04017" lon="5.34028">
        <ele>730.26</ele>
        <time>2015-10-12T08:11:50Z</time>
      </trkpt>
      <trkpt lat="44.03995" lon="5.34009">
        <ele>726.89</ele>
        <time>2015-10-12T08:11:59Z</time>
      </trkpt>
      <trkpt lat="44.03979" lon="5.34001">
        <ele>726.41</ele>
        <time>2015-10-12T08:12:10Z</time>
      </trkpt>
      <trkpt lat="44.03973" lon="5.33995">
        <ele>725.93</ele>
        <time>2015-10-12T08:12:27Z</time>
      </trkpt>
      <trkpt lat="44.0397" lon="5.33995">
        <ele>725.93</ele>
        <time>2015-10-12T08:12:33Z</time>
      </trkpt>
      <trkpt lat="44.03951" lon="5.33987">
        <ele>722.57</ele>
        <time>2015-10-12T08:12:45Z</time>
      </trkpt>
      <trkpt lat="44.03927" lon="5.3398">
        <ele>719.2</ele>
        <time>2015-10-12T08:12:57Z</time>
      </trkpt>
      <trkpt lat="44.0391" lon="5.33963">
        <ele>716.32</ele>
        <time>2015-10-12T08:13:08Z</time>
      </trkpt>
      <trkpt lat="44.03892" lon="5.33944">
        <ele>714.4</ele>
        <time>2015-10-12T08:13:18Z</time>
      </trkpt>
      <trkpt lat="44.03873" lon="5.33913">
        <ele>713.44</ele>
        <time>2015-10-12T08:13:28Z</time>
      </trkpt>
      <trkpt lat="44.03852" lon="5.33898">
        <ele>711.99</ele>
        <time>2015-10-12T08:13:38Z</time>
      </trkpt>
      <trkpt lat="44.03845" lon="5.33889">
        <ele>711.99</ele>
        <time>2015-10-12T08:13:48Z</time>
      </trkpt>
      <trkpt lat="44.03842" lon="5.33888">
        <ele>711.51</ele>
        <time>2015-10-12T08:14:04Z</time>
      </trkpt>
      <trkpt lat="44.0384" lon="5.33885">
        <ele>712.95</ele>
        <time>2015-10-12T08:14:36Z</time>
      </trkpt>
      <trkpt lat="44.0384" lon="5.33884">
        <ele>714.4</ele>
        <time>2015-10-12T08:15:07Z</time>
      </trkpt>
      <trkpt lat="44.03839" lon="5.3388">
        <ele>714.4</ele>
        <time>2015-10-12T08:15:41Z</time>
      </trkpt>
      <trkpt lat="44.0384" lon="5.33878">
        <ele>714.88</ele>
        <time>2015-10-12T08:15:45Z</time>
      </trkpt>
      <trkpt lat="44.03842" lon="5.33875">
        <ele>714.88</ele>
        <time>2015-10-12T08:15:48Z</time>
      </trkpt>
      <trkpt lat="44.03843" lon="5.33874">
        <ele>715.36</ele>
        <time>2015-10-12T08:15:49Z</time>
      </trkpt>
      <trkpt lat="44.03844" lon="5.33872">
        <ele>715.36</ele>
        <time>2015-10-12T08:15:50Z</time>
      </trkpt>
      <trkpt lat="44.03845" lon="5.33871">
        <ele>715.84</ele>
        <time>2015-10-12T08:15:51Z</time>
      </trkpt>
      <trkpt lat="44.03846" lon="5.3387">
        <ele>715.84</ele>
        <time>2015-10-12T08:15:52Z</time>
      </trkpt>
      <trkpt lat="44.03847" lon="5.33869">
        <ele>716.32</ele>
        <time>2015-10-12T08:15:53Z</time>
      </trkpt>
      <trkpt lat="44.03848" lon="5.33868">
        <ele>716.8</ele>
        <time>2015-10-12T08:15:54Z</time>
      </trkpt>
      <trkpt lat="44.03849" lon="5.33867">
        <ele>716.8</ele>
        <time>2015-10-12T08:15:55Z</time>
      </trkpt>
      <trkpt lat="44.03852" lon="5.33864">
        <ele>717.76</ele>
        <time>2015-10-12T08:15:58Z</time>
      </trkpt>
      <trkpt lat="44.03866" lon="5.33861">
        <ele>720.65</ele>
        <time>2015-10-12T08:16:11Z</time>
      </trkpt>
      <trkpt lat="44.03878" lon="5.3386">
        <ele>721.61</ele>
        <time>2015-10-12T08:16:26Z</time>
      </trkpt>
      <trkpt lat="44.03891" lon="5.33854">
        <ele>722.57</ele>
        <time>2015-10-12T08:16:43Z</time>
      </trkpt>
      <trkpt lat="44.03899" lon="5.33843">
        <ele>724.01</ele>
        <time>2015-10-12T08:16:58Z</time>
      </trkpt>
      <trkpt lat="44.03905" lon="5.33831">
        <ele>724.01</ele>
        <time>2015-10-12T08:17:13Z</time>
      </trkpt>
      <trkpt lat="44.03911" lon="5.33814">
        <ele>724.49</ele>
        <time>2015-10-12T08:17:30Z</time>
      </trkpt>
      <trkpt lat="44.03916" lon="5.33799">
        <ele>725.45</ele>
        <time>2015-10-12T08:17:46Z</time>
      </trkpt>
      <trkpt lat="44.03921" lon="5.33786">
        <ele>726.41</ele>
        <time>2015-10-12T08:17:58Z</time>
      </trkpt>
      <trkpt lat="44.03925" lon="5.33769">
        <ele>728.34</ele>
        <time>2015-10-12T08:18:14Z</time>
      </trkpt>
      <trkpt lat="44.03926" lon="5.33749">
        <ele>731.7</ele>
        <time>2015-10-12T08:18:32Z</time>
      </trkpt>
      <trkpt lat="44.03929" lon="5.3373">
        <ele>732.18</ele>
        <time>2015-10-12T08:18:48Z</time>
      </trkpt>
      <trkpt lat="44.03929" lon="5.33711">
        <ele>733.62</ele>
        <time>2015-10-12T08:19:05Z</time>
      </trkpt>
      <trkpt lat="44.03931" lon="5.33695">
        <ele>734.1</ele>
        <time>2015-10-12T08:19:19Z</time>
      </trkpt>
      <trkpt lat="44.03929" lon="5.33675">
        <ele>736.51</ele>
        <time>2015-10-12T08:19:36Z</time>
      </trkpt>
      <trkpt lat="44.03929" lon="5.3367">
        <ele>736.03</ele>
        <time>2015-10-12T08:19:50Z</time>
      </trkpt>
      <trkpt lat="44.03929" lon="5.33668">
        <ele>735.55</ele>
        <time>2015-10-12T08:20:01Z</time>
      </trkpt>
      <trkpt lat="44.0393" lon="5.33666">
        <ele>736.03</ele>
        <time>2015-10-12T08:20:02Z</time>
      </trkpt>
      <trkpt lat="44.0393" lon="5.33664">
        <ele>736.03</ele>
        <time>2015-10-12T08:20:03Z</time>
      </trkpt>
      <trkpt lat="44.0393" lon="5.33662">
        <ele>736.03</ele>
        <time>2015-10-12T08:20:04Z</time>
      </trkpt>
      <trkpt lat="44.0393" lon="5.3366">
        <ele>736.03</ele>
        <time>2015-10-12T08:20:05Z</time>
      </trkpt>
      <trkpt lat="44.0393" lon="5.33657">
        <ele>736.03</ele>
        <time>2015-10-12T08:20:06Z</time>
      </trkpt>
      <trkpt lat="44.03931" lon="5.33655">
        <ele>736.03</ele>
        <time>2015-10-12T08:20:07Z</time>
      </trkpt>
      <trkpt lat="44.03931" lon="5.33652">
        <ele>736.51</ele>
        <time>2015-10-12T08:20:08Z</time>
      </trkpt>
      <trkpt lat="44.0393" lon="5.3365">
        <ele>736.51</ele>
        <time>2015-10-12T08:20:09Z</time>
      </trkpt>
      <trkpt lat="44.0393" lon="5.33648">
        <ele>736.99</ele>
        <time>2015-10-12T08:20:10Z</time>
      </trkpt>
      <trkpt lat="44.0393" lon="5.33645">
        <ele>736.99</ele>
        <time>2015-10-12T08:20:11Z</time>
      </trkpt>
      <trkpt lat="44.0393" lon="5.33643">
        <ele>736.99</ele>
        <time>2015-10-12T08:20:12Z</time>
      </trkpt>
      <trkpt lat="44.03931" lon="5.33607">
        <ele>737.95</ele>
        <time>2015-10-12T08:20:27Z</time>
      </trkpt>
      <trkpt lat="44.03933" lon="5.33575">
        <ele>736.51</ele>
        <time>2015-10-12T08:20:37Z</time>
      </trkpt>
      <trkpt lat="44.03941" lon="5.33542">
        <ele>733.14</ele>
        <time>2015-10-12T08:20:48Z</time>
      </trkpt>
      <trkpt lat="44.03941" lon="5.33539">
        <ele>732.66</ele>
        <time>2015-10-12T08:20:49Z</time>
      </trkpt>
      <trkpt lat="44.03941" lon="5.33537">
        <ele>732.18</ele>
        <time>2015-10-12T08:20:50Z</time>
      </trkpt>
      <trkpt lat="44.03942" lon="5.33534">
        <ele>731.7</ele>
        <time>2015-10-12T08:20:51Z</time>
      </trkpt>
      <trkpt lat="44.03943" lon="5.33532">
        <ele>731.22</ele>
        <time>2015-10-12T08:20:52Z</time>
      </trkpt>
      <trkpt lat="44.03944" lon="5.3353">
        <ele>730.74</ele>
        <time>2015-10-12T08:20:53Z</time>
      </trkpt>
      <trkpt lat="44.03945" lon="5.33527">
        <ele>730.26</ele>
        <time>2015-10-12T08:20:54Z</time>
      </trkpt>
      <trkpt lat="44.03945" lon="5.33525">
        <ele>729.78</ele>
        <time>2015-10-12T08:20:55Z</time>
      </trkpt>
      <trkpt lat="44.0395" lon="5.33517">
        <ele>728.34</ele>
        <time>2015-10-12T08:20:59Z</time>
      </trkpt>
      <trkpt lat="44.03951" lon="5.33517">
        <ele>727.86</ele>
        <time>2015-10-12T08:21:00Z</time>
      </trkpt>
      <trkpt lat="44.03952" lon="5.33516">
        <ele>727.86</ele>
        <time>2015-10-12T08:21:01Z</time>
      </trkpt>
      <trkpt lat="44.03956" lon="5.33511">
        <ele>726.89</ele>
        <time>2015-10-12T08:21:05Z</time>
      </trkpt>
      <trkpt lat="44.03956" lon="5.33509">
        <ele>726.41</ele>
        <time>2015-10-12T08:21:06Z</time>
      </trkpt>
      <trkpt lat="44.03957" lon="5.33507">
        <ele>726.41</ele>
        <time>2015-10-12T08:21:07Z</time>
      </trkpt>
      <trkpt lat="44.03957" lon="5.335">
        <ele>724.49</ele>
        <time>2015-10-12T08:21:11Z</time>
      </trkpt>
      <trkpt lat="44.03956" lon="5.33498">
        <ele>723.53</ele>
        <time>2015-10-12T08:21:12Z</time>
      </trkpt>
      <trkpt lat="44.03955" lon="5.33496">
        <ele>723.05</ele>
        <time>2015-10-12T08:21:13Z</time>
      </trkpt>
      <trkpt lat="44.03953" lon="5.33485">
        <ele>721.13</ele>
        <time>2015-10-12T08:21:24Z</time>
      </trkpt>
      <trkpt lat="44.03953" lon="5.33476">
        <ele>719.68</ele>
        <time>2015-10-12T08:21:36Z</time>
      </trkpt>
      <trkpt lat="44.03951" lon="5.33461">
        <ele>718.24</ele>
        <time>2015-10-12T08:21:53Z</time>
      </trkpt>
      <trkpt lat="44.03949" lon="5.3345">
        <ele>715.84</ele>
        <time>2015-10-12T08:22:08Z</time>
      </trkpt>
      <trkpt lat="44.03947" lon="5.33442">
        <ele>713.44</ele>
        <time>2015-10-12T08:22:21Z</time>
      </trkpt>
      <trkpt lat="44.03945" lon="5.33431">
        <ele>710.07</ele>
        <time>2015-10-12T08:22:34Z</time>
      </trkpt>
      <trkpt lat="44.03942" lon="5.33425">
        <ele>707.19</ele>
        <time>2015-10-12T08:22:45Z</time>
      </trkpt>
      <trkpt lat="44.03939" lon="5.33415">
        <ele>706.23</ele>
        <time>2015-10-12T08:22:56Z</time>
      </trkpt>
      <trkpt lat="44.03935" lon="5.33401">
        <ele>703.34</ele>
        <time>2015-10-12T08:23:11Z</time>
      </trkpt>
      <trkpt lat="44.03931" lon="5.33387">
        <ele>699.02</ele>
        <time>2015-10-12T08:23:24Z</time>
      </trkpt>
      <trkpt lat="44.03931" lon="5.33383">
        <ele>698.53</ele>
        <time>2015-10-12T08:23:27Z</time>
      </trkpt>
      <trkpt lat="44.03932" lon="5.33381">
        <ele>698.05</ele>
        <time>2015-10-12T08:23:28Z</time>
      </trkpt>
      <trkpt lat="44.03928" lon="5.33372">
        <ele>697.57</ele>
        <time>2015-10-12T08:23:42Z</time>
      </trkpt>
      <trkpt lat="44.03928" lon="5.33371">
        <ele>696.13</ele>
        <time>2015-10-12T08:24:00Z</time>
      </trkpt>
      <trkpt lat="44.03927" lon="5.33372">
        <ele>695.65</ele>
        <time>2015-10-12T08:24:26Z</time>
      </trkpt>
      <trkpt lat="44.03927" lon="5.33371">
        <ele>698.53</ele>
        <time>2015-10-12T08:25:01Z</time>
      </trkpt>
      <trkpt lat="44.03926" lon="5.33371">
        <ele>699.02</ele>
        <time>2015-10-12T08:25:21Z</time>
      </trkpt>
      <trkpt lat="44.03926" lon="5.33371">
        <ele>697.09</ele>
        <time>2015-10-12T08:25:46Z</time>
      </trkpt>
      <trkpt lat="44.03925" lon="5.33373">
        <ele>698.05</ele>
        <time>2015-10-12T08:26:07Z</time>
      </trkpt>
      <trkpt lat="44.03922" lon="5.33371">
        <ele>696.61</ele>
        <time>2015-10-12T08:26:27Z</time>
      </trkpt>
      <trkpt lat="44.03919" lon="5.33368">
        <ele>695.65</ele>
        <time>2015-10-12T08:26:32Z</time>
      </trkpt>
      <trkpt lat="44.03913" lon="5.33363">
        <ele>694.69</ele>
        <time>2015-10-12T08:26:46Z</time>
      </trkpt>
      <trkpt lat="44.03911" lon="5.3336">
        <ele>693.25</ele>
        <time>2015-10-12T08:26:59Z</time>
      </trkpt>
      <trkpt lat="44.03904" lon="5.33351">
        <ele>690.84</ele>
        <time>2015-10-12T08:27:13Z</time>
      </trkpt>
      <trkpt lat="44.03888" lon="5.33336">
        <ele>688.44</ele>
        <time>2015-10-12T08:27:23Z</time>
      </trkpt>
      <trkpt lat="44.03884" lon="5.33333">
        <ele>687.96</ele>
        <time>2015-10-12T08:27:25Z</time>
      </trkpt>
      <trkpt lat="44.03883" lon="5.3333">
        <ele>687.48</ele>
        <time>2015-10-12T08:27:26Z</time>
      </trkpt>
      <trkpt lat="44.03882" lon="5.33327">
        <ele>687</ele>
        <time>2015-10-12T08:27:27Z</time>
      </trkpt>
      <trkpt lat="44.03881" lon="5.33323">
        <ele>687</ele>
        <time>2015-10-12T08:27:28Z</time>
      </trkpt>
      <trkpt lat="44.0388" lon="5.3332">
        <ele>686.52</ele>
        <time>2015-10-12T08:27:29Z</time>
      </trkpt>
      <trkpt lat="44.03878" lon="5.33317">
        <ele>686.04</ele>
        <time>2015-10-12T08:27:30Z</time>
      </trkpt>
      <trkpt lat="44.03868" lon="5.33282">
        <ele>679.79</ele>
        <time>2015-10-12T08:27:41Z</time>
      </trkpt>
      <trkpt lat="44.03868" lon="5.33279">
        <ele>679.31</ele>
        <time>2015-10-12T08:27:42Z</time>
      </trkpt>
      <trkpt lat="44.03865" lon="5.33254">
        <ele>678.83</ele>
        <time>2015-10-12T08:27:49Z</time>
      </trkpt>
      <trkpt lat="44.03859" lon="5.33238">
        <ele>677.87</ele>
        <time>2015-10-12T08:28:00Z</time>
      </trkpt>
      <trkpt lat="44.03856" lon="5.33232">
        <ele>675.46</ele>
        <time>2015-10-12T08:28:15Z</time>
      </trkpt>
      <trkpt lat="44.03852" lon="5.33218">
        <ele>673.06</ele>
        <time>2015-10-12T08:28:28Z</time>
      </trkpt>
      <trkpt lat="44.03848" lon="5.33209">
        <ele>670.18</ele>
        <time>2015-10-12T08:28:42Z</time>
      </trkpt>
      <trkpt lat="44.03846" lon="5.33202">
        <ele>669.7</ele>
        <time>2015-10-12T08:28:55Z</time>
      </trkpt>
      <trkpt lat="44.03849" lon="5.33194">
        <ele>668.25</ele>
        <time>2015-10-12T08:29:09Z</time>
      </trkpt>
      <trkpt lat="44.03846" lon="5.33187">
        <ele>667.29</ele>
        <time>2015-10-12T08:29:24Z</time>
      </trkpt>
      <trkpt lat="44.03841" lon="5.33179">
        <ele>665.85</ele>
        <time>2015-10-12T08:29:31Z</time>
      </trkpt>
      <trkpt lat="44.03841" lon="5.33177">
        <ele>665.85</ele>
        <time>2015-10-12T08:29:32Z</time>
      </trkpt>
      <trkpt lat="44.03841" lon="5.33174">
        <ele>665.37</ele>
        <time>2015-10-12T08:29:33Z</time>
      </trkpt>
      <trkpt lat="44.03841" lon="5.33171">
        <ele>664.89</ele>
        <time>2015-10-12T08:29:34Z</time>
      </trkpt>
      <trkpt lat="44.03841" lon="5.33168">
        <ele>664.41</ele>
        <time>2015-10-12T08:29:35Z</time>
      </trkpt>
      <trkpt lat="44.0384" lon="5.33165">
        <ele>663.93</ele>
        <time>2015-10-12T08:29:36Z</time>
      </trkpt>
      <trkpt lat="44.0384" lon="5.33163">
        <ele>663.45</ele>
        <time>2015-10-12T08:29:37Z</time>
      </trkpt>
      <trkpt lat="44.0384" lon="5.33159">
        <ele>662.97</ele>
        <time>2015-10-12T08:29:39Z</time>
      </trkpt>
      <trkpt lat="44.03843" lon="5.33145">
        <ele>662.97</ele>
        <time>2015-10-12T08:29:50Z</time>
      </trkpt>
      <trkpt lat="44.03845" lon="5.33134">
        <ele>664.89</ele>
        <time>2015-10-12T08:30:04Z</time>
      </trkpt>
      <trkpt lat="44.03847" lon="5.33123">
        <ele>666.33</ele>
        <time>2015-10-12T08:30:17Z</time>
      </trkpt>
      <trkpt lat="44.03849" lon="5.33117">
        <ele>666.81</ele>
        <time>2015-10-12T08:30:28Z</time>
      </trkpt>
      <trkpt lat="44.03852" lon="5.33105">
        <ele>668.73</ele>
        <time>2015-10-12T08:30:42Z</time>
      </trkpt>
      <trkpt lat="44.03853" lon="5.33094">
        <ele>671.62</ele>
        <time>2015-10-12T08:30:55Z</time>
      </trkpt>
      <trkpt lat="44.03854" lon="5.33079">
        <ele>674.02</ele>
        <time>2015-10-12T08:31:10Z</time>
      </trkpt>
      <trkpt lat="44.03856" lon="5.33063">
        <ele>676.91</ele>
        <time>2015-10-12T08:31:25Z</time>
      </trkpt>
      <trkpt lat="44.03856" lon="5.3306">
        <ele>677.87</ele>
        <time>2015-10-12T08:31:28Z</time>
      </trkpt>
      <trkpt lat="44.03857" lon="5.33048">
        <ele>681.23</ele>
        <time>2015-10-12T08:31:41Z</time>
      </trkpt>
      <trkpt lat="44.03857" lon="5.33038">
        <ele>682.19</ele>
        <time>2015-10-12T08:31:51Z</time>
      </trkpt>
      <trkpt lat="44.03855" lon="5.33025">
        <ele>683.63</ele>
        <time>2015-10-12T08:32:05Z</time>
      </trkpt>
      <trkpt lat="44.03847" lon="5.33019">
        <ele>685.56</ele>
        <time>2015-10-12T08:32:19Z</time>
      </trkpt>
      <trkpt lat="44.03842" lon="5.33012">
        <ele>686.04</ele>
        <time>2015-10-12T08:32:32Z</time>
      </trkpt>
      <trkpt lat="44.03834" lon="5.33005">
        <ele>684.12</ele>
        <time>2015-10-12T08:32:46Z</time>
      </trkpt>
      <trkpt lat="44.03835" lon="5.32998">
        <ele>684.12</ele>
        <time>2015-10-12T08:32:59Z</time>
      </trkpt>
      <trkpt lat="44.0383" lon="5.32986">
        <ele>685.56</ele>
        <time>2015-10-12T08:33:14Z</time>
      </trkpt>
      <trkpt lat="44.03825" lon="5.32976">
        <ele>687.48</ele>
        <time>2015-10-12T08:33:27Z</time>
      </trkpt>
      <trkpt lat="44.03821" lon="5.32962">
        <ele>687.96</ele>
        <time>2015-10-12T08:33:41Z</time>
      </trkpt>
      <trkpt lat="44.0382" lon="5.3295">
        <ele>690.36</ele>
        <time>2015-10-12T08:33:55Z</time>
      </trkpt>
      <trkpt lat="44.03812" lon="5.32938">
        <ele>691.81</ele>
        <time>2015-10-12T08:34:12Z</time>
      </trkpt>
      <trkpt lat="44.0381" lon="5.32936">
        <ele>688.92</ele>
        <time>2015-10-12T08:34:29Z</time>
      </trkpt>
      <trkpt lat="44.03811" lon="5.32935">
        <ele>686.52</ele>
        <time>2015-10-12T08:34:58Z</time>
      </trkpt>
      <trkpt lat="44.03803" lon="5.32934">
        <ele>685.08</ele>
        <time>2015-10-12T08:35:14Z</time>
      </trkpt>
      <trkpt lat="44.03791" lon="5.32928">
        <ele>688.92</ele>
        <time>2015-10-12T08:35:28Z</time>
      </trkpt>
      <trkpt lat="44.03789" lon="5.32927">
        <ele>689.88</ele>
        <time>2015-10-12T08:35:30Z</time>
      </trkpt>
      <trkpt lat="44.03778" lon="5.32924">
        <ele>692.29</ele>
        <time>2015-10-12T08:35:43Z</time>
      </trkpt>
      <trkpt lat="44.03779" lon="5.32932">
        <ele>694.69</ele>
        <time>2015-10-12T08:35:57Z</time>
      </trkpt>
      <trkpt lat="44.03783" lon="5.32942">
        <ele>695.17</ele>
        <time>2015-10-12T08:36:13Z</time>
      </trkpt>
      <trkpt lat="44.03788" lon="5.32954">
        <ele>698.05</ele>
        <time>2015-10-12T08:36:30Z</time>
      </trkpt>
      <trkpt lat="44.03791" lon="5.32965">
        <ele>699.5</ele>
        <time>2015-10-12T08:36:43Z</time>
      </trkpt>
      <trkpt lat="44.03794" lon="5.32975">
        <ele>699.02</ele>
        <time>2015-10-12T08:36:55Z</time>
      </trkpt>
      <trkpt lat="44.03791" lon="5.32989">
        <ele>701.42</ele>
        <time>2015-10-12T08:37:14Z</time>
      </trkpt>
      <trkpt lat="44.03784" lon="5.32992">
        <ele>703.34</ele>
        <time>2015-10-12T08:37:28Z</time>
      </trkpt>
      <trkpt lat="44.03778" lon="5.32992">
        <ele>705.26</ele>
        <time>2015-10-12T08:37:42Z</time>
      </trkpt>
      <trkpt lat="44.03771" lon="5.32988">
        <ele>707.67</ele>
        <time>2015-10-12T08:37:58Z</time>
      </trkpt>
      <trkpt lat="44.03771" lon="5.32987">
        <ele>707.19</ele>
        <time>2015-10-12T08:37:59Z</time>
      </trkpt>
      <trkpt lat="44.03768" lon="5.32976">
        <ele>705.75</ele>
        <time>2015-10-12T08:38:05Z</time>
      </trkpt>
      <trkpt lat="44.03766" lon="5.32974">
        <ele>705.26</ele>
        <time>2015-10-12T08:38:06Z</time>
      </trkpt>
      <trkpt lat="44.03747" lon="5.32951">
        <ele>704.78</ele>
        <time>2015-10-12T08:38:16Z</time>
      </trkpt>
      <trkpt lat="44.03705" lon="5.32928">
        <ele>698.05</ele>
        <time>2015-10-12T08:38:30Z</time>
      </trkpt>
      <trkpt lat="44.03701" lon="5.32921">
        <ele>696.61</ele>
        <time>2015-10-12T08:38:33Z</time>
      </trkpt>
      <trkpt lat="44.03701" lon="5.32919">
        <ele>696.61</ele>
        <time>2015-10-12T08:38:34Z</time>
      </trkpt>
      <trkpt lat="44.03701" lon="5.32916">
        <ele>696.13</ele>
        <time>2015-10-12T08:38:35Z</time>
      </trkpt>
      <trkpt lat="44.03701" lon="5.32913">
        <ele>696.13</ele>
        <time>2015-10-12T08:38:36Z</time>
      </trkpt>
      <trkpt lat="44.03701" lon="5.32904">
        <ele>697.09</ele>
        <time>2015-10-12T08:38:45Z</time>
      </trkpt>
      <trkpt lat="44.03702" lon="5.32892">
        <ele>698.05</ele>
        <time>2015-10-12T08:39:00Z</time>
      </trkpt>
      <trkpt lat="44.03705" lon="5.3288">
        <ele>700.94</ele>
        <time>2015-10-12T08:39:16Z</time>
      </trkpt>
      <trkpt lat="44.03706" lon="5.3287">
        <ele>702.38</ele>
        <time>2015-10-12T08:39:31Z</time>
      </trkpt>
      <trkpt lat="44.03709" lon="5.32861">
        <ele>705.26</ele>
        <time>2015-10-12T08:39:45Z</time>
      </trkpt>
      <trkpt lat="44.03709" lon="5.32853">
        <ele>706.71</ele>
        <time>2015-10-12T08:40:01Z</time>
      </trkpt>
      <trkpt lat="44.03712" lon="5.32844">
        <ele>709.59</ele>
        <time>2015-10-12T08:40:19Z</time>
      </trkpt>
      <trkpt lat="44.03709" lon="5.32833">
        <ele>711.03</ele>
        <time>2015-10-12T08:40:36Z</time>
      </trkpt>
      <trkpt lat="44.03706" lon="5.32826">
        <ele>711.99</ele>
        <time>2015-10-12T08:40:49Z</time>
      </trkpt>
      <trkpt lat="44.03702" lon="5.32817">
        <ele>714.4</ele>
        <time>2015-10-12T08:41:05Z</time>
      </trkpt>
      <trkpt lat="44.03703" lon="5.32805">
        <ele>716.32</ele>
        <time>2015-10-12T08:41:20Z</time>
      </trkpt>
      <trkpt lat="44.03708" lon="5.32794">
        <ele>718.72</ele>
        <time>2015-10-12T08:41:38Z</time>
      </trkpt>
      <trkpt lat="44.03715" lon="5.32788">
        <ele>720.16</ele>
        <time>2015-10-12T08:41:53Z</time>
      </trkpt>
      <trkpt lat="44.03724" lon="5.32774">
        <ele>721.61</ele>
        <time>2015-10-12T08:42:09Z</time>
      </trkpt>
      <trkpt lat="44.03728" lon="5.3276">
        <ele>723.05</ele>
        <time>2015-10-12T08:42:24Z</time>
      </trkpt>
      <trkpt lat="44.03732" lon="5.32746">
        <ele>725.45</ele>
        <time>2015-10-12T08:42:40Z</time>
      </trkpt>
      <trkpt lat="44.03734" lon="5.32733">
        <ele>727.37</ele>
        <time>2015-10-12T08:42:55Z</time>
      </trkpt>
      <trkpt lat="44.03736" lon="5.3272">
        <ele>727.37</ele>
        <time>2015-10-12T08:43:11Z</time>
      </trkpt>
      <trkpt lat="44.0374" lon="5.32706">
        <ele>729.78</ele>
        <time>2015-10-12T08:43:27Z</time>
      </trkpt>
      <trkpt lat="44.03743" lon="5.32695">
        <ele>731.22</ele>
        <time>2015-10-12T08:43:41Z</time>
      </trkpt>
      <trkpt lat="44.03747" lon="5.32686">
        <ele>731.22</ele>
        <time>2015-10-12T08:43:54Z</time>
      </trkpt>
      <trkpt lat="44.0375" lon="5.32674">
        <ele>734.1</ele>
        <time>2015-10-12T08:44:11Z</time>
      </trkpt>
      <trkpt lat="44.03755" lon="5.32663">
        <ele>736.03</ele>
        <time>2015-10-12T08:44:28Z</time>
      </trkpt>
      <trkpt lat="44.03761" lon="5.32654">
        <ele>737.47</ele>
        <time>2015-10-12T08:44:45Z</time>
      </trkpt>
      <trkpt lat="44.03768" lon="5.32642">
        <ele>738.91</ele>
        <time>2015-10-12T08:45:01Z</time>
      </trkpt>
      <trkpt lat="44.03773" lon="5.3263">
        <ele>740.35</ele>
        <time>2015-10-12T08:45:16Z</time>
      </trkpt>
      <trkpt lat="44.03777" lon="5.32616">
        <ele>741.31</ele>
        <time>2015-10-12T08:45:31Z</time>
      </trkpt>
      <trkpt lat="44.03775" lon="5.32602">
        <ele>743.24</ele>
        <time>2015-10-12T08:45:47Z</time>
      </trkpt>
      <trkpt lat="44.03771" lon="5.32585">
        <ele>744.68</ele>
        <time>2015-10-12T08:46:02Z</time>
      </trkpt>
      <trkpt lat="44.0377" lon="5.32577">
        <ele>743.24</ele>
        <time>2015-10-12T08:46:10Z</time>
      </trkpt>
      <trkpt lat="44.03769" lon="5.32576">
        <ele>742.76</ele>
        <time>2015-10-12T08:46:11Z</time>
      </trkpt>
      <trkpt lat="44.03769" lon="5.32573">
        <ele>742.76</ele>
        <time>2015-10-12T08:46:12Z</time>
      </trkpt>
      <trkpt lat="44.03768" lon="5.3257">
        <ele>742.76</ele>
        <time>2015-10-12T08:46:14Z</time>
      </trkpt>
      <trkpt lat="44.03768" lon="5.32568">
        <ele>742.76</ele>
        <time>2015-10-12T08:46:15Z</time>
      </trkpt>
      <trkpt lat="44.03768" lon="5.32566">
        <ele>743.24</ele>
        <time>2015-10-12T08:46:16Z</time>
      </trkpt>
      <trkpt lat="44.03768" lon="5.32564">
        <ele>743.24</ele>
        <time>2015-10-12T08:46:17Z</time>
      </trkpt>
      <trkpt lat="44.03768" lon="5.32562">
        <ele>743.24</ele>
        <time>2015-10-12T08:46:18Z</time>
      </trkpt>
      <trkpt lat="44.03767" lon="5.32555">
        <ele>743.72</ele>
        <time>2015-10-12T08:46:29Z</time>
      </trkpt>
      <trkpt lat="44.03765" lon="5.32538">
        <ele>745.16</ele>
        <time>2015-10-12T08:46:46Z</time>
      </trkpt>
      <trkpt lat="44.03764" lon="5.32518">
        <ele>746.6</ele>
        <time>2015-10-12T08:47:05Z</time>
      </trkpt>
      <trkpt lat="44.03766" lon="5.32505">
        <ele>748.52</ele>
        <time>2015-10-12T08:47:20Z</time>
      </trkpt>
      <trkpt lat="44.03768" lon="5.32493">
        <ele>750.93</ele>
        <time>2015-10-12T08:47:36Z</time>
      </trkpt>
      <trkpt lat="44.03769" lon="5.32492">
        <ele>753.33</ele>
        <time>2015-10-12T08:47:57Z</time>
      </trkpt>
      <trkpt lat="44.0377" lon="5.32491">
        <ele>752.85</ele>
        <time>2015-10-12T08:48:21Z</time>
      </trkpt>
      <trkpt lat="44.03771" lon="5.3249">
        <ele>752.85</ele>
        <time>2015-10-12T08:48:48Z</time>
      </trkpt>
      <trkpt lat="44.03769" lon="5.32491">
        <ele>753.81</ele>
        <time>2015-10-12T08:49:20Z</time>
      </trkpt>
      <trkpt lat="44.0377" lon="5.3249">
        <ele>751.89</ele>
        <time>2015-10-12T08:49:39Z</time>
      </trkpt>
      <trkpt lat="44.0377" lon="5.32492">
        <ele>750.93</ele>
        <time>2015-10-12T08:49:54Z</time>
      </trkpt>
      <trkpt lat="44.03771" lon="5.32498">
        <ele>748.52</ele>
        <time>2015-10-12T08:50:29Z</time>
      </trkpt>
      <trkpt lat="44.03768" lon="5.32501">
        <ele>751.41</ele>
        <time>2015-10-12T08:51:09Z</time>
      </trkpt>
      <trkpt lat="44.03771" lon="5.32495">
        <ele>746.6</ele>
        <time>2015-10-12T08:52:00Z</time>
      </trkpt>
      <trkpt lat="44.03771" lon="5.32493">
        <ele>746.12</ele>
        <time>2015-10-12T08:52:35Z</time>
      </trkpt>
      <trkpt lat="44.03771" lon="5.32493">
        <ele>749</ele>
        <time>2015-10-12T08:53:15Z</time>
      </trkpt>
      <trkpt lat="44.03771" lon="5.32494">
        <ele>746.6</ele>
        <time>2015-10-12T08:53:56Z</time>
      </trkpt>
      <trkpt lat="44.03772" lon="5.32495">
        <ele>749</ele>
        <time>2015-10-12T08:54:41Z</time>
      </trkpt>
      <trkpt lat="44.03772" lon="5.32494">
        <ele>750.93</ele>
        <time>2015-10-12T08:55:20Z</time>
      </trkpt>
      <trkpt lat="44.03772" lon="5.32493">
        <ele>748.52</ele>
        <time>2015-10-12T08:56:08Z</time>
      </trkpt>
      <trkpt lat="44.0377" lon="5.32494">
        <ele>749.49</ele>
        <time>2015-10-12T08:56:48Z</time>
      </trkpt>
      <trkpt lat="44.03769" lon="5.32496">
        <ele>749.97</ele>
        <time>2015-10-12T08:57:30Z</time>
      </trkpt>
      <trkpt lat="44.03767" lon="5.32498">
        <ele>754.29</ele>
        <time>2015-10-12T08:58:11Z</time>
      </trkpt>
      <trkpt lat="44.03761" lon="5.32497">
        <ele>756.69</ele>
        <time>2015-10-12T08:58:45Z</time>
      </trkpt>
      <trkpt lat="44.03767" lon="5.32496">
        <ele>754.77</ele>
        <time>2015-10-12T08:59:21Z</time>
      </trkpt>
      <trkpt lat="44.03767" lon="5.32495">
        <ele>754.29</ele>
        <time>2015-10-12T08:59:54Z</time>
      </trkpt>
      <trkpt lat="44.03772" lon="5.32491">
        <ele>754.77</ele>
        <time>2015-10-12T09:00:07Z</time>
      </trkpt>
      <trkpt lat="44.03773" lon="5.32492">
        <ele>754.29</ele>
        <time>2015-10-12T09:00:08Z</time>
      </trkpt>
      <trkpt lat="44.03775" lon="5.32492">
        <ele>754.29</ele>
        <time>2015-10-12T09:00:09Z</time>
      </trkpt>
      <trkpt lat="44.03804" lon="5.32488">
        <ele>753.81</ele>
        <time>2015-10-12T09:00:22Z</time>
      </trkpt>
      <trkpt lat="44.0383" lon="5.32489">
        <ele>753.33</ele>
        <time>2015-10-12T09:00:35Z</time>
      </trkpt>
      <trkpt lat="44.03848" lon="5.32486">
        <ele>753.33</ele>
        <time>2015-10-12T09:00:45Z</time>
      </trkpt>
      <trkpt lat="44.0385" lon="5.32485">
        <ele>753.33</ele>
        <time>2015-10-12T09:00:46Z</time>
      </trkpt>
      <trkpt lat="44.03852" lon="5.32485">
        <ele>753.33</ele>
        <time>2015-10-12T09:00:47Z</time>
      </trkpt>
      <trkpt lat="44.03865" lon="5.32483">
        <ele>754.29</ele>
        <time>2015-10-12T09:00:54Z</time>
      </trkpt>
      <trkpt lat="44.03868" lon="5.32482">
        <ele>754.29</ele>
        <time>2015-10-12T09:00:56Z</time>
      </trkpt>
      <trkpt lat="44.0387" lon="5.32483">
        <ele>754.77</ele>
        <time>2015-10-12T09:00:57Z</time>
      </trkpt>
      <trkpt lat="44.03872" lon="5.32483">
        <ele>754.77</ele>
        <time>2015-10-12T09:00:58Z</time>
      </trkpt>
      <trkpt lat="44.03874" lon="5.32483">
        <ele>754.77</ele>
        <time>2015-10-12T09:00:59Z</time>
      </trkpt>
      <trkpt lat="44.03876" lon="5.32482">
        <ele>754.77</ele>
        <time>2015-10-12T09:01:00Z</time>
      </trkpt>
      <trkpt lat="44.03878" lon="5.32482">
        <ele>754.77</ele>
        <time>2015-10-12T09:01:01Z</time>
      </trkpt>
      <trkpt lat="44.03879" lon="5.3248">
        <ele>755.25</ele>
        <time>2015-10-12T09:01:02Z</time>
      </trkpt>
      <trkpt lat="44.03881" lon="5.32479">
        <ele>755.25</ele>
        <time>2015-10-12T09:01:03Z</time>
      </trkpt>
      <trkpt lat="44.03891" lon="5.32466">
        <ele>757.18</ele>
        <time>2015-10-12T09:01:15Z</time>
      </trkpt>
      <trkpt lat="44.03899" lon="5.32457">
        <ele>758.62</ele>
        <time>2015-10-12T09:01:29Z</time>
      </trkpt>
      <trkpt lat="44.03911" lon="5.3245">
        <ele>760.54</ele>
        <time>2015-10-12T09:01:45Z</time>
      </trkpt>
      <trkpt lat="44.03922" lon="5.32444">
        <ele>762.46</ele>
        <time>2015-10-12T09:02:01Z</time>
      </trkpt>
      <trkpt lat="44.03931" lon="5.32441">
        <ele>764.39</ele>
        <time>2015-10-12T09:02:14Z</time>
      </trkpt>
      <trkpt lat="44.0394" lon="5.32437">
        <ele>765.35</ele>
        <time>2015-10-12T09:02:27Z</time>
      </trkpt>
      <trkpt lat="44.0395" lon="5.32435">
        <ele>768.23</ele>
        <time>2015-10-12T09:02:42Z</time>
      </trkpt>
      <trkpt lat="44.03961" lon="5.32434">
        <ele>770.63</ele>
        <time>2015-10-12T09:02:57Z</time>
      </trkpt>
      <trkpt lat="44.03968" lon="5.32435">
        <ele>769.67</ele>
        <time>2015-10-12T09:03:10Z</time>
      </trkpt>
      <trkpt lat="44.03969" lon="5.32435">
        <ele>769.67</ele>
        <time>2015-10-12T09:03:11Z</time>
      </trkpt>
      <trkpt lat="44.03971" lon="5.32435">
        <ele>769.67</ele>
        <time>2015-10-12T09:03:12Z</time>
      </trkpt>
      <trkpt lat="44.03997" lon="5.32444">
        <ele>772.08</ele>
        <time>2015-10-12T09:03:30Z</time>
      </trkpt>
      <trkpt lat="44.04029" lon="5.32458">
        <ele>774.96</ele>
        <time>2015-10-12T09:03:50Z</time>
      </trkpt>
      <trkpt lat="44.04034" lon="5.32458">
        <ele>775.44</ele>
        <time>2015-10-12T09:03:53Z</time>
      </trkpt>
      <trkpt lat="44.04056" lon="5.32469">
        <ele>777.36</ele>
        <time>2015-10-12T09:04:08Z</time>
      </trkpt>
      <trkpt lat="44.04089" lon="5.32487">
        <ele>778.81</ele>
        <time>2015-10-12T09:04:28Z</time>
      </trkpt>
      <trkpt lat="44.04108" lon="5.32498">
        <ele>778.81</ele>
        <time>2015-10-12T09:04:41Z</time>
      </trkpt>
      <trkpt lat="44.04137" lon="5.32507">
        <ele>780.25</ele>
        <time>2015-10-12T09:04:58Z</time>
      </trkpt>
      <trkpt lat="44.04139" lon="5.32507">
        <ele>780.25</ele>
        <time>2015-10-12T09:04:59Z</time>
      </trkpt>
      <trkpt lat="44.0414" lon="5.32506">
        <ele>780.73</ele>
        <time>2015-10-12T09:05:00Z</time>
      </trkpt>
      <trkpt lat="44.0414" lon="5.32504">
        <ele>780.73</ele>
        <time>2015-10-12T09:05:01Z</time>
      </trkpt>
      <trkpt lat="44.0414" lon="5.32501">
        <ele>780.73</ele>
        <time>2015-10-12T09:05:02Z</time>
      </trkpt>
      <trkpt lat="44.0414" lon="5.325">
        <ele>780.73</ele>
        <time>2015-10-12T09:05:03Z</time>
      </trkpt>
      <trkpt lat="44.04139" lon="5.32498">
        <ele>781.21</ele>
        <time>2015-10-12T09:05:04Z</time>
      </trkpt>
      <trkpt lat="44.04138" lon="5.32497">
        <ele>781.21</ele>
        <time>2015-10-12T09:05:05Z</time>
      </trkpt>
      <trkpt lat="44.04137" lon="5.32497">
        <ele>781.21</ele>
        <time>2015-10-12T09:05:06Z</time>
      </trkpt>
      <trkpt lat="44.04135" lon="5.32496">
        <ele>781.69</ele>
        <time>2015-10-12T09:05:07Z</time>
      </trkpt>
      <trkpt lat="44.04119" lon="5.32482">
        <ele>784.57</ele>
        <time>2015-10-12T09:05:18Z</time>
      </trkpt>
      <trkpt lat="44.04118" lon="5.32481">
        <ele>784.57</ele>
        <time>2015-10-12T09:05:19Z</time>
      </trkpt>
      <trkpt lat="44.04117" lon="5.3248">
        <ele>785.05</ele>
        <time>2015-10-12T09:05:20Z</time>
      </trkpt>
      <trkpt lat="44.04116" lon="5.32478">
        <ele>785.05</ele>
        <time>2015-10-12T09:05:21Z</time>
      </trkpt>
      <trkpt lat="44.04115" lon="5.32477">
        <ele>785.05</ele>
        <time>2015-10-12T09:05:22Z</time>
      </trkpt>
      <trkpt lat="44.04114" lon="5.32476">
        <ele>785.53</ele>
        <time>2015-10-12T09:05:23Z</time>
      </trkpt>
      <trkpt lat="44.04113" lon="5.32475">
        <ele>785.53</ele>
        <time>2015-10-12T09:05:24Z</time>
      </trkpt>
      <trkpt lat="44.04112" lon="5.32473">
        <ele>785.53</ele>
        <time>2015-10-12T09:05:25Z</time>
      </trkpt>
      <trkpt lat="44.04111" lon="5.32472">
        <ele>786.02</ele>
        <time>2015-10-12T09:05:26Z</time>
      </trkpt>
      <trkpt lat="44.0411" lon="5.32471">
        <ele>786.02</ele>
        <time>2015-10-12T09:05:27Z</time>
      </trkpt>
      <trkpt lat="44.04108" lon="5.3247">
        <ele>786.02</ele>
        <time>2015-10-12T09:05:28Z</time>
      </trkpt>
      <trkpt lat="44.04096" lon="5.32451">
        <ele>789.38</ele>
        <time>2015-10-12T09:05:43Z</time>
      </trkpt>
      <trkpt lat="44.04083" lon="5.3243">
        <ele>793.71</ele>
        <time>2015-10-12T09:05:57Z</time>
      </trkpt>
      <trkpt lat="44.04064" lon="5.32403">
        <ele>794.19</ele>
        <time>2015-10-12T09:06:13Z</time>
      </trkpt>
      <trkpt lat="44.04048" lon="5.32383">
        <ele>796.59</ele>
        <time>2015-10-12T09:06:25Z</time>
      </trkpt>
      <trkpt lat="44.0403" lon="5.32354">
        <ele>798.03</ele>
        <time>2015-10-12T09:06:41Z</time>
      </trkpt>
      <trkpt lat="44.04011" lon="5.32322">
        <ele>798.99</ele>
        <time>2015-10-12T09:06:57Z</time>
      </trkpt>
      <trkpt lat="44.03994" lon="5.3229">
        <ele>798.99</ele>
        <time>2015-10-12T09:07:12Z</time>
      </trkpt>
      <trkpt lat="44.03976" lon="5.32262">
        <ele>799.47</ele>
        <time>2015-10-12T09:07:29Z</time>
      </trkpt>
      <trkpt lat="44.03961" lon="5.32237">
        <ele>801.4</ele>
        <time>2015-10-12T09:07:45Z</time>
      </trkpt>
      <trkpt lat="44.03947" lon="5.32227">
        <ele>800.92</ele>
        <time>2015-10-12T09:07:54Z</time>
      </trkpt>
      <trkpt lat="44.03931" lon="5.32197">
        <ele>802.84</ele>
        <time>2015-10-12T09:08:10Z</time>
      </trkpt>
      <trkpt lat="44.03911" lon="5.32182">
        <ele>805.72</ele>
        <time>2015-10-12T09:08:24Z</time>
      </trkpt>
      <trkpt lat="44.03909" lon="5.3218">
        <ele>805.72</ele>
        <time>2015-10-12T09:08:26Z</time>
      </trkpt>
      <trkpt lat="44.03908" lon="5.32179">
        <ele>806.2</ele>
        <time>2015-10-12T09:08:27Z</time>
      </trkpt>
      <trkpt lat="44.03887" lon="5.32172">
        <ele>807.64</ele>
        <time>2015-10-12T09:08:42Z</time>
      </trkpt>
      <trkpt lat="44.03863" lon="5.32169">
        <ele>809.09</ele>
        <time>2015-10-12T09:08:58Z</time>
      </trkpt>
      <trkpt lat="44.03836" lon="5.32168">
        <ele>811.97</ele>
        <time>2015-10-12T09:09:15Z</time>
      </trkpt>
      <trkpt lat="44.0381" lon="5.32167">
        <ele>813.89</ele>
        <time>2015-10-12T09:09:32Z</time>
      </trkpt>
      <trkpt lat="44.03779" lon="5.32168">
        <ele>815.82</ele>
        <time>2015-10-12T09:09:51Z</time>
      </trkpt>
      <trkpt lat="44.03755" lon="5.32171">
        <ele>817.26</ele>
        <time>2015-10-12T09:10:06Z</time>
      </trkpt>
      <trkpt lat="44.03729" lon="5.32176">
        <ele>816.78</ele>
        <time>2015-10-12T09:10:23Z</time>
      </trkpt>
      <trkpt lat="44.03705" lon="5.3218">
        <ele>818.7</ele>
        <time>2015-10-12T09:10:38Z</time>
      </trkpt>
      <trkpt lat="44.0368" lon="5.32182">
        <ele>820.14</ele>
        <time>2015-10-12T09:10:53Z</time>
      </trkpt>
      <trkpt lat="44.03648" lon="5.32186">
        <ele>820.14</ele>
        <time>2015-10-12T09:11:08Z</time>
      </trkpt>
      <trkpt lat="44.03607" lon="5.32193">
        <ele>818.7</ele>
        <time>2015-10-12T09:11:24Z</time>
      </trkpt>
      <trkpt lat="44.0357" lon="5.32206">
        <ele>817.74</ele>
        <time>2015-10-12T09:11:36Z</time>
      </trkpt>
      <trkpt lat="44.03547" lon="5.32206">
        <ele>818.22</ele>
        <time>2015-10-12T09:11:45Z</time>
      </trkpt>
      <trkpt lat="44.03513" lon="5.32208">
        <ele>819.66</ele>
        <time>2015-10-12T09:11:58Z</time>
      </trkpt>
      <trkpt lat="44.03485" lon="5.32217">
        <ele>820.62</ele>
        <time>2015-10-12T09:12:11Z</time>
      </trkpt>
      <trkpt lat="44.0346" lon="5.32229">
        <ele>820.14</ele>
        <time>2015-10-12T09:12:24Z</time>
      </trkpt>
      <trkpt lat="44.03428" lon="5.32243">
        <ele>818.7</ele>
        <time>2015-10-12T09:12:38Z</time>
      </trkpt>
      <trkpt lat="44.03405" lon="5.32248">
        <ele>817.74</ele>
        <time>2015-10-12T09:12:50Z</time>
      </trkpt>
      <trkpt lat="44.03392" lon="5.32251">
        <ele>816.78</ele>
        <time>2015-10-12T09:12:57Z</time>
      </trkpt>
      <trkpt lat="44.03391" lon="5.32253">
        <ele>816.78</ele>
        <time>2015-10-12T09:12:58Z</time>
      </trkpt>
      <trkpt lat="44.03364" lon="5.32263">
        <ele>815.34</ele>
        <time>2015-10-12T09:13:11Z</time>
      </trkpt>
      <trkpt lat="44.03339" lon="5.32262">
        <ele>818.7</ele>
        <time>2015-10-12T09:13:24Z</time>
      </trkpt>
      <trkpt lat="44.03334" lon="5.32262">
        <ele>820.62</ele>
        <time>2015-10-12T09:13:27Z</time>
      </trkpt>
      <trkpt lat="44.03333" lon="5.32261">
        <ele>821.1</ele>
        <time>2015-10-12T09:13:28Z</time>
      </trkpt>
      <trkpt lat="44.03331" lon="5.32261">
        <ele>821.58</ele>
        <time>2015-10-12T09:13:29Z</time>
      </trkpt>
      <trkpt lat="44.0333" lon="5.32261">
        <ele>822.06</ele>
        <time>2015-10-12T09:13:30Z</time>
      </trkpt>
      <trkpt lat="44.03328" lon="5.32261">
        <ele>822.06</ele>
        <time>2015-10-12T09:13:31Z</time>
      </trkpt>
      <trkpt lat="44.03302" lon="5.32259">
        <ele>825.91</ele>
        <time>2015-10-12T09:13:47Z</time>
      </trkpt>
      <trkpt lat="44.0328" lon="5.32261">
        <ele>825.43</ele>
        <time>2015-10-12T09:14:00Z</time>
      </trkpt>
      <trkpt lat="44.03263" lon="5.32265">
        <ele>824.95</ele>
        <time>2015-10-12T09:14:10Z</time>
      </trkpt>
      <trkpt lat="44.03262" lon="5.32266">
        <ele>824.95</ele>
        <time>2015-10-12T09:14:11Z</time>
      </trkpt>
      <trkpt lat="44.03261" lon="5.32267">
        <ele>824.95</ele>
        <time>2015-10-12T09:14:12Z</time>
      </trkpt>
      <trkpt lat="44.03259" lon="5.32267">
        <ele>824.95</ele>
        <time>2015-10-12T09:14:13Z</time>
      </trkpt>
      <trkpt lat="44.03257" lon="5.32267">
        <ele>824.95</ele>
        <time>2015-10-12T09:14:14Z</time>
      </trkpt>
      <trkpt lat="44.03251" lon="5.32268">
        <ele>824.95</ele>
        <time>2015-10-12T09:14:18Z</time>
      </trkpt>
      <trkpt lat="44.03249" lon="5.32269">
        <ele>824.95</ele>
        <time>2015-10-12T09:14:19Z</time>
      </trkpt>
      <trkpt lat="44.03221" lon="5.3227">
        <ele>823.51</ele>
        <time>2015-10-12T09:14:31Z</time>
      </trkpt>
      <trkpt lat="44.03219" lon="5.32269">
        <ele>823.99</ele>
        <time>2015-10-12T09:14:32Z</time>
      </trkpt>
      <trkpt lat="44.03217" lon="5.32268">
        <ele>823.99</ele>
        <time>2015-10-12T09:14:33Z</time>
      </trkpt>
      <trkpt lat="44.03215" lon="5.32267">
        <ele>823.99</ele>
        <time>2015-10-12T09:14:34Z</time>
      </trkpt>
      <trkpt lat="44.03213" lon="5.32266">
        <ele>823.99</ele>
        <time>2015-10-12T09:14:35Z</time>
      </trkpt>
      <trkpt lat="44.03212" lon="5.32265">
        <ele>823.99</ele>
        <time>2015-10-12T09:14:36Z</time>
      </trkpt>
      <trkpt lat="44.03192" lon="5.32255">
        <ele>827.35</ele>
        <time>2015-10-12T09:14:47Z</time>
      </trkpt>
      <trkpt lat="44.03186" lon="5.32253">
        <ele>827.83</ele>
        <time>2015-10-12T09:14:51Z</time>
      </trkpt>
      <trkpt lat="44.03185" lon="5.32253">
        <ele>828.31</ele>
        <time>2015-10-12T09:14:52Z</time>
      </trkpt>
      <trkpt lat="44.03183" lon="5.32253">
        <ele>828.31</ele>
        <time>2015-10-12T09:14:53Z</time>
      </trkpt>
      <trkpt lat="44.03181" lon="5.32253">
        <ele>828.31</ele>
        <time>2015-10-12T09:14:54Z</time>
      </trkpt>
      <trkpt lat="44.03179" lon="5.32253">
        <ele>828.79</ele>
        <time>2015-10-12T09:14:55Z</time>
      </trkpt>
      <trkpt lat="44.03178" lon="5.32253">
        <ele>828.79</ele>
        <time>2015-10-12T09:14:56Z</time>
      </trkpt>
      <trkpt lat="44.03175" lon="5.32252">
        <ele>828.79</ele>
        <time>2015-10-12T09:14:57Z</time>
      </trkpt>
      <trkpt lat="44.03173" lon="5.32252">
        <ele>828.79</ele>
        <time>2015-10-12T09:14:58Z</time>
      </trkpt>
      <trkpt lat="44.03171" lon="5.32252">
        <ele>829.27</ele>
        <time>2015-10-12T09:14:59Z</time>
      </trkpt>
      <trkpt lat="44.03169" lon="5.32252">
        <ele>829.27</ele>
        <time>2015-10-12T09:15:00Z</time>
      </trkpt>
      <trkpt lat="44.03167" lon="5.32252">
        <ele>829.76</ele>
        <time>2015-10-12T09:15:01Z</time>
      </trkpt>
      <trkpt lat="44.03165" lon="5.32252">
        <ele>830.24</ele>
        <time>2015-10-12T09:15:02Z</time>
      </trkpt>
      <trkpt lat="44.03164" lon="5.32252">
        <ele>830.24</ele>
        <time>2015-10-12T09:15:03Z</time>
      </trkpt>
      <trkpt lat="44.03156" lon="5.32251">
        <ele>832.16</ele>
        <time>2015-10-12T09:15:13Z</time>
      </trkpt>
      <trkpt lat="44.03144" lon="5.32251">
        <ele>833.6</ele>
        <time>2015-10-12T09:15:26Z</time>
      </trkpt>
      <trkpt lat="44.03131" lon="5.32248">
        <ele>835.52</ele>
        <time>2015-10-12T09:15:33Z</time>
      </trkpt>
      <trkpt lat="44.03129" lon="5.32248">
        <ele>836</ele>
        <time>2015-10-12T09:15:34Z</time>
      </trkpt>
      <trkpt lat="44.03127" lon="5.32247">
        <ele>836.48</ele>
        <time>2015-10-12T09:15:35Z</time>
      </trkpt>
      <trkpt lat="44.03125" lon="5.32247">
        <ele>836.96</ele>
        <time>2015-10-12T09:15:36Z</time>
      </trkpt>
      <trkpt lat="44.03117" lon="5.32244">
        <ele>838.41</ele>
        <time>2015-10-12T09:15:47Z</time>
      </trkpt>
      <trkpt lat="44.03099" lon="5.32241">
        <ele>841.77</ele>
        <time>2015-10-12T09:16:04Z</time>
      </trkpt>
      <trkpt lat="44.03086" lon="5.3224">
        <ele>843.21</ele>
        <time>2015-10-12T09:16:18Z</time>
      </trkpt>
      <trkpt lat="44.03073" lon="5.32234">
        <ele>845.62</ele>
        <time>2015-10-12T09:16:34Z</time>
      </trkpt>
      <trkpt lat="44.03057" lon="5.32228">
        <ele>847.06</ele>
        <time>2015-10-12T09:16:52Z</time>
      </trkpt>
      <trkpt lat="44.03044" lon="5.32217">
        <ele>848.5</ele>
        <time>2015-10-12T09:17:03Z</time>
      </trkpt>
      <trkpt lat="44.0303" lon="5.32208">
        <ele>850.42</ele>
        <time>2015-10-12T09:17:13Z</time>
      </trkpt>
      <trkpt lat="44.03006" lon="5.32196">
        <ele>851.38</ele>
        <time>2015-10-12T09:17:25Z</time>
      </trkpt>
      <trkpt lat="44.02986" lon="5.32175">
        <ele>852.35</ele>
        <time>2015-10-12T09:17:38Z</time>
      </trkpt>
      <trkpt lat="44.02963" lon="5.32153">
        <ele>850.9</ele>
        <time>2015-10-12T09:17:51Z</time>
      </trkpt>
      <trkpt lat="44.02961" lon="5.32151">
        <ele>850.42</ele>
        <time>2015-10-12T09:17:52Z</time>
      </trkpt>
      <trkpt lat="44.02959" lon="5.32151">
        <ele>850.42</ele>
        <time>2015-10-12T09:17:53Z</time>
      </trkpt>
      <trkpt lat="44.02957" lon="5.32151">
        <ele>849.94</ele>
        <time>2015-10-12T09:17:54Z</time>
      </trkpt>
      <trkpt lat="44.02941" lon="5.32148">
        <ele>848.02</ele>
        <time>2015-10-12T09:18:00Z</time>
      </trkpt>
      <trkpt lat="44.02938" lon="5.32148">
        <ele>848.02</ele>
        <time>2015-10-12T09:18:01Z</time>
      </trkpt>
      <trkpt lat="44.02936" lon="5.32149">
        <ele>847.54</ele>
        <time>2015-10-12T09:18:02Z</time>
      </trkpt>
      <trkpt lat="44.02933" lon="5.32149">
        <ele>847.06</ele>
        <time>2015-10-12T09:18:03Z</time>
      </trkpt>
      <trkpt lat="44.02931" lon="5.32148">
        <ele>847.06</ele>
        <time>2015-10-12T09:18:04Z</time>
      </trkpt>
      <trkpt lat="44.02928" lon="5.32148">
        <ele>846.58</ele>
        <time>2015-10-12T09:18:05Z</time>
      </trkpt>
      <trkpt lat="44.02925" lon="5.32148">
        <ele>846.1</ele>
        <time>2015-10-12T09:18:06Z</time>
      </trkpt>
      <trkpt lat="44.02922" lon="5.32147">
        <ele>845.62</ele>
        <time>2015-10-12T09:18:07Z</time>
      </trkpt>
      <trkpt lat="44.02918" lon="5.32146">
        <ele>845.14</ele>
        <time>2015-10-12T09:18:08Z</time>
      </trkpt>
      <trkpt lat="44.02916" lon="5.32144">
        <ele>844.66</ele>
        <time>2015-10-12T09:18:09Z</time>
      </trkpt>
      <trkpt lat="44.02914" lon="5.32143">
        <ele>844.18</ele>
        <time>2015-10-12T09:18:10Z</time>
      </trkpt>
      <trkpt lat="44.02912" lon="5.32141">
        <ele>843.69</ele>
        <time>2015-10-12T09:18:11Z</time>
      </trkpt>
      <trkpt lat="44.02911" lon="5.32139">
        <ele>843.69</ele>
        <time>2015-10-12T09:18:12Z</time>
      </trkpt>
      <trkpt lat="44.0291" lon="5.32138">
        <ele>843.21</ele>
        <time>2015-10-12T09:18:13Z</time>
      </trkpt>
      <trkpt lat="44.02908" lon="5.32136">
        <ele>842.73</ele>
        <time>2015-10-12T09:18:14Z</time>
      </trkpt>
      <trkpt lat="44.02906" lon="5.32135">
        <ele>842.73</ele>
        <time>2015-10-12T09:18:15Z</time>
      </trkpt>
      <trkpt lat="44.02904" lon="5.32134">
        <ele>842.73</ele>
        <time>2015-10-12T09:18:16Z</time>
      </trkpt>
      <trkpt lat="44.02902" lon="5.32133">
        <ele>842.25</ele>
        <time>2015-10-12T09:18:17Z</time>
      </trkpt>
      <trkpt lat="44.029" lon="5.32131">
        <ele>842.25</ele>
        <time>2015-10-12T09:18:18Z</time>
      </trkpt>
      <trkpt lat="44.02898" lon="5.3213">
        <ele>841.77</ele>
        <time>2015-10-12T09:18:19Z</time>
      </trkpt>
      <trkpt lat="44.02896" lon="5.32129">
        <ele>841.77</ele>
        <time>2015-10-12T09:18:20Z</time>
      </trkpt>
      <trkpt lat="44.02893" lon="5.32128">
        <ele>841.29</ele>
        <time>2015-10-12T09:18:21Z</time>
      </trkpt>
      <trkpt lat="44.02865" lon="5.32122">
        <ele>837.93</ele>
        <time>2015-10-12T09:18:33Z</time>
      </trkpt>
      <trkpt lat="44.02829" lon="5.32128">
        <ele>832.16</ele>
        <time>2015-10-12T09:18:46Z</time>
      </trkpt>
      <trkpt lat="44.02812" lon="5.32127">
        <ele>830.24</ele>
        <time>2015-10-12T09:18:57Z</time>
      </trkpt>
      <trkpt lat="44.0281" lon="5.32128">
        <ele>828.31</ele>
        <time>2015-10-12T09:19:18Z</time>
      </trkpt>
      <trkpt lat="44.02813" lon="5.32126">
        <ele>827.35</ele>
        <time>2015-10-12T09:19:41Z</time>
      </trkpt>
      <trkpt lat="44.02815" lon="5.32127">
        <ele>826.39</ele>
        <time>2015-10-12T09:20:06Z</time>
      </trkpt>
      <trkpt lat="44.02813" lon="5.32129">
        <ele>827.83</ele>
        <time>2015-10-12T09:20:31Z</time>
      </trkpt>
      <trkpt lat="44.02811" lon="5.32125">
        <ele>824.95</ele>
        <time>2015-10-12T09:21:06Z</time>
      </trkpt>
      <trkpt lat="44.02808" lon="5.32127">
        <ele>823.99</ele>
        <time>2015-10-12T09:21:22Z</time>
      </trkpt>
      <trkpt lat="44.02802" lon="5.32129">
        <ele>823.51</ele>
        <time>2015-10-12T09:21:26Z</time>
      </trkpt>
      <trkpt lat="44.02801" lon="5.32128">
        <ele>823.51</ele>
        <time>2015-10-12T09:21:27Z</time>
      </trkpt>
      <trkpt lat="44.02768" lon="5.32121">
        <ele>824.47</ele>
        <time>2015-10-12T09:21:43Z</time>
      </trkpt>
      <trkpt lat="44.02742" lon="5.32105">
        <ele>827.35</ele>
        <time>2015-10-12T09:21:59Z</time>
      </trkpt>
      <trkpt lat="44.02711" lon="5.32089">
        <ele>828.79</ele>
        <time>2015-10-12T09:22:16Z</time>
      </trkpt>
      <trkpt lat="44.02679" lon="5.32076">
        <ele>830.24</ele>
        <time>2015-10-12T09:22:34Z</time>
      </trkpt>
      <trkpt lat="44.02648" lon="5.32066">
        <ele>830.72</ele>
        <time>2015-10-12T09:22:50Z</time>
      </trkpt>
      <trkpt lat="44.0262" lon="5.32059">
        <ele>831.68</ele>
        <time>2015-10-12T09:23:06Z</time>
      </trkpt>
      <trkpt lat="44.02598" lon="5.32051">
        <ele>832.16</ele>
        <time>2015-10-12T09:23:22Z</time>
      </trkpt>
      <trkpt lat="44.02569" lon="5.32043">
        <ele>834.56</ele>
        <time>2015-10-12T09:23:38Z</time>
      </trkpt>
      <trkpt lat="44.02559" lon="5.32043">
        <ele>834.08</ele>
        <time>2015-10-12T09:23:43Z</time>
      </trkpt>
      <trkpt lat="44.02558" lon="5.32042">
        <ele>834.08</ele>
        <time>2015-10-12T09:23:44Z</time>
      </trkpt>
      <trkpt lat="44.02557" lon="5.3204">
        <ele>834.08</ele>
        <time>2015-10-12T09:23:45Z</time>
      </trkpt>
      <trkpt lat="44.02558" lon="5.32037">
        <ele>834.08</ele>
        <time>2015-10-12T09:23:48Z</time>
      </trkpt>
      <trkpt lat="44.02559" lon="5.32036">
        <ele>833.6</ele>
        <time>2015-10-12T09:24:04Z</time>
      </trkpt>
      <trkpt lat="44.02559" lon="5.32037">
        <ele>834.08</ele>
        <time>2015-10-12T09:24:31Z</time>
      </trkpt>
      <trkpt lat="44.02559" lon="5.32039">
        <ele>832.16</ele>
        <time>2015-10-12T09:25:07Z</time>
      </trkpt>
      <trkpt lat="44.02559" lon="5.32039">
        <ele>832.64</ele>
        <time>2015-10-12T09:25:22Z</time>
      </trkpt>
      <trkpt lat="44.0256" lon="5.32036">
        <ele>825.43</ele>
        <time>2015-10-12T09:29:03Z</time>
      </trkpt>
      <trkpt lat="44.0256" lon="5.3204">
        <ele>833.12</ele>
        <time>2015-10-12T09:29:28Z</time>
      </trkpt>
      <trkpt lat="44.02557" lon="5.32037">
        <ele>828.79</ele>
        <time>2015-10-12T09:29:57Z</time>
      </trkpt>
      <trkpt lat="44.0256" lon="5.32037">
        <ele>829.76</ele>
        <time>2015-10-12T09:30:23Z</time>
      </trkpt>
      <trkpt lat="44.0256" lon="5.32036">
        <ele>830.72</ele>
        <time>2015-10-12T09:30:57Z</time>
      </trkpt>
      <trkpt lat="44.02558" lon="5.32038">
        <ele>834.56</ele>
        <time>2015-10-12T09:31:21Z</time>
      </trkpt>
      <trkpt lat="44.02558" lon="5.32038">
        <ele>831.68</ele>
        <time>2015-10-12T09:31:54Z</time>
      </trkpt>
      <trkpt lat="44.02557" lon="5.32039">
        <ele>828.31</ele>
        <time>2015-10-12T09:32:24Z</time>
      </trkpt>
      <trkpt lat="44.02558" lon="5.32038">
        <ele>829.27</ele>
        <time>2015-10-12T09:33:00Z</time>
      </trkpt>
      <trkpt lat="44.02558" lon="5.32038">
        <ele>830.24</ele>
        <time>2015-10-12T09:33:24Z</time>
      </trkpt>
      <trkpt lat="44.02556" lon="5.32038">
        <ele>830.72</ele>
        <time>2015-10-12T09:33:41Z</time>
      </trkpt>
      <trkpt lat="44.02558" lon="5.32038">
        <ele>832.64</ele>
        <time>2015-10-12T09:34:18Z</time>
      </trkpt>
      <trkpt lat="44.02553" lon="5.32044">
        <ele>834.08</ele>
        <time>2015-10-12T09:34:32Z</time>
      </trkpt>
      <trkpt lat="44.02549" lon="5.32049">
        <ele>835.04</ele>
        <time>2015-10-12T09:34:36Z</time>
      </trkpt>
      <trkpt lat="44.02544" lon="5.32053">
        <ele>835.52</ele>
        <time>2015-10-12T09:34:39Z</time>
      </trkpt>
      <trkpt lat="44.02542" lon="5.32057">
        <ele>835.04</ele>
        <time>2015-10-12T09:34:41Z</time>
      </trkpt>
      <trkpt lat="44.02526" lon="5.32093">
        <ele>835.04</ele>
        <time>2015-10-12T09:34:56Z</time>
      </trkpt>
      <trkpt lat="44.0252" lon="5.32133">
        <ele>838.41</ele>
        <time>2015-10-12T09:35:10Z</time>
      </trkpt>
      <trkpt lat="44.02511" lon="5.32184">
        <ele>838.41</ele>
        <time>2015-10-12T09:35:28Z</time>
      </trkpt>
      <trkpt lat="44.02494" lon="5.322">
        <ele>838.41</ele>
        <time>2015-10-12T09:35:40Z</time>
      </trkpt>
      <trkpt lat="44.02491" lon="5.32199">
        <ele>838.41</ele>
        <time>2015-10-12T09:35:42Z</time>
      </trkpt>
      <trkpt lat="44.0249" lon="5.32197">
        <ele>837.93</ele>
        <time>2015-10-12T09:35:43Z</time>
      </trkpt>
      <trkpt lat="44.02489" lon="5.32178">
        <ele>838.89</ele>
        <time>2015-10-12T09:35:55Z</time>
      </trkpt>
      <trkpt lat="44.02489" lon="5.32178">
        <ele>837.93</ele>
        <time>2015-10-12T09:36:19Z</time>
      </trkpt>
      <trkpt lat="44.0249" lon="5.32175">
        <ele>838.41</ele>
        <time>2015-10-12T09:36:56Z</time>
      </trkpt>
      <trkpt lat="44.02489" lon="5.32176">
        <ele>836.48</ele>
        <time>2015-10-12T09:37:26Z</time>
      </trkpt>
      <trkpt lat="44.02491" lon="5.32179">
        <ele>837.93</ele>
        <time>2015-10-12T09:38:00Z</time>
      </trkpt>
      <trkpt lat="44.02489" lon="5.32175">
        <ele>838.89</ele>
        <time>2015-10-12T09:38:33Z</time>
      </trkpt>
      <trkpt lat="44.02486" lon="5.32182">
        <ele>840.33</ele>
        <time>2015-10-12T09:38:46Z</time>
      </trkpt>
      <trkpt lat="44.02485" lon="5.32183">
        <ele>839.85</ele>
        <time>2015-10-12T09:38:56Z</time>
      </trkpt>
      <trkpt lat="44.02484" lon="5.32186">
        <ele>840.81</ele>
        <time>2015-10-12T09:38:58Z</time>
      </trkpt>
      <trkpt lat="44.02486" lon="5.32194">
        <ele>840.81</ele>
        <time>2015-10-12T09:39:01Z</time>
      </trkpt>
      <trkpt lat="44.02487" lon="5.32196">
        <ele>840.81</ele>
        <time>2015-10-12T09:39:02Z</time>
      </trkpt>
      <trkpt lat="44.0249" lon="5.32198">
        <ele>840.33</ele>
        <time>2015-10-12T09:39:03Z</time>
      </trkpt>
      <trkpt lat="44.02492" lon="5.32199">
        <ele>840.33</ele>
        <time>2015-10-12T09:39:04Z</time>
      </trkpt>
      <trkpt lat="44.02494" lon="5.322">
        <ele>839.85</ele>
        <time>2015-10-12T09:39:05Z</time>
      </trkpt>
      <trkpt lat="44.02496" lon="5.32201">
        <ele>839.85</ele>
        <time>2015-10-12T09:39:06Z</time>
      </trkpt>
      <trkpt lat="44.02509" lon="5.32204">
        <ele>838.89</ele>
        <time>2015-10-12T09:39:11Z</time>
      </trkpt>
      <trkpt lat="44.0251" lon="5.32208">
        <ele>838.41</ele>
        <time>2015-10-12T09:39:12Z</time>
      </trkpt>
      <trkpt lat="44.02511" lon="5.32212">
        <ele>837.93</ele>
        <time>2015-10-12T09:39:13Z</time>
      </trkpt>
      <trkpt lat="44.02518" lon="5.32259">
        <ele>835.04</ele>
        <time>2015-10-12T09:39:22Z</time>
      </trkpt>
      <trkpt lat="44.0252" lon="5.32264">
        <ele>835.04</ele>
        <time>2015-10-12T09:39:23Z</time>
      </trkpt>
      <trkpt lat="44.02522" lon="5.32269">
        <ele>835.04</ele>
        <time>2015-10-12T09:39:24Z</time>
      </trkpt>
      <trkpt lat="44.02568" lon="5.32341">
        <ele>831.68</ele>
        <time>2015-10-12T09:39:38Z</time>
      </trkpt>
      <trkpt lat="44.02621" lon="5.32425">
        <ele>828.79</ele>
        <time>2015-10-12T09:39:51Z</time>
      </trkpt>
      <trkpt lat="44.02624" lon="5.32433">
        <ele>828.31</ele>
        <time>2015-10-12T09:39:52Z</time>
      </trkpt>
      <trkpt lat="44.02627" lon="5.32442">
        <ele>827.83</ele>
        <time>2015-10-12T09:39:53Z</time>
      </trkpt>
      <trkpt lat="44.02628" lon="5.3245">
        <ele>827.83</ele>
        <time>2015-10-12T09:39:54Z</time>
      </trkpt>
      <trkpt lat="44.0263" lon="5.32459">
        <ele>827.35</ele>
        <time>2015-10-12T09:39:55Z</time>
      </trkpt>
      <trkpt lat="44.02631" lon="5.32467">
        <ele>827.35</ele>
        <time>2015-10-12T09:39:56Z</time>
      </trkpt>
      <trkpt lat="44.02636" lon="5.32512">
        <ele>826.39</ele>
        <time>2015-10-12T09:40:02Z</time>
      </trkpt>
      <trkpt lat="44.02638" lon="5.32518">
        <ele>826.39</ele>
        <time>2015-10-12T09:40:03Z</time>
      </trkpt>
      <trkpt lat="44.02641" lon="5.32524">
        <ele>825.91</ele>
        <time>2015-10-12T09:40:04Z</time>
      </trkpt>
      <trkpt lat="44.02645" lon="5.3253">
        <ele>825.91</ele>
        <time>2015-10-12T09:40:05Z</time>
      </trkpt>
      <trkpt lat="44.02649" lon="5.32534">
        <ele>825.91</ele>
        <time>2015-10-12T09:40:06Z</time>
      </trkpt>
      <trkpt lat="44.02655" lon="5.32537">
        <ele>825.91</ele>
        <time>2015-10-12T09:40:07Z</time>
      </trkpt>
      <trkpt lat="44.0266" lon="5.32538">
        <ele>825.91</ele>
        <time>2015-10-12T09:40:08Z</time>
      </trkpt>
      <trkpt lat="44.02665" lon="5.32539">
        <ele>825.43</ele>
        <time>2015-10-12T09:40:09Z</time>
      </trkpt>
      <trkpt lat="44.0267" lon="5.32539">
        <ele>825.43</ele>
        <time>2015-10-12T09:40:10Z</time>
      </trkpt>
      <trkpt lat="44.02723" lon="5.32543">
        <ele>824.95</ele>
        <time>2015-10-12T09:40:20Z</time>
      </trkpt>
      <trkpt lat="44.02728" lon="5.32545">
        <ele>824.95</ele>
        <time>2015-10-12T09:40:21Z</time>
      </trkpt>
      <trkpt lat="44.02733" lon="5.32548">
        <ele>825.43</ele>
        <time>2015-10-12T09:40:22Z</time>
      </trkpt>
      <trkpt lat="44.02737" lon="5.3255">
        <ele>825.43</ele>
        <time>2015-10-12T09:40:23Z</time>
      </trkpt>
      <trkpt lat="44.02742" lon="5.32553">
        <ele>825.43</ele>
        <time>2015-10-12T09:40:24Z</time>
      </trkpt>
      <trkpt lat="44.02762" lon="5.32564">
        <ele>825.43</ele>
        <time>2015-10-12T09:40:28Z</time>
      </trkpt>
      <trkpt lat="44.02789" lon="5.32594">
        <ele>825.43</ele>
        <time>2015-10-12T09:40:35Z</time>
      </trkpt>
      <trkpt lat="44.02792" lon="5.32599">
        <ele>825.91</ele>
        <time>2015-10-12T09:40:36Z</time>
      </trkpt>
      <trkpt lat="44.02795" lon="5.32609">
        <ele>825.91</ele>
        <time>2015-10-12T09:40:38Z</time>
      </trkpt>
      <trkpt lat="44.02796" lon="5.32615">
        <ele>825.91</ele>
        <time>2015-10-12T09:40:39Z</time>
      </trkpt>
      <trkpt lat="44.02795" lon="5.32621">
        <ele>826.39</ele>
        <time>2015-10-12T09:40:40Z</time>
      </trkpt>
      <trkpt lat="44.02794" lon="5.32628">
        <ele>825.91</ele>
        <time>2015-10-12T09:40:41Z</time>
      </trkpt>
      <trkpt lat="44.02792" lon="5.32634">
        <ele>825.91</ele>
        <time>2015-10-12T09:40:42Z</time>
      </trkpt>
      <trkpt lat="44.0279" lon="5.3264">
        <ele>825.43</ele>
        <time>2015-10-12T09:40:43Z</time>
      </trkpt>
      <trkpt lat="44.02787" lon="5.32645">
        <ele>825.43</ele>
        <time>2015-10-12T09:40:44Z</time>
      </trkpt>
      <trkpt lat="44.02784" lon="5.32651">
        <ele>824.95</ele>
        <time>2015-10-12T09:40:45Z</time>
      </trkpt>
      <trkpt lat="44.02726" lon="5.32733">
        <ele>823.99</ele>
        <time>2015-10-12T09:41:01Z</time>
      </trkpt>
      <trkpt lat="44.02713" lon="5.32752">
        <ele>823.99</ele>
        <time>2015-10-12T09:41:05Z</time>
      </trkpt>
      <trkpt lat="44.02711" lon="5.32757">
        <ele>823.51</ele>
        <time>2015-10-12T09:41:06Z</time>
      </trkpt>
      <trkpt lat="44.02708" lon="5.32763">
        <ele>823.51</ele>
        <time>2015-10-12T09:41:07Z</time>
      </trkpt>
      <trkpt lat="44.02708" lon="5.32769">
        <ele>823.51</ele>
        <time>2015-10-12T09:41:08Z</time>
      </trkpt>
      <trkpt lat="44.02708" lon="5.32775">
        <ele>823.51</ele>
        <time>2015-10-12T09:41:09Z</time>
      </trkpt>
      <trkpt lat="44.02709" lon="5.3278">
        <ele>823.51</ele>
        <time>2015-10-12T09:41:10Z</time>
      </trkpt>
      <trkpt lat="44.0271" lon="5.32784">
        <ele>823.51</ele>
        <time>2015-10-12T09:41:11Z</time>
      </trkpt>
      <trkpt lat="44.02712" lon="5.32786">
        <ele>823.51</ele>
        <time>2015-10-12T09:41:12Z</time>
      </trkpt>
      <trkpt lat="44.02714" lon="5.32787">
        <ele>823.03</ele>
        <time>2015-10-12T09:41:21Z</time>
      </trkpt>
      <trkpt lat="44.02714" lon="5.32788">
        <ele>823.99</ele>
        <time>2015-10-12T09:41:50Z</time>
      </trkpt>
      <trkpt lat="44.02713" lon="5.32788">
        <ele>822.06</ele>
        <time>2015-10-12T09:42:18Z</time>
      </trkpt>
      <trkpt lat="44.02716" lon="5.32788">
        <ele>822.55</ele>
        <time>2015-10-12T09:42:23Z</time>
      </trkpt>
      <trkpt lat="44.02717" lon="5.32789">
        <ele>822.55</ele>
        <time>2015-10-12T09:42:24Z</time>
      </trkpt>
      <trkpt lat="44.02746" lon="5.32792">
        <ele>821.1</ele>
        <time>2015-10-12T09:42:33Z</time>
      </trkpt>
      <trkpt lat="44.0282" lon="5.32812">
        <ele>821.1</ele>
        <time>2015-10-12T09:42:49Z</time>
      </trkpt>
      <trkpt lat="44.02892" lon="5.3284">
        <ele>824.47</ele>
        <time>2015-10-12T09:43:05Z</time>
      </trkpt>
      <trkpt lat="44.02935" lon="5.32863">
        <ele>825.91</ele>
        <time>2015-10-12T09:43:15Z</time>
      </trkpt>
      <trkpt lat="44.02938" lon="5.32868">
        <ele>825.91</ele>
        <time>2015-10-12T09:43:16Z</time>
      </trkpt>
      <trkpt lat="44.02944" lon="5.32877">
        <ele>825.91</ele>
        <time>2015-10-12T09:43:18Z</time>
      </trkpt>
      <trkpt lat="44.02946" lon="5.32882">
        <ele>825.91</ele>
        <time>2015-10-12T09:43:19Z</time>
      </trkpt>
      <trkpt lat="44.02948" lon="5.32888">
        <ele>825.91</ele>
        <time>2015-10-12T09:43:20Z</time>
      </trkpt>
      <trkpt lat="44.02949" lon="5.32894">
        <ele>825.91</ele>
        <time>2015-10-12T09:43:21Z</time>
      </trkpt>
      <trkpt lat="44.0295" lon="5.329">
        <ele>825.43</ele>
        <time>2015-10-12T09:43:22Z</time>
      </trkpt>
      <trkpt lat="44.0295" lon="5.32906">
        <ele>825.43</ele>
        <time>2015-10-12T09:43:23Z</time>
      </trkpt>
      <trkpt lat="44.02951" lon="5.32912">
        <ele>825.43</ele>
        <time>2015-10-12T09:43:24Z</time>
      </trkpt>
      <trkpt lat="44.02955" lon="5.33023">
        <ele>822.06</ele>
        <time>2015-10-12T09:43:40Z</time>
      </trkpt>
      <trkpt lat="44.02957" lon="5.33029">
        <ele>822.06</ele>
        <time>2015-10-12T09:43:41Z</time>
      </trkpt>
      <trkpt lat="44.0296" lon="5.33034">
        <ele>821.58</ele>
        <time>2015-10-12T09:43:42Z</time>
      </trkpt>
      <trkpt lat="44.02963" lon="5.33039">
        <ele>821.58</ele>
        <time>2015-10-12T09:43:43Z</time>
      </trkpt>
      <trkpt lat="44.02967" lon="5.33043">
        <ele>821.58</ele>
        <time>2015-10-12T09:43:44Z</time>
      </trkpt>
      <trkpt lat="44.02972" lon="5.33045">
        <ele>821.58</ele>
        <time>2015-10-12T09:43:45Z</time>
      </trkpt>
      <trkpt lat="44.02976" lon="5.33046">
        <ele>821.58</ele>
        <time>2015-10-12T09:43:46Z</time>
      </trkpt>
      <trkpt lat="44.02981" lon="5.33047">
        <ele>821.58</ele>
        <time>2015-10-12T09:43:47Z</time>
      </trkpt>
      <trkpt lat="44.02986" lon="5.33047">
        <ele>821.58</ele>
        <time>2015-10-12T09:43:48Z</time>
      </trkpt>
      <trkpt lat="44.03029" lon="5.33042">
        <ele>821.1</ele>
        <time>2015-10-12T09:43:57Z</time>
      </trkpt>
      <trkpt lat="44.03117" lon="5.33071">
        <ele>820.14</ele>
        <time>2015-10-12T09:44:13Z</time>
      </trkpt>
      <trkpt lat="44.0318" lon="5.3313">
        <ele>819.18</ele>
        <time>2015-10-12T09:44:27Z</time>
      </trkpt>
      <trkpt lat="44.03214" lon="5.33177">
        <ele>818.7</ele>
        <time>2015-10-12T09:44:36Z</time>
      </trkpt>
      <trkpt lat="44.03221" lon="5.33196">
        <ele>818.7</ele>
        <time>2015-10-12T09:44:39Z</time>
      </trkpt>
      <trkpt lat="44.03222" lon="5.33203">
        <ele>818.7</ele>
        <time>2015-10-12T09:44:40Z</time>
      </trkpt>
      <trkpt lat="44.03222" lon="5.3321">
        <ele>818.7</ele>
        <time>2015-10-12T09:44:41Z</time>
      </trkpt>
      <trkpt lat="44.03222" lon="5.33217">
        <ele>818.7</ele>
        <time>2015-10-12T09:44:42Z</time>
      </trkpt>
      <trkpt lat="44.03221" lon="5.33224">
        <ele>818.22</ele>
        <time>2015-10-12T09:44:43Z</time>
      </trkpt>
      <trkpt lat="44.0322" lon="5.3323">
        <ele>818.22</ele>
        <time>2015-10-12T09:44:44Z</time>
      </trkpt>
      <trkpt lat="44.03217" lon="5.33236">
        <ele>818.22</ele>
        <time>2015-10-12T09:44:45Z</time>
      </trkpt>
      <trkpt lat="44.03214" lon="5.33241">
        <ele>817.74</ele>
        <time>2015-10-12T09:44:46Z</time>
      </trkpt>
      <trkpt lat="44.03211" lon="5.33245">
        <ele>817.74</ele>
        <time>2015-10-12T09:44:47Z</time>
      </trkpt>
      <trkpt lat="44.03207" lon="5.33248">
        <ele>817.26</ele>
        <time>2015-10-12T09:44:48Z</time>
      </trkpt>
      <trkpt lat="44.03203" lon="5.33252">
        <ele>817.26</ele>
        <time>2015-10-12T09:44:49Z</time>
      </trkpt>
      <trkpt lat="44.03199" lon="5.33255">
        <ele>817.26</ele>
        <time>2015-10-12T09:44:50Z</time>
      </trkpt>
      <trkpt lat="44.03139" lon="5.33293">
        <ele>818.7</ele>
        <time>2015-10-12T09:45:04Z</time>
      </trkpt>
      <trkpt lat="44.03135" lon="5.33298">
        <ele>818.7</ele>
        <time>2015-10-12T09:45:05Z</time>
      </trkpt>
      <trkpt lat="44.03133" lon="5.33304">
        <ele>818.22</ele>
        <time>2015-10-12T09:45:06Z</time>
      </trkpt>
      <trkpt lat="44.03132" lon="5.33311">
        <ele>818.22</ele>
        <time>2015-10-12T09:45:07Z</time>
      </trkpt>
      <trkpt lat="44.03133" lon="5.33317">
        <ele>818.22</ele>
        <time>2015-10-12T09:45:08Z</time>
      </trkpt>
      <trkpt lat="44.03135" lon="5.33324">
        <ele>818.22</ele>
        <time>2015-10-12T09:45:09Z</time>
      </trkpt>
      <trkpt lat="44.03139" lon="5.33329">
        <ele>818.7</ele>
        <time>2015-10-12T09:45:10Z</time>
      </trkpt>
      <trkpt lat="44.03142" lon="5.33334">
        <ele>818.7</ele>
        <time>2015-10-12T09:45:11Z</time>
      </trkpt>
      <trkpt lat="44.03147" lon="5.33338">
        <ele>819.18</ele>
        <time>2015-10-12T09:45:12Z</time>
      </trkpt>
      <trkpt lat="44.03151" lon="5.33342">
        <ele>819.18</ele>
        <time>2015-10-12T09:45:13Z</time>
      </trkpt>
      <trkpt lat="44.03155" lon="5.33346">
        <ele>819.18</ele>
        <time>2015-10-12T09:45:14Z</time>
      </trkpt>
      <trkpt lat="44.032" lon="5.33406">
        <ele>818.7</ele>
        <time>2015-10-12T09:45:26Z</time>
      </trkpt>
      <trkpt lat="44.03239" lon="5.33503">
        <ele>818.22</ele>
        <time>2015-10-12T09:45:42Z</time>
      </trkpt>
      <trkpt lat="44.03245" lon="5.33514">
        <ele>818.22</ele>
        <time>2015-10-12T09:45:44Z</time>
      </trkpt>
      <trkpt lat="44.03281" lon="5.33559">
        <ele>818.7</ele>
        <time>2015-10-12T09:45:53Z</time>
      </trkpt>
      <trkpt lat="44.03325" lon="5.33601">
        <ele>819.18</ele>
        <time>2015-10-12T09:46:03Z</time>
      </trkpt>
      <trkpt lat="44.03335" lon="5.33615">
        <ele>818.7</ele>
        <time>2015-10-12T09:46:06Z</time>
      </trkpt>
      <trkpt lat="44.03338" lon="5.3362">
        <ele>818.7</ele>
        <time>2015-10-12T09:46:07Z</time>
      </trkpt>
      <trkpt lat="44.03349" lon="5.33649">
        <ele>819.18</ele>
        <time>2015-10-12T09:46:12Z</time>
      </trkpt>
      <trkpt lat="44.03372" lon="5.33738">
        <ele>819.66</ele>
        <time>2015-10-12T09:46:26Z</time>
      </trkpt>
      <trkpt lat="44.03376" lon="5.33759">
        <ele>819.18</ele>
        <time>2015-10-12T09:46:29Z</time>
      </trkpt>
      <trkpt lat="44.03377" lon="5.33766">
        <ele>818.7</ele>
        <time>2015-10-12T09:46:30Z</time>
      </trkpt>
      <trkpt lat="44.03377" lon="5.33774">
        <ele>818.22</ele>
        <time>2015-10-12T09:46:31Z</time>
      </trkpt>
      <trkpt lat="44.03377" lon="5.33782">
        <ele>817.74</ele>
        <time>2015-10-12T09:46:32Z</time>
      </trkpt>
      <trkpt lat="44.03375" lon="5.33789">
        <ele>817.74</ele>
        <time>2015-10-12T09:46:33Z</time>
      </trkpt>
      <trkpt lat="44.03372" lon="5.33796">
        <ele>817.26</ele>
        <time>2015-10-12T09:46:34Z</time>
      </trkpt>
      <trkpt lat="44.03369" lon="5.33803">
        <ele>816.78</ele>
        <time>2015-10-12T09:46:35Z</time>
      </trkpt>
      <trkpt lat="44.03366" lon="5.33809">
        <ele>816.3</ele>
        <time>2015-10-12T09:46:36Z</time>
      </trkpt>
      <trkpt lat="44.0335" lon="5.33841">
        <ele>814.37</ele>
        <time>2015-10-12T09:46:41Z</time>
      </trkpt>
      <trkpt lat="44.03344" lon="5.3386">
        <ele>813.89</ele>
        <time>2015-10-12T09:46:44Z</time>
      </trkpt>
      <trkpt lat="44.03343" lon="5.33867">
        <ele>813.89</ele>
        <time>2015-10-12T09:46:45Z</time>
      </trkpt>
      <trkpt lat="44.03342" lon="5.33874">
        <ele>813.89</ele>
        <time>2015-10-12T09:46:46Z</time>
      </trkpt>
      <trkpt lat="44.03342" lon="5.33882">
        <ele>813.89</ele>
        <time>2015-10-12T09:46:47Z</time>
      </trkpt>
      <trkpt lat="44.03343" lon="5.33889">
        <ele>813.89</ele>
        <time>2015-10-12T09:46:48Z</time>
      </trkpt>
      <trkpt lat="44.03345" lon="5.33896">
        <ele>813.89</ele>
        <time>2015-10-12T09:46:49Z</time>
      </trkpt>
      <trkpt lat="44.03347" lon="5.33902">
        <ele>813.89</ele>
        <time>2015-10-12T09:46:50Z</time>
      </trkpt>
      <trkpt lat="44.03351" lon="5.33908">
        <ele>814.37</ele>
        <time>2015-10-12T09:46:51Z</time>
      </trkpt>
      <trkpt lat="44.03355" lon="5.33912">
        <ele>814.37</ele>
        <time>2015-10-12T09:46:52Z</time>
      </trkpt>
      <trkpt lat="44.0336" lon="5.33916">
        <ele>814.85</ele>
        <time>2015-10-12T09:46:53Z</time>
      </trkpt>
      <trkpt lat="44.03365" lon="5.33919">
        <ele>815.34</ele>
        <time>2015-10-12T09:46:54Z</time>
      </trkpt>
      <trkpt lat="44.0337" lon="5.33922">
        <ele>815.82</ele>
        <time>2015-10-12T09:46:55Z</time>
      </trkpt>
      <trkpt lat="44.03402" lon="5.33943">
        <ele>817.26</ele>
        <time>2015-10-12T09:47:02Z</time>
      </trkpt>
      <trkpt lat="44.03405" lon="5.33947">
        <ele>817.74</ele>
        <time>2015-10-12T09:47:03Z</time>
      </trkpt>
      <trkpt lat="44.03408" lon="5.33951">
        <ele>817.74</ele>
        <time>2015-10-12T09:47:04Z</time>
      </trkpt>
      <trkpt lat="44.03422" lon="5.33965">
        <ele>818.7</ele>
        <time>2015-10-12T09:47:13Z</time>
      </trkpt>
      <trkpt lat="44.03422" lon="5.33966">
        <ele>817.74</ele>
        <time>2015-10-12T09:47:36Z</time>
      </trkpt>
      <trkpt lat="44.03423" lon="5.33966">
        <ele>817.74</ele>
        <time>2015-10-12T09:48:11Z</time>
      </trkpt>
      <trkpt lat="44.03422" lon="5.33965">
        <ele>816.78</ele>
        <time>2015-10-12T09:48:44Z</time>
      </trkpt>
      <trkpt lat="44.03422" lon="5.33965">
        <ele>817.26</ele>
        <time>2015-10-12T09:49:20Z</time>
      </trkpt>
      <trkpt lat="44.03421" lon="5.33966">
        <ele>817.74</ele>
        <time>2015-10-12T09:49:49Z</time>
      </trkpt>
      <trkpt lat="44.03422" lon="5.33966">
        <ele>816.3</ele>
        <time>2015-10-12T09:50:26Z</time>
      </trkpt>
      <trkpt lat="44.03422" lon="5.33966">
        <ele>815.82</ele>
        <time>2015-10-12T09:50:58Z</time>
      </trkpt>
      <trkpt lat="44.03423" lon="5.33966">
        <ele>815.34</ele>
        <time>2015-10-12T09:51:29Z</time>
      </trkpt>
      <trkpt lat="44.03422" lon="5.33965">
        <ele>815.34</ele>
        <time>2015-10-12T09:52:01Z</time>
      </trkpt>
      <trkpt lat="44.03422" lon="5.33965">
        <ele>814.37</ele>
        <time>2015-10-12T09:52:31Z</time>
      </trkpt>
      <trkpt lat="44.03422" lon="5.33965">
        <ele>813.89</ele>
        <time>2015-10-12T09:53:07Z</time>
      </trkpt>
      <trkpt lat="44.03422" lon="5.33967">
        <ele>814.85</ele>
        <time>2015-10-12T09:53:43Z</time>
      </trkpt>
      <trkpt lat="44.03422" lon="5.33968">
        <ele>814.85</ele>
        <time>2015-10-12T09:53:44Z</time>
      </trkpt>
      <trkpt lat="44.03422" lon="5.3397">
        <ele>814.85</ele>
        <time>2015-10-12T09:53:45Z</time>
      </trkpt>
      <trkpt lat="44.03427" lon="5.34015">
        <ele>814.85</ele>
        <time>2015-10-12T09:53:57Z</time>
      </trkpt>
      <trkpt lat="44.03427" lon="5.34084">
        <ele>815.82</ele>
        <time>2015-10-12T09:54:14Z</time>
      </trkpt>
      <trkpt lat="44.03411" lon="5.34162">
        <ele>814.37</ele>
        <time>2015-10-12T09:54:32Z</time>
      </trkpt>
      <trkpt lat="44.03376" lon="5.34241">
        <ele>813.41</ele>
        <time>2015-10-12T09:54:49Z</time>
      </trkpt>
      <trkpt lat="44.03313" lon="5.34341">
        <ele>811.97</ele>
        <time>2015-10-12T09:55:10Z</time>
      </trkpt>
      <trkpt lat="44.03266" lon="5.34413">
        <ele>811.01</ele>
        <time>2015-10-12T09:55:24Z</time>
      </trkpt>
      <trkpt lat="44.03202" lon="5.34457">
        <ele>810.53</ele>
        <time>2015-10-12T09:55:38Z</time>
      </trkpt>
      <trkpt lat="44.03198" lon="5.34461">
        <ele>810.53</ele>
        <time>2015-10-12T09:55:39Z</time>
      </trkpt>
      <trkpt lat="44.03194" lon="5.34465">
        <ele>810.53</ele>
        <time>2015-10-12T09:55:40Z</time>
      </trkpt>
      <trkpt lat="44.03191" lon="5.34471">
        <ele>810.53</ele>
        <time>2015-10-12T09:55:41Z</time>
      </trkpt>
      <trkpt lat="44.03188" lon="5.34476">
        <ele>810.53</ele>
        <time>2015-10-12T09:55:42Z</time>
      </trkpt>
      <trkpt lat="44.03187" lon="5.34483">
        <ele>810.53</ele>
        <time>2015-10-12T09:55:43Z</time>
      </trkpt>
      <trkpt lat="44.03185" lon="5.34489">
        <ele>810.53</ele>
        <time>2015-10-12T09:55:44Z</time>
      </trkpt>
      <trkpt lat="44.03184" lon="5.34496">
        <ele>810.53</ele>
        <time>2015-10-12T09:55:45Z</time>
      </trkpt>
      <trkpt lat="44.03184" lon="5.34502">
        <ele>810.53</ele>
        <time>2015-10-12T09:55:46Z</time>
      </trkpt>
      <trkpt lat="44.03184" lon="5.34509">
        <ele>810.53</ele>
        <time>2015-10-12T09:55:47Z</time>
      </trkpt>
      <trkpt lat="44.03185" lon="5.34515">
        <ele>810.53</ele>
        <time>2015-10-12T09:55:48Z</time>
      </trkpt>
      <trkpt lat="44.03186" lon="5.34521">
        <ele>811.01</ele>
        <time>2015-10-12T09:55:49Z</time>
      </trkpt>
      <trkpt lat="44.03189" lon="5.34527">
        <ele>811.01</ele>
        <time>2015-10-12T09:55:50Z</time>
      </trkpt>
      <trkpt lat="44.03192" lon="5.34531">
        <ele>811.49</ele>
        <time>2015-10-12T09:55:51Z</time>
      </trkpt>
      <trkpt lat="44.03195" lon="5.34536">
        <ele>811.49</ele>
        <time>2015-10-12T09:55:52Z</time>
      </trkpt>
      <trkpt lat="44.03198" lon="5.3454">
        <ele>811.97</ele>
        <time>2015-10-12T09:55:53Z</time>
      </trkpt>
      <trkpt lat="44.03201" lon="5.34545">
        <ele>812.45</ele>
        <time>2015-10-12T09:55:54Z</time>
      </trkpt>
      <trkpt lat="44.03238" lon="5.346">
        <ele>816.78</ele>
        <time>2015-10-12T09:56:10Z</time>
      </trkpt>
      <trkpt lat="44.03276" lon="5.34653">
        <ele>818.22</ele>
        <time>2015-10-12T09:56:29Z</time>
      </trkpt>
      <trkpt lat="44.03295" lon="5.34714">
        <ele>819.66</ele>
        <time>2015-10-12T09:56:46Z</time>
      </trkpt>
      <trkpt lat="44.03287" lon="5.34804">
        <ele>817.26</ele>
        <time>2015-10-12T09:57:05Z</time>
      </trkpt>
      <trkpt lat="44.03283" lon="5.34826">
        <ele>816.3</ele>
        <time>2015-10-12T09:57:09Z</time>
      </trkpt>
      <trkpt lat="44.03267" lon="5.34937">
        <ele>811.97</ele>
        <time>2015-10-12T09:57:26Z</time>
      </trkpt>
      <trkpt lat="44.03246" lon="5.35087">
        <ele>808.13</ele>
        <time>2015-10-12T09:57:46Z</time>
      </trkpt>
      <trkpt lat="44.03222" lon="5.35251">
        <ele>805.24</ele>
        <time>2015-10-12T09:58:07Z</time>
      </trkpt>
      <trkpt lat="44.03199" lon="5.35409">
        <ele>802.36</ele>
        <time>2015-10-12T09:58:27Z</time>
      </trkpt>
      <trkpt lat="44.03198" lon="5.35426">
        <ele>801.88</ele>
        <time>2015-10-12T09:58:29Z</time>
      </trkpt>
      <trkpt lat="44.03198" lon="5.35435">
        <ele>801.88</ele>
        <time>2015-10-12T09:58:30Z</time>
      </trkpt>
      <trkpt lat="44.032" lon="5.35453">
        <ele>801.4</ele>
        <time>2015-10-12T09:58:32Z</time>
      </trkpt>
      <trkpt lat="44.03203" lon="5.35461">
        <ele>800.92</ele>
        <time>2015-10-12T09:58:33Z</time>
      </trkpt>
      <trkpt lat="44.03206" lon="5.35468">
        <ele>800.92</ele>
        <time>2015-10-12T09:58:34Z</time>
      </trkpt>
      <trkpt lat="44.03209" lon="5.35476">
        <ele>800.44</ele>
        <time>2015-10-12T09:58:35Z</time>
      </trkpt>
      <trkpt lat="44.03213" lon="5.35484">
        <ele>799.95</ele>
        <time>2015-10-12T09:58:36Z</time>
      </trkpt>
      <trkpt lat="44.03292" lon="5.35647">
        <ele>795.15</ele>
        <time>2015-10-12T09:58:55Z</time>
      </trkpt>
      <trkpt lat="44.03366" lon="5.35797">
        <ele>790.34</ele>
        <time>2015-10-12T09:59:12Z</time>
      </trkpt>
      <trkpt lat="44.03396" lon="5.35891">
        <ele>790.34</ele>
        <time>2015-10-12T09:59:23Z</time>
      </trkpt>
      <trkpt lat="44.03416" lon="5.35981">
        <ele>794.67</ele>
        <time>2015-10-12T09:59:38Z</time>
      </trkpt>
      <trkpt lat="44.03414" lon="5.36055">
        <ele>796.11</ele>
        <time>2015-10-12T09:59:53Z</time>
      </trkpt>
      <trkpt lat="44.03393" lon="5.36123">
        <ele>798.03</ele>
        <time>2015-10-12T10:00:10Z</time>
      </trkpt>
      <trkpt lat="44.03371" lon="5.36192">
        <ele>799.95</ele>
        <time>2015-10-12T10:00:28Z</time>
      </trkpt>
      <trkpt lat="44.03346" lon="5.36268">
        <ele>800.92</ele>
        <time>2015-10-12T10:00:46Z</time>
      </trkpt>
      <trkpt lat="44.03315" lon="5.36364">
        <ele>798.51</ele>
        <time>2015-10-12T10:01:03Z</time>
      </trkpt>
      <trkpt lat="44.03286" lon="5.36459">
        <ele>796.59</ele>
        <time>2015-10-12T10:01:19Z</time>
      </trkpt>
      <trkpt lat="44.03285" lon="5.36465">
        <ele>796.11</ele>
        <time>2015-10-12T10:01:20Z</time>
      </trkpt>
      <trkpt lat="44.03285" lon="5.36472">
        <ele>796.11</ele>
        <time>2015-10-12T10:01:21Z</time>
      </trkpt>
      <trkpt lat="44.03285" lon="5.36478">
        <ele>795.63</ele>
        <time>2015-10-12T10:01:22Z</time>
      </trkpt>
      <trkpt lat="44.03285" lon="5.36485">
        <ele>795.63</ele>
        <time>2015-10-12T10:01:23Z</time>
      </trkpt>
      <trkpt lat="44.03287" lon="5.36492">
        <ele>795.15</ele>
        <time>2015-10-12T10:01:24Z</time>
      </trkpt>
      <trkpt lat="44.03289" lon="5.36498">
        <ele>795.15</ele>
        <time>2015-10-12T10:01:25Z</time>
      </trkpt>
      <trkpt lat="44.03292" lon="5.36504">
        <ele>795.15</ele>
        <time>2015-10-12T10:01:26Z</time>
      </trkpt>
      <trkpt lat="44.03296" lon="5.36509">
        <ele>794.67</ele>
        <time>2015-10-12T10:01:27Z</time>
      </trkpt>
      <trkpt lat="44.033" lon="5.36514">
        <ele>794.67</ele>
        <time>2015-10-12T10:01:28Z</time>
      </trkpt>
      <trkpt lat="44.03304" lon="5.36517">
        <ele>794.19</ele>
        <time>2015-10-12T10:01:29Z</time>
      </trkpt>
      <trkpt lat="44.03307" lon="5.36521">
        <ele>794.19</ele>
        <time>2015-10-12T10:01:30Z</time>
      </trkpt>
      <trkpt lat="44.03313" lon="5.36543">
        <ele>792.26</ele>
        <time>2015-10-12T10:01:35Z</time>
      </trkpt>
      <trkpt lat="44.03311" lon="5.36548">
        <ele>791.3</ele>
        <time>2015-10-12T10:01:36Z</time>
      </trkpt>
      <trkpt lat="44.03307" lon="5.36552">
        <ele>791.3</ele>
        <time>2015-10-12T10:01:37Z</time>
      </trkpt>
      <trkpt lat="44.03302" lon="5.36555">
        <ele>790.82</ele>
        <time>2015-10-12T10:01:38Z</time>
      </trkpt>
      <trkpt lat="44.03297" lon="5.36556">
        <ele>790.82</ele>
        <time>2015-10-12T10:01:40Z</time>
      </trkpt>
      <trkpt lat="44.03289" lon="5.36556">
        <ele>790.82</ele>
        <time>2015-10-12T10:01:41Z</time>
      </trkpt>
      <trkpt lat="44.03286" lon="5.36557">
        <ele>790.82</ele>
        <time>2015-10-12T10:01:42Z</time>
      </trkpt>
      <trkpt lat="44.03217" lon="5.3654">
        <ele>790.82</ele>
        <time>2015-10-12T10:01:57Z</time>
      </trkpt>
      <trkpt lat="44.0317" lon="5.36473">
        <ele>791.3</ele>
        <time>2015-10-12T10:02:11Z</time>
      </trkpt>
      <trkpt lat="44.03118" lon="5.36433">
        <ele>788.42</ele>
        <time>2015-10-12T10:02:23Z</time>
      </trkpt>
      <trkpt lat="44.03112" lon="5.36433">
        <ele>788.42</ele>
        <time>2015-10-12T10:02:24Z</time>
      </trkpt>
      <trkpt lat="44.03107" lon="5.36433">
        <ele>788.42</ele>
        <time>2015-10-12T10:02:25Z</time>
      </trkpt>
      <trkpt lat="44.03095" lon="5.36436">
        <ele>787.94</ele>
        <time>2015-10-12T10:02:27Z</time>
      </trkpt>
      <trkpt lat="44.03055" lon="5.36448">
        <ele>786.5</ele>
        <time>2015-10-12T10:02:34Z</time>
      </trkpt>
      <trkpt lat="44.03049" lon="5.36448">
        <ele>786.5</ele>
        <time>2015-10-12T10:02:35Z</time>
      </trkpt>
      <trkpt lat="44.03043" lon="5.36447">
        <ele>786.5</ele>
        <time>2015-10-12T10:02:36Z</time>
      </trkpt>
      <trkpt lat="44.03037" lon="5.36444">
        <ele>786.02</ele>
        <time>2015-10-12T10:02:37Z</time>
      </trkpt>
      <trkpt lat="44.03032" lon="5.36441">
        <ele>786.02</ele>
        <time>2015-10-12T10:02:38Z</time>
      </trkpt>
      <trkpt lat="44.03026" lon="5.36437">
        <ele>786.02</ele>
        <time>2015-10-12T10:02:39Z</time>
      </trkpt>
      <trkpt lat="44.02948" lon="5.36406">
        <ele>784.57</ele>
        <time>2015-10-12T10:02:53Z</time>
      </trkpt>
      <trkpt lat="44.02853" lon="5.36405">
        <ele>783.61</ele>
        <time>2015-10-12T10:03:08Z</time>
      </trkpt>
      <trkpt lat="44.02753" lon="5.36428">
        <ele>783.13</ele>
        <time>2015-10-12T10:03:23Z</time>
      </trkpt>
      <trkpt lat="44.02746" lon="5.36428">
        <ele>783.61</ele>
        <time>2015-10-12T10:03:24Z</time>
      </trkpt>
      <trkpt lat="44.02739" lon="5.36428">
        <ele>783.61</ele>
        <time>2015-10-12T10:03:25Z</time>
      </trkpt>
      <trkpt lat="44.02733" lon="5.36426">
        <ele>783.61</ele>
        <time>2015-10-12T10:03:26Z</time>
      </trkpt>
      <trkpt lat="44.02727" lon="5.36425">
        <ele>783.61</ele>
        <time>2015-10-12T10:03:27Z</time>
      </trkpt>
      <trkpt lat="44.0272" lon="5.36422">
        <ele>783.61</ele>
        <time>2015-10-12T10:03:28Z</time>
      </trkpt>
      <trkpt lat="44.02714" lon="5.36419">
        <ele>783.61</ele>
        <time>2015-10-12T10:03:29Z</time>
      </trkpt>
      <trkpt lat="44.02708" lon="5.36415">
        <ele>783.61</ele>
        <time>2015-10-12T10:03:30Z</time>
      </trkpt>
      <trkpt lat="44.02702" lon="5.36411">
        <ele>783.61</ele>
        <time>2015-10-12T10:03:31Z</time>
      </trkpt>
      <trkpt lat="44.02595" lon="5.36331">
        <ele>781.69</ele>
        <time>2015-10-12T10:03:49Z</time>
      </trkpt>
      <trkpt lat="44.025" lon="5.36297">
        <ele>780.73</ele>
        <time>2015-10-12T10:04:03Z</time>
      </trkpt>
      <trkpt lat="44.02385" lon="5.36259">
        <ele>779.29</ele>
        <time>2015-10-12T10:04:20Z</time>
      </trkpt>
      <trkpt lat="44.02305" lon="5.36189">
        <ele>777.36</ele>
        <time>2015-10-12T10:04:34Z</time>
      </trkpt>
      <trkpt lat="44.02197" lon="5.36084">
        <ele>771.6</ele>
        <time>2015-10-12T10:04:53Z</time>
      </trkpt>
      <trkpt lat="44.02125" lon="5.36061">
        <ele>769.67</ele>
        <time>2015-10-12T10:05:05Z</time>
      </trkpt>
      <trkpt lat="44.02013" lon="5.36057">
        <ele>768.71</ele>
        <time>2015-10-12T10:05:23Z</time>
      </trkpt>
      <trkpt lat="44.01916" lon="5.35996">
        <ele>766.79</ele>
        <time>2015-10-12T10:05:39Z</time>
      </trkpt>
      <trkpt lat="44.01797" lon="5.3593">
        <ele>762.94</ele>
        <time>2015-10-12T10:05:57Z</time>
      </trkpt>
      <trkpt lat="44.01659" lon="5.35854">
        <ele>756.69</ele>
        <time>2015-10-12T10:06:16Z</time>
      </trkpt>
      <trkpt lat="44.01536" lon="5.35788">
        <ele>750.93</ele>
        <time>2015-10-12T10:06:34Z</time>
      </trkpt>
      <trkpt lat="44.01459" lon="5.35745">
        <ele>749</ele>
        <time>2015-10-12T10:06:45Z</time>
      </trkpt>
      <trkpt lat="44.01339" lon="5.35661">
        <ele>745.16</ele>
        <time>2015-10-12T10:07:02Z</time>
      </trkpt>
      <trkpt lat="44.01235" lon="5.35575">
        <ele>741.79</ele>
        <time>2015-10-12T10:07:18Z</time>
      </trkpt>
      <trkpt lat="44.01171" lon="5.35478">
        <ele>739.87</ele>
        <time>2015-10-12T10:07:33Z</time>
      </trkpt>
      <trkpt lat="44.01083" lon="5.35347">
        <ele>737.47</ele>
        <time>2015-10-12T10:07:54Z</time>
      </trkpt>
      <trkpt lat="44.00999" lon="5.3522">
        <ele>734.1</ele>
        <time>2015-10-12T10:08:13Z</time>
      </trkpt>
      <trkpt lat="44.00926" lon="5.35111">
        <ele>733.62</ele>
        <time>2015-10-12T10:08:31Z</time>
      </trkpt>
      <trkpt lat="44.0086" lon="5.35011">
        <ele>733.62</ele>
        <time>2015-10-12T10:08:49Z</time>
      </trkpt>
      <trkpt lat="44.00793" lon="5.34938">
        <ele>734.1</ele>
        <time>2015-10-12T10:09:05Z</time>
      </trkpt>
      <trkpt lat="44.00778" lon="5.34933">
        <ele>734.58</ele>
        <time>2015-10-12T10:09:08Z</time>
      </trkpt>
      <trkpt lat="44.00773" lon="5.34933">
        <ele>734.58</ele>
        <time>2015-10-12T10:09:09Z</time>
      </trkpt>
      <trkpt lat="44.00705" lon="5.34951">
        <ele>736.03</ele>
        <time>2015-10-12T10:09:23Z</time>
      </trkpt>
      <trkpt lat="44.00645" lon="5.34973">
        <ele>736.51</ele>
        <time>2015-10-12T10:09:39Z</time>
      </trkpt>
      <trkpt lat="44.00597" lon="5.34986">
        <ele>737.95</ele>
        <time>2015-10-12T10:09:53Z</time>
      </trkpt>
      <trkpt lat="44.00552" lon="5.34967">
        <ele>739.87</ele>
        <time>2015-10-12T10:10:06Z</time>
      </trkpt>
      <trkpt lat="44.00501" lon="5.34919">
        <ele>742.28</ele>
        <time>2015-10-12T10:10:23Z</time>
      </trkpt>
      <trkpt lat="44.00465" lon="5.34886">
        <ele>742.76</ele>
        <time>2015-10-12T10:10:38Z</time>
      </trkpt>
      <trkpt lat="44.00438" lon="5.34859">
        <ele>743.24</ele>
        <time>2015-10-12T10:10:54Z</time>
      </trkpt>
      <trkpt lat="44.00437" lon="5.34857">
        <ele>743.24</ele>
        <time>2015-10-12T10:10:55Z</time>
      </trkpt>
      <trkpt lat="44.0041" lon="5.3483">
        <ele>743.24</ele>
        <time>2015-10-12T10:11:12Z</time>
      </trkpt>
      <trkpt lat="44.00372" lon="5.34793">
        <ele>741.31</ele>
        <time>2015-10-12T10:11:27Z</time>
      </trkpt>
      <trkpt lat="44.00313" lon="5.34737">
        <ele>737.95</ele>
        <time>2015-10-12T10:11:42Z</time>
      </trkpt>
      <trkpt lat="44.00224" lon="5.34653">
        <ele>730.26</ele>
        <time>2015-10-12T10:11:55Z</time>
      </trkpt>
      <trkpt lat="44.00082" lon="5.34542">
        <ele>721.61</ele>
        <time>2015-10-12T10:12:11Z</time>
      </trkpt>
      <trkpt lat="43.99963" lon="5.34467">
        <ele>715.84</ele>
        <time>2015-10-12T10:12:25Z</time>
      </trkpt>
      <trkpt lat="43.99917" lon="5.34455">
        <ele>713.44</ele>
        <time>2015-10-12T10:12:30Z</time>
      </trkpt>
      <trkpt lat="43.99908" lon="5.34451">
        <ele>713.44</ele>
        <time>2015-10-12T10:12:31Z</time>
      </trkpt>
      <trkpt lat="43.99899" lon="5.34445">
        <ele>712.95</ele>
        <time>2015-10-12T10:12:32Z</time>
      </trkpt>
      <trkpt lat="43.99824" lon="5.34353">
        <ele>708.63</ele>
        <time>2015-10-12T10:12:42Z</time>
      </trkpt>
      <trkpt lat="43.99772" lon="5.34274">
        <ele>704.3</ele>
        <time>2015-10-12T10:12:50Z</time>
      </trkpt>
      <trkpt lat="43.99766" lon="5.34263">
        <ele>703.82</ele>
        <time>2015-10-12T10:12:51Z</time>
      </trkpt>
      <trkpt lat="43.99761" lon="5.34252">
        <ele>703.34</ele>
        <time>2015-10-12T10:12:52Z</time>
      </trkpt>
      <trkpt lat="43.9973" lon="5.34176">
        <ele>697.57</ele>
        <time>2015-10-12T10:13:01Z</time>
      </trkpt>
      <trkpt lat="43.99696" lon="5.34125">
        <ele>695.65</ele>
        <time>2015-10-12T10:13:13Z</time>
      </trkpt>
      <trkpt lat="43.99694" lon="5.34118">
        <ele>695.17</ele>
        <time>2015-10-12T10:13:27Z</time>
      </trkpt>
      <trkpt lat="43.9969" lon="5.34124">
        <ele>695.65</ele>
        <time>2015-10-12T10:13:46Z</time>
      </trkpt>
      <trkpt lat="43.99688" lon="5.34128">
        <ele>693.25</ele>
        <time>2015-10-12T10:14:11Z</time>
      </trkpt>
      <trkpt lat="43.99689" lon="5.34131">
        <ele>692.77</ele>
        <time>2015-10-12T10:14:37Z</time>
      </trkpt>
      <trkpt lat="43.99688" lon="5.34131">
        <ele>694.21</ele>
        <time>2015-10-12T10:15:08Z</time>
      </trkpt>
      <trkpt lat="43.99687" lon="5.3413">
        <ele>697.09</ele>
        <time>2015-10-12T10:15:36Z</time>
      </trkpt>
      <trkpt lat="43.99686" lon="5.34132">
        <ele>697.57</ele>
        <time>2015-10-12T10:15:54Z</time>
      </trkpt>
      <trkpt lat="43.99686" lon="5.34134">
        <ele>696.61</ele>
        <time>2015-10-12T10:16:19Z</time>
      </trkpt>
      <trkpt lat="43.99687" lon="5.34134">
        <ele>695.17</ele>
        <time>2015-10-12T10:16:43Z</time>
      </trkpt>
      <trkpt lat="43.99686" lon="5.34134">
        <ele>694.21</ele>
        <time>2015-10-12T10:17:15Z</time>
      </trkpt>
      <trkpt lat="43.99685" lon="5.34135">
        <ele>691.81</ele>
        <time>2015-10-12T10:17:38Z</time>
      </trkpt>
      <trkpt lat="43.99684" lon="5.34135">
        <ele>691.33</ele>
        <time>2015-10-12T10:18:04Z</time>
      </trkpt>
      <trkpt lat="43.99685" lon="5.34133">
        <ele>690.84</ele>
        <time>2015-10-12T10:18:24Z</time>
      </trkpt>
      <trkpt lat="43.99687" lon="5.3413">
        <ele>693.73</ele>
        <time>2015-10-12T10:18:35Z</time>
      </trkpt>
      <trkpt lat="43.99685" lon="5.34127">
        <ele>694.21</ele>
        <time>2015-10-12T10:18:40Z</time>
      </trkpt>
      <trkpt lat="43.99683" lon="5.34126">
        <ele>694.21</ele>
        <time>2015-10-12T10:18:41Z</time>
      </trkpt>
      <trkpt lat="43.99658" lon="5.34093">
        <ele>695.17</ele>
        <time>2015-10-12T10:18:53Z</time>
      </trkpt>
      <trkpt lat="43.9963" lon="5.34037">
        <ele>692.29</ele>
        <time>2015-10-12T10:19:05Z</time>
      </trkpt>
      <trkpt lat="43.99576" lon="5.33933">
        <ele>684.6</ele>
        <time>2015-10-12T10:19:18Z</time>
      </trkpt>
      <trkpt lat="43.99498" lon="5.3379">
        <ele>677.87</ele>
        <time>2015-10-12T10:19:34Z</time>
      </trkpt>
      <trkpt lat="43.99452" lon="5.33697">
        <ele>675.94</ele>
        <time>2015-10-12T10:19:47Z</time>
      </trkpt>
      <trkpt lat="43.99411" lon="5.33612">
        <ele>678.35</ele>
        <time>2015-10-12T10:20:02Z</time>
      </trkpt>
      <trkpt lat="43.99362" lon="5.33512">
        <ele>675.94</ele>
        <time>2015-10-12T10:20:17Z</time>
      </trkpt>
      <trkpt lat="43.9934" lon="5.33456">
        <ele>674.5</ele>
        <time>2015-10-12T10:20:24Z</time>
      </trkpt>
      <trkpt lat="43.99338" lon="5.33447">
        <ele>674.5</ele>
        <time>2015-10-12T10:20:25Z</time>
      </trkpt>
      <trkpt lat="43.99328" lon="5.33387">
        <ele>672.58</ele>
        <time>2015-10-12T10:20:31Z</time>
      </trkpt>
      <trkpt lat="43.99325" lon="5.33378">
        <ele>672.1</ele>
        <time>2015-10-12T10:20:32Z</time>
      </trkpt>
      <trkpt lat="43.99321" lon="5.3337">
        <ele>671.62</ele>
        <time>2015-10-12T10:20:33Z</time>
      </trkpt>
      <trkpt lat="43.99272" lon="5.33298">
        <ele>666.81</ele>
        <time>2015-10-12T10:20:42Z</time>
      </trkpt>
      <trkpt lat="43.99215" lon="5.33132">
        <ele>658.64</ele>
        <time>2015-10-12T10:20:58Z</time>
      </trkpt>
      <trkpt lat="43.99211" lon="5.33122">
        <ele>658.16</ele>
        <time>2015-10-12T10:20:59Z</time>
      </trkpt>
      <trkpt lat="43.99206" lon="5.33113">
        <ele>657.68</ele>
        <time>2015-10-12T10:21:00Z</time>
      </trkpt>
      <trkpt lat="43.99122" lon="5.32966">
        <ele>649.99</ele>
        <time>2015-10-12T10:21:16Z</time>
      </trkpt>
      <trkpt lat="43.9904" lon="5.32837">
        <ele>643.74</ele>
        <time>2015-10-12T10:21:31Z</time>
      </trkpt>
      <trkpt lat="43.99012" lon="5.32799">
        <ele>641.82</ele>
        <time>2015-10-12T10:21:39Z</time>
      </trkpt>
      <trkpt lat="43.9901" lon="5.32795">
        <ele>641.34</ele>
        <time>2015-10-12T10:21:41Z</time>
      </trkpt>
      <trkpt lat="43.99009" lon="5.32793">
        <ele>641.34</ele>
        <time>2015-10-12T10:21:42Z</time>
      </trkpt>
      <trkpt lat="43.99006" lon="5.3279">
        <ele>644.7</ele>
        <time>2015-10-12T10:21:57Z</time>
      </trkpt>
      <trkpt lat="43.99004" lon="5.32787">
        <ele>647.1</ele>
        <time>2015-10-12T10:22:23Z</time>
      </trkpt>
      <trkpt lat="43.99004" lon="5.32784">
        <ele>649.03</ele>
        <time>2015-10-12T10:22:47Z</time>
      </trkpt>
      <trkpt lat="43.99003" lon="5.32782">
        <ele>649.03</ele>
        <time>2015-10-12T10:22:48Z</time>
      </trkpt>
      <trkpt lat="43.99001" lon="5.32781">
        <ele>649.03</ele>
        <time>2015-10-12T10:22:49Z</time>
      </trkpt>
      <trkpt lat="43.99" lon="5.3278">
        <ele>649.03</ele>
        <time>2015-10-12T10:22:50Z</time>
      </trkpt>
      <trkpt lat="43.98998" lon="5.32779">
        <ele>649.03</ele>
        <time>2015-10-12T10:22:51Z</time>
      </trkpt>
      <trkpt lat="43.98997" lon="5.32778">
        <ele>649.03</ele>
        <time>2015-10-12T10:22:52Z</time>
      </trkpt>
      <trkpt lat="43.98995" lon="5.32777">
        <ele>649.51</ele>
        <time>2015-10-12T10:22:53Z</time>
      </trkpt>
      <trkpt lat="43.98964" lon="5.32752">
        <ele>650.47</ele>
        <time>2015-10-12T10:23:04Z</time>
      </trkpt>
      <trkpt lat="43.98959" lon="5.32751">
        <ele>650.47</ele>
        <time>2015-10-12T10:23:05Z</time>
      </trkpt>
      <trkpt lat="43.98954" lon="5.32752">
        <ele>649.99</ele>
        <time>2015-10-12T10:23:06Z</time>
      </trkpt>
      <trkpt lat="43.98949" lon="5.32753">
        <ele>649.99</ele>
        <time>2015-10-12T10:23:07Z</time>
      </trkpt>
      <trkpt lat="43.98943" lon="5.32756">
        <ele>649.51</ele>
        <time>2015-10-12T10:23:08Z</time>
      </trkpt>
      <trkpt lat="43.98927" lon="5.32763">
        <ele>647.59</ele>
        <time>2015-10-12T10:23:11Z</time>
      </trkpt>
      <trkpt lat="43.98921" lon="5.32764">
        <ele>647.1</ele>
        <time>2015-10-12T10:23:12Z</time>
      </trkpt>
      <trkpt lat="43.98914" lon="5.32762">
        <ele>646.62</ele>
        <time>2015-10-12T10:23:13Z</time>
      </trkpt>
      <trkpt lat="43.98909" lon="5.32758">
        <ele>646.14</ele>
        <time>2015-10-12T10:23:14Z</time>
      </trkpt>
      <trkpt lat="43.98903" lon="5.32753">
        <ele>645.66</ele>
        <time>2015-10-12T10:23:15Z</time>
      </trkpt>
      <trkpt lat="43.98886" lon="5.32738">
        <ele>645.18</ele>
        <time>2015-10-12T10:23:18Z</time>
      </trkpt>
      <trkpt lat="43.9888" lon="5.32735">
        <ele>644.7</ele>
        <time>2015-10-12T10:23:19Z</time>
      </trkpt>
      <trkpt lat="43.98873" lon="5.32732">
        <ele>644.7</ele>
        <time>2015-10-12T10:23:20Z</time>
      </trkpt>
      <trkpt lat="43.98866" lon="5.32731">
        <ele>644.7</ele>
        <time>2015-10-12T10:23:21Z</time>
      </trkpt>
      <trkpt lat="43.9886" lon="5.32731">
        <ele>644.7</ele>
        <time>2015-10-12T10:23:22Z</time>
      </trkpt>
      <trkpt lat="43.98852" lon="5.32734">
        <ele>644.22</ele>
        <time>2015-10-12T10:23:23Z</time>
      </trkpt>
      <trkpt lat="43.98846" lon="5.32739">
        <ele>644.22</ele>
        <time>2015-10-12T10:23:24Z</time>
      </trkpt>
      <trkpt lat="43.9884" lon="5.32745">
        <ele>643.74</ele>
        <time>2015-10-12T10:23:25Z</time>
      </trkpt>
      <trkpt lat="43.98835" lon="5.32752">
        <ele>643.74</ele>
        <time>2015-10-12T10:23:26Z</time>
      </trkpt>
      <trkpt lat="43.9883" lon="5.3276">
        <ele>643.26</ele>
        <time>2015-10-12T10:23:27Z</time>
      </trkpt>
      <trkpt lat="43.98816" lon="5.32785">
        <ele>641.82</ele>
        <time>2015-10-12T10:23:30Z</time>
      </trkpt>
      <trkpt lat="43.98811" lon="5.32793">
        <ele>641.34</ele>
        <time>2015-10-12T10:23:31Z</time>
      </trkpt>
      <trkpt lat="43.98805" lon="5.32799">
        <ele>640.86</ele>
        <time>2015-10-12T10:23:32Z</time>
      </trkpt>
      <trkpt lat="43.98799" lon="5.32803">
        <ele>640.86</ele>
        <time>2015-10-12T10:23:33Z</time>
      </trkpt>
      <trkpt lat="43.98791" lon="5.32806">
        <ele>640.38</ele>
        <time>2015-10-12T10:23:34Z</time>
      </trkpt>
      <trkpt lat="43.98784" lon="5.32807">
        <ele>639.89</ele>
        <time>2015-10-12T10:23:35Z</time>
      </trkpt>
      <trkpt lat="43.98776" lon="5.32807">
        <ele>639.89</ele>
        <time>2015-10-12T10:23:36Z</time>
      </trkpt>
      <trkpt lat="43.98768" lon="5.32807">
        <ele>639.41</ele>
        <time>2015-10-12T10:23:37Z</time>
      </trkpt>
      <trkpt lat="43.98753" lon="5.32808">
        <ele>639.41</ele>
        <time>2015-10-12T10:23:39Z</time>
      </trkpt>
      <trkpt lat="43.98746" lon="5.3281">
        <ele>638.93</ele>
        <time>2015-10-12T10:23:40Z</time>
      </trkpt>
      <trkpt lat="43.9874" lon="5.32816">
        <ele>638.45</ele>
        <time>2015-10-12T10:23:41Z</time>
      </trkpt>
      <trkpt lat="43.98736" lon="5.32823">
        <ele>637.97</ele>
        <time>2015-10-12T10:23:42Z</time>
      </trkpt>
      <trkpt lat="43.98734" lon="5.32832">
        <ele>637.49</ele>
        <time>2015-10-12T10:23:43Z</time>
      </trkpt>
      <trkpt lat="43.98733" lon="5.32842">
        <ele>636.53</ele>
        <time>2015-10-12T10:23:44Z</time>
      </trkpt>
      <trkpt lat="43.98733" lon="5.32852">
        <ele>636.53</ele>
        <time>2015-10-12T10:23:45Z</time>
      </trkpt>
      <trkpt lat="43.98733" lon="5.32862">
        <ele>636.05</ele>
        <time>2015-10-12T10:23:46Z</time>
      </trkpt>
      <trkpt lat="43.98732" lon="5.32901">
        <ele>634.13</ele>
        <time>2015-10-12T10:23:50Z</time>
      </trkpt>
      <trkpt lat="43.98731" lon="5.3291">
        <ele>633.17</ele>
        <time>2015-10-12T10:23:51Z</time>
      </trkpt>
      <trkpt lat="43.98727" lon="5.32917">
        <ele>632.68</ele>
        <time>2015-10-12T10:23:52Z</time>
      </trkpt>
      <trkpt lat="43.98722" lon="5.32923">
        <ele>632.68</ele>
        <time>2015-10-12T10:23:53Z</time>
      </trkpt>
      <trkpt lat="43.98716" lon="5.32927">
        <ele>632.2</ele>
        <time>2015-10-12T10:23:54Z</time>
      </trkpt>
      <trkpt lat="43.9871" lon="5.3293">
        <ele>631.72</ele>
        <time>2015-10-12T10:23:55Z</time>
      </trkpt>
      <trkpt lat="43.98703" lon="5.32932">
        <ele>631.24</ele>
        <time>2015-10-12T10:23:56Z</time>
      </trkpt>
      <trkpt lat="43.98697" lon="5.32936">
        <ele>630.76</ele>
        <time>2015-10-12T10:23:57Z</time>
      </trkpt>
      <trkpt lat="43.98691" lon="5.3294">
        <ele>630.28</ele>
        <time>2015-10-12T10:23:58Z</time>
      </trkpt>
      <trkpt lat="43.98685" lon="5.32945">
        <ele>629.8</ele>
        <time>2015-10-12T10:23:59Z</time>
      </trkpt>
      <trkpt lat="43.98679" lon="5.32951">
        <ele>629.32</ele>
        <time>2015-10-12T10:24:00Z</time>
      </trkpt>
      <trkpt lat="43.9865" lon="5.3298">
        <ele>627.4</ele>
        <time>2015-10-12T10:24:05Z</time>
      </trkpt>
      <trkpt lat="43.98643" lon="5.32983">
        <ele>626.92</ele>
        <time>2015-10-12T10:24:06Z</time>
      </trkpt>
      <trkpt lat="43.98636" lon="5.32986">
        <ele>626.44</ele>
        <time>2015-10-12T10:24:07Z</time>
      </trkpt>
      <trkpt lat="43.98513" lon="5.33013">
        <ele>620.19</ele>
        <time>2015-10-12T10:24:24Z</time>
      </trkpt>
      <trkpt lat="43.98456" lon="5.33025">
        <ele>618.26</ele>
        <time>2015-10-12T10:24:32Z</time>
      </trkpt>
      <trkpt lat="43.9845" lon="5.33023">
        <ele>618.26</ele>
        <time>2015-10-12T10:24:33Z</time>
      </trkpt>
      <trkpt lat="43.98445" lon="5.33019">
        <ele>617.78</ele>
        <time>2015-10-12T10:24:34Z</time>
      </trkpt>
      <trkpt lat="43.98439" lon="5.33014">
        <ele>617.78</ele>
        <time>2015-10-12T10:24:35Z</time>
      </trkpt>
      <trkpt lat="43.98434" lon="5.33009">
        <ele>617.3</ele>
        <time>2015-10-12T10:24:36Z</time>
      </trkpt>
      <trkpt lat="43.98429" lon="5.33005">
        <ele>616.82</ele>
        <time>2015-10-12T10:24:37Z</time>
      </trkpt>
      <trkpt lat="43.98423" lon="5.33002">
        <ele>616.82</ele>
        <time>2015-10-12T10:24:38Z</time>
      </trkpt>
      <trkpt lat="43.98417" lon="5.33">
        <ele>616.82</ele>
        <time>2015-10-12T10:24:39Z</time>
      </trkpt>
      <trkpt lat="43.9841" lon="5.32999">
        <ele>616.34</ele>
        <time>2015-10-12T10:24:40Z</time>
      </trkpt>
      <trkpt lat="43.98404" lon="5.32998">
        <ele>616.34</ele>
        <time>2015-10-12T10:24:41Z</time>
      </trkpt>
      <trkpt lat="43.98371" lon="5.32996">
        <ele>614.42</ele>
        <time>2015-10-12T10:24:46Z</time>
      </trkpt>
      <trkpt lat="43.98365" lon="5.32998">
        <ele>613.94</ele>
        <time>2015-10-12T10:24:47Z</time>
      </trkpt>
      <trkpt lat="43.98359" lon="5.33002">
        <ele>614.42</ele>
        <time>2015-10-12T10:24:48Z</time>
      </trkpt>
      <trkpt lat="43.98354" lon="5.33007">
        <ele>613.94</ele>
        <time>2015-10-12T10:24:49Z</time>
      </trkpt>
      <trkpt lat="43.9835" lon="5.33014">
        <ele>613.46</ele>
        <time>2015-10-12T10:24:50Z</time>
      </trkpt>
      <trkpt lat="43.98346" lon="5.33022">
        <ele>613.46</ele>
        <time>2015-10-12T10:24:51Z</time>
      </trkpt>
      <trkpt lat="43.98343" lon="5.3303">
        <ele>612.98</ele>
        <time>2015-10-12T10:24:52Z</time>
      </trkpt>
      <trkpt lat="43.98339" lon="5.33037">
        <ele>612.5</ele>
        <time>2015-10-12T10:24:53Z</time>
      </trkpt>
      <trkpt lat="43.98335" lon="5.33043">
        <ele>612.02</ele>
        <time>2015-10-12T10:24:54Z</time>
      </trkpt>
      <trkpt lat="43.9833" lon="5.33048">
        <ele>612.02</ele>
        <time>2015-10-12T10:24:55Z</time>
      </trkpt>
      <trkpt lat="43.98325" lon="5.3305">
        <ele>611.54</ele>
        <time>2015-10-12T10:24:56Z</time>
      </trkpt>
      <trkpt lat="43.98319" lon="5.33051">
        <ele>611.54</ele>
        <time>2015-10-12T10:24:57Z</time>
      </trkpt>
      <trkpt lat="43.98313" lon="5.33049">
        <ele>611.06</ele>
        <time>2015-10-12T10:24:58Z</time>
      </trkpt>
      <trkpt lat="43.98308" lon="5.33047">
        <ele>611.06</ele>
        <time>2015-10-12T10:24:59Z</time>
      </trkpt>
      <trkpt lat="43.98302" lon="5.33042">
        <ele>610.57</ele>
        <time>2015-10-12T10:25:00Z</time>
      </trkpt>
      <trkpt lat="43.98298" lon="5.33038">
        <ele>611.06</ele>
        <time>2015-10-12T10:25:01Z</time>
      </trkpt>
      <trkpt lat="43.98293" lon="5.33032">
        <ele>610.57</ele>
        <time>2015-10-12T10:25:02Z</time>
      </trkpt>
      <trkpt lat="43.98264" lon="5.33004">
        <ele>609.61</ele>
        <time>2015-10-12T10:25:08Z</time>
      </trkpt>
      <trkpt lat="43.98252" lon="5.32996">
        <ele>609.13</ele>
        <time>2015-10-12T10:25:10Z</time>
      </trkpt>
      <trkpt lat="43.98246" lon="5.32993">
        <ele>609.13</ele>
        <time>2015-10-12T10:25:11Z</time>
      </trkpt>
      <trkpt lat="43.98156" lon="5.32985">
        <ele>609.13</ele>
        <time>2015-10-12T10:25:24Z</time>
      </trkpt>
      <trkpt lat="43.98097" lon="5.32987">
        <ele>606.25</ele>
        <time>2015-10-12T10:25:32Z</time>
      </trkpt>
      <trkpt lat="43.9809" lon="5.32986">
        <ele>605.77</ele>
        <time>2015-10-12T10:25:33Z</time>
      </trkpt>
      <trkpt lat="43.98083" lon="5.32983">
        <ele>605.29</ele>
        <time>2015-10-12T10:25:34Z</time>
      </trkpt>
      <trkpt lat="43.97968" lon="5.32925">
        <ele>600</ele>
        <time>2015-10-12T10:25:51Z</time>
      </trkpt>
      <trkpt lat="43.97912" lon="5.32907">
        <ele>597.6</ele>
        <time>2015-10-12T10:25:59Z</time>
      </trkpt>
      <trkpt lat="43.97906" lon="5.32903">
        <ele>597.6</ele>
        <time>2015-10-12T10:26:00Z</time>
      </trkpt>
      <trkpt lat="43.979" lon="5.32899">
        <ele>597.12</ele>
        <time>2015-10-12T10:26:01Z</time>
      </trkpt>
      <trkpt lat="43.97859" lon="5.32864">
        <ele>594.23</ele>
        <time>2015-10-12T10:26:08Z</time>
      </trkpt>
      <trkpt lat="43.97852" lon="5.32861">
        <ele>593.75</ele>
        <time>2015-10-12T10:26:09Z</time>
      </trkpt>
      <trkpt lat="43.97845" lon="5.32859">
        <ele>593.75</ele>
        <time>2015-10-12T10:26:10Z</time>
      </trkpt>
      <trkpt lat="43.97838" lon="5.32858">
        <ele>593.75</ele>
        <time>2015-10-12T10:26:11Z</time>
      </trkpt>
      <trkpt lat="43.9783" lon="5.32857">
        <ele>593.27</ele>
        <time>2015-10-12T10:26:12Z</time>
      </trkpt>
      <trkpt lat="43.97738" lon="5.32824">
        <ele>589.43</ele>
        <time>2015-10-12T10:26:25Z</time>
      </trkpt>
      <trkpt lat="43.97732" lon="5.32818">
        <ele>589.43</ele>
        <time>2015-10-12T10:26:26Z</time>
      </trkpt>
      <trkpt lat="43.97728" lon="5.3281">
        <ele>588.95</ele>
        <time>2015-10-12T10:26:27Z</time>
      </trkpt>
      <trkpt lat="43.97726" lon="5.32802">
        <ele>588.46</ele>
        <time>2015-10-12T10:26:28Z</time>
      </trkpt>
      <trkpt lat="43.97723" lon="5.32793">
        <ele>587.98</ele>
        <time>2015-10-12T10:26:29Z</time>
      </trkpt>
      <trkpt lat="43.97717" lon="5.32769">
        <ele>586.54</ele>
        <time>2015-10-12T10:26:32Z</time>
      </trkpt>
      <trkpt lat="43.97713" lon="5.32761">
        <ele>586.06</ele>
        <time>2015-10-12T10:26:33Z</time>
      </trkpt>
      <trkpt lat="43.97709" lon="5.32755">
        <ele>585.58</ele>
        <time>2015-10-12T10:26:34Z</time>
      </trkpt>
      <trkpt lat="43.97704" lon="5.3275">
        <ele>585.1</ele>
        <time>2015-10-12T10:26:35Z</time>
      </trkpt>
      <trkpt lat="43.97698" lon="5.32746">
        <ele>584.62</ele>
        <time>2015-10-12T10:26:36Z</time>
      </trkpt>
      <trkpt lat="43.97691" lon="5.32746">
        <ele>584.62</ele>
        <time>2015-10-12T10:26:37Z</time>
      </trkpt>
      <trkpt lat="43.97684" lon="5.32748">
        <ele>584.62</ele>
        <time>2015-10-12T10:26:38Z</time>
      </trkpt>
      <trkpt lat="43.97678" lon="5.32752">
        <ele>584.62</ele>
        <time>2015-10-12T10:26:39Z</time>
      </trkpt>
      <trkpt lat="43.97672" lon="5.32757">
        <ele>584.62</ele>
        <time>2015-10-12T10:26:40Z</time>
      </trkpt>
      <trkpt lat="43.97667" lon="5.32763">
        <ele>584.62</ele>
        <time>2015-10-12T10:26:41Z</time>
      </trkpt>
      <trkpt lat="43.97662" lon="5.3277">
        <ele>584.62</ele>
        <time>2015-10-12T10:26:42Z</time>
      </trkpt>
      <trkpt lat="43.97618" lon="5.32811">
        <ele>582.22</ele>
        <time>2015-10-12T10:26:49Z</time>
      </trkpt>
      <trkpt lat="43.97611" lon="5.32815">
        <ele>581.73</ele>
        <time>2015-10-12T10:26:50Z</time>
      </trkpt>
      <trkpt lat="43.97604" lon="5.32818">
        <ele>581.25</ele>
        <time>2015-10-12T10:26:51Z</time>
      </trkpt>
      <trkpt lat="43.97589" lon="5.32822">
        <ele>580.29</ele>
        <time>2015-10-12T10:26:53Z</time>
      </trkpt>
      <trkpt lat="43.97582" lon="5.32822">
        <ele>579.81</ele>
        <time>2015-10-12T10:26:54Z</time>
      </trkpt>
      <trkpt lat="43.97575" lon="5.3282">
        <ele>579.81</ele>
        <time>2015-10-12T10:26:55Z</time>
      </trkpt>
      <trkpt lat="43.97535" lon="5.32805">
        <ele>577.41</ele>
        <time>2015-10-12T10:27:01Z</time>
      </trkpt>
      <trkpt lat="43.97528" lon="5.32805">
        <ele>576.93</ele>
        <time>2015-10-12T10:27:02Z</time>
      </trkpt>
      <trkpt lat="43.9741" lon="5.32816">
        <ele>571.16</ele>
        <time>2015-10-12T10:27:20Z</time>
      </trkpt>
      <trkpt lat="43.97291" lon="5.32858">
        <ele>565.39</ele>
        <time>2015-10-12T10:27:37Z</time>
      </trkpt>
      <trkpt lat="43.97259" lon="5.32882">
        <ele>563.47</ele>
        <time>2015-10-12T10:27:42Z</time>
      </trkpt>
      <trkpt lat="43.97254" lon="5.32889">
        <ele>562.99</ele>
        <time>2015-10-12T10:27:43Z</time>
      </trkpt>
      <trkpt lat="43.9722" lon="5.3293">
        <ele>561.07</ele>
        <time>2015-10-12T10:27:49Z</time>
      </trkpt>
      <trkpt lat="43.97214" lon="5.32936">
        <ele>561.07</ele>
        <time>2015-10-12T10:27:50Z</time>
      </trkpt>
      <trkpt lat="43.97207" lon="5.3294">
        <ele>560.59</ele>
        <time>2015-10-12T10:27:51Z</time>
      </trkpt>
      <trkpt lat="43.972" lon="5.32942">
        <ele>560.59</ele>
        <time>2015-10-12T10:27:52Z</time>
      </trkpt>
      <trkpt lat="43.97193" lon="5.32945">
        <ele>560.11</ele>
        <time>2015-10-12T10:27:53Z</time>
      </trkpt>
      <trkpt lat="43.97186" lon="5.32947">
        <ele>559.62</ele>
        <time>2015-10-12T10:27:54Z</time>
      </trkpt>
      <trkpt lat="43.971" lon="5.32957">
        <ele>555.78</ele>
        <time>2015-10-12T10:28:06Z</time>
      </trkpt>
      <trkpt lat="43.97093" lon="5.32954">
        <ele>555.3</ele>
        <time>2015-10-12T10:28:07Z</time>
      </trkpt>
      <trkpt lat="43.97087" lon="5.3295">
        <ele>555.3</ele>
        <time>2015-10-12T10:28:08Z</time>
      </trkpt>
      <trkpt lat="43.97074" lon="5.3294">
        <ele>554.82</ele>
        <time>2015-10-12T10:28:10Z</time>
      </trkpt>
      <trkpt lat="43.97067" lon="5.32937">
        <ele>554.34</ele>
        <time>2015-10-12T10:28:11Z</time>
      </trkpt>
      <trkpt lat="43.97061" lon="5.32935">
        <ele>554.34</ele>
        <time>2015-10-12T10:28:12Z</time>
      </trkpt>
      <trkpt lat="43.97054" lon="5.32934">
        <ele>554.34</ele>
        <time>2015-10-12T10:28:13Z</time>
      </trkpt>
      <trkpt lat="43.97047" lon="5.32935">
        <ele>553.86</ele>
        <time>2015-10-12T10:28:14Z</time>
      </trkpt>
      <trkpt lat="43.9704" lon="5.32937">
        <ele>553.86</ele>
        <time>2015-10-12T10:28:15Z</time>
      </trkpt>
      <trkpt lat="43.97034" lon="5.32939">
        <ele>553.38</ele>
        <time>2015-10-12T10:28:16Z</time>
      </trkpt>
      <trkpt lat="43.96924" lon="5.32979">
        <ele>547.13</ele>
        <time>2015-10-12T10:28:32Z</time>
      </trkpt>
      <trkpt lat="43.96911" lon="5.32985">
        <ele>546.65</ele>
        <time>2015-10-12T10:28:34Z</time>
      </trkpt>
      <trkpt lat="43.96904" lon="5.32986">
        <ele>546.17</ele>
        <time>2015-10-12T10:28:35Z</time>
      </trkpt>
      <trkpt lat="43.96897" lon="5.32985">
        <ele>546.17</ele>
        <time>2015-10-12T10:28:36Z</time>
      </trkpt>
      <trkpt lat="43.96891" lon="5.32982">
        <ele>546.17</ele>
        <time>2015-10-12T10:28:37Z</time>
      </trkpt>
      <trkpt lat="43.96884" lon="5.32977">
        <ele>546.17</ele>
        <time>2015-10-12T10:28:38Z</time>
      </trkpt>
      <trkpt lat="43.96878" lon="5.32971">
        <ele>545.69</ele>
        <time>2015-10-12T10:28:39Z</time>
      </trkpt>
      <trkpt lat="43.96873" lon="5.32964">
        <ele>545.2</ele>
        <time>2015-10-12T10:28:40Z</time>
      </trkpt>
      <trkpt lat="43.96868" lon="5.32956">
        <ele>544.72</ele>
        <time>2015-10-12T10:28:41Z</time>
      </trkpt>
      <trkpt lat="43.9678" lon="5.32826">
        <ele>539.92</ele>
        <time>2015-10-12T10:28:57Z</time>
      </trkpt>
      <trkpt lat="43.96776" lon="5.32816">
        <ele>539.44</ele>
        <time>2015-10-12T10:28:58Z</time>
      </trkpt>
      <trkpt lat="43.96771" lon="5.32806">
        <ele>539.44</ele>
        <time>2015-10-12T10:28:59Z</time>
      </trkpt>
      <trkpt lat="43.96741" lon="5.32661">
        <ele>535.11</ele>
        <time>2015-10-12T10:29:12Z</time>
      </trkpt>
      <trkpt lat="43.96738" lon="5.32641">
        <ele>534.15</ele>
        <time>2015-10-12T10:29:14Z</time>
      </trkpt>
      <trkpt lat="43.96738" lon="5.32632">
        <ele>533.67</ele>
        <time>2015-10-12T10:29:15Z</time>
      </trkpt>
      <trkpt lat="43.96739" lon="5.32622">
        <ele>533.19</ele>
        <time>2015-10-12T10:29:16Z</time>
      </trkpt>
      <trkpt lat="43.96741" lon="5.32613">
        <ele>533.19</ele>
        <time>2015-10-12T10:29:17Z</time>
      </trkpt>
      <trkpt lat="43.96745" lon="5.32605">
        <ele>532.71</ele>
        <time>2015-10-12T10:29:18Z</time>
      </trkpt>
      <trkpt lat="43.96749" lon="5.32597">
        <ele>532.71</ele>
        <time>2015-10-12T10:29:19Z</time>
      </trkpt>
      <trkpt lat="43.96757" lon="5.32582">
        <ele>532.71</ele>
        <time>2015-10-12T10:29:21Z</time>
      </trkpt>
      <trkpt lat="43.9676" lon="5.32573">
        <ele>532.23</ele>
        <time>2015-10-12T10:29:22Z</time>
      </trkpt>
      <trkpt lat="43.9676" lon="5.32563">
        <ele>531.75</ele>
        <time>2015-10-12T10:29:23Z</time>
      </trkpt>
      <trkpt lat="43.96759" lon="5.32553">
        <ele>531.75</ele>
        <time>2015-10-12T10:29:24Z</time>
      </trkpt>
      <trkpt lat="43.96755" lon="5.32544">
        <ele>531.27</ele>
        <time>2015-10-12T10:29:25Z</time>
      </trkpt>
      <trkpt lat="43.9675" lon="5.32537">
        <ele>530.79</ele>
        <time>2015-10-12T10:29:26Z</time>
      </trkpt>
      <trkpt lat="43.96744" lon="5.32532">
        <ele>530.3</ele>
        <time>2015-10-12T10:29:27Z</time>
      </trkpt>
      <trkpt lat="43.96737" lon="5.32528">
        <ele>530.3</ele>
        <time>2015-10-12T10:29:28Z</time>
      </trkpt>
      <trkpt lat="43.96729" lon="5.32525">
        <ele>530.3</ele>
        <time>2015-10-12T10:29:29Z</time>
      </trkpt>
      <trkpt lat="43.96714" lon="5.32519">
        <ele>530.3</ele>
        <time>2015-10-12T10:29:31Z</time>
      </trkpt>
      <trkpt lat="43.96706" lon="5.32515">
        <ele>529.82</ele>
        <time>2015-10-12T10:29:32Z</time>
      </trkpt>
      <trkpt lat="43.967" lon="5.3251">
        <ele>529.82</ele>
        <time>2015-10-12T10:29:33Z</time>
      </trkpt>
      <trkpt lat="43.96694" lon="5.32503">
        <ele>529.34</ele>
        <time>2015-10-12T10:29:34Z</time>
      </trkpt>
      <trkpt lat="43.96688" lon="5.32494">
        <ele>528.86</ele>
        <time>2015-10-12T10:29:35Z</time>
      </trkpt>
      <trkpt lat="43.96684" lon="5.32485">
        <ele>528.86</ele>
        <time>2015-10-12T10:29:36Z</time>
      </trkpt>
      <trkpt lat="43.9668" lon="5.32476">
        <ele>528.38</ele>
        <time>2015-10-12T10:29:37Z</time>
      </trkpt>
      <trkpt lat="43.96677" lon="5.32465">
        <ele>528.38</ele>
        <time>2015-10-12T10:29:38Z</time>
      </trkpt>
      <trkpt lat="43.96674" lon="5.32455">
        <ele>527.9</ele>
        <time>2015-10-12T10:29:39Z</time>
      </trkpt>
      <trkpt lat="43.96654" lon="5.32372">
        <ele>525.02</ele>
        <time>2015-10-12T10:29:47Z</time>
      </trkpt>
      <trkpt lat="43.9665" lon="5.32362">
        <ele>524.54</ele>
        <time>2015-10-12T10:29:48Z</time>
      </trkpt>
      <trkpt lat="43.96645" lon="5.32353">
        <ele>524.06</ele>
        <time>2015-10-12T10:29:49Z</time>
      </trkpt>
      <trkpt lat="43.96636" lon="5.32334">
        <ele>523.58</ele>
        <time>2015-10-12T10:29:51Z</time>
      </trkpt>
      <trkpt lat="43.96633" lon="5.32324">
        <ele>523.09</ele>
        <time>2015-10-12T10:29:52Z</time>
      </trkpt>
      <trkpt lat="43.9663" lon="5.32313">
        <ele>523.09</ele>
        <time>2015-10-12T10:29:53Z</time>
      </trkpt>
      <trkpt lat="43.96629" lon="5.32301">
        <ele>522.61</ele>
        <time>2015-10-12T10:29:54Z</time>
      </trkpt>
      <trkpt lat="43.96629" lon="5.3229">
        <ele>522.13</ele>
        <time>2015-10-12T10:29:55Z</time>
      </trkpt>
      <trkpt lat="43.96628" lon="5.32278">
        <ele>522.13</ele>
        <time>2015-10-12T10:29:56Z</time>
      </trkpt>
      <trkpt lat="43.96626" lon="5.32267">
        <ele>521.65</ele>
        <time>2015-10-12T10:29:57Z</time>
      </trkpt>
      <trkpt lat="43.96614" lon="5.32198">
        <ele>519.25</ele>
        <time>2015-10-12T10:30:03Z</time>
      </trkpt>
      <trkpt lat="43.96613" lon="5.32186">
        <ele>518.77</ele>
        <time>2015-10-12T10:30:04Z</time>
      </trkpt>
      <trkpt lat="43.96614" lon="5.32175">
        <ele>518.29</ele>
        <time>2015-10-12T10:30:05Z</time>
      </trkpt>
      <trkpt lat="43.96616" lon="5.32164">
        <ele>518.29</ele>
        <time>2015-10-12T10:30:06Z</time>
      </trkpt>
      <trkpt lat="43.96619" lon="5.32154">
        <ele>517.81</ele>
        <time>2015-10-12T10:30:07Z</time>
      </trkpt>
      <trkpt lat="43.96623" lon="5.32145">
        <ele>517.81</ele>
        <time>2015-10-12T10:30:08Z</time>
      </trkpt>
      <trkpt lat="43.96629" lon="5.32126">
        <ele>517.33</ele>
        <time>2015-10-12T10:30:10Z</time>
      </trkpt>
      <trkpt lat="43.96631" lon="5.32116">
        <ele>516.85</ele>
        <time>2015-10-12T10:30:11Z</time>
      </trkpt>
      <trkpt lat="43.9663" lon="5.32106">
        <ele>516.37</ele>
        <time>2015-10-12T10:30:12Z</time>
      </trkpt>
      <trkpt lat="43.96627" lon="5.32095">
        <ele>515.88</ele>
        <time>2015-10-12T10:30:13Z</time>
      </trkpt>
      <trkpt lat="43.96623" lon="5.32088">
        <ele>515.4</ele>
        <time>2015-10-12T10:30:14Z</time>
      </trkpt>
      <trkpt lat="43.96618" lon="5.3208">
        <ele>514.92</ele>
        <time>2015-10-12T10:30:15Z</time>
      </trkpt>
      <trkpt lat="43.96612" lon="5.32072">
        <ele>514.92</ele>
        <time>2015-10-12T10:30:16Z</time>
      </trkpt>
      <trkpt lat="43.96605" lon="5.32065">
        <ele>514.44</ele>
        <time>2015-10-12T10:30:17Z</time>
      </trkpt>
      <trkpt lat="43.966" lon="5.32057">
        <ele>514.44</ele>
        <time>2015-10-12T10:30:18Z</time>
      </trkpt>
      <trkpt lat="43.96595" lon="5.32049">
        <ele>513.96</ele>
        <time>2015-10-12T10:30:19Z</time>
      </trkpt>
      <trkpt lat="43.9659" lon="5.32039">
        <ele>513.96</ele>
        <time>2015-10-12T10:30:20Z</time>
      </trkpt>
      <trkpt lat="43.96587" lon="5.32029">
        <ele>513.96</ele>
        <time>2015-10-12T10:30:21Z</time>
      </trkpt>
      <trkpt lat="43.96585" lon="5.32018">
        <ele>513.48</ele>
        <time>2015-10-12T10:30:22Z</time>
      </trkpt>
      <trkpt lat="43.96583" lon="5.32007">
        <ele>513.48</ele>
        <time>2015-10-12T10:30:23Z</time>
      </trkpt>
      <trkpt lat="43.96543" lon="5.31825">
        <ele>507.23</ele>
        <time>2015-10-12T10:30:39Z</time>
      </trkpt>
      <trkpt lat="43.96487" lon="5.31675">
        <ele>502.43</ele>
        <time>2015-10-12T10:30:53Z</time>
      </trkpt>
      <trkpt lat="43.9646" lon="5.31632">
        <ele>500.98</ele>
        <time>2015-10-12T10:30:58Z</time>
      </trkpt>
      <trkpt lat="43.96453" lon="5.31625">
        <ele>500.98</ele>
        <time>2015-10-12T10:30:59Z</time>
      </trkpt>
      <trkpt lat="43.96403" lon="5.31586">
        <ele>499.54</ele>
        <time>2015-10-12T10:31:06Z</time>
      </trkpt>
      <trkpt lat="43.96397" lon="5.31577">
        <ele>499.06</ele>
        <time>2015-10-12T10:31:07Z</time>
      </trkpt>
      <trkpt lat="43.96393" lon="5.31567">
        <ele>498.58</ele>
        <time>2015-10-12T10:31:08Z</time>
      </trkpt>
      <trkpt lat="43.9639" lon="5.31557">
        <ele>498.1</ele>
        <time>2015-10-12T10:31:09Z</time>
      </trkpt>
      <trkpt lat="43.96387" lon="5.31546">
        <ele>497.62</ele>
        <time>2015-10-12T10:31:10Z</time>
      </trkpt>
      <trkpt lat="43.96385" lon="5.31537">
        <ele>497.14</ele>
        <time>2015-10-12T10:31:11Z</time>
      </trkpt>
      <trkpt lat="43.96381" lon="5.31522">
        <ele>496.66</ele>
        <time>2015-10-12T10:31:13Z</time>
      </trkpt>
      <trkpt lat="43.96379" lon="5.31518">
        <ele>496.66</ele>
        <time>2015-10-12T10:31:14Z</time>
      </trkpt>
      <trkpt lat="43.96376" lon="5.31514">
        <ele>496.66</ele>
        <time>2015-10-12T10:31:15Z</time>
      </trkpt>
      <trkpt lat="43.96373" lon="5.31511">
        <ele>496.66</ele>
        <time>2015-10-12T10:31:16Z</time>
      </trkpt>
      <trkpt lat="43.9637" lon="5.31508">
        <ele>496.18</ele>
        <time>2015-10-12T10:31:17Z</time>
      </trkpt>
      <trkpt lat="43.96367" lon="5.31506">
        <ele>496.18</ele>
        <time>2015-10-12T10:31:18Z</time>
      </trkpt>
      <trkpt lat="43.96364" lon="5.31505">
        <ele>496.18</ele>
        <time>2015-10-12T10:31:19Z</time>
      </trkpt>
      <trkpt lat="43.96363" lon="5.31504">
        <ele>496.18</ele>
        <time>2015-10-12T10:31:20Z</time>
      </trkpt>
      <trkpt lat="43.96361" lon="5.31505">
        <ele>496.18</ele>
        <time>2015-10-12T10:31:35Z</time>
      </trkpt>
      <trkpt lat="43.96357" lon="5.31505">
        <ele>496.18</ele>
        <time>2015-10-12T10:31:56Z</time>
      </trkpt>
      <trkpt lat="43.96317" lon="5.31504">
        <ele>495.22</ele>
        <time>2015-10-12T10:32:09Z</time>
      </trkpt>
      <trkpt lat="43.96301" lon="5.31506">
        <ele>494.26</ele>
        <time>2015-10-12T10:32:13Z</time>
      </trkpt>
      <trkpt lat="43.96297" lon="5.31507">
        <ele>494.26</ele>
        <time>2015-10-12T10:32:14Z</time>
      </trkpt>
      <trkpt lat="43.96293" lon="5.31509">
        <ele>494.26</ele>
        <time>2015-10-12T10:32:15Z</time>
      </trkpt>
      <trkpt lat="43.96289" lon="5.31512">
        <ele>493.77</ele>
        <time>2015-10-12T10:32:16Z</time>
      </trkpt>
      <trkpt lat="43.96285" lon="5.31516">
        <ele>493.77</ele>
        <time>2015-10-12T10:32:17Z</time>
      </trkpt>
      <trkpt lat="43.96281" lon="5.31521">
        <ele>493.29</ele>
        <time>2015-10-12T10:32:18Z</time>
      </trkpt>
      <trkpt lat="43.96277" lon="5.31526">
        <ele>493.29</ele>
        <time>2015-10-12T10:32:19Z</time>
      </trkpt>
      <trkpt lat="43.96274" lon="5.31532">
        <ele>492.81</ele>
        <time>2015-10-12T10:32:20Z</time>
      </trkpt>
      <trkpt lat="43.96272" lon="5.31539">
        <ele>492.33</ele>
        <time>2015-10-12T10:32:21Z</time>
      </trkpt>
      <trkpt lat="43.9627" lon="5.31547">
        <ele>492.33</ele>
        <time>2015-10-12T10:32:22Z</time>
      </trkpt>
      <trkpt lat="43.9627" lon="5.31554">
        <ele>491.85</ele>
        <time>2015-10-12T10:32:23Z</time>
      </trkpt>
      <trkpt lat="43.96269" lon="5.31562">
        <ele>491.37</ele>
        <time>2015-10-12T10:32:24Z</time>
      </trkpt>
      <trkpt lat="43.96269" lon="5.3157">
        <ele>490.89</ele>
        <time>2015-10-12T10:32:25Z</time>
      </trkpt>
      <trkpt lat="43.9627" lon="5.31579">
        <ele>490.41</ele>
        <time>2015-10-12T10:32:26Z</time>
      </trkpt>
      <trkpt lat="43.96278" lon="5.31674">
        <ele>488.49</ele>
        <time>2015-10-12T10:32:37Z</time>
      </trkpt>
      <trkpt lat="43.96281" lon="5.31691">
        <ele>488.01</ele>
        <time>2015-10-12T10:32:39Z</time>
      </trkpt>
      <trkpt lat="43.96284" lon="5.31699">
        <ele>488.01</ele>
        <time>2015-10-12T10:32:40Z</time>
      </trkpt>
      <trkpt lat="43.96288" lon="5.31707">
        <ele>487.53</ele>
        <time>2015-10-12T10:32:41Z</time>
      </trkpt>
      <trkpt lat="43.96292" lon="5.31714">
        <ele>487.05</ele>
        <time>2015-10-12T10:32:42Z</time>
      </trkpt>
      <trkpt lat="43.96298" lon="5.3172">
        <ele>487.05</ele>
        <time>2015-10-12T10:32:43Z</time>
      </trkpt>
      <trkpt lat="43.96303" lon="5.31724">
        <ele>486.56</ele>
        <time>2015-10-12T10:32:44Z</time>
      </trkpt>
      <trkpt lat="43.9631" lon="5.31727">
        <ele>486.56</ele>
        <time>2015-10-12T10:32:45Z</time>
      </trkpt>
      <trkpt lat="43.96316" lon="5.3173">
        <ele>486.08</ele>
        <time>2015-10-12T10:32:46Z</time>
      </trkpt>
      <trkpt lat="43.96343" lon="5.31739">
        <ele>484.64</ele>
        <time>2015-10-12T10:32:50Z</time>
      </trkpt>
      <trkpt lat="43.96349" lon="5.31743">
        <ele>484.16</ele>
        <time>2015-10-12T10:32:51Z</time>
      </trkpt>
      <trkpt lat="43.96355" lon="5.31748">
        <ele>483.2</ele>
        <time>2015-10-12T10:32:52Z</time>
      </trkpt>
      <trkpt lat="43.96361" lon="5.31754">
        <ele>483.2</ele>
        <time>2015-10-12T10:32:53Z</time>
      </trkpt>
      <trkpt lat="43.96365" lon="5.31761">
        <ele>482.72</ele>
        <time>2015-10-12T10:32:54Z</time>
      </trkpt>
      <trkpt lat="43.96369" lon="5.3177">
        <ele>482.24</ele>
        <time>2015-10-12T10:32:55Z</time>
      </trkpt>
      <trkpt lat="43.96371" lon="5.31779">
        <ele>482.24</ele>
        <time>2015-10-12T10:32:56Z</time>
      </trkpt>
      <trkpt lat="43.96372" lon="5.31788">
        <ele>482.24</ele>
        <time>2015-10-12T10:32:57Z</time>
      </trkpt>
      <trkpt lat="43.96373" lon="5.31797">
        <ele>482.24</ele>
        <time>2015-10-12T10:32:58Z</time>
      </trkpt>
      <trkpt lat="43.96373" lon="5.31806">
        <ele>482.24</ele>
        <time>2015-10-12T10:32:59Z</time>
      </trkpt>
      <trkpt lat="43.9638" lon="5.31971">
        <ele>477.91</ele>
        <time>2015-10-12T10:33:17Z</time>
      </trkpt>
      <trkpt lat="43.9638" lon="5.32027">
        <ele>475.99</ele>
        <time>2015-10-12T10:33:23Z</time>
      </trkpt>
      <trkpt lat="43.96349" lon="5.32148">
        <ele>473.11</ele>
        <time>2015-10-12T10:33:37Z</time>
      </trkpt>
      <trkpt lat="43.96345" lon="5.32156">
        <ele>472.63</ele>
        <time>2015-10-12T10:33:38Z</time>
      </trkpt>
      <trkpt lat="43.96341" lon="5.32163">
        <ele>472.14</ele>
        <time>2015-10-12T10:33:39Z</time>
      </trkpt>
      <trkpt lat="43.96336" lon="5.32169">
        <ele>471.66</ele>
        <time>2015-10-12T10:33:40Z</time>
      </trkpt>
      <trkpt lat="43.96329" lon="5.32173">
        <ele>471.18</ele>
        <time>2015-10-12T10:33:41Z</time>
      </trkpt>
      <trkpt lat="43.96323" lon="5.32175">
        <ele>471.18</ele>
        <time>2015-10-12T10:33:42Z</time>
      </trkpt>
      <trkpt lat="43.96316" lon="5.32176">
        <ele>471.18</ele>
        <time>2015-10-12T10:33:43Z</time>
      </trkpt>
      <trkpt lat="43.96309" lon="5.32175">
        <ele>471.18</ele>
        <time>2015-10-12T10:33:44Z</time>
      </trkpt>
      <trkpt lat="43.96303" lon="5.32173">
        <ele>471.18</ele>
        <time>2015-10-12T10:33:45Z</time>
      </trkpt>
      <trkpt lat="43.96296" lon="5.32171">
        <ele>470.7</ele>
        <time>2015-10-12T10:33:46Z</time>
      </trkpt>
      <trkpt lat="43.96244" lon="5.32151">
        <ele>468.78</ele>
        <time>2015-10-12T10:33:54Z</time>
      </trkpt>
      <trkpt lat="43.96237" lon="5.3215">
        <ele>468.78</ele>
        <time>2015-10-12T10:33:55Z</time>
      </trkpt>
      <trkpt lat="43.9623" lon="5.3215">
        <ele>468.3</ele>
        <time>2015-10-12T10:33:56Z</time>
      </trkpt>
      <trkpt lat="43.96217" lon="5.32152">
        <ele>467.82</ele>
        <time>2015-10-12T10:33:58Z</time>
      </trkpt>
      <trkpt lat="43.96211" lon="5.32154">
        <ele>467.34</ele>
        <time>2015-10-12T10:33:59Z</time>
      </trkpt>
      <trkpt lat="43.96205" lon="5.32158">
        <ele>466.86</ele>
        <time>2015-10-12T10:34:00Z</time>
      </trkpt>
      <trkpt lat="43.96199" lon="5.32162">
        <ele>466.38</ele>
        <time>2015-10-12T10:34:01Z</time>
      </trkpt>
      <trkpt lat="43.96193" lon="5.32166">
        <ele>466.38</ele>
        <time>2015-10-12T10:34:02Z</time>
      </trkpt>
      <trkpt lat="43.96187" lon="5.32172">
        <ele>465.9</ele>
        <time>2015-10-12T10:34:03Z</time>
      </trkpt>
      <trkpt lat="43.96151" lon="5.32211">
        <ele>463.97</ele>
        <time>2015-10-12T10:34:10Z</time>
      </trkpt>
      <trkpt lat="43.96147" lon="5.32218">
        <ele>463.49</ele>
        <time>2015-10-12T10:34:11Z</time>
      </trkpt>
      <trkpt lat="43.96144" lon="5.32225">
        <ele>463.01</ele>
        <time>2015-10-12T10:34:12Z</time>
      </trkpt>
      <trkpt lat="43.9614" lon="5.32233">
        <ele>462.53</ele>
        <time>2015-10-12T10:34:13Z</time>
      </trkpt>
      <trkpt lat="43.96138" lon="5.32241">
        <ele>462.05</ele>
        <time>2015-10-12T10:34:14Z</time>
      </trkpt>
      <trkpt lat="43.96136" lon="5.3225">
        <ele>461.57</ele>
        <time>2015-10-12T10:34:15Z</time>
      </trkpt>
      <trkpt lat="43.96134" lon="5.32259">
        <ele>461.09</ele>
        <time>2015-10-12T10:34:16Z</time>
      </trkpt>
      <trkpt lat="43.96133" lon="5.32268">
        <ele>460.61</ele>
        <time>2015-10-12T10:34:17Z</time>
      </trkpt>
      <trkpt lat="43.96107" lon="5.32442">
        <ele>454.84</ele>
        <time>2015-10-12T10:34:35Z</time>
      </trkpt>
      <trkpt lat="43.96106" lon="5.32461">
        <ele>454.36</ele>
        <time>2015-10-12T10:34:37Z</time>
      </trkpt>
      <trkpt lat="43.96106" lon="5.3247">
        <ele>453.88</ele>
        <time>2015-10-12T10:34:38Z</time>
      </trkpt>
      <trkpt lat="43.96108" lon="5.32479">
        <ele>453.88</ele>
        <time>2015-10-12T10:34:39Z</time>
      </trkpt>
      <trkpt lat="43.9611" lon="5.32488">
        <ele>453.4</ele>
        <time>2015-10-12T10:34:40Z</time>
      </trkpt>
      <trkpt lat="43.96114" lon="5.32496">
        <ele>453.4</ele>
        <time>2015-10-12T10:34:41Z</time>
      </trkpt>
      <trkpt lat="43.96118" lon="5.32504">
        <ele>452.92</ele>
        <time>2015-10-12T10:34:42Z</time>
      </trkpt>
      <trkpt lat="43.96122" lon="5.32512">
        <ele>452.44</ele>
        <time>2015-10-12T10:34:43Z</time>
      </trkpt>
      <trkpt lat="43.96189" lon="5.32605">
        <ele>448.11</ele>
        <time>2015-10-12T10:34:58Z</time>
      </trkpt>
      <trkpt lat="43.96196" lon="5.3261">
        <ele>448.11</ele>
        <time>2015-10-12T10:35:00Z</time>
      </trkpt>
      <trkpt lat="43.962" lon="5.32612">
        <ele>448.11</ele>
        <time>2015-10-12T10:35:01Z</time>
      </trkpt>
      <trkpt lat="43.96204" lon="5.32614">
        <ele>448.11</ele>
        <time>2015-10-12T10:35:02Z</time>
      </trkpt>
      <trkpt lat="43.96208" lon="5.32616">
        <ele>447.63</ele>
        <time>2015-10-12T10:35:03Z</time>
      </trkpt>
      <trkpt lat="43.96211" lon="5.32619">
        <ele>447.63</ele>
        <time>2015-10-12T10:35:04Z</time>
      </trkpt>
      <trkpt lat="43.96214" lon="5.32621">
        <ele>447.63</ele>
        <time>2015-10-12T10:35:05Z</time>
      </trkpt>
      <trkpt lat="43.96217" lon="5.32624">
        <ele>447.15</ele>
        <time>2015-10-12T10:35:06Z</time>
      </trkpt>
      <trkpt lat="43.96262" lon="5.32692">
        <ele>443.79</ele>
        <time>2015-10-12T10:35:21Z</time>
      </trkpt>
      <trkpt lat="43.96278" lon="5.3275">
        <ele>443.31</ele>
        <time>2015-10-12T10:35:29Z</time>
      </trkpt>
      <trkpt lat="43.96284" lon="5.32862">
        <ele>441.38</ele>
        <time>2015-10-12T10:35:42Z</time>
      </trkpt>
      <trkpt lat="43.96286" lon="5.3287">
        <ele>441.38</ele>
        <time>2015-10-12T10:35:43Z</time>
      </trkpt>
      <trkpt lat="43.96288" lon="5.32878">
        <ele>440.9</ele>
        <time>2015-10-12T10:35:44Z</time>
      </trkpt>
      <trkpt lat="43.96292" lon="5.32886">
        <ele>440.42</ele>
        <time>2015-10-12T10:35:45Z</time>
      </trkpt>
      <trkpt lat="43.96296" lon="5.32893">
        <ele>440.42</ele>
        <time>2015-10-12T10:35:46Z</time>
      </trkpt>
      <trkpt lat="43.96342" lon="5.32975">
        <ele>436.1</ele>
        <time>2015-10-12T10:35:57Z</time>
      </trkpt>
      <trkpt lat="43.96346" lon="5.32983">
        <ele>436.1</ele>
        <time>2015-10-12T10:35:58Z</time>
      </trkpt>
      <trkpt lat="43.96349" lon="5.32992">
        <ele>435.61</ele>
        <time>2015-10-12T10:35:59Z</time>
      </trkpt>
      <trkpt lat="43.96351" lon="5.33001">
        <ele>435.61</ele>
        <time>2015-10-12T10:36:00Z</time>
      </trkpt>
      <trkpt lat="43.96353" lon="5.3301">
        <ele>435.13</ele>
        <time>2015-10-12T10:36:01Z</time>
      </trkpt>
      <trkpt lat="43.96354" lon="5.3302">
        <ele>435.13</ele>
        <time>2015-10-12T10:36:02Z</time>
      </trkpt>
      <trkpt lat="43.96354" lon="5.3303">
        <ele>435.13</ele>
        <time>2015-10-12T10:36:03Z</time>
      </trkpt>
      <trkpt lat="43.96357" lon="5.33089">
        <ele>434.17</ele>
        <time>2015-10-12T10:36:09Z</time>
      </trkpt>
      <trkpt lat="43.96395" lon="5.33277">
        <ele>428.4</ele>
        <time>2015-10-12T10:36:28Z</time>
      </trkpt>
      <trkpt lat="43.96421" lon="5.33408">
        <ele>426.96</ele>
        <time>2015-10-12T10:36:42Z</time>
      </trkpt>
      <trkpt lat="43.96421" lon="5.33416">
        <ele>426.96</ele>
        <time>2015-10-12T10:36:43Z</time>
      </trkpt>
      <trkpt lat="43.96419" lon="5.33423">
        <ele>426.96</ele>
        <time>2015-10-12T10:36:44Z</time>
      </trkpt>
      <trkpt lat="43.96417" lon="5.3343">
        <ele>426.96</ele>
        <time>2015-10-12T10:36:45Z</time>
      </trkpt>
      <trkpt lat="43.96414" lon="5.33436">
        <ele>426.96</ele>
        <time>2015-10-12T10:36:46Z</time>
      </trkpt>
      <trkpt lat="43.96411" lon="5.33442">
        <ele>426.96</ele>
        <time>2015-10-12T10:36:47Z</time>
      </trkpt>
      <trkpt lat="43.96408" lon="5.33447">
        <ele>427.44</ele>
        <time>2015-10-12T10:36:48Z</time>
      </trkpt>
      <trkpt lat="43.96402" lon="5.33458">
        <ele>427.44</ele>
        <time>2015-10-12T10:36:50Z</time>
      </trkpt>
      <trkpt lat="43.96396" lon="5.33476">
        <ele>426.96</ele>
        <time>2015-10-12T10:36:53Z</time>
      </trkpt>
      <trkpt lat="43.96395" lon="5.33482">
        <ele>426.96</ele>
        <time>2015-10-12T10:36:54Z</time>
      </trkpt>
      <trkpt lat="43.96395" lon="5.33488">
        <ele>426.96</ele>
        <time>2015-10-12T10:36:55Z</time>
      </trkpt>
      <trkpt lat="43.96395" lon="5.33495">
        <ele>426.96</ele>
        <time>2015-10-12T10:36:56Z</time>
      </trkpt>
      <trkpt lat="43.96395" lon="5.335">
        <ele>426.96</ele>
        <time>2015-10-12T10:36:57Z</time>
      </trkpt>
      <trkpt lat="43.96396" lon="5.33511">
        <ele>426</ele>
        <time>2015-10-12T10:37:05Z</time>
      </trkpt>
      <trkpt lat="43.96397" lon="5.3351">
        <ele>426.96</ele>
        <time>2015-10-12T10:37:22Z</time>
      </trkpt>
      <trkpt lat="43.96397" lon="5.3351">
        <ele>429.37</ele>
        <time>2015-10-12T10:37:42Z</time>
      </trkpt>
      <trkpt lat="43.96402" lon="5.33513">
        <ele>428.4</ele>
        <time>2015-10-12T10:37:58Z</time>
      </trkpt>
      <trkpt lat="43.96402" lon="5.33512">
        <ele>428.4</ele>
        <time>2015-10-12T10:38:21Z</time>
      </trkpt>
      <trkpt lat="43.96403" lon="5.33514">
        <ele>428.4</ele>
        <time>2015-10-12T10:38:41Z</time>
      </trkpt>
      <trkpt lat="43.96401" lon="5.33517">
        <ele>428.4</ele>
        <time>2015-10-12T10:38:43Z</time>
      </trkpt>
      <trkpt lat="43.96401" lon="5.33519">
        <ele>428.4</ele>
        <time>2015-10-12T10:38:44Z</time>
      </trkpt>
      <trkpt lat="43.964" lon="5.33521">
        <ele>428.4</ele>
        <time>2015-10-12T10:38:45Z</time>
      </trkpt>
      <trkpt lat="43.964" lon="5.33524">
        <ele>428.4</ele>
        <time>2015-10-12T10:38:46Z</time>
      </trkpt>
      <trkpt lat="43.964" lon="5.33526">
        <ele>428.4</ele>
        <time>2015-10-12T10:38:47Z</time>
      </trkpt>
      <trkpt lat="43.96395" lon="5.33578">
        <ele>427.92</ele>
        <time>2015-10-12T10:39:00Z</time>
      </trkpt>
      <trkpt lat="43.96364" lon="5.33592">
        <ele>427.92</ele>
        <time>2015-10-12T10:39:09Z</time>
      </trkpt>
      <trkpt lat="43.96331" lon="5.33617">
        <ele>428.89</ele>
        <time>2015-10-12T10:39:19Z</time>
      </trkpt>
      <trkpt lat="43.96303" lon="5.33655">
        <ele>432.25</ele>
        <time>2015-10-12T10:39:32Z</time>
      </trkpt>
      <trkpt lat="43.96273" lon="5.33654">
        <ele>433.69</ele>
        <time>2015-10-12T10:39:43Z</time>
      </trkpt>
      <trkpt lat="43.96232" lon="5.33671">
        <ele>434.17</ele>
        <time>2015-10-12T10:39:59Z</time>
      </trkpt>
      <trkpt lat="43.96197" lon="5.33703">
        <ele>435.13</ele>
        <time>2015-10-12T10:40:14Z</time>
      </trkpt>
      <trkpt lat="43.9615" lon="5.33752">
        <ele>435.61</ele>
        <time>2015-10-12T10:40:32Z</time>
      </trkpt>
      <trkpt lat="43.96096" lon="5.3379">
        <ele>437.06</ele>
        <time>2015-10-12T10:40:49Z</time>
      </trkpt>
      <trkpt lat="43.96019" lon="5.33826">
        <ele>436.58</ele>
        <time>2015-10-12T10:41:11Z</time>
      </trkpt>
      <trkpt lat="43.95961" lon="5.3385">
        <ele>438.5</ele>
        <time>2015-10-12T10:41:28Z</time>
      </trkpt>
      <trkpt lat="43.9591" lon="5.33914">
        <ele>437.54</ele>
        <time>2015-10-12T10:41:47Z</time>
      </trkpt>
      <trkpt lat="43.95856" lon="5.33961">
        <ele>438.5</ele>
        <time>2015-10-12T10:42:05Z</time>
      </trkpt>
      <trkpt lat="43.9579" lon="5.34002">
        <ele>439.94</ele>
        <time>2015-10-12T10:42:25Z</time>
      </trkpt>
      <trkpt lat="43.95749" lon="5.34064">
        <ele>440.42</ele>
        <time>2015-10-12T10:42:42Z</time>
      </trkpt>
      <trkpt lat="43.95703" lon="5.34113">
        <ele>441.38</ele>
        <time>2015-10-12T10:42:58Z</time>
      </trkpt>
      <trkpt lat="43.95634" lon="5.34171">
        <ele>442.34</ele>
        <time>2015-10-12T10:43:20Z</time>
      </trkpt>
      <trkpt lat="43.95576" lon="5.34209">
        <ele>444.75</ele>
        <time>2015-10-12T10:43:38Z</time>
      </trkpt>
      <trkpt lat="43.95504" lon="5.34229">
        <ele>448.11</ele>
        <time>2015-10-12T10:43:59Z</time>
      </trkpt>
      <trkpt lat="43.95436" lon="5.34242">
        <ele>449.07</ele>
        <time>2015-10-12T10:44:19Z</time>
      </trkpt>
      <trkpt lat="43.9538" lon="5.34251">
        <ele>450.03</ele>
        <time>2015-10-12T10:44:36Z</time>
      </trkpt>
      <trkpt lat="43.95311" lon="5.34244">
        <ele>451.48</ele>
        <time>2015-10-12T10:44:57Z</time>
      </trkpt>
      <trkpt lat="43.95254" lon="5.34225">
        <ele>452.44</ele>
        <time>2015-10-12T10:45:15Z</time>
      </trkpt>
      <trkpt lat="43.95199" lon="5.34191">
        <ele>453.88</ele>
        <time>2015-10-12T10:45:33Z</time>
      </trkpt>
      <trkpt lat="43.95158" lon="5.34227">
        <ele>453.4</ele>
        <time>2015-10-12T10:45:46Z</time>
      </trkpt>
      <trkpt lat="43.95126" lon="5.34278">
        <ele>452.44</ele>
        <time>2015-10-12T10:45:57Z</time>
      </trkpt>
      <trkpt lat="43.95124" lon="5.34283">
        <ele>451.96</ele>
        <time>2015-10-12T10:45:58Z</time>
      </trkpt>
      <trkpt lat="43.95112" lon="5.34365">
        <ele>449.55</ele>
        <time>2015-10-12T10:46:12Z</time>
      </trkpt>
      <trkpt lat="43.95122" lon="5.34477">
        <ele>447.63</ele>
        <time>2015-10-12T10:46:29Z</time>
      </trkpt>
      <trkpt lat="43.95123" lon="5.34509">
        <ele>447.15</ele>
        <time>2015-10-12T10:46:34Z</time>
      </trkpt>
      <trkpt lat="43.95122" lon="5.34516">
        <ele>447.15</ele>
        <time>2015-10-12T10:46:35Z</time>
      </trkpt>
      <trkpt lat="43.9512" lon="5.34523">
        <ele>447.15</ele>
        <time>2015-10-12T10:46:36Z</time>
      </trkpt>
      <trkpt lat="43.95118" lon="5.34529">
        <ele>447.15</ele>
        <time>2015-10-12T10:46:37Z</time>
      </trkpt>
      <trkpt lat="43.95114" lon="5.34535">
        <ele>447.15</ele>
        <time>2015-10-12T10:46:38Z</time>
      </trkpt>
      <trkpt lat="43.9511" lon="5.3454">
        <ele>446.67</ele>
        <time>2015-10-12T10:46:39Z</time>
      </trkpt>
      <trkpt lat="43.95106" lon="5.34544">
        <ele>446.67</ele>
        <time>2015-10-12T10:46:40Z</time>
      </trkpt>
      <trkpt lat="43.95102" lon="5.34548">
        <ele>446.67</ele>
        <time>2015-10-12T10:46:41Z</time>
      </trkpt>
      <trkpt lat="43.95086" lon="5.34564">
        <ele>446.19</ele>
        <time>2015-10-12T10:46:45Z</time>
      </trkpt>
      <trkpt lat="43.95082" lon="5.3457">
        <ele>446.19</ele>
        <time>2015-10-12T10:46:46Z</time>
      </trkpt>
      <trkpt lat="43.95079" lon="5.34576">
        <ele>445.71</ele>
        <time>2015-10-12T10:46:47Z</time>
      </trkpt>
      <trkpt lat="43.95077" lon="5.34582">
        <ele>445.71</ele>
        <time>2015-10-12T10:46:48Z</time>
      </trkpt>
      <trkpt lat="43.95075" lon="5.34588">
        <ele>445.23</ele>
        <time>2015-10-12T10:46:49Z</time>
      </trkpt>
      <trkpt lat="43.95073" lon="5.34595">
        <ele>445.23</ele>
        <time>2015-10-12T10:46:50Z</time>
      </trkpt>
      <trkpt lat="43.95072" lon="5.34602">
        <ele>445.23</ele>
        <time>2015-10-12T10:46:51Z</time>
      </trkpt>
      <trkpt lat="43.95063" lon="5.34711">
        <ele>442.34</ele>
        <time>2015-10-12T10:47:06Z</time>
      </trkpt>
      <trkpt lat="43.95066" lon="5.34824">
        <ele>439.46</ele>
        <time>2015-10-12T10:47:22Z</time>
      </trkpt>
      <trkpt lat="43.95068" lon="5.34846">
        <ele>438.98</ele>
        <time>2015-10-12T10:47:25Z</time>
      </trkpt>
      <trkpt lat="43.95068" lon="5.34854">
        <ele>438.98</ele>
        <time>2015-10-12T10:47:26Z</time>
      </trkpt>
      <trkpt lat="43.95067" lon="5.34861">
        <ele>438.98</ele>
        <time>2015-10-12T10:47:27Z</time>
      </trkpt>
      <trkpt lat="43.95064" lon="5.34868">
        <ele>438.98</ele>
        <time>2015-10-12T10:47:28Z</time>
      </trkpt>
      <trkpt lat="43.95061" lon="5.34874">
        <ele>438.5</ele>
        <time>2015-10-12T10:47:29Z</time>
      </trkpt>
      <trkpt lat="43.95056" lon="5.34879">
        <ele>438.5</ele>
        <time>2015-10-12T10:47:30Z</time>
      </trkpt>
      <trkpt lat="43.95051" lon="5.34883">
        <ele>438.5</ele>
        <time>2015-10-12T10:47:31Z</time>
      </trkpt>
      <trkpt lat="43.95046" lon="5.34886">
        <ele>438.5</ele>
        <time>2015-10-12T10:47:32Z</time>
      </trkpt>
      <trkpt lat="43.95032" lon="5.34896">
        <ele>438.5</ele>
        <time>2015-10-12T10:47:35Z</time>
      </trkpt>
      <trkpt lat="43.95028" lon="5.34901">
        <ele>438.5</ele>
        <time>2015-10-12T10:47:36Z</time>
      </trkpt>
      <trkpt lat="43.95024" lon="5.34906">
        <ele>438.02</ele>
        <time>2015-10-12T10:47:37Z</time>
      </trkpt>
      <trkpt lat="43.95021" lon="5.34913">
        <ele>438.02</ele>
        <time>2015-10-12T10:47:38Z</time>
      </trkpt>
      <trkpt lat="43.95018" lon="5.3492">
        <ele>438.02</ele>
        <time>2015-10-12T10:47:39Z</time>
      </trkpt>
      <trkpt lat="43.95016" lon="5.34927">
        <ele>438.02</ele>
        <time>2015-10-12T10:47:40Z</time>
      </trkpt>
      <trkpt lat="43.95007" lon="5.34956">
        <ele>437.06</ele>
        <time>2015-10-12T10:47:44Z</time>
      </trkpt>
      <trkpt lat="43.95002" lon="5.35006">
        <ele>436.1</ele>
        <time>2015-10-12T10:47:51Z</time>
      </trkpt>
      <trkpt lat="43.95003" lon="5.35013">
        <ele>436.1</ele>
        <time>2015-10-12T10:47:52Z</time>
      </trkpt>
      <trkpt lat="43.95005" lon="5.35021">
        <ele>435.61</ele>
        <time>2015-10-12T10:47:53Z</time>
      </trkpt>
      <trkpt lat="43.95024" lon="5.35104">
        <ele>433.69</ele>
        <time>2015-10-12T10:48:05Z</time>
      </trkpt>
      <trkpt lat="43.95024" lon="5.35113">
        <ele>433.21</ele>
        <time>2015-10-12T10:48:06Z</time>
      </trkpt>
      <trkpt lat="43.95023" lon="5.3512">
        <ele>433.21</ele>
        <time>2015-10-12T10:48:07Z</time>
      </trkpt>
      <trkpt lat="43.9502" lon="5.35128">
        <ele>433.21</ele>
        <time>2015-10-12T10:48:08Z</time>
      </trkpt>
      <trkpt lat="43.95017" lon="5.35135">
        <ele>433.21</ele>
        <time>2015-10-12T10:48:09Z</time>
      </trkpt>
      <trkpt lat="43.95013" lon="5.35141">
        <ele>433.21</ele>
        <time>2015-10-12T10:48:10Z</time>
      </trkpt>
      <trkpt lat="43.95007" lon="5.35146">
        <ele>433.21</ele>
        <time>2015-10-12T10:48:11Z</time>
      </trkpt>
      <trkpt lat="43.94976" lon="5.3518">
        <ele>432.25</ele>
        <time>2015-10-12T10:48:18Z</time>
      </trkpt>
      <trkpt lat="43.94972" lon="5.35186">
        <ele>432.25</ele>
        <time>2015-10-12T10:48:19Z</time>
      </trkpt>
      <trkpt lat="43.94969" lon="5.35193">
        <ele>432.25</ele>
        <time>2015-10-12T10:48:20Z</time>
      </trkpt>
      <trkpt lat="43.94945" lon="5.3526">
        <ele>430.33</ele>
        <time>2015-10-12T10:48:29Z</time>
      </trkpt>
      <trkpt lat="43.94933" lon="5.35386">
        <ele>427.44</ele>
        <time>2015-10-12T10:48:45Z</time>
      </trkpt>
      <trkpt lat="43.94941" lon="5.35436">
        <ele>426.48</ele>
        <time>2015-10-12T10:48:52Z</time>
      </trkpt>
      <trkpt lat="43.94976" lon="5.35494">
        <ele>425.04</ele>
        <time>2015-10-12T10:49:02Z</time>
      </trkpt>
      <trkpt lat="43.94979" lon="5.35501">
        <ele>425.04</ele>
        <time>2015-10-12T10:49:03Z</time>
      </trkpt>
      <trkpt lat="43.94982" lon="5.35508">
        <ele>424.56</ele>
        <time>2015-10-12T10:49:04Z</time>
      </trkpt>
      <trkpt lat="43.94983" lon="5.35516">
        <ele>424.56</ele>
        <time>2015-10-12T10:49:05Z</time>
      </trkpt>
      <trkpt lat="43.94984" lon="5.35524">
        <ele>424.08</ele>
        <time>2015-10-12T10:49:06Z</time>
      </trkpt>
      <trkpt lat="43.94983" lon="5.35532">
        <ele>424.08</ele>
        <time>2015-10-12T10:49:07Z</time>
      </trkpt>
      <trkpt lat="43.9498" lon="5.3554">
        <ele>423.6</ele>
        <time>2015-10-12T10:49:08Z</time>
      </trkpt>
      <trkpt lat="43.94977" lon="5.35547">
        <ele>423.6</ele>
        <time>2015-10-12T10:49:09Z</time>
      </trkpt>
      <trkpt lat="43.94972" lon="5.35553">
        <ele>423.12</ele>
        <time>2015-10-12T10:49:10Z</time>
      </trkpt>
      <trkpt lat="43.94966" lon="5.35557">
        <ele>423.12</ele>
        <time>2015-10-12T10:49:11Z</time>
      </trkpt>
      <trkpt lat="43.94961" lon="5.3556">
        <ele>423.12</ele>
        <time>2015-10-12T10:49:12Z</time>
      </trkpt>
      <trkpt lat="43.94954" lon="5.35563">
        <ele>423.12</ele>
        <time>2015-10-12T10:49:13Z</time>
      </trkpt>
      <trkpt lat="43.949" lon="5.35589">
        <ele>422.64</ele>
        <time>2015-10-12T10:49:22Z</time>
      </trkpt>
      <trkpt lat="43.94894" lon="5.35594">
        <ele>422.64</ele>
        <time>2015-10-12T10:49:23Z</time>
      </trkpt>
      <trkpt lat="43.9489" lon="5.356">
        <ele>422.64</ele>
        <time>2015-10-12T10:49:24Z</time>
      </trkpt>
      <trkpt lat="43.94886" lon="5.35607">
        <ele>422.16</ele>
        <time>2015-10-12T10:49:25Z</time>
      </trkpt>
      <trkpt lat="43.94882" lon="5.35615">
        <ele>422.16</ele>
        <time>2015-10-12T10:49:26Z</time>
      </trkpt>
      <trkpt lat="43.94879" lon="5.35622">
        <ele>421.68</ele>
        <time>2015-10-12T10:49:27Z</time>
      </trkpt>
      <trkpt lat="43.94876" lon="5.3563">
        <ele>421.19</ele>
        <time>2015-10-12T10:49:28Z</time>
      </trkpt>
      <trkpt lat="43.94875" lon="5.35639">
        <ele>421.19</ele>
        <time>2015-10-12T10:49:29Z</time>
      </trkpt>
      <trkpt lat="43.94874" lon="5.35647">
        <ele>420.71</ele>
        <time>2015-10-12T10:49:30Z</time>
      </trkpt>
      <trkpt lat="43.94874" lon="5.35655">
        <ele>420.71</ele>
        <time>2015-10-12T10:49:31Z</time>
      </trkpt>
      <trkpt lat="43.94874" lon="5.35664">
        <ele>420.23</ele>
        <time>2015-10-12T10:49:32Z</time>
      </trkpt>
      <trkpt lat="43.94874" lon="5.35672">
        <ele>420.23</ele>
        <time>2015-10-12T10:49:33Z</time>
      </trkpt>
      <trkpt lat="43.94878" lon="5.35742">
        <ele>418.31</ele>
        <time>2015-10-12T10:49:41Z</time>
      </trkpt>
      <trkpt lat="43.94877" lon="5.3575">
        <ele>418.31</ele>
        <time>2015-10-12T10:49:42Z</time>
      </trkpt>
      <trkpt lat="43.94876" lon="5.35759">
        <ele>418.31</ele>
        <time>2015-10-12T10:49:43Z</time>
      </trkpt>
      <trkpt lat="43.94869" lon="5.35807">
        <ele>417.83</ele>
        <time>2015-10-12T10:49:49Z</time>
      </trkpt>
      <trkpt lat="43.94869" lon="5.35815">
        <ele>417.83</ele>
        <time>2015-10-12T10:49:50Z</time>
      </trkpt>
      <trkpt lat="43.9487" lon="5.35823">
        <ele>417.35</ele>
        <time>2015-10-12T10:49:51Z</time>
      </trkpt>
      <trkpt lat="43.94871" lon="5.35831">
        <ele>417.35</ele>
        <time>2015-10-12T10:49:52Z</time>
      </trkpt>
      <trkpt lat="43.94873" lon="5.35839">
        <ele>416.87</ele>
        <time>2015-10-12T10:49:53Z</time>
      </trkpt>
      <trkpt lat="43.94875" lon="5.35848">
        <ele>416.87</ele>
        <time>2015-10-12T10:49:54Z</time>
      </trkpt>
      <trkpt lat="43.94879" lon="5.35873">
        <ele>416.39</ele>
        <time>2015-10-12T10:49:57Z</time>
      </trkpt>
      <trkpt lat="43.94879" lon="5.3588">
        <ele>416.39</ele>
        <time>2015-10-12T10:49:58Z</time>
      </trkpt>
      <trkpt lat="43.94879" lon="5.35889">
        <ele>415.91</ele>
        <time>2015-10-12T10:49:59Z</time>
      </trkpt>
      <trkpt lat="43.94877" lon="5.35897">
        <ele>415.91</ele>
        <time>2015-10-12T10:50:00Z</time>
      </trkpt>
      <trkpt lat="43.94873" lon="5.35904">
        <ele>415.91</ele>
        <time>2015-10-12T10:50:01Z</time>
      </trkpt>
      <trkpt lat="43.94869" lon="5.3591">
        <ele>415.43</ele>
        <time>2015-10-12T10:50:02Z</time>
      </trkpt>
      <trkpt lat="43.94865" lon="5.35915">
        <ele>415.43</ele>
        <time>2015-10-12T10:50:03Z</time>
      </trkpt>
      <trkpt lat="43.94856" lon="5.35927">
        <ele>415.43</ele>
        <time>2015-10-12T10:50:05Z</time>
      </trkpt>
      <trkpt lat="43.94853" lon="5.35934">
        <ele>415.43</ele>
        <time>2015-10-12T10:50:06Z</time>
      </trkpt>
      <trkpt lat="43.9485" lon="5.35942">
        <ele>414.95</ele>
        <time>2015-10-12T10:50:07Z</time>
      </trkpt>
      <trkpt lat="43.94849" lon="5.3595">
        <ele>414.95</ele>
        <time>2015-10-12T10:50:08Z</time>
      </trkpt>
      <trkpt lat="43.94848" lon="5.35958">
        <ele>414.95</ele>
        <time>2015-10-12T10:50:09Z</time>
      </trkpt>
      <trkpt lat="43.94848" lon="5.35966">
        <ele>414.47</ele>
        <time>2015-10-12T10:50:10Z</time>
      </trkpt>
      <trkpt lat="43.94849" lon="5.35975">
        <ele>414.47</ele>
        <time>2015-10-12T10:50:11Z</time>
      </trkpt>
      <trkpt lat="43.9485" lon="5.35983">
        <ele>413.98</ele>
        <time>2015-10-12T10:50:12Z</time>
      </trkpt>
      <trkpt lat="43.94851" lon="5.35991">
        <ele>413.98</ele>
        <time>2015-10-12T10:50:13Z</time>
      </trkpt>
      <trkpt lat="43.94852" lon="5.36008">
        <ele>413.5</ele>
        <time>2015-10-12T10:50:15Z</time>
      </trkpt>
      <trkpt lat="43.94852" lon="5.36016">
        <ele>413.5</ele>
        <time>2015-10-12T10:50:16Z</time>
      </trkpt>
      <trkpt lat="43.9485" lon="5.36025">
        <ele>413.5</ele>
        <time>2015-10-12T10:50:17Z</time>
      </trkpt>
      <trkpt lat="43.94848" lon="5.36032">
        <ele>413.5</ele>
        <time>2015-10-12T10:50:18Z</time>
      </trkpt>
      <trkpt lat="43.94845" lon="5.36039">
        <ele>413.02</ele>
        <time>2015-10-12T10:50:19Z</time>
      </trkpt>
      <trkpt lat="43.94841" lon="5.36045">
        <ele>413.02</ele>
        <time>2015-10-12T10:50:20Z</time>
      </trkpt>
      <trkpt lat="43.94803" lon="5.36112">
        <ele>411.58</ele>
        <time>2015-10-12T10:50:30Z</time>
      </trkpt>
      <trkpt lat="43.948" lon="5.3612">
        <ele>411.1</ele>
        <time>2015-10-12T10:50:31Z</time>
      </trkpt>
      <trkpt lat="43.9478" lon="5.36182">
        <ele>410.14</ele>
        <time>2015-10-12T10:50:39Z</time>
      </trkpt>
      <trkpt lat="43.94777" lon="5.3619">
        <ele>410.14</ele>
        <time>2015-10-12T10:50:40Z</time>
      </trkpt>
      <trkpt lat="43.94772" lon="5.36204">
        <ele>409.66</ele>
        <time>2015-10-12T10:50:42Z</time>
      </trkpt>
      <trkpt lat="43.94768" lon="5.36219">
        <ele>409.66</ele>
        <time>2015-10-12T10:50:44Z</time>
      </trkpt>
      <trkpt lat="43.94733" lon="5.36308">
        <ele>407.74</ele>
        <time>2015-10-12T10:50:58Z</time>
      </trkpt>
      <trkpt lat="43.9469" lon="5.36401">
        <ele>406.29</ele>
        <time>2015-10-12T10:51:13Z</time>
      </trkpt>
      <trkpt lat="43.94674" lon="5.36465">
        <ele>404.37</ele>
        <time>2015-10-12T10:51:22Z</time>
      </trkpt>
      <trkpt lat="43.94675" lon="5.3658">
        <ele>401.49</ele>
        <time>2015-10-12T10:51:38Z</time>
      </trkpt>
      <trkpt lat="43.94675" lon="5.36695">
        <ele>400.05</ele>
        <time>2015-10-12T10:51:53Z</time>
      </trkpt>
      <trkpt lat="43.94676" lon="5.36792">
        <ele>397.16</ele>
        <time>2015-10-12T10:52:07Z</time>
      </trkpt>
      <trkpt lat="43.94677" lon="5.368">
        <ele>398.12</ele>
        <time>2015-10-12T10:52:15Z</time>
      </trkpt>
      <trkpt lat="43.94678" lon="5.368">
        <ele>398.6</ele>
        <time>2015-10-12T10:52:28Z</time>
      </trkpt>
      <trkpt lat="43.94678" lon="5.36798">
        <ele>398.6</ele>
        <time>2015-10-12T10:52:29Z</time>
      </trkpt>
      <trkpt lat="43.94678" lon="5.36796">
        <ele>398.6</ele>
        <time>2015-10-12T10:52:30Z</time>
      </trkpt>
      <trkpt lat="43.94677" lon="5.36794">
        <ele>398.6</ele>
        <time>2015-10-12T10:52:31Z</time>
      </trkpt>
      <trkpt lat="43.94677" lon="5.36791">
        <ele>398.6</ele>
        <time>2015-10-12T10:52:32Z</time>
      </trkpt>
      <trkpt lat="43.94677" lon="5.36787">
        <ele>398.12</ele>
        <time>2015-10-12T10:52:33Z</time>
      </trkpt>
      <trkpt lat="43.94676" lon="5.36783">
        <ele>398.6</ele>
        <time>2015-10-12T10:52:34Z</time>
      </trkpt>
      <trkpt lat="43.94676" lon="5.36778">
        <ele>398.6</ele>
        <time>2015-10-12T10:52:35Z</time>
      </trkpt>
      <trkpt lat="43.94676" lon="5.36774">
        <ele>398.6</ele>
        <time>2015-10-12T10:52:36Z</time>
      </trkpt>
      <trkpt lat="43.94663" lon="5.36749">
        <ele>397.64</ele>
        <time>2015-10-12T10:52:45Z</time>
      </trkpt>
      <trkpt lat="43.94658" lon="5.3675">
        <ele>397.64</ele>
        <time>2015-10-12T10:52:46Z</time>
      </trkpt>
      <trkpt lat="43.94654" lon="5.36752">
        <ele>397.16</ele>
        <time>2015-10-12T10:52:47Z</time>
      </trkpt>
      <trkpt lat="43.94588" lon="5.36785">
        <ele>390.43</ele>
        <time>2015-10-12T10:52:59Z</time>
      </trkpt>
      <trkpt lat="43.94527" lon="5.36807">
        <ele>383.22</ele>
        <time>2015-10-12T10:53:09Z</time>
      </trkpt>
      <trkpt lat="43.94524" lon="5.3681">
        <ele>382.74</ele>
        <time>2015-10-12T10:53:10Z</time>
      </trkpt>
      <trkpt lat="43.94521" lon="5.36814">
        <ele>381.78</ele>
        <time>2015-10-12T10:53:11Z</time>
      </trkpt>
      <trkpt lat="43.94521" lon="5.36821">
        <ele>381.3</ele>
        <time>2015-10-12T10:53:12Z</time>
      </trkpt>
      <trkpt lat="43.94521" lon="5.36824">
        <ele>380.82</ele>
        <time>2015-10-12T10:53:13Z</time>
      </trkpt>
      <trkpt lat="43.94521" lon="5.3683">
        <ele>380.34</ele>
        <time>2015-10-12T10:53:14Z</time>
      </trkpt>
      <trkpt lat="43.94522" lon="5.3685">
        <ele>379.38</ele>
        <time>2015-10-12T10:53:17Z</time>
      </trkpt>
      <trkpt lat="43.94521" lon="5.36856">
        <ele>378.9</ele>
        <time>2015-10-12T10:53:18Z</time>
      </trkpt>
      <trkpt lat="43.9452" lon="5.36863">
        <ele>378.42</ele>
        <time>2015-10-12T10:53:19Z</time>
      </trkpt>
      <trkpt lat="43.94516" lon="5.36868">
        <ele>377.94</ele>
        <time>2015-10-12T10:53:20Z</time>
      </trkpt>
      <trkpt lat="43.94511" lon="5.36872">
        <ele>377.45</ele>
        <time>2015-10-12T10:53:21Z</time>
      </trkpt>
      <trkpt lat="43.94507" lon="5.36875">
        <ele>376.97</ele>
        <time>2015-10-12T10:53:22Z</time>
      </trkpt>
      <trkpt lat="43.94438" lon="5.3693">
        <ele>369.28</ele>
        <time>2015-10-12T10:53:31Z</time>
      </trkpt>
      <trkpt lat="43.94337" lon="5.37014">
        <ele>361.11</ele>
        <time>2015-10-12T10:53:44Z</time>
      </trkpt>
      <trkpt lat="43.94305" lon="5.37043">
        <ele>357.75</ele>
        <time>2015-10-12T10:53:54Z</time>
      </trkpt>
      <trkpt lat="43.943" lon="5.37051">
        <ele>357.27</ele>
        <time>2015-10-12T10:54:15Z</time>
      </trkpt>
      <trkpt lat="43.94278" lon="5.37072">
        <ele>355.83</ele>
        <time>2015-10-12T10:54:26Z</time>
      </trkpt>
      <trkpt lat="43.94256" lon="5.37098">
        <ele>353.9</ele>
        <time>2015-10-12T10:54:36Z</time>
      </trkpt>
      <trkpt lat="43.94258" lon="5.37102">
        <ele>354.38</ele>
        <time>2015-10-12T10:54:45Z</time>
      </trkpt>
      <trkpt lat="43.94259" lon="5.37103">
        <ele>354.38</ele>
        <time>2015-10-12T10:54:46Z</time>
      </trkpt>
      <trkpt lat="43.94259" lon="5.37106">
        <ele>354.38</ele>
        <time>2015-10-12T10:54:47Z</time>
      </trkpt>
      <trkpt lat="43.9426" lon="5.37108">
        <ele>354.38</ele>
        <time>2015-10-12T10:54:48Z</time>
      </trkpt>
      <trkpt lat="43.9426" lon="5.37111">
        <ele>354.38</ele>
        <time>2015-10-12T10:54:49Z</time>
      </trkpt>
      <trkpt lat="43.94266" lon="5.37164">
        <ele>356.31</ele>
        <time>2015-10-12T10:55:00Z</time>
      </trkpt>
      <trkpt lat="43.94272" lon="5.37227">
        <ele>358.71</ele>
        <time>2015-10-12T10:55:13Z</time>
      </trkpt>
      <trkpt lat="43.94273" lon="5.37233">
        <ele>358.71</ele>
        <time>2015-10-12T10:55:15Z</time>
      </trkpt>
      <trkpt lat="43.94274" lon="5.37234">
        <ele>358.71</ele>
        <time>2015-10-12T10:55:16Z</time>
      </trkpt>
      <trkpt lat="43.9428" lon="5.37233">
        <ele>359.67</ele>
        <time>2015-10-12T10:55:29Z</time>
      </trkpt>
      <trkpt lat="43.94282" lon="5.37234">
        <ele>360.15</ele>
        <time>2015-10-12T10:55:50Z</time>
      </trkpt>
      <trkpt lat="43.94283" lon="5.37232">
        <ele>360.63</ele>
        <time>2015-10-12T10:56:18Z</time>
      </trkpt>
      <trkpt lat="43.94311" lon="5.37218">
        <ele>361.59</ele>
        <time>2015-10-12T10:56:28Z</time>
      </trkpt>
      <trkpt lat="43.94322" lon="5.37205">
        <ele>363.04</ele>
        <time>2015-10-12T10:56:38Z</time>
      </trkpt>
      <trkpt lat="43.94322" lon="5.37204">
        <ele>360.63</ele>
        <time>2015-10-12T10:57:15Z</time>
      </trkpt>
      <trkpt lat="43.94322" lon="5.37204">
        <ele>359.67</ele>
        <time>2015-10-12T10:57:42Z</time>
      </trkpt>
      <trkpt lat="43.94323" lon="5.37203">
        <ele>359.67</ele>
        <time>2015-10-12T10:57:47Z</time>
      </trkpt>
      <trkpt lat="43.94322" lon="5.37204">
        <ele>346.21</ele>
        <time>2015-10-12T14:11:25Z</time>
      </trkpt>
      <trkpt lat="43.94317" lon="5.37217">
        <ele>351.02</ele>
        <time>2015-10-12T14:11:32Z</time>
      </trkpt>
      <trkpt lat="43.94314" lon="5.37219">
        <ele>352.46</ele>
        <time>2015-10-12T14:11:36Z</time>
      </trkpt>
      <trkpt lat="43.94282" lon="5.3724">
        <ele>348.62</ele>
        <time>2015-10-12T14:11:48Z</time>
      </trkpt>
      <trkpt lat="43.94269" lon="5.37238">
        <ele>347.65</ele>
        <time>2015-10-12T14:11:53Z</time>
      </trkpt>
      <trkpt lat="43.94268" lon="5.37236">
        <ele>347.65</ele>
        <time>2015-10-12T14:11:54Z</time>
      </trkpt>
      <trkpt lat="43.94267" lon="5.37233">
        <ele>347.65</ele>
        <time>2015-10-12T14:11:55Z</time>
      </trkpt>
      <trkpt lat="43.94267" lon="5.37229">
        <ele>349.58</ele>
        <time>2015-10-12T14:11:56Z</time>
      </trkpt>
      <trkpt lat="43.94267" lon="5.37223">
        <ele>350.06</ele>
        <time>2015-10-12T14:11:57Z</time>
      </trkpt>
      <trkpt lat="43.94267" lon="5.37217">
        <ele>349.58</ele>
        <time>2015-10-12T14:11:58Z</time>
      </trkpt>
      <trkpt lat="43.94267" lon="5.3721">
        <ele>349.58</ele>
        <time>2015-10-12T14:11:59Z</time>
      </trkpt>
      <trkpt lat="43.94267" lon="5.37195">
        <ele>349.1</ele>
        <time>2015-10-12T14:12:01Z</time>
      </trkpt>
      <trkpt lat="43.94268" lon="5.37187">
        <ele>350.54</ele>
        <time>2015-10-12T14:12:02Z</time>
      </trkpt>
      <trkpt lat="43.94268" lon="5.37179">
        <ele>351.5</ele>
        <time>2015-10-12T14:12:03Z</time>
      </trkpt>
      <trkpt lat="43.94268" lon="5.37171">
        <ele>351.98</ele>
        <time>2015-10-12T14:12:04Z</time>
      </trkpt>
      <trkpt lat="43.94267" lon="5.37164">
        <ele>351.5</ele>
        <time>2015-10-12T14:12:05Z</time>
      </trkpt>
      <trkpt lat="43.94266" lon="5.37156">
        <ele>351.5</ele>
        <time>2015-10-12T14:12:06Z</time>
      </trkpt>
      <trkpt lat="43.94264" lon="5.37148">
        <ele>351.98</ele>
        <time>2015-10-12T14:12:07Z</time>
      </trkpt>
      <trkpt lat="43.9426" lon="5.371">
        <ele>351.02</ele>
        <time>2015-10-12T14:12:15Z</time>
      </trkpt>
      <trkpt lat="43.94258" lon="5.37098">
        <ele>350.54</ele>
        <time>2015-10-12T14:12:16Z</time>
      </trkpt>
      <trkpt lat="43.94255" lon="5.37097">
        <ele>350.54</ele>
        <time>2015-10-12T14:12:17Z</time>
      </trkpt>
      <trkpt lat="43.94253" lon="5.37098">
        <ele>350.54</ele>
        <time>2015-10-12T14:12:18Z</time>
      </trkpt>
      <trkpt lat="43.94249" lon="5.37099">
        <ele>350.54</ele>
        <time>2015-10-12T14:12:19Z</time>
      </trkpt>
      <trkpt lat="43.94246" lon="5.37101">
        <ele>350.54</ele>
        <time>2015-10-12T14:12:20Z</time>
      </trkpt>
      <trkpt lat="43.94242" lon="5.37103">
        <ele>350.06</ele>
        <time>2015-10-12T14:12:21Z</time>
      </trkpt>
      <trkpt lat="43.94174" lon="5.37149">
        <ele>350.54</ele>
        <time>2015-10-12T14:12:37Z</time>
      </trkpt>
      <trkpt lat="43.94118" lon="5.37177">
        <ele>347.17</ele>
        <time>2015-10-12T14:12:52Z</time>
      </trkpt>
      <trkpt lat="43.94064" lon="5.37194">
        <ele>343.33</ele>
        <time>2015-10-12T14:13:07Z</time>
      </trkpt>
      <trkpt lat="43.9404" lon="5.37201">
        <ele>341.89</ele>
        <time>2015-10-12T14:13:13Z</time>
      </trkpt>
      <trkpt lat="43.94036" lon="5.37201">
        <ele>341.89</ele>
        <time>2015-10-12T14:13:14Z</time>
      </trkpt>
      <trkpt lat="43.94028" lon="5.37204">
        <ele>341.41</ele>
        <time>2015-10-12T14:13:16Z</time>
      </trkpt>
      <trkpt lat="43.94023" lon="5.37205">
        <ele>341.41</ele>
        <time>2015-10-12T14:13:17Z</time>
      </trkpt>
      <trkpt lat="43.94007" lon="5.37209">
        <ele>340.44</ele>
        <time>2015-10-12T14:13:26Z</time>
      </trkpt>
      <trkpt lat="43.94003" lon="5.37208">
        <ele>340.92</ele>
        <time>2015-10-12T14:13:41Z</time>
      </trkpt>
      <trkpt lat="43.94003" lon="5.37208">
        <ele>341.41</ele>
        <time>2015-10-12T14:14:06Z</time>
      </trkpt>
      <trkpt lat="43.94003" lon="5.37209">
        <ele>340.44</ele>
        <time>2015-10-12T14:14:38Z</time>
      </trkpt>
      <trkpt lat="43.94002" lon="5.37208">
        <ele>340.44</ele>
        <time>2015-10-12T14:15:10Z</time>
      </trkpt>
      <trkpt lat="43.94002" lon="5.37209">
        <ele>340.44</ele>
        <time>2015-10-12T14:15:44Z</time>
      </trkpt>
      <trkpt lat="43.94002" lon="5.37208">
        <ele>341.41</ele>
        <time>2015-10-12T14:16:00Z</time>
      </trkpt>
      <trkpt lat="43.94003" lon="5.37206">
        <ele>343.33</ele>
        <time>2015-10-12T14:16:24Z</time>
      </trkpt>
      <trkpt lat="43.94003" lon="5.37207">
        <ele>344.77</ele>
        <time>2015-10-12T14:16:51Z</time>
      </trkpt>
      <trkpt lat="43.94003" lon="5.37208">
        <ele>343.33</ele>
        <time>2015-10-12T14:17:22Z</time>
      </trkpt>
      <trkpt lat="43.94002" lon="5.37207">
        <ele>344.29</ele>
        <time>2015-10-12T14:17:43Z</time>
      </trkpt>
      <trkpt lat="43.94002" lon="5.37208">
        <ele>343.33</ele>
        <time>2015-10-12T14:18:11Z</time>
      </trkpt>
      <trkpt lat="43.94002" lon="5.37209">
        <ele>343.81</ele>
        <time>2015-10-12T14:18:47Z</time>
      </trkpt>
      <trkpt lat="43.94002" lon="5.37209">
        <ele>343.33</ele>
        <time>2015-10-12T14:19:23Z</time>
      </trkpt>
      <trkpt lat="43.93996" lon="5.37211">
        <ele>343.33</ele>
        <time>2015-10-12T14:19:39Z</time>
      </trkpt>
      <trkpt lat="43.93995" lon="5.37215">
        <ele>342.85</ele>
        <time>2015-10-12T14:19:40Z</time>
      </trkpt>
      <trkpt lat="43.93996" lon="5.37217">
        <ele>342.85</ele>
        <time>2015-10-12T14:19:41Z</time>
      </trkpt>
      <trkpt lat="43.94002" lon="5.37266">
        <ele>344.29</ele>
        <time>2015-10-12T14:19:53Z</time>
      </trkpt>
      <trkpt lat="43.94011" lon="5.37325">
        <ele>346.21</ele>
        <time>2015-10-12T14:20:06Z</time>
      </trkpt>
      <trkpt lat="43.94014" lon="5.37374">
        <ele>346.69</ele>
        <time>2015-10-12T14:20:20Z</time>
      </trkpt>
      <trkpt lat="43.94016" lon="5.37381">
        <ele>346.69</ele>
        <time>2015-10-12T14:20:24Z</time>
      </trkpt>
      <trkpt lat="43.94031" lon="5.3741">
        <ele>348.62</ele>
        <time>2015-10-12T14:20:36Z</time>
      </trkpt>
      <trkpt lat="43.9406" lon="5.37457">
        <ele>351.02</ele>
        <time>2015-10-12T14:20:56Z</time>
      </trkpt>
      <trkpt lat="43.94088" lon="5.37503">
        <ele>353.42</ele>
        <time>2015-10-12T14:21:14Z</time>
      </trkpt>
      <trkpt lat="43.94113" lon="5.37544">
        <ele>356.79</ele>
        <time>2015-10-12T14:21:31Z</time>
      </trkpt>
      <trkpt lat="43.94139" lon="5.37587">
        <ele>359.19</ele>
        <time>2015-10-12T14:21:48Z</time>
      </trkpt>
      <trkpt lat="43.94166" lon="5.37644">
        <ele>361.59</ele>
        <time>2015-10-12T14:22:08Z</time>
      </trkpt>
      <trkpt lat="43.94174" lon="5.37693">
        <ele>365.44</ele>
        <time>2015-10-12T14:22:23Z</time>
      </trkpt>
      <trkpt lat="43.94178" lon="5.37747">
        <ele>367.84</ele>
        <time>2015-10-12T14:22:40Z</time>
      </trkpt>
      <trkpt lat="43.94177" lon="5.37804">
        <ele>368.8</ele>
        <time>2015-10-12T14:22:57Z</time>
      </trkpt>
      <trkpt lat="43.94169" lon="5.37875">
        <ele>370.73</ele>
        <time>2015-10-12T14:23:19Z</time>
      </trkpt>
      <trkpt lat="43.94161" lon="5.37937">
        <ele>373.13</ele>
        <time>2015-10-12T14:23:39Z</time>
      </trkpt>
      <trkpt lat="43.94158" lon="5.37998">
        <ele>376.49</ele>
        <time>2015-10-12T14:24:00Z</time>
      </trkpt>
      <trkpt lat="43.94167" lon="5.3802">
        <ele>377.45</ele>
        <time>2015-10-12T14:24:10Z</time>
      </trkpt>
      <trkpt lat="43.94168" lon="5.38021">
        <ele>377.94</ele>
        <time>2015-10-12T14:24:11Z</time>
      </trkpt>
      <trkpt lat="43.9417" lon="5.38025">
        <ele>376.97</ele>
        <time>2015-10-12T14:24:26Z</time>
      </trkpt>
      <trkpt lat="43.94168" lon="5.38029">
        <ele>377.94</ele>
        <time>2015-10-12T14:24:58Z</time>
      </trkpt>
      <trkpt lat="43.94168" lon="5.38026">
        <ele>378.9</ele>
        <time>2015-10-12T14:25:23Z</time>
      </trkpt>
      <trkpt lat="43.9417" lon="5.38026">
        <ele>378.42</ele>
        <time>2015-10-12T14:25:47Z</time>
      </trkpt>
      <trkpt lat="43.94171" lon="5.38025">
        <ele>379.38</ele>
        <time>2015-10-12T14:26:14Z</time>
      </trkpt>
      <trkpt lat="43.94171" lon="5.38024">
        <ele>380.34</ele>
        <time>2015-10-12T14:26:37Z</time>
      </trkpt>
      <trkpt lat="43.94169" lon="5.38024">
        <ele>379.86</ele>
        <time>2015-10-12T14:27:00Z</time>
      </trkpt>
      <trkpt lat="43.9417" lon="5.38031">
        <ele>378.9</ele>
        <time>2015-10-12T14:27:10Z</time>
      </trkpt>
      <trkpt lat="43.94173" lon="5.38033">
        <ele>378.9</ele>
        <time>2015-10-12T14:27:11Z</time>
      </trkpt>
      <trkpt lat="43.94175" lon="5.38035">
        <ele>378.9</ele>
        <time>2015-10-12T14:27:12Z</time>
      </trkpt>
      <trkpt lat="43.94177" lon="5.38038">
        <ele>378.42</ele>
        <time>2015-10-12T14:27:13Z</time>
      </trkpt>
      <trkpt lat="43.94178" lon="5.38042">
        <ele>378.42</ele>
        <time>2015-10-12T14:27:14Z</time>
      </trkpt>
      <trkpt lat="43.94179" lon="5.38045">
        <ele>378.42</ele>
        <time>2015-10-12T14:27:15Z</time>
      </trkpt>
      <trkpt lat="43.94181" lon="5.38049">
        <ele>378.42</ele>
        <time>2015-10-12T14:27:16Z</time>
      </trkpt>
      <trkpt lat="43.94204" lon="5.38108">
        <ele>377.94</ele>
        <time>2015-10-12T14:27:31Z</time>
      </trkpt>
      <trkpt lat="43.94232" lon="5.38171">
        <ele>379.38</ele>
        <time>2015-10-12T14:27:50Z</time>
      </trkpt>
      <trkpt lat="43.94239" lon="5.38218">
        <ele>381.3</ele>
        <time>2015-10-12T14:28:05Z</time>
      </trkpt>
      <trkpt lat="43.94256" lon="5.38284">
        <ele>379.38</ele>
        <time>2015-10-12T14:28:19Z</time>
      </trkpt>
      <trkpt lat="43.94289" lon="5.38365">
        <ele>379.38</ele>
        <time>2015-10-12T14:28:35Z</time>
      </trkpt>
      <trkpt lat="43.94318" lon="5.38404">
        <ele>379.86</ele>
        <time>2015-10-12T14:28:45Z</time>
      </trkpt>
      <trkpt lat="43.9432" lon="5.38409">
        <ele>379.86</ele>
        <time>2015-10-12T14:28:46Z</time>
      </trkpt>
      <trkpt lat="43.94335" lon="5.38446">
        <ele>380.34</ele>
        <time>2015-10-12T14:28:53Z</time>
      </trkpt>
      <trkpt lat="43.94337" lon="5.38453">
        <ele>379.86</ele>
        <time>2015-10-12T14:28:54Z</time>
      </trkpt>
      <trkpt lat="43.94357" lon="5.38537">
        <ele>375.53</ele>
        <time>2015-10-12T14:29:05Z</time>
      </trkpt>
      <trkpt lat="43.9436" lon="5.38544">
        <ele>375.53</ele>
        <time>2015-10-12T14:29:06Z</time>
      </trkpt>
      <trkpt lat="43.94365" lon="5.3855">
        <ele>375.05</ele>
        <time>2015-10-12T14:29:07Z</time>
      </trkpt>
      <trkpt lat="43.94371" lon="5.38556">
        <ele>375.05</ele>
        <time>2015-10-12T14:29:08Z</time>
      </trkpt>
      <trkpt lat="43.94377" lon="5.38561">
        <ele>374.57</ele>
        <time>2015-10-12T14:29:09Z</time>
      </trkpt>
      <trkpt lat="43.94395" lon="5.38575">
        <ele>373.13</ele>
        <time>2015-10-12T14:29:12Z</time>
      </trkpt>
      <trkpt lat="43.94399" lon="5.38581">
        <ele>372.65</ele>
        <time>2015-10-12T14:29:13Z</time>
      </trkpt>
      <trkpt lat="43.94403" lon="5.38587">
        <ele>372.17</ele>
        <time>2015-10-12T14:29:14Z</time>
      </trkpt>
      <trkpt lat="43.94405" lon="5.38595">
        <ele>371.69</ele>
        <time>2015-10-12T14:29:15Z</time>
      </trkpt>
      <trkpt lat="43.94406" lon="5.38603">
        <ele>371.21</ele>
        <time>2015-10-12T14:29:16Z</time>
      </trkpt>
      <trkpt lat="43.94406" lon="5.38612">
        <ele>370.73</ele>
        <time>2015-10-12T14:29:17Z</time>
      </trkpt>
      <trkpt lat="43.94403" lon="5.3862">
        <ele>370.24</ele>
        <time>2015-10-12T14:29:18Z</time>
      </trkpt>
      <trkpt lat="43.944" lon="5.38628">
        <ele>369.76</ele>
        <time>2015-10-12T14:29:19Z</time>
      </trkpt>
      <trkpt lat="43.94393" lon="5.38636">
        <ele>368.8</ele>
        <time>2015-10-12T14:29:20Z</time>
      </trkpt>
      <trkpt lat="43.94388" lon="5.38638">
        <ele>367.84</ele>
        <time>2015-10-12T14:29:21Z</time>
      </trkpt>
      <trkpt lat="43.94381" lon="5.38639">
        <ele>367.36</ele>
        <time>2015-10-12T14:29:22Z</time>
      </trkpt>
      <trkpt lat="43.94374" lon="5.38638">
        <ele>366.88</ele>
        <time>2015-10-12T14:29:23Z</time>
      </trkpt>
      <trkpt lat="43.94368" lon="5.38634">
        <ele>366.4</ele>
        <time>2015-10-12T14:29:24Z</time>
      </trkpt>
      <trkpt lat="43.94361" lon="5.3863">
        <ele>365.92</ele>
        <time>2015-10-12T14:29:25Z</time>
      </trkpt>
      <trkpt lat="43.94354" lon="5.38625">
        <ele>365.92</ele>
        <time>2015-10-12T14:29:26Z</time>
      </trkpt>
      <trkpt lat="43.94334" lon="5.38612">
        <ele>364.96</ele>
        <time>2015-10-12T14:29:29Z</time>
      </trkpt>
      <trkpt lat="43.94327" lon="5.38609">
        <ele>364.48</ele>
        <time>2015-10-12T14:29:30Z</time>
      </trkpt>
      <trkpt lat="43.94319" lon="5.38608">
        <ele>364.48</ele>
        <time>2015-10-12T14:29:31Z</time>
      </trkpt>
      <trkpt lat="43.94312" lon="5.38608">
        <ele>364</ele>
        <time>2015-10-12T14:29:32Z</time>
      </trkpt>
      <trkpt lat="43.94304" lon="5.3861">
        <ele>363.52</ele>
        <time>2015-10-12T14:29:33Z</time>
      </trkpt>
      <trkpt lat="43.94296" lon="5.38614">
        <ele>363.04</ele>
        <time>2015-10-12T14:29:34Z</time>
      </trkpt>
      <trkpt lat="43.94289" lon="5.38619">
        <ele>362.55</ele>
        <time>2015-10-12T14:29:35Z</time>
      </trkpt>
      <trkpt lat="43.94282" lon="5.38625">
        <ele>362.07</ele>
        <time>2015-10-12T14:29:36Z</time>
      </trkpt>
      <trkpt lat="43.9417" lon="5.38731">
        <ele>354.38</ele>
        <time>2015-10-12T14:29:52Z</time>
      </trkpt>
      <trkpt lat="43.94162" lon="5.38736">
        <ele>353.42</ele>
        <time>2015-10-12T14:29:53Z</time>
      </trkpt>
      <trkpt lat="43.94154" lon="5.3874">
        <ele>352.94</ele>
        <time>2015-10-12T14:29:54Z</time>
      </trkpt>
      <trkpt lat="43.94145" lon="5.38741">
        <ele>352.46</ele>
        <time>2015-10-12T14:29:55Z</time>
      </trkpt>
      <trkpt lat="43.94135" lon="5.38741">
        <ele>351.98</ele>
        <time>2015-10-12T14:29:56Z</time>
      </trkpt>
      <trkpt lat="43.94126" lon="5.3874">
        <ele>351.5</ele>
        <time>2015-10-12T14:29:57Z</time>
      </trkpt>
      <trkpt lat="43.94117" lon="5.38739">
        <ele>351.02</ele>
        <time>2015-10-12T14:29:58Z</time>
      </trkpt>
      <trkpt lat="43.93926" lon="5.38709">
        <ele>341.89</ele>
        <time>2015-10-12T14:30:19Z</time>
      </trkpt>
      <trkpt lat="43.93901" lon="5.38704">
        <ele>339.96</ele>
        <time>2015-10-12T14:30:23Z</time>
      </trkpt>
      <trkpt lat="43.93898" lon="5.38705">
        <ele>339.96</ele>
        <time>2015-10-12T14:30:24Z</time>
      </trkpt>
      <trkpt lat="43.93895" lon="5.38707">
        <ele>339.48</ele>
        <time>2015-10-12T14:30:25Z</time>
      </trkpt>
      <trkpt lat="43.93893" lon="5.3871">
        <ele>339.48</ele>
        <time>2015-10-12T14:30:26Z</time>
      </trkpt>
      <trkpt lat="43.93892" lon="5.38713">
        <ele>339.48</ele>
        <time>2015-10-12T14:30:27Z</time>
      </trkpt>
      <trkpt lat="43.93891" lon="5.38717">
        <ele>339.48</ele>
        <time>2015-10-12T14:30:28Z</time>
      </trkpt>
      <trkpt lat="43.9389" lon="5.38722">
        <ele>339</ele>
        <time>2015-10-12T14:30:29Z</time>
      </trkpt>
      <trkpt lat="43.9389" lon="5.38728">
        <ele>339</ele>
        <time>2015-10-12T14:30:30Z</time>
      </trkpt>
      <trkpt lat="43.93889" lon="5.38734">
        <ele>338.52</ele>
        <time>2015-10-12T14:30:31Z</time>
      </trkpt>
      <trkpt lat="43.93886" lon="5.38833">
        <ele>333.23</ele>
        <time>2015-10-12T14:30:43Z</time>
      </trkpt>
      <trkpt lat="43.93862" lon="5.38963">
        <ele>327.95</ele>
        <time>2015-10-12T14:30:56Z</time>
      </trkpt>
      <trkpt lat="43.93861" lon="5.38972">
        <ele>327.47</ele>
        <time>2015-10-12T14:30:57Z</time>
      </trkpt>
      <trkpt lat="43.9386" lon="5.38981">
        <ele>326.99</ele>
        <time>2015-10-12T14:30:58Z</time>
      </trkpt>
      <trkpt lat="43.93861" lon="5.3899">
        <ele>326.99</ele>
        <time>2015-10-12T14:30:59Z</time>
      </trkpt>
      <trkpt lat="43.93864" lon="5.38998">
        <ele>326.5</ele>
        <time>2015-10-12T14:31:00Z</time>
      </trkpt>
      <trkpt lat="43.93868" lon="5.39006">
        <ele>326.5</ele>
        <time>2015-10-12T14:31:01Z</time>
      </trkpt>
      <trkpt lat="43.93872" lon="5.39013">
        <ele>326.02</ele>
        <time>2015-10-12T14:31:02Z</time>
      </trkpt>
      <trkpt lat="43.93877" lon="5.39019">
        <ele>325.54</ele>
        <time>2015-10-12T14:31:03Z</time>
      </trkpt>
      <trkpt lat="43.93883" lon="5.39026">
        <ele>325.54</ele>
        <time>2015-10-12T14:31:04Z</time>
      </trkpt>
      <trkpt lat="43.93893" lon="5.39039">
        <ele>324.58</ele>
        <time>2015-10-12T14:31:06Z</time>
      </trkpt>
      <trkpt lat="43.93897" lon="5.39047">
        <ele>324.1</ele>
        <time>2015-10-12T14:31:07Z</time>
      </trkpt>
      <trkpt lat="43.93899" lon="5.39056">
        <ele>323.62</ele>
        <time>2015-10-12T14:31:08Z</time>
      </trkpt>
      <trkpt lat="43.939" lon="5.39065">
        <ele>323.14</ele>
        <time>2015-10-12T14:31:09Z</time>
      </trkpt>
      <trkpt lat="43.93899" lon="5.39075">
        <ele>323.14</ele>
        <time>2015-10-12T14:31:10Z</time>
      </trkpt>
      <trkpt lat="43.93898" lon="5.39085">
        <ele>322.66</ele>
        <time>2015-10-12T14:31:11Z</time>
      </trkpt>
      <trkpt lat="43.93897" lon="5.39095">
        <ele>322.18</ele>
        <time>2015-10-12T14:31:12Z</time>
      </trkpt>
      <trkpt lat="43.93874" lon="5.39222">
        <ele>320.26</ele>
        <time>2015-10-12T14:31:26Z</time>
      </trkpt>
      <trkpt lat="43.93857" lon="5.39315">
        <ele>322.66</ele>
        <time>2015-10-12T14:31:42Z</time>
      </trkpt>
      <trkpt lat="43.93839" lon="5.39381">
        <ele>325.06</ele>
        <time>2015-10-12T14:32:01Z</time>
      </trkpt>
      <trkpt lat="43.93823" lon="5.39435">
        <ele>327.47</ele>
        <time>2015-10-12T14:32:18Z</time>
      </trkpt>
      <trkpt lat="43.93804" lon="5.39495">
        <ele>330.35</ele>
        <time>2015-10-12T14:32:38Z</time>
      </trkpt>
      <trkpt lat="43.93785" lon="5.39545">
        <ele>333.23</ele>
        <time>2015-10-12T14:32:57Z</time>
      </trkpt>
      <trkpt lat="43.93761" lon="5.39607">
        <ele>337.08</ele>
        <time>2015-10-12T14:33:19Z</time>
      </trkpt>
      <trkpt lat="43.93759" lon="5.39658">
        <ele>339.48</ele>
        <time>2015-10-12T14:33:38Z</time>
      </trkpt>
      <trkpt lat="43.93764" lon="5.39701">
        <ele>340.44</ele>
        <time>2015-10-12T14:33:54Z</time>
      </trkpt>
      <trkpt lat="43.93763" lon="5.39752">
        <ele>341.89</ele>
        <time>2015-10-12T14:34:12Z</time>
      </trkpt>
      <trkpt lat="43.93755" lon="5.39805">
        <ele>343.33</ele>
        <time>2015-10-12T14:34:31Z</time>
      </trkpt>
      <trkpt lat="43.93746" lon="5.39862">
        <ele>346.21</ele>
        <time>2015-10-12T14:34:52Z</time>
      </trkpt>
      <trkpt lat="43.93741" lon="5.39902">
        <ele>347.17</ele>
        <time>2015-10-12T14:35:06Z</time>
      </trkpt>
      <trkpt lat="43.93737" lon="5.39964">
        <ele>348.13</ele>
        <time>2015-10-12T14:35:23Z</time>
      </trkpt>
      <trkpt lat="43.93738" lon="5.40042">
        <ele>348.13</ele>
        <time>2015-10-12T14:35:44Z</time>
      </trkpt>
      <trkpt lat="43.9373" lon="5.40105">
        <ele>349.1</ele>
        <time>2015-10-12T14:36:01Z</time>
      </trkpt>
      <trkpt lat="43.93715" lon="5.40171">
        <ele>350.06</ele>
        <time>2015-10-12T14:36:20Z</time>
      </trkpt>
      <trkpt lat="43.93697" lon="5.40248">
        <ele>351.02</ele>
        <time>2015-10-12T14:36:41Z</time>
      </trkpt>
      <trkpt lat="43.9368" lon="5.40317">
        <ele>350.54</ele>
        <time>2015-10-12T14:36:58Z</time>
      </trkpt>
      <trkpt lat="43.93643" lon="5.40399">
        <ele>346.69</ele>
        <time>2015-10-12T14:37:13Z</time>
      </trkpt>
      <trkpt lat="43.93578" lon="5.40536">
        <ele>339.96</ele>
        <time>2015-10-12T14:37:30Z</time>
      </trkpt>
      <trkpt lat="43.93531" lon="5.40638">
        <ele>336.12</ele>
        <time>2015-10-12T14:37:42Z</time>
      </trkpt>
      <trkpt lat="43.93524" lon="5.40751">
        <ele>332.27</ele>
        <time>2015-10-12T14:37:54Z</time>
      </trkpt>
      <trkpt lat="43.93536" lon="5.40976">
        <ele>326.5</ele>
        <time>2015-10-12T14:38:18Z</time>
      </trkpt>
      <trkpt lat="43.93537" lon="5.4112">
        <ele>323.14</ele>
        <time>2015-10-12T14:38:35Z</time>
      </trkpt>
      <trkpt lat="43.93526" lon="5.41203">
        <ele>322.66</ele>
        <time>2015-10-12T14:38:50Z</time>
      </trkpt>
      <trkpt lat="43.93512" lon="5.41314">
        <ele>320.74</ele>
        <time>2015-10-12T14:39:09Z</time>
      </trkpt>
      <trkpt lat="43.93495" lon="5.4144">
        <ele>319.3</ele>
        <time>2015-10-12T14:39:30Z</time>
      </trkpt>
      <trkpt lat="43.93469" lon="5.41561">
        <ele>319.3</ele>
        <time>2015-10-12T14:39:52Z</time>
      </trkpt>
      <trkpt lat="43.9345" lon="5.41616">
        <ele>321.22</ele>
        <time>2015-10-12T14:40:07Z</time>
      </trkpt>
      <trkpt lat="43.93427" lon="5.41684">
        <ele>322.18</ele>
        <time>2015-10-12T14:40:27Z</time>
      </trkpt>
      <trkpt lat="43.93406" lon="5.41747">
        <ele>322.66</ele>
        <time>2015-10-12T14:40:46Z</time>
      </trkpt>
      <trkpt lat="43.93382" lon="5.41817">
        <ele>323.62</ele>
        <time>2015-10-12T14:41:06Z</time>
      </trkpt>
      <trkpt lat="43.93364" lon="5.41879">
        <ele>325.06</ele>
        <time>2015-10-12T14:41:25Z</time>
      </trkpt>
      <trkpt lat="43.93349" lon="5.41941">
        <ele>326.02</ele>
        <time>2015-10-12T14:41:45Z</time>
      </trkpt>
      <trkpt lat="43.93338" lon="5.41987">
        <ele>327.47</ele>
        <time>2015-10-12T14:42:00Z</time>
      </trkpt>
      <trkpt lat="43.93324" lon="5.42048">
        <ele>330.83</ele>
        <time>2015-10-12T14:42:20Z</time>
      </trkpt>
      <trkpt lat="43.93322" lon="5.42095">
        <ele>331.31</ele>
        <time>2015-10-12T14:42:36Z</time>
      </trkpt>
      <trkpt lat="43.93324" lon="5.42152">
        <ele>334.2</ele>
        <time>2015-10-12T14:42:56Z</time>
      </trkpt>
      <trkpt lat="43.93334" lon="5.42203">
        <ele>334.68</ele>
        <time>2015-10-12T14:43:12Z</time>
      </trkpt>
      <trkpt lat="43.93356" lon="5.42264">
        <ele>334.68</ele>
        <time>2015-10-12T14:43:27Z</time>
      </trkpt>
      <trkpt lat="43.93396" lon="5.42361">
        <ele>333.71</ele>
        <time>2015-10-12T14:43:49Z</time>
      </trkpt>
      <trkpt lat="43.93424" lon="5.42456">
        <ele>332.75</ele>
        <time>2015-10-12T14:44:08Z</time>
      </trkpt>
      <trkpt lat="43.93424" lon="5.42552">
        <ele>331.31</ele>
        <time>2015-10-12T14:44:26Z</time>
      </trkpt>
      <trkpt lat="43.93423" lon="5.42621">
        <ele>332.75</ele>
        <time>2015-10-12T14:44:43Z</time>
      </trkpt>
      <trkpt lat="43.93422" lon="5.42672">
        <ele>335.16</ele>
        <time>2015-10-12T14:45:00Z</time>
      </trkpt>
      <trkpt lat="43.93419" lon="5.42732">
        <ele>337.56</ele>
        <time>2015-10-12T14:45:20Z</time>
      </trkpt>
      <trkpt lat="43.93412" lon="5.42779">
        <ele>340.44</ele>
        <time>2015-10-12T14:45:37Z</time>
      </trkpt>
      <trkpt lat="43.93399" lon="5.42817">
        <ele>340.92</ele>
        <time>2015-10-12T14:45:53Z</time>
      </trkpt>
      <trkpt lat="43.93384" lon="5.42853">
        <ele>340.92</ele>
        <time>2015-10-12T14:46:09Z</time>
      </trkpt>
      <trkpt lat="43.93362" lon="5.4291">
        <ele>342.85</ele>
        <time>2015-10-12T14:46:33Z</time>
      </trkpt>
      <trkpt lat="43.93344" lon="5.42958">
        <ele>344.77</ele>
        <time>2015-10-12T14:46:52Z</time>
      </trkpt>
      <trkpt lat="43.93322" lon="5.43021">
        <ele>345.73</ele>
        <time>2015-10-12T14:47:13Z</time>
      </trkpt>
      <trkpt lat="43.93305" lon="5.43087">
        <ele>346.69</ele>
        <time>2015-10-12T14:47:34Z</time>
      </trkpt>
      <trkpt lat="43.93292" lon="5.4315">
        <ele>348.13</ele>
        <time>2015-10-12T14:47:54Z</time>
      </trkpt>
      <trkpt lat="43.93281" lon="5.43202">
        <ele>350.54</ele>
        <time>2015-10-12T14:48:14Z</time>
      </trkpt>
      <trkpt lat="43.93272" lon="5.4326">
        <ele>353.42</ele>
        <time>2015-10-12T14:48:35Z</time>
      </trkpt>
      <trkpt lat="43.93268" lon="5.43309">
        <ele>355.83</ele>
        <time>2015-10-12T14:48:53Z</time>
      </trkpt>
      <trkpt lat="43.93262" lon="5.43371">
        <ele>358.23</ele>
        <time>2015-10-12T14:49:14Z</time>
      </trkpt>
      <trkpt lat="43.93255" lon="5.43434">
        <ele>360.63</ele>
        <time>2015-10-12T14:49:35Z</time>
      </trkpt>
      <trkpt lat="43.93242" lon="5.43492">
        <ele>361.11</ele>
        <time>2015-10-12T14:49:53Z</time>
      </trkpt>
      <trkpt lat="43.93225" lon="5.43553">
        <ele>360.63</ele>
        <time>2015-10-12T14:50:13Z</time>
      </trkpt>
      <trkpt lat="43.93209" lon="5.43612">
        <ele>361.11</ele>
        <time>2015-10-12T14:50:32Z</time>
      </trkpt>
      <trkpt lat="43.93196" lon="5.43663">
        <ele>359.67</ele>
        <time>2015-10-12T14:50:46Z</time>
      </trkpt>
      <trkpt lat="43.93175" lon="5.43743">
        <ele>356.79</ele>
        <time>2015-10-12T14:51:00Z</time>
      </trkpt>
      <trkpt lat="43.93148" lon="5.4384">
        <ele>354.38</ele>
        <time>2015-10-12T14:51:16Z</time>
      </trkpt>
      <trkpt lat="43.93132" lon="5.43898">
        <ele>353.9</ele>
        <time>2015-10-12T14:51:27Z</time>
      </trkpt>
      <trkpt lat="43.93096" lon="5.44012">
        <ele>352.46</ele>
        <time>2015-10-12T14:51:49Z</time>
      </trkpt>
      <trkpt lat="43.93043" lon="5.44076">
        <ele>349.58</ele>
        <time>2015-10-12T14:52:03Z</time>
      </trkpt>
      <trkpt lat="43.92953" lon="5.44139">
        <ele>344.77</ele>
        <time>2015-10-12T14:52:18Z</time>
      </trkpt>
      <trkpt lat="43.92906" lon="5.44216">
        <ele>344.29</ele>
        <time>2015-10-12T14:52:31Z</time>
      </trkpt>
      <trkpt lat="43.92885" lon="5.44275">
        <ele>345.73</ele>
        <time>2015-10-12T14:52:45Z</time>
      </trkpt>
      <trkpt lat="43.92858" lon="5.44349">
        <ele>346.69</ele>
        <time>2015-10-12T14:53:04Z</time>
      </trkpt>
      <trkpt lat="43.92834" lon="5.44415">
        <ele>348.13</ele>
        <time>2015-10-12T14:53:22Z</time>
      </trkpt>
      <trkpt lat="43.92805" lon="5.445">
        <ele>345.73</ele>
        <time>2015-10-12T14:53:40Z</time>
      </trkpt>
      <trkpt lat="43.92755" lon="5.44605">
        <ele>343.81</ele>
        <time>2015-10-12T14:53:59Z</time>
      </trkpt>
      <trkpt lat="43.92707" lon="5.44687">
        <ele>343.33</ele>
        <time>2015-10-12T14:54:18Z</time>
      </trkpt>
      <trkpt lat="43.92656" lon="5.44775">
        <ele>342.85</ele>
        <time>2015-10-12T14:54:38Z</time>
      </trkpt>
      <trkpt lat="43.92597" lon="5.44846">
        <ele>342.85</ele>
        <time>2015-10-12T14:54:58Z</time>
      </trkpt>
      <trkpt lat="43.92528" lon="5.44905">
        <ele>343.33</ele>
        <time>2015-10-12T14:55:18Z</time>
      </trkpt>
      <trkpt lat="43.92462" lon="5.44962">
        <ele>340.44</ele>
        <time>2015-10-12T14:55:35Z</time>
      </trkpt>
      <trkpt lat="43.92403" lon="5.45016">
        <ele>337.08</ele>
        <time>2015-10-12T14:55:47Z</time>
      </trkpt>
      <trkpt lat="43.92399" lon="5.45022">
        <ele>337.08</ele>
        <time>2015-10-12T14:55:48Z</time>
      </trkpt>
      <trkpt lat="43.92395" lon="5.45028">
        <ele>336.6</ele>
        <time>2015-10-12T14:55:49Z</time>
      </trkpt>
      <trkpt lat="43.92393" lon="5.45035">
        <ele>336.6</ele>
        <time>2015-10-12T14:55:50Z</time>
      </trkpt>
      <trkpt lat="43.9239" lon="5.45042">
        <ele>336.6</ele>
        <time>2015-10-12T14:55:51Z</time>
      </trkpt>
      <trkpt lat="43.92389" lon="5.45049">
        <ele>336.12</ele>
        <time>2015-10-12T14:55:52Z</time>
      </trkpt>
      <trkpt lat="43.92388" lon="5.45056">
        <ele>336.12</ele>
        <time>2015-10-12T14:55:53Z</time>
      </trkpt>
      <trkpt lat="43.92387" lon="5.45063">
        <ele>336.12</ele>
        <time>2015-10-12T14:55:54Z</time>
      </trkpt>
      <trkpt lat="43.92388" lon="5.4507">
        <ele>336.12</ele>
        <time>2015-10-12T14:55:55Z</time>
      </trkpt>
      <trkpt lat="43.92389" lon="5.45078">
        <ele>335.64</ele>
        <time>2015-10-12T14:55:56Z</time>
      </trkpt>
      <trkpt lat="43.92391" lon="5.45084">
        <ele>335.64</ele>
        <time>2015-10-12T14:55:57Z</time>
      </trkpt>
      <trkpt lat="43.92393" lon="5.4509">
        <ele>335.64</ele>
        <time>2015-10-12T14:55:58Z</time>
      </trkpt>
      <trkpt lat="43.92396" lon="5.45096">
        <ele>335.64</ele>
        <time>2015-10-12T14:55:59Z</time>
      </trkpt>
      <trkpt lat="43.92399" lon="5.45101">
        <ele>335.64</ele>
        <time>2015-10-12T14:56:00Z</time>
      </trkpt>
      <trkpt lat="43.92403" lon="5.45105">
        <ele>335.64</ele>
        <time>2015-10-12T14:56:01Z</time>
      </trkpt>
      <trkpt lat="43.92407" lon="5.4511">
        <ele>335.16</ele>
        <time>2015-10-12T14:56:02Z</time>
      </trkpt>
      <trkpt lat="43.92411" lon="5.45115">
        <ele>335.16</ele>
        <time>2015-10-12T14:56:03Z</time>
      </trkpt>
      <trkpt lat="43.92451" lon="5.45171">
        <ele>331.79</ele>
        <time>2015-10-12T14:56:12Z</time>
      </trkpt>
      <trkpt lat="43.92454" lon="5.45179">
        <ele>331.31</ele>
        <time>2015-10-12T14:56:13Z</time>
      </trkpt>
      <trkpt lat="43.92456" lon="5.45188">
        <ele>331.31</ele>
        <time>2015-10-12T14:56:14Z</time>
      </trkpt>
      <trkpt lat="43.92457" lon="5.45197">
        <ele>330.83</ele>
        <time>2015-10-12T14:56:15Z</time>
      </trkpt>
      <trkpt lat="43.92458" lon="5.45206">
        <ele>330.83</ele>
        <time>2015-10-12T14:56:16Z</time>
      </trkpt>
      <trkpt lat="43.92458" lon="5.45216">
        <ele>330.35</ele>
        <time>2015-10-12T14:56:17Z</time>
      </trkpt>
      <trkpt lat="43.92457" lon="5.45225">
        <ele>330.35</ele>
        <time>2015-10-12T14:56:18Z</time>
      </trkpt>
      <trkpt lat="43.92457" lon="5.45234">
        <ele>329.87</ele>
        <time>2015-10-12T14:56:19Z</time>
      </trkpt>
      <trkpt lat="43.92433" lon="5.45425">
        <ele>322.18</ele>
        <time>2015-10-12T14:56:39Z</time>
      </trkpt>
      <trkpt lat="43.92429" lon="5.45574">
        <ele>320.26</ele>
        <time>2015-10-12T14:56:58Z</time>
      </trkpt>
      <trkpt lat="43.92428" lon="5.45682">
        <ele>320.26</ele>
        <time>2015-10-12T14:57:17Z</time>
      </trkpt>
      <trkpt lat="43.92413" lon="5.45783">
        <ele>319.3</ele>
        <time>2015-10-12T14:57:37Z</time>
      </trkpt>
      <trkpt lat="43.92382" lon="5.45884">
        <ele>318.81</ele>
        <time>2015-10-12T14:57:56Z</time>
      </trkpt>
      <trkpt lat="43.92359" lon="5.45951">
        <ele>320.26</ele>
        <time>2015-10-12T14:58:13Z</time>
      </trkpt>
      <trkpt lat="43.92342" lon="5.4602">
        <ele>322.18</ele>
        <time>2015-10-12T14:58:33Z</time>
      </trkpt>
      <trkpt lat="43.92333" lon="5.46088">
        <ele>323.62</ele>
        <time>2015-10-12T14:58:53Z</time>
      </trkpt>
      <trkpt lat="43.92331" lon="5.46154">
        <ele>325.54</ele>
        <time>2015-10-12T14:59:11Z</time>
      </trkpt>
      <trkpt lat="43.9233" lon="5.46215">
        <ele>326.02</ele>
        <time>2015-10-12T14:59:28Z</time>
      </trkpt>
      <trkpt lat="43.92328" lon="5.46294">
        <ele>326.02</ele>
        <time>2015-10-12T14:59:49Z</time>
      </trkpt>
      <trkpt lat="43.92327" lon="5.46372">
        <ele>326.5</ele>
        <time>2015-10-12T15:00:09Z</time>
      </trkpt>
      <trkpt lat="43.92325" lon="5.46451">
        <ele>326.5</ele>
        <time>2015-10-12T15:00:29Z</time>
      </trkpt>
      <trkpt lat="43.92324" lon="5.46522">
        <ele>326.02</ele>
        <time>2015-10-12T15:00:49Z</time>
      </trkpt>
      <trkpt lat="43.92319" lon="5.46537">
        <ele>326.99</ele>
        <time>2015-10-12T15:01:01Z</time>
      </trkpt>
      <trkpt lat="43.92319" lon="5.4654">
        <ele>325.06</ele>
        <time>2015-10-12T15:01:16Z</time>
      </trkpt>
      <trkpt lat="43.92318" lon="5.4654">
        <ele>328.91</ele>
        <time>2015-10-12T15:01:54Z</time>
      </trkpt>
      <trkpt lat="43.92319" lon="5.46541">
        <ele>329.39</ele>
        <time>2015-10-12T15:02:40Z</time>
      </trkpt>
      <trkpt lat="43.9232" lon="5.46541">
        <ele>328.43</ele>
        <time>2015-10-12T15:03:18Z</time>
      </trkpt>
      <trkpt lat="43.92318" lon="5.46539">
        <ele>327.47</ele>
        <time>2015-10-12T15:04:05Z</time>
      </trkpt>
      <trkpt lat="43.9232" lon="5.46541">
        <ele>327.95</ele>
        <time>2015-10-12T15:04:47Z</time>
      </trkpt>
      <trkpt lat="43.9232" lon="5.46538">
        <ele>328.43</ele>
        <time>2015-10-12T15:05:25Z</time>
      </trkpt>
      <trkpt lat="43.9232" lon="5.46538">
        <ele>328.43</ele>
        <time>2015-10-12T15:06:09Z</time>
      </trkpt>
      <trkpt lat="43.92319" lon="5.46536">
        <ele>329.87</ele>
        <time>2015-10-12T15:06:53Z</time>
      </trkpt>
      <trkpt lat="43.92318" lon="5.46541">
        <ele>327.95</ele>
        <time>2015-10-12T15:07:33Z</time>
      </trkpt>
      <trkpt lat="43.92317" lon="5.46541">
        <ele>327.47</ele>
        <time>2015-10-12T15:08:16Z</time>
      </trkpt>
      <trkpt lat="43.92319" lon="5.46542">
        <ele>325.54</ele>
        <time>2015-10-12T15:09:05Z</time>
      </trkpt>
      <trkpt lat="43.9232" lon="5.4654">
        <ele>326.02</ele>
        <time>2015-10-12T15:09:43Z</time>
      </trkpt>
      <trkpt lat="43.92319" lon="5.4654">
        <ele>327.47</ele>
        <time>2015-10-12T15:10:21Z</time>
      </trkpt>
      <trkpt lat="43.92319" lon="5.4654">
        <ele>326.5</ele>
        <time>2015-10-12T15:11:08Z</time>
      </trkpt>
      <trkpt lat="43.92318" lon="5.46543">
        <ele>325.54</ele>
        <time>2015-10-12T15:11:13Z</time>
      </trkpt>
      <trkpt lat="43.92319" lon="5.46549">
        <ele>325.54</ele>
        <time>2015-10-12T15:11:17Z</time>
      </trkpt>
      <trkpt lat="43.9232" lon="5.46551">
        <ele>326.02</ele>
        <time>2015-10-12T15:11:18Z</time>
      </trkpt>
      <trkpt lat="43.92323" lon="5.46553">
        <ele>326.5</ele>
        <time>2015-10-12T15:11:22Z</time>
      </trkpt>
      <trkpt lat="43.92322" lon="5.46558">
        <ele>326.5</ele>
        <time>2015-10-12T15:11:25Z</time>
      </trkpt>
      <trkpt lat="43.92322" lon="5.46562">
        <ele>326.5</ele>
        <time>2015-10-12T15:11:26Z</time>
      </trkpt>
      <trkpt lat="43.92322" lon="5.46565">
        <ele>326.02</ele>
        <time>2015-10-12T15:11:27Z</time>
      </trkpt>
      <trkpt lat="43.92319" lon="5.46644">
        <ele>325.54</ele>
        <time>2015-10-12T15:11:42Z</time>
      </trkpt>
      <trkpt lat="43.92318" lon="5.46662">
        <ele>325.54</ele>
        <time>2015-10-12T15:11:45Z</time>
      </trkpt>
      <trkpt lat="43.92291" lon="5.46768">
        <ele>326.02</ele>
        <time>2015-10-12T15:12:03Z</time>
      </trkpt>
      <trkpt lat="43.92256" lon="5.4686">
        <ele>326.02</ele>
        <time>2015-10-12T15:12:22Z</time>
      </trkpt>
      <trkpt lat="43.9222" lon="5.46952">
        <ele>326.5</ele>
        <time>2015-10-12T15:12:39Z</time>
      </trkpt>
      <trkpt lat="43.92208" lon="5.46983">
        <ele>327.47</ele>
        <time>2015-10-12T15:12:45Z</time>
      </trkpt>
      <trkpt lat="43.92185" lon="5.47041">
        <ele>328.91</ele>
        <time>2015-10-12T15:12:59Z</time>
      </trkpt>
      <trkpt lat="43.92165" lon="5.47112">
        <ele>328.91</ele>
        <time>2015-10-12T15:13:14Z</time>
      </trkpt>
      <trkpt lat="43.92146" lon="5.47198">
        <ele>329.87</ele>
        <time>2015-10-12T15:13:32Z</time>
      </trkpt>
      <trkpt lat="43.92125" lon="5.47294">
        <ele>331.79</ele>
        <time>2015-10-12T15:13:53Z</time>
      </trkpt>
      <trkpt lat="43.92114" lon="5.47341">
        <ele>333.71</ele>
        <time>2015-10-12T15:14:06Z</time>
      </trkpt>
      <trkpt lat="43.92105" lon="5.47399">
        <ele>337.08</ele>
        <time>2015-10-12T15:14:25Z</time>
      </trkpt>
      <trkpt lat="43.92112" lon="5.47459">
        <ele>340.92</ele>
        <time>2015-10-12T15:14:45Z</time>
      </trkpt>
      <trkpt lat="43.92126" lon="5.4751">
        <ele>345.25</ele>
        <time>2015-10-12T15:15:03Z</time>
      </trkpt>
      <trkpt lat="43.92133" lon="5.47562">
        <ele>347.65</ele>
        <time>2015-10-12T15:15:22Z</time>
      </trkpt>
      <trkpt lat="43.9213" lon="5.47612">
        <ele>350.54</ele>
        <time>2015-10-12T15:15:39Z</time>
      </trkpt>
      <trkpt lat="43.92117" lon="5.47665">
        <ele>351.98</ele>
        <time>2015-10-12T15:15:58Z</time>
      </trkpt>
      <trkpt lat="43.92104" lon="5.47701">
        <ele>352.94</ele>
        <time>2015-10-12T15:16:12Z</time>
      </trkpt>
      <trkpt lat="43.92087" lon="5.4775">
        <ele>353.9</ele>
        <time>2015-10-12T15:16:31Z</time>
      </trkpt>
      <trkpt lat="43.92068" lon="5.47801">
        <ele>357.75</ele>
        <time>2015-10-12T15:16:52Z</time>
      </trkpt>
      <trkpt lat="43.92054" lon="5.47839">
        <ele>361.11</ele>
        <time>2015-10-12T15:17:10Z</time>
      </trkpt>
      <trkpt lat="43.92041" lon="5.47873">
        <ele>366.4</ele>
        <time>2015-10-12T15:17:26Z</time>
      </trkpt>
      <trkpt lat="43.92026" lon="5.47914">
        <ele>368.8</ele>
        <time>2015-10-12T15:17:44Z</time>
      </trkpt>
      <trkpt lat="43.92008" lon="5.47958">
        <ele>370.24</ele>
        <time>2015-10-12T15:18:04Z</time>
      </trkpt>
      <trkpt lat="43.91985" lon="5.4798">
        <ele>369.28</ele>
        <time>2015-10-12T15:18:16Z</time>
      </trkpt>
      <trkpt lat="43.91984" lon="5.47991">
        <ele>369.28</ele>
        <time>2015-10-12T15:18:28Z</time>
      </trkpt>
      <trkpt lat="43.91984" lon="5.47991">
        <ele>368.32</ele>
        <time>2015-10-12T15:18:57Z</time>
      </trkpt>
      <trkpt lat="43.91985" lon="5.4799">
        <ele>371.21</ele>
        <time>2015-10-12T15:19:25Z</time>
      </trkpt>
      <trkpt lat="43.91984" lon="5.47994">
        <ele>369.28</ele>
        <time>2015-10-12T15:19:54Z</time>
      </trkpt>
      <trkpt lat="43.91984" lon="5.47992">
        <ele>369.76</ele>
        <time>2015-10-12T15:20:24Z</time>
      </trkpt>
      <trkpt lat="43.91983" lon="5.47993">
        <ele>369.28</ele>
        <time>2015-10-12T15:20:29Z</time>
      </trkpt>
      <trkpt lat="43.91982" lon="5.47993">
        <ele>369.28</ele>
        <time>2015-10-12T15:20:30Z</time>
      </trkpt>
      <trkpt lat="43.91962" lon="5.4799">
        <ele>367.84</ele>
        <time>2015-10-12T15:20:37Z</time>
      </trkpt>
      <trkpt lat="43.91958" lon="5.47991">
        <ele>367.36</ele>
        <time>2015-10-12T15:20:38Z</time>
      </trkpt>
      <trkpt lat="43.91953" lon="5.47992">
        <ele>367.36</ele>
        <time>2015-10-12T15:20:39Z</time>
      </trkpt>
      <trkpt lat="43.91878" lon="5.48026">
        <ele>365.44</ele>
        <time>2015-10-12T15:20:53Z</time>
      </trkpt>
      <trkpt lat="43.91784" lon="5.48078">
        <ele>360.15</ele>
        <time>2015-10-12T15:21:08Z</time>
      </trkpt>
      <trkpt lat="43.91683" lon="5.48115">
        <ele>354.38</ele>
        <time>2015-10-12T15:21:22Z</time>
      </trkpt>
      <trkpt lat="43.91629" lon="5.48124">
        <ele>351.02</ele>
        <time>2015-10-12T15:21:33Z</time>
      </trkpt>
      <trkpt lat="43.91625" lon="5.4813">
        <ele>351.5</ele>
        <time>2015-10-12T15:21:35Z</time>
      </trkpt>
      <trkpt lat="43.91624" lon="5.48133">
        <ele>351.98</ele>
        <time>2015-10-12T15:21:36Z</time>
      </trkpt>
      <trkpt lat="43.91624" lon="5.48137">
        <ele>351.98</ele>
        <time>2015-10-12T15:21:37Z</time>
      </trkpt>
      <trkpt lat="43.91622" lon="5.48173">
        <ele>353.42</ele>
        <time>2015-10-12T15:21:51Z</time>
      </trkpt>
      <trkpt lat="43.91619" lon="5.48218">
        <ele>356.31</ele>
        <time>2015-10-12T15:22:07Z</time>
      </trkpt>
      <trkpt lat="43.91627" lon="5.48264">
        <ele>358.23</ele>
        <time>2015-10-12T15:22:23Z</time>
      </trkpt>
      <trkpt lat="43.91658" lon="5.48293">
        <ele>362.07</ele>
        <time>2015-10-12T15:22:40Z</time>
      </trkpt>
      <trkpt lat="43.91669" lon="5.48313">
        <ele>364</ele>
        <time>2015-10-12T15:22:48Z</time>
      </trkpt>
      <trkpt lat="43.91668" lon="5.48317">
        <ele>364</ele>
        <time>2015-10-12T15:22:49Z</time>
      </trkpt>
      <trkpt lat="43.91668" lon="5.4832">
        <ele>364</ele>
        <time>2015-10-12T15:22:50Z</time>
      </trkpt>
      <trkpt lat="43.91667" lon="5.48323">
        <ele>364</ele>
        <time>2015-10-12T15:22:51Z</time>
      </trkpt>
      <trkpt lat="43.91665" lon="5.48327">
        <ele>364</ele>
        <time>2015-10-12T15:22:52Z</time>
      </trkpt>
      <trkpt lat="43.91663" lon="5.48328">
        <ele>364</ele>
        <time>2015-10-12T15:22:53Z</time>
      </trkpt>
      <trkpt lat="43.91661" lon="5.4833">
        <ele>364</ele>
        <time>2015-10-12T15:22:54Z</time>
      </trkpt>
      <trkpt lat="43.91659" lon="5.48332">
        <ele>364.48</ele>
        <time>2015-10-12T15:22:55Z</time>
      </trkpt>
      <trkpt lat="43.91656" lon="5.48334">
        <ele>364.48</ele>
        <time>2015-10-12T15:22:56Z</time>
      </trkpt>
      <trkpt lat="43.9163" lon="5.48367">
        <ele>364</ele>
        <time>2015-10-12T15:23:07Z</time>
      </trkpt>
      <trkpt lat="43.91625" lon="5.48389">
        <ele>363.52</ele>
        <time>2015-10-12T15:23:11Z</time>
      </trkpt>
      <trkpt lat="43.91625" lon="5.48397">
        <ele>363.52</ele>
        <time>2015-10-12T15:23:12Z</time>
      </trkpt>
      <trkpt lat="43.91625" lon="5.48403">
        <ele>363.04</ele>
        <time>2015-10-12T15:23:13Z</time>
      </trkpt>
      <trkpt lat="43.91626" lon="5.4841">
        <ele>362.55</ele>
        <time>2015-10-12T15:23:14Z</time>
      </trkpt>
      <trkpt lat="43.91627" lon="5.48417">
        <ele>362.07</ele>
        <time>2015-10-12T15:23:15Z</time>
      </trkpt>
      <trkpt lat="43.91628" lon="5.48424">
        <ele>361.59</ele>
        <time>2015-10-12T15:23:16Z</time>
      </trkpt>
      <trkpt lat="43.91631" lon="5.48431">
        <ele>361.11</ele>
        <time>2015-10-12T15:23:17Z</time>
      </trkpt>
      <trkpt lat="43.91633" lon="5.48438">
        <ele>361.11</ele>
        <time>2015-10-12T15:23:18Z</time>
      </trkpt>
      <trkpt lat="43.91635" lon="5.48444">
        <ele>360.63</ele>
        <time>2015-10-12T15:23:19Z</time>
      </trkpt>
      <trkpt lat="43.9165" lon="5.48503">
        <ele>362.55</ele>
        <time>2015-10-12T15:23:32Z</time>
      </trkpt>
      <trkpt lat="43.91658" lon="5.48565">
        <ele>363.04</ele>
        <time>2015-10-12T15:23:49Z</time>
      </trkpt>
      <trkpt lat="43.91663" lon="5.48639">
        <ele>363.04</ele>
        <time>2015-10-12T15:24:07Z</time>
      </trkpt>
      <trkpt lat="43.91666" lon="5.48707">
        <ele>363.52</ele>
        <time>2015-10-12T15:24:23Z</time>
      </trkpt>
      <trkpt lat="43.91665" lon="5.48774">
        <ele>365.44</ele>
        <time>2015-10-12T15:24:41Z</time>
      </trkpt>
      <trkpt lat="43.91661" lon="5.48827">
        <ele>365.44</ele>
        <time>2015-10-12T15:24:54Z</time>
      </trkpt>
      <trkpt lat="43.91654" lon="5.4889">
        <ele>364.48</ele>
        <time>2015-10-12T15:25:08Z</time>
      </trkpt>
      <trkpt lat="43.91651" lon="5.48961">
        <ele>364.48</ele>
        <time>2015-10-12T15:25:22Z</time>
      </trkpt>
      <trkpt lat="43.91651" lon="5.49028">
        <ele>366.4</ele>
        <time>2015-10-12T15:25:35Z</time>
      </trkpt>
      <trkpt lat="43.91651" lon="5.49098">
        <ele>366.4</ele>
        <time>2015-10-12T15:25:49Z</time>
      </trkpt>
      <trkpt lat="43.91655" lon="5.49159">
        <ele>364</ele>
        <time>2015-10-12T15:26:02Z</time>
      </trkpt>
      <trkpt lat="43.91649" lon="5.49205">
        <ele>364</ele>
        <time>2015-10-12T15:26:13Z</time>
      </trkpt>
      <trkpt lat="43.91645" lon="5.49265">
        <ele>363.52</ele>
        <time>2015-10-12T15:26:28Z</time>
      </trkpt>
      <trkpt lat="43.91664" lon="5.49325">
        <ele>364</ele>
        <time>2015-10-12T15:26:43Z</time>
      </trkpt>
      <trkpt lat="43.91676" lon="5.49391">
        <ele>363.04</ele>
        <time>2015-10-12T15:27:01Z</time>
      </trkpt>
      <trkpt lat="43.91689" lon="5.49434">
        <ele>365.44</ele>
        <time>2015-10-12T15:27:16Z</time>
      </trkpt>
      <trkpt lat="43.91709" lon="5.49488">
        <ele>367.36</ele>
        <time>2015-10-12T15:27:34Z</time>
      </trkpt>
      <trkpt lat="43.91727" lon="5.49541">
        <ele>368.32</ele>
        <time>2015-10-12T15:27:49Z</time>
      </trkpt>
      <trkpt lat="43.91743" lon="5.49595">
        <ele>369.76</ele>
        <time>2015-10-12T15:28:05Z</time>
      </trkpt>
      <trkpt lat="43.91757" lon="5.49648">
        <ele>368.8</ele>
        <time>2015-10-12T15:28:21Z</time>
      </trkpt>
      <trkpt lat="43.91757" lon="5.4965">
        <ele>368.8</ele>
        <time>2015-10-12T15:28:22Z</time>
      </trkpt>
      <trkpt lat="43.91756" lon="5.49652">
        <ele>368.8</ele>
        <time>2015-10-12T15:28:23Z</time>
      </trkpt>
      <trkpt lat="43.91756" lon="5.49654">
        <ele>368.32</ele>
        <time>2015-10-12T15:28:24Z</time>
      </trkpt>
      <trkpt lat="43.91754" lon="5.49664">
        <ele>367.36</ele>
        <time>2015-10-12T15:28:29Z</time>
      </trkpt>
      <trkpt lat="43.91739" lon="5.49677">
        <ele>365.92</ele>
        <time>2015-10-12T15:28:35Z</time>
      </trkpt>
      <trkpt lat="43.91711" lon="5.49682">
        <ele>363.52</ele>
        <time>2015-10-12T15:28:41Z</time>
      </trkpt>
      <trkpt lat="43.91706" lon="5.49684">
        <ele>363.52</ele>
        <time>2015-10-12T15:28:42Z</time>
      </trkpt>
      <trkpt lat="43.91702" lon="5.49685">
        <ele>363.52</ele>
        <time>2015-10-12T15:28:43Z</time>
      </trkpt>
      <trkpt lat="43.91698" lon="5.49687">
        <ele>363.04</ele>
        <time>2015-10-12T15:28:44Z</time>
      </trkpt>
      <trkpt lat="43.91694" lon="5.49688">
        <ele>363.04</ele>
        <time>2015-10-12T15:28:45Z</time>
      </trkpt>
      <trkpt lat="43.9169" lon="5.49688">
        <ele>363.04</ele>
        <time>2015-10-12T15:28:46Z</time>
      </trkpt>
      <trkpt lat="43.91686" lon="5.49688">
        <ele>363.04</ele>
        <time>2015-10-12T15:28:47Z</time>
      </trkpt>
      <trkpt lat="43.91682" lon="5.49688">
        <ele>362.55</ele>
        <time>2015-10-12T15:28:48Z</time>
      </trkpt>
      <trkpt lat="43.91678" lon="5.49688">
        <ele>362.07</ele>
        <time>2015-10-12T15:28:49Z</time>
      </trkpt>
      <trkpt lat="43.91674" lon="5.49689">
        <ele>362.07</ele>
        <time>2015-10-12T15:28:50Z</time>
      </trkpt>
      <trkpt lat="43.91669" lon="5.49692">
        <ele>362.07</ele>
        <time>2015-10-12T15:28:51Z</time>
      </trkpt>
      <trkpt lat="43.91665" lon="5.49693">
        <ele>362.07</ele>
        <time>2015-10-12T15:28:52Z</time>
      </trkpt>
      <trkpt lat="43.91615" lon="5.49707">
        <ele>358.71</ele>
        <time>2015-10-12T15:29:02Z</time>
      </trkpt>
      <trkpt lat="43.9161" lon="5.49711">
        <ele>358.23</ele>
        <time>2015-10-12T15:29:03Z</time>
      </trkpt>
      <trkpt lat="43.91606" lon="5.49715">
        <ele>357.75</ele>
        <time>2015-10-12T15:29:04Z</time>
      </trkpt>
      <trkpt lat="43.91599" lon="5.49724">
        <ele>357.27</ele>
        <time>2015-10-12T15:29:11Z</time>
      </trkpt>
      <trkpt lat="43.91599" lon="5.49725">
        <ele>355.83</ele>
        <time>2015-10-12T15:29:34Z</time>
      </trkpt>
      <trkpt lat="43.91599" lon="5.49723">
        <ele>355.34</ele>
        <time>2015-10-12T15:30:04Z</time>
      </trkpt>
      <trkpt lat="43.91599" lon="5.49723">
        <ele>356.79</ele>
        <time>2015-10-12T15:30:38Z</time>
      </trkpt>
      <trkpt lat="43.91597" lon="5.49723">
        <ele>355.34</ele>
        <time>2015-10-12T15:31:12Z</time>
      </trkpt>
      <trkpt lat="43.91595" lon="5.49722">
        <ele>355.34</ele>
        <time>2015-10-12T15:31:13Z</time>
      </trkpt>
      <trkpt lat="43.91593" lon="5.4972">
        <ele>354.86</ele>
        <time>2015-10-12T15:31:14Z</time>
      </trkpt>
      <trkpt lat="43.9159" lon="5.49718">
        <ele>354.86</ele>
        <time>2015-10-12T15:31:15Z</time>
      </trkpt>
      <trkpt lat="43.91588" lon="5.49715">
        <ele>354.38</ele>
        <time>2015-10-12T15:31:16Z</time>
      </trkpt>
      <trkpt lat="43.91585" lon="5.49713">
        <ele>354.38</ele>
        <time>2015-10-12T15:31:17Z</time>
      </trkpt>
      <trkpt lat="43.91573" lon="5.49694">
        <ele>354.86</ele>
        <time>2015-10-12T15:31:27Z</time>
      </trkpt>
      <trkpt lat="43.91573" lon="5.49692">
        <ele>355.83</ele>
        <time>2015-10-12T15:31:41Z</time>
      </trkpt>
      <trkpt lat="43.91571" lon="5.49694">
        <ele>354.86</ele>
        <time>2015-10-12T15:58:17Z</time>
      </trkpt>
      <trkpt lat="43.9157" lon="5.49693">
        <ele>358.23</ele>
        <time>2015-10-12T15:58:45Z</time>
      </trkpt>
      <trkpt lat="43.91569" lon="5.49694">
        <ele>356.31</ele>
        <time>2015-10-12T15:59:07Z</time>
      </trkpt>
      <trkpt lat="43.9157" lon="5.49696">
        <ele>356.31</ele>
        <time>2015-10-12T15:59:12Z</time>
      </trkpt>
      <trkpt lat="43.91577" lon="5.49703">
        <ele>356.79</ele>
        <time>2015-10-12T15:59:17Z</time>
      </trkpt>
      <trkpt lat="43.91579" lon="5.49705">
        <ele>356.79</ele>
        <time>2015-10-12T15:59:18Z</time>
      </trkpt>
      <trkpt lat="43.9158" lon="5.49706">
        <ele>356.79</ele>
        <time>2015-10-12T15:59:19Z</time>
      </trkpt>
      <trkpt lat="43.91595" lon="5.49719">
        <ele>354.38</ele>
        <time>2015-10-12T15:59:28Z</time>
      </trkpt>
      <trkpt lat="43.91597" lon="5.49719">
        <ele>354.38</ele>
        <time>2015-10-12T15:59:29Z</time>
      </trkpt>
      <trkpt lat="43.91618" lon="5.49705">
        <ele>356.31</ele>
        <time>2015-10-12T15:59:44Z</time>
      </trkpt>
      <trkpt lat="43.91637" lon="5.49699">
        <ele>357.75</ele>
        <time>2015-10-12T15:59:59Z</time>
      </trkpt>
      <trkpt lat="43.91657" lon="5.49695">
        <ele>360.15</ele>
        <time>2015-10-12T16:00:15Z</time>
      </trkpt>
      <trkpt lat="43.91675" lon="5.49689">
        <ele>362.07</ele>
        <time>2015-10-12T16:00:31Z</time>
      </trkpt>
      <trkpt lat="43.91676" lon="5.49689">
        <ele>362.55</ele>
        <time>2015-10-12T16:00:32Z</time>
      </trkpt>
      <trkpt lat="43.91677" lon="5.49689">
        <ele>362.55</ele>
        <time>2015-10-12T16:00:33Z</time>
      </trkpt>
      <trkpt lat="43.91679" lon="5.49689">
        <ele>363.04</ele>
        <time>2015-10-12T16:00:34Z</time>
      </trkpt>
      <trkpt lat="43.9168" lon="5.49689">
        <ele>363.52</ele>
        <time>2015-10-12T16:00:35Z</time>
      </trkpt>
      <trkpt lat="43.91681" lon="5.49689">
        <ele>364</ele>
        <time>2015-10-12T16:00:36Z</time>
      </trkpt>
      <trkpt lat="43.91708" lon="5.49681">
        <ele>364.96</ele>
        <time>2015-10-12T16:00:55Z</time>
      </trkpt>
      <trkpt lat="43.91734" lon="5.4968">
        <ele>365.44</ele>
        <time>2015-10-12T16:01:12Z</time>
      </trkpt>
      <trkpt lat="43.91753" lon="5.49668">
        <ele>366.4</ele>
        <time>2015-10-12T16:01:28Z</time>
      </trkpt>
      <trkpt lat="43.91756" lon="5.49656">
        <ele>367.36</ele>
        <time>2015-10-12T16:01:35Z</time>
      </trkpt>
      <trkpt lat="43.91757" lon="5.49652">
        <ele>367.84</ele>
        <time>2015-10-12T16:01:37Z</time>
      </trkpt>
      <trkpt lat="43.91757" lon="5.49647">
        <ele>367.36</ele>
        <time>2015-10-12T16:01:39Z</time>
      </trkpt>
      <trkpt lat="43.91756" lon="5.49645">
        <ele>366.88</ele>
        <time>2015-10-12T16:01:40Z</time>
      </trkpt>
      <trkpt lat="43.91756" lon="5.49643">
        <ele>366.88</ele>
        <time>2015-10-12T16:01:41Z</time>
      </trkpt>
      <trkpt lat="43.91755" lon="5.49641">
        <ele>366.88</ele>
        <time>2015-10-12T16:01:42Z</time>
      </trkpt>
      <trkpt lat="43.91754" lon="5.49638">
        <ele>366.4</ele>
        <time>2015-10-12T16:01:43Z</time>
      </trkpt>
      <trkpt lat="43.91745" lon="5.49597">
        <ele>366.4</ele>
        <time>2015-10-12T16:01:57Z</time>
      </trkpt>
      <trkpt lat="43.91732" lon="5.49546">
        <ele>364</ele>
        <time>2015-10-12T16:02:12Z</time>
      </trkpt>
      <trkpt lat="43.91708" lon="5.4948">
        <ele>364</ele>
        <time>2015-10-12T16:02:29Z</time>
      </trkpt>
      <trkpt lat="43.91687" lon="5.49425">
        <ele>363.52</ele>
        <time>2015-10-12T16:02:41Z</time>
      </trkpt>
      <trkpt lat="43.91677" lon="5.49381">
        <ele>362.07</ele>
        <time>2015-10-12T16:02:51Z</time>
      </trkpt>
      <trkpt lat="43.91652" lon="5.49285">
        <ele>360.63</ele>
        <time>2015-10-12T16:03:07Z</time>
      </trkpt>
      <trkpt lat="43.91645" lon="5.49265">
        <ele>360.63</ele>
        <time>2015-10-12T16:03:11Z</time>
      </trkpt>
      <trkpt lat="43.91645" lon="5.49259">
        <ele>360.63</ele>
        <time>2015-10-12T16:03:12Z</time>
      </trkpt>
      <trkpt lat="43.91652" lon="5.49194">
        <ele>359.19</ele>
        <time>2015-10-12T16:03:25Z</time>
      </trkpt>
      <trkpt lat="43.91656" lon="5.49133">
        <ele>357.75</ele>
        <time>2015-10-12T16:03:37Z</time>
      </trkpt>
      <trkpt lat="43.9165" lon="5.4906">
        <ele>358.71</ele>
        <time>2015-10-12T16:03:53Z</time>
      </trkpt>
      <trkpt lat="43.91654" lon="5.4898">
        <ele>357.27</ele>
        <time>2015-10-12T16:04:11Z</time>
      </trkpt>
      <trkpt lat="43.91654" lon="5.48906">
        <ele>359.19</ele>
        <time>2015-10-12T16:04:29Z</time>
      </trkpt>
      <trkpt lat="43.91661" lon="5.48842">
        <ele>360.63</ele>
        <time>2015-10-12T16:04:45Z</time>
      </trkpt>
      <trkpt lat="43.91665" lon="5.48765">
        <ele>361.11</ele>
        <time>2015-10-12T16:05:02Z</time>
      </trkpt>
      <trkpt lat="43.91664" lon="5.4867">
        <ele>357.75</ele>
        <time>2015-10-12T16:05:20Z</time>
      </trkpt>
      <trkpt lat="43.9166" lon="5.4858">
        <ele>357.27</ele>
        <time>2015-10-12T16:05:37Z</time>
      </trkpt>
      <trkpt lat="43.91658" lon="5.48545">
        <ele>356.31</ele>
        <time>2015-10-12T16:05:44Z</time>
      </trkpt>
      <trkpt lat="43.91642" lon="5.48467">
        <ele>354.38</ele>
        <time>2015-10-12T16:05:55Z</time>
      </trkpt>
      <trkpt lat="43.91636" lon="5.48447">
        <ele>354.38</ele>
        <time>2015-10-12T16:05:58Z</time>
      </trkpt>
      <trkpt lat="43.91635" lon="5.48441">
        <ele>354.38</ele>
        <time>2015-10-12T16:05:59Z</time>
      </trkpt>
      <trkpt lat="43.91629" lon="5.48415">
        <ele>355.34</ele>
        <time>2015-10-12T16:06:03Z</time>
      </trkpt>
      <trkpt lat="43.91628" lon="5.48409">
        <ele>355.34</ele>
        <time>2015-10-12T16:06:04Z</time>
      </trkpt>
      <trkpt lat="43.91635" lon="5.48361">
        <ele>358.71</ele>
        <time>2015-10-12T16:06:16Z</time>
      </trkpt>
      <trkpt lat="43.91658" lon="5.48341">
        <ele>357.75</ele>
        <time>2015-10-12T16:06:27Z</time>
      </trkpt>
      <trkpt lat="43.91664" lon="5.48311">
        <ele>358.71</ele>
        <time>2015-10-12T16:06:36Z</time>
      </trkpt>
      <trkpt lat="43.91626" lon="5.48268">
        <ele>357.75</ele>
        <time>2015-10-12T16:06:50Z</time>
      </trkpt>
      <trkpt lat="43.91619" lon="5.48254">
        <ele>356.79</ele>
        <time>2015-10-12T16:06:53Z</time>
      </trkpt>
      <trkpt lat="43.91618" lon="5.48249">
        <ele>356.79</ele>
        <time>2015-10-12T16:06:54Z</time>
      </trkpt>
      <trkpt lat="43.91617" lon="5.48243">
        <ele>356.31</ele>
        <time>2015-10-12T16:06:55Z</time>
      </trkpt>
      <trkpt lat="43.91617" lon="5.48237">
        <ele>355.83</ele>
        <time>2015-10-12T16:06:56Z</time>
      </trkpt>
      <trkpt lat="43.91618" lon="5.4823">
        <ele>355.83</ele>
        <time>2015-10-12T16:06:57Z</time>
      </trkpt>
      <trkpt lat="43.91624" lon="5.48136">
        <ele>350.54</ele>
        <time>2015-10-12T16:07:10Z</time>
      </trkpt>
      <trkpt lat="43.91629" lon="5.48106">
        <ele>349.58</ele>
        <time>2015-10-12T16:07:18Z</time>
      </trkpt>
      <trkpt lat="43.91628" lon="5.48105">
        <ele>349.58</ele>
        <time>2015-10-12T16:07:19Z</time>
      </trkpt>
      <trkpt lat="43.91627" lon="5.48107">
        <ele>349.58</ele>
        <time>2015-10-12T16:07:20Z</time>
      </trkpt>
      <trkpt lat="43.91628" lon="5.48109">
        <ele>349.1</ele>
        <time>2015-10-12T16:07:22Z</time>
      </trkpt>
      <trkpt lat="43.91628" lon="5.48111">
        <ele>349.1</ele>
        <time>2015-10-12T16:07:23Z</time>
      </trkpt>
      <trkpt lat="43.91628" lon="5.48113">
        <ele>349.1</ele>
        <time>2015-10-12T16:07:24Z</time>
      </trkpt>
      <trkpt lat="43.91628" lon="5.48115">
        <ele>349.1</ele>
        <time>2015-10-12T16:07:25Z</time>
      </trkpt>
      <trkpt lat="43.91629" lon="5.48117">
        <ele>349.1</ele>
        <time>2015-10-12T16:07:26Z</time>
      </trkpt>
      <trkpt lat="43.9163" lon="5.48119">
        <ele>349.1</ele>
        <time>2015-10-12T16:07:27Z</time>
      </trkpt>
      <trkpt lat="43.91631" lon="5.48119">
        <ele>349.58</ele>
        <time>2015-10-12T16:07:42Z</time>
      </trkpt>
      <trkpt lat="43.91629" lon="5.48121">
        <ele>349.1</ele>
        <time>2015-10-12T16:07:56Z</time>
      </trkpt>
      <trkpt lat="43.91628" lon="5.48119">
        <ele>349.58</ele>
        <time>2015-10-12T16:07:57Z</time>
      </trkpt>
      <trkpt lat="43.91627" lon="5.48117">
        <ele>349.1</ele>
        <time>2015-10-12T16:07:58Z</time>
      </trkpt>
      <trkpt lat="43.91628" lon="5.48115">
        <ele>349.1</ele>
        <time>2015-10-12T16:07:59Z</time>
      </trkpt>
      <trkpt lat="43.91628" lon="5.48113">
        <ele>349.1</ele>
        <time>2015-10-12T16:08:00Z</time>
      </trkpt>
      <trkpt lat="43.91628" lon="5.4811">
        <ele>349.1</ele>
        <time>2015-10-12T16:08:01Z</time>
      </trkpt>
      <trkpt lat="43.91629" lon="5.48106">
        <ele>349.1</ele>
        <time>2015-10-12T16:08:02Z</time>
      </trkpt>
      <trkpt lat="43.91629" lon="5.48103">
        <ele>348.62</ele>
        <time>2015-10-12T16:08:03Z</time>
      </trkpt>
      <trkpt lat="43.9163" lon="5.48099">
        <ele>348.62</ele>
        <time>2015-10-12T16:08:04Z</time>
      </trkpt>
      <trkpt lat="43.91638" lon="5.48041">
        <ele>349.58</ele>
        <time>2015-10-12T16:08:21Z</time>
      </trkpt>
      <trkpt lat="43.91618" lon="5.47998">
        <ele>348.62</ele>
        <time>2015-10-12T16:08:37Z</time>
      </trkpt>
      <trkpt lat="43.91588" lon="5.47968">
        <ele>350.54</ele>
        <time>2015-10-12T16:08:50Z</time>
      </trkpt>
      <trkpt lat="43.91563" lon="5.47914">
        <ele>348.13</ele>
        <time>2015-10-12T16:09:04Z</time>
      </trkpt>
      <trkpt lat="43.91563" lon="5.47823">
        <ele>347.17</ele>
        <time>2015-10-12T16:09:22Z</time>
      </trkpt>
      <trkpt lat="43.91565" lon="5.4773">
        <ele>344.29</ele>
        <time>2015-10-12T16:09:38Z</time>
      </trkpt>
      <trkpt lat="43.91594" lon="5.47633">
        <ele>340.92</ele>
        <time>2015-10-12T16:09:49Z</time>
      </trkpt>
      <trkpt lat="43.91615" lon="5.47586">
        <ele>339.96</ele>
        <time>2015-10-12T16:09:54Z</time>
      </trkpt>
      <trkpt lat="43.9162" lon="5.47578">
        <ele>339.48</ele>
        <time>2015-10-12T16:09:55Z</time>
      </trkpt>
      <trkpt lat="43.91626" lon="5.47571">
        <ele>339.48</ele>
        <time>2015-10-12T16:09:56Z</time>
      </trkpt>
      <trkpt lat="43.91632" lon="5.47565">
        <ele>339.48</ele>
        <time>2015-10-12T16:09:57Z</time>
      </trkpt>
      <trkpt lat="43.91639" lon="5.47561">
        <ele>339.48</ele>
        <time>2015-10-12T16:09:58Z</time>
      </trkpt>
      <trkpt lat="43.91646" lon="5.47559">
        <ele>339.48</ele>
        <time>2015-10-12T16:09:59Z</time>
      </trkpt>
      <trkpt lat="43.9168" lon="5.47548">
        <ele>339</ele>
        <time>2015-10-12T16:10:04Z</time>
      </trkpt>
      <trkpt lat="43.91685" lon="5.47543">
        <ele>339</ele>
        <time>2015-10-12T16:10:05Z</time>
      </trkpt>
      <trkpt lat="43.91689" lon="5.47536">
        <ele>339</ele>
        <time>2015-10-12T16:10:06Z</time>
      </trkpt>
      <trkpt lat="43.91691" lon="5.47528">
        <ele>339</ele>
        <time>2015-10-12T16:10:07Z</time>
      </trkpt>
      <trkpt lat="43.91693" lon="5.47519">
        <ele>339</ele>
        <time>2015-10-12T16:10:08Z</time>
      </trkpt>
      <trkpt lat="43.91699" lon="5.47482">
        <ele>339.48</ele>
        <time>2015-10-12T16:10:13Z</time>
      </trkpt>
      <trkpt lat="43.91698" lon="5.47475">
        <ele>339.48</ele>
        <time>2015-10-12T16:10:14Z</time>
      </trkpt>
      <trkpt lat="43.91697" lon="5.47469">
        <ele>339.48</ele>
        <time>2015-10-12T16:10:15Z</time>
      </trkpt>
      <trkpt lat="43.91695" lon="5.47463">
        <ele>339.48</ele>
        <time>2015-10-12T16:10:16Z</time>
      </trkpt>
      <trkpt lat="43.91693" lon="5.47457">
        <ele>339.48</ele>
        <time>2015-10-12T16:10:17Z</time>
      </trkpt>
      <trkpt lat="43.9169" lon="5.47452">
        <ele>339</ele>
        <time>2015-10-12T16:10:18Z</time>
      </trkpt>
      <trkpt lat="43.91687" lon="5.47447">
        <ele>339</ele>
        <time>2015-10-12T16:10:19Z</time>
      </trkpt>
      <trkpt lat="43.91684" lon="5.47442">
        <ele>339</ele>
        <time>2015-10-12T16:10:20Z</time>
      </trkpt>
      <trkpt lat="43.91678" lon="5.47431">
        <ele>338.52</ele>
        <time>2015-10-12T16:10:22Z</time>
      </trkpt>
      <trkpt lat="43.91673" lon="5.47419">
        <ele>338.52</ele>
        <time>2015-10-12T16:10:24Z</time>
      </trkpt>
      <trkpt lat="43.91671" lon="5.47413">
        <ele>338.52</ele>
        <time>2015-10-12T16:10:25Z</time>
      </trkpt>
      <trkpt lat="43.91669" lon="5.47407">
        <ele>338.04</ele>
        <time>2015-10-12T16:10:26Z</time>
      </trkpt>
      <trkpt lat="43.91668" lon="5.47401">
        <ele>338.04</ele>
        <time>2015-10-12T16:10:27Z</time>
      </trkpt>
      <trkpt lat="43.91667" lon="5.47395">
        <ele>338.04</ele>
        <time>2015-10-12T16:10:28Z</time>
      </trkpt>
      <trkpt lat="43.91667" lon="5.47389">
        <ele>338.04</ele>
        <time>2015-10-12T16:10:29Z</time>
      </trkpt>
      <trkpt lat="43.91662" lon="5.47288">
        <ele>338.04</ele>
        <time>2015-10-12T16:10:48Z</time>
      </trkpt>
      <trkpt lat="43.91665" lon="5.47232">
        <ele>335.64</ele>
        <time>2015-10-12T16:11:00Z</time>
      </trkpt>
      <trkpt lat="43.91664" lon="5.47225">
        <ele>335.16</ele>
        <time>2015-10-12T16:11:01Z</time>
      </trkpt>
      <trkpt lat="43.91659" lon="5.47196">
        <ele>334.2</ele>
        <time>2015-10-12T16:11:05Z</time>
      </trkpt>
      <trkpt lat="43.91648" lon="5.47034">
        <ele>330.35</ele>
        <time>2015-10-12T16:11:22Z</time>
      </trkpt>
      <trkpt lat="43.91635" lon="5.46809">
        <ele>325.06</ele>
        <time>2015-10-12T16:11:43Z</time>
      </trkpt>
      <trkpt lat="43.91621" lon="5.46568">
        <ele>320.74</ele>
        <time>2015-10-12T16:12:06Z</time>
      </trkpt>
      <trkpt lat="43.91633" lon="5.46402">
        <ele>315.93</ele>
        <time>2015-10-12T16:12:21Z</time>
      </trkpt>
      <trkpt lat="43.91632" lon="5.4639">
        <ele>315.93</ele>
        <time>2015-10-12T16:12:22Z</time>
      </trkpt>
      <trkpt lat="43.9163" lon="5.46379">
        <ele>315.45</ele>
        <time>2015-10-12T16:12:23Z</time>
      </trkpt>
      <trkpt lat="43.91627" lon="5.46368">
        <ele>314.97</ele>
        <time>2015-10-12T16:12:24Z</time>
      </trkpt>
      <trkpt lat="43.91625" lon="5.46357">
        <ele>314.49</ele>
        <time>2015-10-12T16:12:25Z</time>
      </trkpt>
      <trkpt lat="43.91581" lon="5.46181">
        <ele>311.6</ele>
        <time>2015-10-12T16:12:43Z</time>
      </trkpt>
      <trkpt lat="43.91585" lon="5.46052">
        <ele>310.64</ele>
        <time>2015-10-12T16:12:58Z</time>
      </trkpt>
      <trkpt lat="43.91599" lon="5.45921">
        <ele>309.2</ele>
        <time>2015-10-12T16:13:14Z</time>
      </trkpt>
      <trkpt lat="43.91571" lon="5.45814">
        <ele>306.8</ele>
        <time>2015-10-12T16:13:28Z</time>
      </trkpt>
      <trkpt lat="43.91556" lon="5.45744">
        <ele>305.36</ele>
        <time>2015-10-12T16:13:36Z</time>
      </trkpt>
      <trkpt lat="43.91556" lon="5.45735">
        <ele>305.36</ele>
        <time>2015-10-12T16:13:37Z</time>
      </trkpt>
      <trkpt lat="43.91556" lon="5.45725">
        <ele>304.88</ele>
        <time>2015-10-12T16:13:38Z</time>
      </trkpt>
      <trkpt lat="43.9155" lon="5.4558">
        <ele>301.99</ele>
        <time>2015-10-12T16:13:53Z</time>
      </trkpt>
      <trkpt lat="43.91511" lon="5.4542">
        <ele>296.22</ele>
        <time>2015-10-12T16:14:09Z</time>
      </trkpt>
      <trkpt lat="43.91522" lon="5.4528">
        <ele>293.82</ele>
        <time>2015-10-12T16:14:22Z</time>
      </trkpt>
      <trkpt lat="43.91567" lon="5.45152">
        <ele>291.42</ele>
        <time>2015-10-12T16:14:36Z</time>
      </trkpt>
      <trkpt lat="43.9157" lon="5.45148">
        <ele>291.42</ele>
        <time>2015-10-12T16:14:37Z</time>
      </trkpt>
      <trkpt lat="43.91574" lon="5.45145">
        <ele>291.9</ele>
        <time>2015-10-12T16:14:38Z</time>
      </trkpt>
      <trkpt lat="43.91578" lon="5.45143">
        <ele>291.9</ele>
        <time>2015-10-12T16:14:39Z</time>
      </trkpt>
      <trkpt lat="43.91581" lon="5.45143">
        <ele>291.9</ele>
        <time>2015-10-12T16:14:40Z</time>
      </trkpt>
      <trkpt lat="43.91585" lon="5.45143">
        <ele>292.38</ele>
        <time>2015-10-12T16:14:41Z</time>
      </trkpt>
      <trkpt lat="43.91588" lon="5.45144">
        <ele>292.38</ele>
        <time>2015-10-12T16:14:42Z</time>
      </trkpt>
      <trkpt lat="43.9159" lon="5.45144">
        <ele>292.86</ele>
        <time>2015-10-12T16:14:43Z</time>
      </trkpt>
      <trkpt lat="43.91592" lon="5.45144">
        <ele>292.86</ele>
        <time>2015-10-12T16:14:44Z</time>
      </trkpt>
      <trkpt lat="43.91616" lon="5.45154">
        <ele>294.78</ele>
        <time>2015-10-12T16:14:55Z</time>
      </trkpt>
      <trkpt lat="43.91629" lon="5.4516">
        <ele>295.74</ele>
        <time>2015-10-12T16:15:03Z</time>
      </trkpt>
      <trkpt lat="43.9163" lon="5.45161">
        <ele>295.74</ele>
        <time>2015-10-12T16:15:04Z</time>
      </trkpt>
      <trkpt lat="43.91632" lon="5.45162">
        <ele>296.22</ele>
        <time>2015-10-12T16:15:05Z</time>
      </trkpt>
      <trkpt lat="43.91633" lon="5.45163">
        <ele>296.22</ele>
        <time>2015-10-12T16:15:06Z</time>
      </trkpt>
      <trkpt lat="43.91635" lon="5.45164">
        <ele>296.22</ele>
        <time>2015-10-12T16:15:07Z</time>
      </trkpt>
      <trkpt lat="43.91637" lon="5.45164">
        <ele>296.22</ele>
        <time>2015-10-12T16:15:08Z</time>
      </trkpt>
      <trkpt lat="43.91638" lon="5.45165">
        <ele>296.7</ele>
        <time>2015-10-12T16:15:09Z</time>
      </trkpt>
      <trkpt lat="43.91667" lon="5.45178">
        <ele>298.63</ele>
        <time>2015-10-12T16:15:26Z</time>
      </trkpt>
      <trkpt lat="43.91701" lon="5.45185">
        <ele>301.51</ele>
        <time>2015-10-12T16:15:45Z</time>
      </trkpt>
      <trkpt lat="43.91736" lon="5.45188">
        <ele>302.47</ele>
        <time>2015-10-12T16:16:00Z</time>
      </trkpt>
      <trkpt lat="43.91775" lon="5.45193">
        <ele>304.88</ele>
        <time>2015-10-12T16:16:16Z</time>
      </trkpt>
      <trkpt lat="43.91822" lon="5.45197">
        <ele>305.84</ele>
        <time>2015-10-12T16:16:38Z</time>
      </trkpt>
      <trkpt lat="43.91862" lon="5.45201">
        <ele>308.24</ele>
        <time>2015-10-12T16:16:57Z</time>
      </trkpt>
      <trkpt lat="43.9191" lon="5.45221">
        <ele>310.16</ele>
        <time>2015-10-12T16:17:20Z</time>
      </trkpt>
      <trkpt lat="43.91956" lon="5.45243">
        <ele>311.6</ele>
        <time>2015-10-12T16:17:44Z</time>
      </trkpt>
      <trkpt lat="43.91993" lon="5.45257">
        <ele>313.53</ele>
        <time>2015-10-12T16:18:02Z</time>
      </trkpt>
      <trkpt lat="43.92039" lon="5.45255">
        <ele>316.89</ele>
        <time>2015-10-12T16:18:24Z</time>
      </trkpt>
      <trkpt lat="43.92077" lon="5.45239">
        <ele>319.3</ele>
        <time>2015-10-12T16:18:44Z</time>
      </trkpt>
      <trkpt lat="43.92113" lon="5.45216">
        <ele>322.18</ele>
        <time>2015-10-12T16:19:02Z</time>
      </trkpt>
      <trkpt lat="43.92155" lon="5.45198">
        <ele>324.1</ele>
        <time>2015-10-12T16:19:21Z</time>
      </trkpt>
      <trkpt lat="43.92199" lon="5.45179">
        <ele>325.54</ele>
        <time>2015-10-12T16:19:41Z</time>
      </trkpt>
      <trkpt lat="43.92251" lon="5.45156">
        <ele>327.95</ele>
        <time>2015-10-12T16:20:05Z</time>
      </trkpt>
      <trkpt lat="43.92295" lon="5.45137">
        <ele>330.83</ele>
        <time>2015-10-12T16:20:26Z</time>
      </trkpt>
      <trkpt lat="43.92331" lon="5.45121">
        <ele>333.71</ele>
        <time>2015-10-12T16:20:43Z</time>
      </trkpt>
      <trkpt lat="43.92368" lon="5.45103">
        <ele>336.12</ele>
        <time>2015-10-12T16:21:01Z</time>
      </trkpt>
      <trkpt lat="43.92391" lon="5.45078">
        <ele>337.56</ele>
        <time>2015-10-12T16:21:16Z</time>
      </trkpt>
      <trkpt lat="43.92392" lon="5.4504">
        <ele>338.04</ele>
        <time>2015-10-12T16:21:27Z</time>
      </trkpt>
      <trkpt lat="43.9242" lon="5.45001">
        <ele>338.52</ele>
        <time>2015-10-12T16:21:43Z</time>
      </trkpt>
      <trkpt lat="43.92424" lon="5.44998">
        <ele>338.52</ele>
        <time>2015-10-12T16:21:46Z</time>
      </trkpt>
      <trkpt lat="43.92426" lon="5.44995">
        <ele>339</ele>
        <time>2015-10-12T16:22:01Z</time>
      </trkpt>
      <trkpt lat="43.92427" lon="5.44996">
        <ele>338.04</ele>
        <time>2015-10-12T16:22:23Z</time>
      </trkpt>
      <trkpt lat="43.92427" lon="5.44995">
        <ele>338.04</ele>
        <time>2015-10-12T16:22:24Z</time>
      </trkpt>
      <trkpt lat="43.9243" lon="5.44954">
        <ele>339</ele>
        <time>2015-10-12T16:22:38Z</time>
      </trkpt>
      <trkpt lat="43.92437" lon="5.44899">
        <ele>338.52</ele>
        <time>2015-10-12T16:22:52Z</time>
      </trkpt>
      <trkpt lat="43.92461" lon="5.44831">
        <ele>338.52</ele>
        <time>2015-10-12T16:23:09Z</time>
      </trkpt>
      <trkpt lat="43.92464" lon="5.44827">
        <ele>338.04</ele>
        <time>2015-10-12T16:23:10Z</time>
      </trkpt>
      <trkpt lat="43.92466" lon="5.44821">
        <ele>338.04</ele>
        <time>2015-10-12T16:23:11Z</time>
      </trkpt>
      <trkpt lat="43.92506" lon="5.44719">
        <ele>336.6</ele>
        <time>2015-10-12T16:23:28Z</time>
      </trkpt>
      <trkpt lat="43.92529" lon="5.446">
        <ele>335.64</ele>
        <time>2015-10-12T16:23:43Z</time>
      </trkpt>
      <trkpt lat="43.92529" lon="5.44454">
        <ele>333.23</ele>
        <time>2015-10-12T16:23:58Z</time>
      </trkpt>
      <trkpt lat="43.92544" lon="5.44267">
        <ele>330.83</ele>
        <time>2015-10-12T16:24:17Z</time>
      </trkpt>
      <trkpt lat="43.92588" lon="5.44132">
        <ele>330.35</ele>
        <time>2015-10-12T16:24:33Z</time>
      </trkpt>
      <trkpt lat="43.92608" lon="5.44077">
        <ele>330.35</ele>
        <time>2015-10-12T16:24:40Z</time>
      </trkpt>
      <trkpt lat="43.92609" lon="5.44069">
        <ele>330.35</ele>
        <time>2015-10-12T16:24:41Z</time>
      </trkpt>
      <trkpt lat="43.9261" lon="5.44061">
        <ele>330.35</ele>
        <time>2015-10-12T16:24:42Z</time>
      </trkpt>
      <trkpt lat="43.9261" lon="5.44052">
        <ele>330.35</ele>
        <time>2015-10-12T16:24:43Z</time>
      </trkpt>
      <trkpt lat="43.92609" lon="5.44044">
        <ele>330.35</ele>
        <time>2015-10-12T16:24:44Z</time>
      </trkpt>
      <trkpt lat="43.92608" lon="5.44036">
        <ele>330.35</ele>
        <time>2015-10-12T16:24:45Z</time>
      </trkpt>
      <trkpt lat="43.92606" lon="5.44029">
        <ele>330.83</ele>
        <time>2015-10-12T16:24:46Z</time>
      </trkpt>
      <trkpt lat="43.92604" lon="5.44021">
        <ele>330.83</ele>
        <time>2015-10-12T16:24:47Z</time>
      </trkpt>
      <trkpt lat="43.92602" lon="5.44014">
        <ele>330.83</ele>
        <time>2015-10-12T16:24:48Z</time>
      </trkpt>
      <trkpt lat="43.92562" lon="5.43915">
        <ele>333.23</ele>
        <time>2015-10-12T16:25:03Z</time>
      </trkpt>
      <trkpt lat="43.92542" lon="5.43812">
        <ele>333.71</ele>
        <time>2015-10-12T16:25:20Z</time>
      </trkpt>
      <trkpt lat="43.9254" lon="5.43743">
        <ele>337.08</ele>
        <time>2015-10-12T16:25:36Z</time>
      </trkpt>
      <trkpt lat="43.92542" lon="5.43677">
        <ele>340.44</ele>
        <time>2015-10-12T16:25:54Z</time>
      </trkpt>
      <trkpt lat="43.92545" lon="5.43611">
        <ele>344.29</ele>
        <time>2015-10-12T16:26:13Z</time>
      </trkpt>
      <trkpt lat="43.92545" lon="5.43545">
        <ele>348.62</ele>
        <time>2015-10-12T16:26:31Z</time>
      </trkpt>
      <trkpt lat="43.92548" lon="5.43481">
        <ele>351.98</ele>
        <time>2015-10-12T16:26:49Z</time>
      </trkpt>
      <trkpt lat="43.92553" lon="5.4341">
        <ele>353.9</ele>
        <time>2015-10-12T16:27:08Z</time>
      </trkpt>
      <trkpt lat="43.9256" lon="5.43354">
        <ele>353.42</ele>
        <time>2015-10-12T16:27:18Z</time>
      </trkpt>
      <trkpt lat="43.92585" lon="5.43244">
        <ele>351.02</ele>
        <time>2015-10-12T16:27:32Z</time>
      </trkpt>
      <trkpt lat="43.92634" lon="5.43074">
        <ele>344.29</ele>
        <time>2015-10-12T16:27:49Z</time>
      </trkpt>
      <trkpt lat="43.92696" lon="5.42915">
        <ele>337.56</ele>
        <time>2015-10-12T16:28:04Z</time>
      </trkpt>
      <trkpt lat="43.92768" lon="5.42726">
        <ele>331.31</ele>
        <time>2015-10-12T16:28:21Z</time>
      </trkpt>
      <trkpt lat="43.92807" lon="5.42544">
        <ele>325.06</ele>
        <time>2015-10-12T16:28:37Z</time>
      </trkpt>
      <trkpt lat="43.92836" lon="5.42344">
        <ele>323.14</ele>
        <time>2015-10-12T16:28:53Z</time>
      </trkpt>
      <trkpt lat="43.92845" lon="5.42274">
        <ele>322.66</ele>
        <time>2015-10-12T16:29:00Z</time>
      </trkpt>
      <trkpt lat="43.92847" lon="5.42264">
        <ele>322.66</ele>
        <time>2015-10-12T16:29:01Z</time>
      </trkpt>
      <trkpt lat="43.92849" lon="5.42255">
        <ele>322.66</ele>
        <time>2015-10-12T16:29:02Z</time>
      </trkpt>
      <trkpt lat="43.92872" lon="5.42097">
        <ele>317.85</ele>
        <time>2015-10-12T16:29:17Z</time>
      </trkpt>
      <trkpt lat="43.92913" lon="5.41895">
        <ele>312.09</ele>
        <time>2015-10-12T16:29:35Z</time>
      </trkpt>
      <trkpt lat="43.92939" lon="5.41638">
        <ele>303.43</ele>
        <time>2015-10-12T16:29:55Z</time>
      </trkpt>
      <trkpt lat="43.92979" lon="5.41484">
        <ele>300.07</ele>
        <time>2015-10-12T16:30:08Z</time>
      </trkpt>
      <trkpt lat="43.93001" lon="5.41401">
        <ele>299.59</ele>
        <time>2015-10-12T16:30:18Z</time>
      </trkpt>
      <trkpt lat="43.93" lon="5.41398">
        <ele>299.59</ele>
        <time>2015-10-12T16:30:19Z</time>
      </trkpt>
      <trkpt lat="43.92999" lon="5.41397">
        <ele>300.55</ele>
        <time>2015-10-12T16:30:29Z</time>
      </trkpt>
      <trkpt lat="43.92998" lon="5.41398">
        <ele>300.55</ele>
        <time>2015-10-12T16:31:03Z</time>
      </trkpt>
      <trkpt lat="43.92986" lon="5.41384">
        <ele>300.55</ele>
        <time>2015-10-12T16:31:13Z</time>
      </trkpt>
      <trkpt lat="43.92984" lon="5.41385">
        <ele>300.55</ele>
        <time>2015-10-12T16:31:14Z</time>
      </trkpt>
      <trkpt lat="43.92985" lon="5.41389">
        <ele>300.55</ele>
        <time>2015-10-12T16:31:16Z</time>
      </trkpt>
      <trkpt lat="43.92987" lon="5.4139">
        <ele>300.55</ele>
        <time>2015-10-12T16:31:17Z</time>
      </trkpt>
      <trkpt lat="43.92989" lon="5.41391">
        <ele>300.55</ele>
        <time>2015-10-12T16:31:18Z</time>
      </trkpt>
      <trkpt lat="43.9299" lon="5.41392">
        <ele>300.55</ele>
        <time>2015-10-12T16:31:19Z</time>
      </trkpt>
      <trkpt lat="43.92991" lon="5.41394">
        <ele>300.55</ele>
        <time>2015-10-12T16:31:20Z</time>
      </trkpt>
      <trkpt lat="43.93004" lon="5.41398">
        <ele>300.07</ele>
        <time>2015-10-12T16:31:27Z</time>
      </trkpt>
      <trkpt lat="43.93005" lon="5.41397">
        <ele>300.07</ele>
        <time>2015-10-12T16:31:28Z</time>
      </trkpt>
      <trkpt lat="43.93006" lon="5.41394">
        <ele>300.07</ele>
        <time>2015-10-12T16:31:29Z</time>
      </trkpt>
      <trkpt lat="43.93007" lon="5.41392">
        <ele>300.55</ele>
        <time>2015-10-12T16:31:30Z</time>
      </trkpt>
      <trkpt lat="43.93008" lon="5.4139">
        <ele>300.55</ele>
        <time>2015-10-12T16:31:31Z</time>
      </trkpt>
      <trkpt lat="43.93009" lon="5.41388">
        <ele>300.55</ele>
        <time>2015-10-12T16:31:32Z</time>
      </trkpt>
      <trkpt lat="43.9301" lon="5.41385">
        <ele>300.55</ele>
        <time>2015-10-12T16:31:33Z</time>
      </trkpt>
      <trkpt lat="43.93011" lon="5.41383">
        <ele>301.03</ele>
        <time>2015-10-12T16:31:34Z</time>
      </trkpt>
      <trkpt lat="43.93012" lon="5.41381">
        <ele>301.03</ele>
        <time>2015-10-12T16:31:35Z</time>
      </trkpt>
      <trkpt lat="43.93013" lon="5.41378">
        <ele>301.03</ele>
        <time>2015-10-12T16:31:36Z</time>
      </trkpt>
      <trkpt lat="43.93014" lon="5.41375">
        <ele>301.03</ele>
        <time>2015-10-12T16:31:37Z</time>
      </trkpt>
      <trkpt lat="43.93015" lon="5.41372">
        <ele>301.03</ele>
        <time>2015-10-12T16:31:38Z</time>
      </trkpt>
      <trkpt lat="43.93016" lon="5.41369">
        <ele>301.03</ele>
        <time>2015-10-12T16:31:39Z</time>
      </trkpt>
      <trkpt lat="43.93043" lon="5.41312">
        <ele>302.47</ele>
        <time>2015-10-12T16:31:57Z</time>
      </trkpt>
      <trkpt lat="43.9305" lon="5.41302">
        <ele>303.43</ele>
        <time>2015-10-12T16:32:01Z</time>
      </trkpt>
      <trkpt lat="43.93052" lon="5.41302">
        <ele>303.43</ele>
        <time>2015-10-12T16:32:02Z</time>
      </trkpt>
      <trkpt lat="43.93054" lon="5.41302">
        <ele>303.43</ele>
        <time>2015-10-12T16:32:03Z</time>
      </trkpt>
      <trkpt lat="43.9309" lon="5.41279">
        <ele>302.95</ele>
        <time>2015-10-12T16:32:17Z</time>
      </trkpt>
      <trkpt lat="43.93121" lon="5.41209">
        <ele>304.88</ele>
        <time>2015-10-12T16:32:35Z</time>
      </trkpt>
      <trkpt lat="43.9314" lon="5.41161">
        <ele>308.24</ele>
        <time>2015-10-12T16:32:50Z</time>
      </trkpt>
      <trkpt lat="43.9316" lon="5.41116">
        <ele>309.68</ele>
        <time>2015-10-12T16:33:09Z</time>
      </trkpt>
      <trkpt lat="43.93179" lon="5.41091">
        <ele>311.6</ele>
        <time>2015-10-12T16:33:24Z</time>
      </trkpt>
      <trkpt lat="43.932" lon="5.41069">
        <ele>314.49</ele>
        <time>2015-10-12T16:33:39Z</time>
      </trkpt>
      <trkpt lat="43.93228" lon="5.41045">
        <ele>317.85</ele>
        <time>2015-10-12T16:33:57Z</time>
      </trkpt>
      <trkpt lat="43.93257" lon="5.41015">
        <ele>319.3</ele>
        <time>2015-10-12T16:34:14Z</time>
      </trkpt>
      <trkpt lat="43.93291" lon="5.4098">
        <ele>321.7</ele>
        <time>2015-10-12T16:34:33Z</time>
      </trkpt>
      <trkpt lat="43.93323" lon="5.40937">
        <ele>323.14</ele>
        <time>2015-10-12T16:34:53Z</time>
      </trkpt>
      <trkpt lat="43.9336" lon="5.40888">
        <ele>325.54</ele>
        <time>2015-10-12T16:35:15Z</time>
      </trkpt>
      <trkpt lat="43.93389" lon="5.40847">
        <ele>327.47</ele>
        <time>2015-10-12T16:35:33Z</time>
      </trkpt>
      <trkpt lat="43.9342" lon="5.40806">
        <ele>329.87</ele>
        <time>2015-10-12T16:35:52Z</time>
      </trkpt>
      <trkpt lat="43.93449" lon="5.40761">
        <ele>331.79</ele>
        <time>2015-10-12T16:36:11Z</time>
      </trkpt>
      <trkpt lat="43.93478" lon="5.40717">
        <ele>334.2</ele>
        <time>2015-10-12T16:36:30Z</time>
      </trkpt>
      <trkpt lat="43.93514" lon="5.4067">
        <ele>336.6</ele>
        <time>2015-10-12T16:36:51Z</time>
      </trkpt>
      <trkpt lat="43.93535" lon="5.40633">
        <ele>336.6</ele>
        <time>2015-10-12T16:37:03Z</time>
      </trkpt>
      <trkpt lat="43.93556" lon="5.40584">
        <ele>338.04</ele>
        <time>2015-10-12T16:37:20Z</time>
      </trkpt>
      <trkpt lat="43.93582" lon="5.40531">
        <ele>339.96</ele>
        <time>2015-10-12T16:37:39Z</time>
      </trkpt>
      <trkpt lat="43.93606" lon="5.4048">
        <ele>342.37</ele>
        <time>2015-10-12T16:37:57Z</time>
      </trkpt>
      <trkpt lat="43.93628" lon="5.40433">
        <ele>344.77</ele>
        <time>2015-10-12T16:38:14Z</time>
      </trkpt>
      <trkpt lat="43.93656" lon="5.40373">
        <ele>347.65</ele>
        <time>2015-10-12T16:38:36Z</time>
      </trkpt>
      <trkpt lat="43.93679" lon="5.40325">
        <ele>350.06</ele>
        <time>2015-10-12T16:38:54Z</time>
      </trkpt>
      <trkpt lat="43.93697" lon="5.4026">
        <ele>350.06</ele>
        <time>2015-10-12T16:39:09Z</time>
      </trkpt>
      <trkpt lat="43.93726" lon="5.40131">
        <ele>348.13</ele>
        <time>2015-10-12T16:39:29Z</time>
      </trkpt>
      <trkpt lat="43.93739" lon="5.40009">
        <ele>346.69</ele>
        <time>2015-10-12T16:39:45Z</time>
      </trkpt>
      <trkpt lat="43.9375" lon="5.39848">
        <ele>343.81</ele>
        <time>2015-10-12T16:40:04Z</time>
      </trkpt>
      <trkpt lat="43.93766" lon="5.39707">
        <ele>338.52</ele>
        <time>2015-10-12T16:40:18Z</time>
      </trkpt>
      <trkpt lat="43.93759" lon="5.39627">
        <ele>335.16</ele>
        <time>2015-10-12T16:40:25Z</time>
      </trkpt>
      <trkpt lat="43.9376" lon="5.39616">
        <ele>334.2</ele>
        <time>2015-10-12T16:40:26Z</time>
      </trkpt>
      <trkpt lat="43.93761" lon="5.39606">
        <ele>333.71</ele>
        <time>2015-10-12T16:40:27Z</time>
      </trkpt>
      <trkpt lat="43.93765" lon="5.39594">
        <ele>333.23</ele>
        <time>2015-10-12T16:40:28Z</time>
      </trkpt>
      <trkpt lat="43.93768" lon="5.39586">
        <ele>332.75</ele>
        <time>2015-10-12T16:40:29Z</time>
      </trkpt>
      <trkpt lat="43.93829" lon="5.39419">
        <ele>325.06</ele>
        <time>2015-10-12T16:40:44Z</time>
      </trkpt>
      <trkpt lat="43.93878" lon="5.39205">
        <ele>318.81</ele>
        <time>2015-10-12T16:41:02Z</time>
      </trkpt>
      <trkpt lat="43.939" lon="5.39076">
        <ele>320.74</ele>
        <time>2015-10-12T16:41:16Z</time>
      </trkpt>
      <trkpt lat="43.939" lon="5.39069">
        <ele>320.74</ele>
        <time>2015-10-12T16:41:17Z</time>
      </trkpt>
      <trkpt lat="43.939" lon="5.39063">
        <ele>321.22</ele>
        <time>2015-10-12T16:41:18Z</time>
      </trkpt>
      <trkpt lat="43.93899" lon="5.39056">
        <ele>321.22</ele>
        <time>2015-10-12T16:41:19Z</time>
      </trkpt>
      <trkpt lat="43.93898" lon="5.39051">
        <ele>321.22</ele>
        <time>2015-10-12T16:41:20Z</time>
      </trkpt>
      <trkpt lat="43.93896" lon="5.39045">
        <ele>321.7</ele>
        <time>2015-10-12T16:41:21Z</time>
      </trkpt>
      <trkpt lat="43.93895" lon="5.3904">
        <ele>321.7</ele>
        <time>2015-10-12T16:41:22Z</time>
      </trkpt>
      <trkpt lat="43.93892" lon="5.39036">
        <ele>322.18</ele>
        <time>2015-10-12T16:41:23Z</time>
      </trkpt>
      <trkpt lat="43.9389" lon="5.39033">
        <ele>322.18</ele>
        <time>2015-10-12T16:41:24Z</time>
      </trkpt>
      <trkpt lat="43.93887" lon="5.3903">
        <ele>322.18</ele>
        <time>2015-10-12T16:41:25Z</time>
      </trkpt>
      <trkpt lat="43.93861" lon="5.38977">
        <ele>325.54</ele>
        <time>2015-10-12T16:41:40Z</time>
      </trkpt>
      <trkpt lat="43.93871" lon="5.38931">
        <ele>327.95</ele>
        <time>2015-10-12T16:41:54Z</time>
      </trkpt>
      <trkpt lat="43.93881" lon="5.38875">
        <ele>330.35</ele>
        <time>2015-10-12T16:42:12Z</time>
      </trkpt>
      <trkpt lat="43.93884" lon="5.38831">
        <ele>332.27</ele>
        <time>2015-10-12T16:42:25Z</time>
      </trkpt>
      <trkpt lat="43.93887" lon="5.38766">
        <ele>334.68</ele>
        <time>2015-10-12T16:42:44Z</time>
      </trkpt>
      <trkpt lat="43.93891" lon="5.38719">
        <ele>337.08</ele>
        <time>2015-10-12T16:42:57Z</time>
      </trkpt>
      <trkpt lat="43.93895" lon="5.38708">
        <ele>339.48</ele>
        <time>2015-10-12T16:43:09Z</time>
      </trkpt>
      <trkpt lat="43.93897" lon="5.38708">
        <ele>338.52</ele>
        <time>2015-10-12T16:43:21Z</time>
      </trkpt>
      <trkpt lat="43.93896" lon="5.3871">
        <ele>338.04</ele>
        <time>2015-10-12T16:43:49Z</time>
      </trkpt>
      <trkpt lat="43.93898" lon="5.38709">
        <ele>337.56</ele>
        <time>2015-10-12T16:43:54Z</time>
      </trkpt>
      <trkpt lat="43.939" lon="5.38708">
        <ele>337.56</ele>
        <time>2015-10-12T16:43:55Z</time>
      </trkpt>
      <trkpt lat="43.93902" lon="5.38708">
        <ele>337.56</ele>
        <time>2015-10-12T16:43:56Z</time>
      </trkpt>
      <trkpt lat="43.93904" lon="5.38709">
        <ele>337.56</ele>
        <time>2015-10-12T16:43:57Z</time>
      </trkpt>
      <trkpt lat="43.93907" lon="5.38709">
        <ele>338.04</ele>
        <time>2015-10-12T16:43:58Z</time>
      </trkpt>
      <trkpt lat="43.93944" lon="5.38715">
        <ele>339.96</ele>
        <time>2015-10-12T16:44:13Z</time>
      </trkpt>
      <trkpt lat="43.93966" lon="5.38713">
        <ele>342.37</ele>
        <time>2015-10-12T16:44:21Z</time>
      </trkpt>
      <trkpt lat="43.93968" lon="5.38707">
        <ele>342.85</ele>
        <time>2015-10-12T16:44:22Z</time>
      </trkpt>
      <trkpt lat="43.93968" lon="5.38705">
        <ele>343.33</ele>
        <time>2015-10-12T16:44:23Z</time>
      </trkpt>
      <trkpt lat="43.93968" lon="5.38701">
        <ele>343.33</ele>
        <time>2015-10-12T16:44:24Z</time>
      </trkpt>
      <trkpt lat="43.93967" lon="5.38698">
        <ele>343.81</ele>
        <time>2015-10-12T16:44:25Z</time>
      </trkpt>
      <trkpt lat="43.93959" lon="5.38646">
        <ele>344.77</ele>
        <time>2015-10-12T16:44:40Z</time>
      </trkpt>
      <trkpt lat="43.93961" lon="5.38644">
        <ele>344.77</ele>
        <time>2015-10-12T16:44:41Z</time>
      </trkpt>
      <trkpt lat="43.93963" lon="5.38643">
        <ele>344.77</ele>
        <time>2015-10-12T16:44:42Z</time>
      </trkpt>
      <trkpt lat="43.93965" lon="5.38642">
        <ele>345.25</ele>
        <time>2015-10-12T16:44:43Z</time>
      </trkpt>
      <trkpt lat="43.93967" lon="5.38642">
        <ele>345.25</ele>
        <time>2015-10-12T16:44:44Z</time>
      </trkpt>
      <trkpt lat="43.93996" lon="5.38625">
        <ele>347.65</ele>
        <time>2015-10-12T16:44:58Z</time>
      </trkpt>
      <trkpt lat="43.93988" lon="5.38567">
        <ele>347.17</ele>
        <time>2015-10-12T16:45:13Z</time>
      </trkpt>
      <trkpt lat="43.93985" lon="5.38547">
        <ele>346.69</ele>
        <time>2015-10-12T16:45:18Z</time>
      </trkpt>
      <trkpt lat="43.93988" lon="5.38544">
        <ele>346.69</ele>
        <time>2015-10-12T16:45:19Z</time>
      </trkpt>
      <trkpt lat="43.93991" lon="5.38542">
        <ele>347.17</ele>
        <time>2015-10-12T16:45:20Z</time>
      </trkpt>
      <trkpt lat="43.94013" lon="5.38537">
        <ele>350.54</ele>
        <time>2015-10-12T16:45:29Z</time>
      </trkpt>
      <trkpt lat="43.94016" lon="5.38534">
        <ele>351.02</ele>
        <time>2015-10-12T16:45:30Z</time>
      </trkpt>
      <trkpt lat="43.94017" lon="5.38532">
        <ele>351.02</ele>
        <time>2015-10-12T16:45:31Z</time>
      </trkpt>
      <trkpt lat="43.94019" lon="5.38528">
        <ele>351.5</ele>
        <time>2015-10-12T16:45:32Z</time>
      </trkpt>
      <trkpt lat="43.9402" lon="5.38525">
        <ele>351.98</ele>
        <time>2015-10-12T16:45:33Z</time>
      </trkpt>
      <trkpt lat="43.9402" lon="5.38521">
        <ele>351.98</ele>
        <time>2015-10-12T16:45:34Z</time>
      </trkpt>
      <trkpt lat="43.94032" lon="5.38466">
        <ele>351.02</ele>
        <time>2015-10-12T16:45:47Z</time>
      </trkpt>
      <trkpt lat="43.94061" lon="5.38456">
        <ele>352.46</ele>
        <time>2015-10-12T16:45:58Z</time>
      </trkpt>
      <trkpt lat="43.94066" lon="5.38451">
        <ele>352.46</ele>
        <time>2015-10-12T16:46:01Z</time>
      </trkpt>
      <trkpt lat="43.94067" lon="5.38449">
        <ele>352.94</ele>
        <time>2015-10-12T16:46:02Z</time>
      </trkpt>
      <trkpt lat="43.94089" lon="5.38415">
        <ele>354.86</ele>
        <time>2015-10-12T16:46:18Z</time>
      </trkpt>
      <trkpt lat="43.94092" lon="5.38408">
        <ele>354.86</ele>
        <time>2015-10-12T16:46:31Z</time>
      </trkpt>
      <trkpt lat="43.94101" lon="5.38396">
        <ele>355.34</ele>
        <time>2015-10-12T16:46:53Z</time>
      </trkpt>
      <trkpt lat="43.9412" lon="5.3836">
        <ele>359.19</ele>
        <time>2015-10-12T16:47:11Z</time>
      </trkpt>
      <trkpt lat="43.94129" lon="5.38345">
        <ele>360.63</ele>
        <time>2015-10-12T16:47:20Z</time>
      </trkpt>
      <trkpt lat="43.94157" lon="5.38339">
        <ele>363.52</ele>
        <time>2015-10-12T16:47:37Z</time>
      </trkpt>
      <trkpt lat="43.94178" lon="5.38335">
        <ele>364.48</ele>
        <time>2015-10-12T16:47:51Z</time>
      </trkpt>
      <trkpt lat="43.94179" lon="5.38334">
        <ele>364.48</ele>
        <time>2015-10-12T16:47:52Z</time>
      </trkpt>
      <trkpt lat="43.94181" lon="5.38334">
        <ele>364</ele>
        <time>2015-10-12T16:47:53Z</time>
      </trkpt>
      <trkpt lat="43.94204" lon="5.38331">
        <ele>368.32</ele>
        <time>2015-10-12T16:48:08Z</time>
      </trkpt>
      <trkpt lat="43.94227" lon="5.38329">
        <ele>372.17</ele>
        <time>2015-10-12T16:48:23Z</time>
      </trkpt>
      <trkpt lat="43.94257" lon="5.38325">
        <ele>376.97</ele>
        <time>2015-10-12T16:48:41Z</time>
      </trkpt>
      <trkpt lat="43.94263" lon="5.38323">
        <ele>378.42</ele>
        <time>2015-10-12T16:48:45Z</time>
      </trkpt>
      <trkpt lat="43.94263" lon="5.38321">
        <ele>378.9</ele>
        <time>2015-10-12T16:48:46Z</time>
      </trkpt>
      <trkpt lat="43.94264" lon="5.38317">
        <ele>378.9</ele>
        <time>2015-10-12T16:48:47Z</time>
      </trkpt>
      <trkpt lat="43.94264" lon="5.38316">
        <ele>378.9</ele>
        <time>2015-10-12T16:48:48Z</time>
      </trkpt>
      <trkpt lat="43.94264" lon="5.38313">
        <ele>379.38</ele>
        <time>2015-10-12T16:48:49Z</time>
      </trkpt>
      <trkpt lat="43.94265" lon="5.3831">
        <ele>379.38</ele>
        <time>2015-10-12T16:48:50Z</time>
      </trkpt>
      <trkpt lat="43.94264" lon="5.38308">
        <ele>379.38</ele>
        <time>2015-10-12T16:48:51Z</time>
      </trkpt>
      <trkpt lat="43.94264" lon="5.38305">
        <ele>379.86</ele>
        <time>2015-10-12T16:48:52Z</time>
      </trkpt>
      <trkpt lat="43.94249" lon="5.38254">
        <ele>380.82</ele>
        <time>2015-10-12T16:49:08Z</time>
      </trkpt>
      <trkpt lat="43.9424" lon="5.38197">
        <ele>381.78</ele>
        <time>2015-10-12T16:49:26Z</time>
      </trkpt>
      <trkpt lat="43.94234" lon="5.38176">
        <ele>381.3</ele>
        <time>2015-10-12T16:49:31Z</time>
      </trkpt>
      <trkpt lat="43.94232" lon="5.3817">
        <ele>380.82</ele>
        <time>2015-10-12T16:49:32Z</time>
      </trkpt>
      <trkpt lat="43.94196" lon="5.38078">
        <ele>378.9</ele>
        <time>2015-10-12T16:49:45Z</time>
      </trkpt>
      <trkpt lat="43.94179" lon="5.3804">
        <ele>378.9</ele>
        <time>2015-10-12T16:49:51Z</time>
      </trkpt>
      <trkpt lat="43.94177" lon="5.38034">
        <ele>378.9</ele>
        <time>2015-10-12T16:49:52Z</time>
      </trkpt>
      <trkpt lat="43.94175" lon="5.38028">
        <ele>378.42</ele>
        <time>2015-10-12T16:49:53Z</time>
      </trkpt>
      <trkpt lat="43.94174" lon="5.38022">
        <ele>378.42</ele>
        <time>2015-10-12T16:49:54Z</time>
      </trkpt>
      <trkpt lat="43.94174" lon="5.38015">
        <ele>378.42</ele>
        <time>2015-10-12T16:49:55Z</time>
      </trkpt>
      <trkpt lat="43.94174" lon="5.3801">
        <ele>377.94</ele>
        <time>2015-10-12T16:49:56Z</time>
      </trkpt>
      <trkpt lat="43.94173" lon="5.38004">
        <ele>377.45</ele>
        <time>2015-10-12T16:49:57Z</time>
      </trkpt>
      <trkpt lat="43.94173" lon="5.37998">
        <ele>377.45</ele>
        <time>2015-10-12T16:49:58Z</time>
      </trkpt>
      <trkpt lat="43.94179" lon="5.37956">
        <ele>376.97</ele>
        <time>2015-10-12T16:50:04Z</time>
      </trkpt>
      <trkpt lat="43.9418" lon="5.3795">
        <ele>376.97</ele>
        <time>2015-10-12T16:50:05Z</time>
      </trkpt>
      <trkpt lat="43.94183" lon="5.37945">
        <ele>376.49</ele>
        <time>2015-10-12T16:50:06Z</time>
      </trkpt>
      <trkpt lat="43.94184" lon="5.37942">
        <ele>376.01</ele>
        <time>2015-10-12T16:50:07Z</time>
      </trkpt>
      <trkpt lat="43.94186" lon="5.3794">
        <ele>375.53</ele>
        <time>2015-10-12T16:50:08Z</time>
      </trkpt>
      <trkpt lat="43.94187" lon="5.37938">
        <ele>375.53</ele>
        <time>2015-10-12T16:50:09Z</time>
      </trkpt>
      <trkpt lat="43.94188" lon="5.37936">
        <ele>375.05</ele>
        <time>2015-10-12T16:50:10Z</time>
      </trkpt>
      <trkpt lat="43.94187" lon="5.37933">
        <ele>375.05</ele>
        <time>2015-10-12T16:50:11Z</time>
      </trkpt>
      <trkpt lat="43.94186" lon="5.37933">
        <ele>375.05</ele>
        <time>2015-10-12T16:50:12Z</time>
      </trkpt>
      <trkpt lat="43.94185" lon="5.37934">
        <ele>375.05</ele>
        <time>2015-10-12T16:50:13Z</time>
      </trkpt>
      <trkpt lat="43.94184" lon="5.37934">
        <ele>375.05</ele>
        <time>2015-10-12T16:50:29Z</time>
      </trkpt>
      <trkpt lat="43.94185" lon="5.37934">
        <ele>375.05</ele>
        <time>2015-10-12T16:50:59Z</time>
      </trkpt>
      <trkpt lat="43.94186" lon="5.37935">
        <ele>376.01</ele>
        <time>2015-10-12T16:51:09Z</time>
      </trkpt>
      <trkpt lat="43.94186" lon="5.37935">
        <ele>376.01</ele>
        <time>2015-10-12T16:51:10Z</time>
      </trkpt>
      <trkpt lat="43.94188" lon="5.37934">
        <ele>376.01</ele>
        <time>2015-10-12T16:51:11Z</time>
      </trkpt>
      <trkpt lat="43.94189" lon="5.37933">
        <ele>376.01</ele>
        <time>2015-10-12T16:51:12Z</time>
      </trkpt>
      <trkpt lat="43.94189" lon="5.37932">
        <ele>376.01</ele>
        <time>2015-10-12T16:51:13Z</time>
      </trkpt>
      <trkpt lat="43.9419" lon="5.3793">
        <ele>375.53</ele>
        <time>2015-10-12T16:51:14Z</time>
      </trkpt>
      <trkpt lat="43.94208" lon="5.379">
        <ele>374.57</ele>
        <time>2015-10-12T16:51:26Z</time>
      </trkpt>
      <trkpt lat="43.94225" lon="5.3787">
        <ele>375.05</ele>
        <time>2015-10-12T16:51:39Z</time>
      </trkpt>
      <trkpt lat="43.94223" lon="5.3787">
        <ele>375.05</ele>
        <time>2015-10-12T16:51:41Z</time>
      </trkpt>
      <trkpt lat="43.94221" lon="5.37873">
        <ele>374.57</ele>
        <time>2015-10-12T16:51:42Z</time>
      </trkpt>
      <trkpt lat="43.9422" lon="5.37876">
        <ele>374.57</ele>
        <time>2015-10-12T16:51:43Z</time>
      </trkpt>
      <trkpt lat="43.94218" lon="5.37879">
        <ele>374.57</ele>
        <time>2015-10-12T16:51:44Z</time>
      </trkpt>
      <trkpt lat="43.94216" lon="5.37882">
        <ele>374.57</ele>
        <time>2015-10-12T16:51:45Z</time>
      </trkpt>
      <trkpt lat="43.94202" lon="5.37905">
        <ele>374.57</ele>
        <time>2015-10-12T16:51:53Z</time>
      </trkpt>
      <trkpt lat="43.942" lon="5.37905">
        <ele>374.57</ele>
        <time>2015-10-12T16:51:54Z</time>
      </trkpt>
      <trkpt lat="43.94198" lon="5.37903">
        <ele>374.09</ele>
        <time>2015-10-12T16:51:55Z</time>
      </trkpt>
      <trkpt lat="43.94198" lon="5.37901">
        <ele>374.09</ele>
        <time>2015-10-12T16:51:56Z</time>
      </trkpt>
      <trkpt lat="43.94199" lon="5.37899">
        <ele>374.09</ele>
        <time>2015-10-12T16:51:57Z</time>
      </trkpt>
      <trkpt lat="43.942" lon="5.37897">
        <ele>374.09</ele>
        <time>2015-10-12T16:51:58Z</time>
      </trkpt>
      <trkpt lat="43.94201" lon="5.37894">
        <ele>373.61</ele>
        <time>2015-10-12T16:51:59Z</time>
      </trkpt>
      <trkpt lat="43.94202" lon="5.37891">
        <ele>373.61</ele>
        <time>2015-10-12T16:52:00Z</time>
      </trkpt>
      <trkpt lat="43.94228" lon="5.37843">
        <ele>372.65</ele>
        <time>2015-10-12T16:52:14Z</time>
      </trkpt>
      <trkpt lat="43.94249" lon="5.37794">
        <ele>373.13</ele>
        <time>2015-10-12T16:52:29Z</time>
      </trkpt>
      <trkpt lat="43.94252" lon="5.3774">
        <ele>369.76</ele>
        <time>2015-10-12T16:52:39Z</time>
      </trkpt>
      <trkpt lat="43.94261" lon="5.37682">
        <ele>368.8</ele>
        <time>2015-10-12T16:52:50Z</time>
      </trkpt>
      <trkpt lat="43.94262" lon="5.37665">
        <ele>368.32</ele>
        <time>2015-10-12T16:52:53Z</time>
      </trkpt>
      <trkpt lat="43.94263" lon="5.37658">
        <ele>368.32</ele>
        <time>2015-10-12T16:52:54Z</time>
      </trkpt>
      <trkpt lat="43.94264" lon="5.37652">
        <ele>368.8</ele>
        <time>2015-10-12T16:52:55Z</time>
      </trkpt>
      <trkpt lat="43.94266" lon="5.37639">
        <ele>368.8</ele>
        <time>2015-10-12T16:52:57Z</time>
      </trkpt>
      <trkpt lat="43.94269" lon="5.37578">
        <ele>368.32</ele>
        <time>2015-10-12T16:53:05Z</time>
      </trkpt>
      <trkpt lat="43.94269" lon="5.3757">
        <ele>368.32</ele>
        <time>2015-10-12T16:53:06Z</time>
      </trkpt>
      <trkpt lat="43.94269" lon="5.37534">
        <ele>368.32</ele>
        <time>2015-10-12T16:53:16Z</time>
      </trkpt>
      <trkpt lat="43.94268" lon="5.37532">
        <ele>368.32</ele>
        <time>2015-10-12T16:53:34Z</time>
      </trkpt>
      <trkpt lat="43.94268" lon="5.3753">
        <ele>368.32</ele>
        <time>2015-10-12T16:53:35Z</time>
      </trkpt>
      <trkpt lat="43.94268" lon="5.37529">
        <ele>368.32</ele>
        <time>2015-10-12T16:53:36Z</time>
      </trkpt>
      <trkpt lat="43.94271" lon="5.3749">
        <ele>369.28</ele>
        <time>2015-10-12T16:53:48Z</time>
      </trkpt>
      <trkpt lat="43.94274" lon="5.37476">
        <ele>369.76</ele>
        <time>2015-10-12T16:53:53Z</time>
      </trkpt>
      <trkpt lat="43.94274" lon="5.37473">
        <ele>369.76</ele>
        <time>2015-10-12T16:53:54Z</time>
      </trkpt>
      <trkpt lat="43.94273" lon="5.37471">
        <ele>369.76</ele>
        <time>2015-10-12T16:53:55Z</time>
      </trkpt>
      <trkpt lat="43.94272" lon="5.37469">
        <ele>369.28</ele>
        <time>2015-10-12T16:53:56Z</time>
      </trkpt>
      <trkpt lat="43.94271" lon="5.37467">
        <ele>369.28</ele>
        <time>2015-10-12T16:53:57Z</time>
      </trkpt>
      <trkpt lat="43.94269" lon="5.37465">
        <ele>368.8</ele>
        <time>2015-10-12T16:53:58Z</time>
      </trkpt>
      <trkpt lat="43.94267" lon="5.37463">
        <ele>368.8</ele>
        <time>2015-10-12T16:53:59Z</time>
      </trkpt>
      <trkpt lat="43.94265" lon="5.37461">
        <ele>368.32</ele>
        <time>2015-10-12T16:54:00Z</time>
      </trkpt>
      <trkpt lat="43.94263" lon="5.37459">
        <ele>368.32</ele>
        <time>2015-10-12T16:54:01Z</time>
      </trkpt>
      <trkpt lat="43.94259" lon="5.37454">
        <ele>368.32</ele>
        <time>2015-10-12T16:54:10Z</time>
      </trkpt>
      <trkpt lat="43.94261" lon="5.37456">
        <ele>367.36</ele>
        <time>2015-10-12T16:54:25Z</time>
      </trkpt>
      <trkpt lat="43.9427" lon="5.37465">
        <ele>367.36</ele>
        <time>2015-10-12T16:54:35Z</time>
      </trkpt>
      <trkpt lat="43.94274" lon="5.37467">
        <ele>368.32</ele>
        <time>2015-10-12T16:54:38Z</time>
      </trkpt>
      <trkpt lat="43.94277" lon="5.37457">
        <ele>368.32</ele>
        <time>2015-10-12T16:54:44Z</time>
      </trkpt>
      <trkpt lat="43.94276" lon="5.37409">
        <ele>368.32</ele>
        <time>2015-10-12T16:55:01Z</time>
      </trkpt>
      <trkpt lat="43.94276" lon="5.37339">
        <ele>364.96</ele>
        <time>2015-10-12T16:55:16Z</time>
      </trkpt>
      <trkpt lat="43.94277" lon="5.3732">
        <ele>364.96</ele>
        <time>2015-10-12T16:55:27Z</time>
      </trkpt>
      <trkpt lat="43.94277" lon="5.37319">
        <ele>364.96</ele>
        <time>2015-10-12T16:55:39Z</time>
      </trkpt>
      <trkpt lat="43.9428" lon="5.37317">
        <ele>364.96</ele>
        <time>2015-10-12T16:55:55Z</time>
      </trkpt>
      <trkpt lat="43.94279" lon="5.37314">
        <ele>365.44</ele>
        <time>2015-10-12T16:56:02Z</time>
      </trkpt>
      <trkpt lat="43.94278" lon="5.37313">
        <ele>364.96</ele>
        <time>2015-10-12T16:56:03Z</time>
      </trkpt>
      <trkpt lat="43.94277" lon="5.37311">
        <ele>364.96</ele>
        <time>2015-10-12T16:56:04Z</time>
      </trkpt>
      <trkpt lat="43.94277" lon="5.37309">
        <ele>364.96</ele>
        <time>2015-10-12T16:56:05Z</time>
      </trkpt>
      <trkpt lat="43.94277" lon="5.37307">
        <ele>364.48</ele>
        <time>2015-10-12T16:56:06Z</time>
      </trkpt>
      <trkpt lat="43.94276" lon="5.37304">
        <ele>364.48</ele>
        <time>2015-10-12T16:56:07Z</time>
      </trkpt>
      <trkpt lat="43.94276" lon="5.37301">
        <ele>364</ele>
        <time>2015-10-12T16:56:08Z</time>
      </trkpt>
      <trkpt lat="43.94276" lon="5.37297">
        <ele>364</ele>
        <time>2015-10-12T16:56:09Z</time>
      </trkpt>
      <trkpt lat="43.94273" lon="5.37234">
        <ele>360.15</ele>
        <time>2015-10-12T16:56:24Z</time>
      </trkpt>
      <trkpt lat="43.94274" lon="5.37232">
        <ele>360.15</ele>
        <time>2015-10-12T16:56:25Z</time>
      </trkpt>
      <trkpt lat="43.94283" lon="5.37232">
        <ele>359.67</ele>
        <time>2015-10-12T16:56:30Z</time>
      </trkpt>
      <trkpt lat="43.94314" lon="5.37215">
        <ele>360.63</ele>
        <time>2015-10-12T16:56:45Z</time>
      </trkpt>
      <trkpt lat="43.94324" lon="5.37209">
        <ele>359.19</ele>
        <time>2015-10-12T16:56:58Z</time>
      </trkpt>
      <trkpt lat="43.94323" lon="5.37208">
        <ele>359.19</ele>
        <time>2015-10-12T16:57:15Z</time>
      </trkpt>
      <trkpt lat="43.94321" lon="5.37207">
        <ele>362.07</ele>
        <time>2015-10-12T16:57:27Z</time>
      </trkpt>
      <trkpt lat="43.9432" lon="5.37209">
        <ele>365.44</ele>
        <time>2015-10-12T16:57:42Z</time>
      </trkpt>
    </trkseg>
  </trk>
</gpx>